<?xml version="1.0" encoding="UTF-8" standalone="no" ?>
<gpx xmlns="http://www.topografix.com/GPX/1/1" xmlns:xsi="http://www.w3.org/2001/XMLSchema-instance" xsi:schemaLocation="http://www.topografix.com/GPX/1/1 http://www.topografix.com/GPX/1/1/gpx.xsd" version="1.1" creator="VisuGPX - https://www.visugpx.com">
  <metadata>
    <name>Edirne-Mostar</name>
  </metadata>
  <trk>
    <name><![CDATA[Tour d'Europe: étape 645]]></name>
    <extensions>
      <line xmlns="http://www.topografix.com/GPX/gpx_style/0/2">
        <color>0000FF</color>
        <width>4</width>
      </line>
    </extensions>
    <trkseg>
      <trkpt lat="42.67799" lon="23.28777">
        <ele>646.701211</ele>
        <time>2022-04-04T07:30:43.045Z</time>
      </trkpt>
      <trkpt lat="42.67788" lon="23.28776">
        <ele>646.701211</ele>
        <time>2022-04-04T07:30:44.844Z</time>
      </trkpt>
      <trkpt lat="42.67768" lon="23.28775">
        <ele>646.701211</ele>
        <time>2022-04-04T07:31:07.852Z</time>
      </trkpt>
      <trkpt lat="42.67758" lon="23.28736">
        <ele>646.701211</ele>
        <time>2022-04-04T07:31:23.861Z</time>
      </trkpt>
      <trkpt lat="42.67751" lon="23.28727">
        <ele>646.701211</ele>
        <time>2022-04-04T07:31:27.885Z</time>
      </trkpt>
      <trkpt lat="42.67743" lon="23.28716">
        <ele>646.701211</ele>
        <time>2022-04-04T07:31:31.870Z</time>
      </trkpt>
      <trkpt lat="42.67744" lon="23.28704">
        <ele>646.671185</ele>
        <time>2022-04-04T07:31:35.859Z</time>
      </trkpt>
      <trkpt lat="42.67748" lon="23.28691">
        <ele>646.436352</ele>
        <time>2022-04-04T07:31:40.957Z</time>
      </trkpt>
      <trkpt lat="42.67752" lon="23.28679">
        <ele>646.231454</ele>
        <time>2022-04-04T07:31:43.877Z</time>
      </trkpt>
      <trkpt lat="42.67755" lon="23.28667">
        <ele>646.021121</ele>
        <time>2022-04-04T07:31:46.859Z</time>
      </trkpt>
      <trkpt lat="42.67761" lon="23.28655">
        <ele>645.777208</ele>
        <time>2022-04-04T07:31:50.865Z</time>
      </trkpt>
      <trkpt lat="42.67765" lon="23.28643">
        <ele>645.559803</ele>
        <time>2022-04-04T07:31:54.905Z</time>
      </trkpt>
      <trkpt lat="42.67772" lon="23.28632">
        <ele>645.323878</ele>
        <time>2022-04-04T07:31:57.858Z</time>
      </trkpt>
      <trkpt lat="42.6778" lon="23.28621">
        <ele>645.064057</ele>
        <time>2022-04-04T07:32:01.867Z</time>
      </trkpt>
      <trkpt lat="42.67786" lon="23.2861">
        <ele>644.836195</ele>
        <time>2022-04-04T07:32:06.858Z</time>
      </trkpt>
      <trkpt lat="42.67793" lon="23.286">
        <ele>644.600114</ele>
        <time>2022-04-04T07:32:10.855Z</time>
      </trkpt>
      <trkpt lat="42.67802" lon="23.28594">
        <ele>644.37522</ele>
        <time>2022-04-04T07:32:13.985Z</time>
      </trkpt>
      <trkpt lat="42.6781" lon="23.28583">
        <ele>644.125793</ele>
        <time>2022-04-04T07:32:17.864Z</time>
      </trkpt>
      <trkpt lat="42.67818" lon="23.28575">
        <ele>643.906045</ele>
        <time>2022-04-04T07:32:21.860Z</time>
      </trkpt>
      <trkpt lat="42.67827" lon="23.28565">
        <ele>643.63452</ele>
        <time>2022-04-04T07:32:26.874Z</time>
      </trkpt>
      <trkpt lat="42.67836" lon="23.28559">
        <ele>643.419858</ele>
        <time>2022-04-04T07:32:29.841Z</time>
      </trkpt>
      <trkpt lat="42.67845" lon="23.28551">
        <ele>643.163159</ele>
        <time>2022-04-04T07:32:33.853Z</time>
      </trkpt>
      <trkpt lat="42.67852" lon="23.28537">
        <ele>642.895338</ele>
        <time>2022-04-04T07:32:37.859Z</time>
      </trkpt>
      <trkpt lat="42.67858" lon="23.28527">
        <ele>642.680777</ele>
        <time>2022-04-04T07:32:41.850Z</time>
      </trkpt>
      <trkpt lat="42.67866" lon="23.28518">
        <ele>642.759742</ele>
        <time>2022-04-04T07:32:46.873Z</time>
      </trkpt>
      <trkpt lat="42.67874" lon="23.28512">
        <ele>642.868501</ele>
        <time>2022-04-04T07:32:50.861Z</time>
      </trkpt>
      <trkpt lat="42.67888" lon="23.28495">
        <ele>643.097315</ele>
        <time>2022-04-04T07:34:18.901Z</time>
      </trkpt>
      <trkpt lat="42.6789" lon="23.28481">
        <ele>643.218819</ele>
        <time>2022-04-04T07:34:21.860Z</time>
      </trkpt>
      <trkpt lat="42.67895" lon="23.28469">
        <ele>643.336693</ele>
        <time>2022-04-04T07:34:24.866Z</time>
      </trkpt>
      <trkpt lat="42.679" lon="23.28458">
        <ele>643.453387</ele>
        <time>2022-04-04T07:34:27.885Z</time>
      </trkpt>
      <trkpt lat="42.67905" lon="23.28447">
        <ele>643.565691</ele>
        <time>2022-04-04T07:34:30.857Z</time>
      </trkpt>
      <trkpt lat="42.67912" lon="23.28434">
        <ele>643.705602</ele>
        <time>2022-04-04T07:34:34.865Z</time>
      </trkpt>
      <trkpt lat="42.67918" lon="23.28423">
        <ele>643.82498</ele>
        <time>2022-04-04T07:34:37.850Z</time>
      </trkpt>
      <trkpt lat="42.67922" lon="23.28411">
        <ele>643.941872</ele>
        <time>2022-04-04T07:34:40.857Z</time>
      </trkpt>
      <trkpt lat="42.67928" lon="23.284">
        <ele>644.057178</ele>
        <time>2022-04-04T07:34:43.869Z</time>
      </trkpt>
      <trkpt lat="42.67935" lon="23.28389">
        <ele>644.189609</ele>
        <time>2022-04-04T07:34:46.850Z</time>
      </trkpt>
      <trkpt lat="42.67941" lon="23.28375">
        <ele>644.331179</ele>
        <time>2022-04-04T07:34:49.859Z</time>
      </trkpt>
      <trkpt lat="42.67947" lon="23.28366">
        <ele>644.442425</ele>
        <time>2022-04-04T07:34:52.848Z</time>
      </trkpt>
      <trkpt lat="42.67956" lon="23.28358">
        <ele>644.570231</ele>
        <time>2022-04-04T07:34:55.847Z</time>
      </trkpt>
      <trkpt lat="42.67964" lon="23.28349">
        <ele>644.688316</ele>
        <time>2022-04-04T07:34:58.864Z</time>
      </trkpt>
      <trkpt lat="42.6797" lon="23.28338">
        <ele>644.835896</ele>
        <time>2022-04-04T07:35:01.862Z</time>
      </trkpt>
      <trkpt lat="42.67976" lon="23.28326">
        <ele>645.339851</ele>
        <time>2022-04-04T07:35:04.930Z</time>
      </trkpt>
      <trkpt lat="42.67981" lon="23.28314">
        <ele>645.845274</ele>
        <time>2022-04-04T07:35:07.864Z</time>
      </trkpt>
      <trkpt lat="42.67986" lon="23.283">
        <ele>646.376516</ele>
        <time>2022-04-04T07:35:10.859Z</time>
      </trkpt>
      <trkpt lat="42.6799" lon="23.28287">
        <ele>646.880319</ele>
        <time>2022-04-04T07:35:13.865Z</time>
      </trkpt>
      <trkpt lat="42.67994" lon="23.28271">
        <ele>647.479073</ele>
        <time>2022-04-04T07:35:16.842Z</time>
      </trkpt>
      <trkpt lat="42.67995" lon="23.28258">
        <ele>647.916431</ele>
        <time>2022-04-04T07:35:18.864Z</time>
      </trkpt>
      <trkpt lat="42.67998" lon="23.28243">
        <ele>648.456835</ele>
        <time>2022-04-04T07:35:21.891Z</time>
      </trkpt>
      <trkpt lat="42.68005" lon="23.2823">
        <ele>649.025966</ele>
        <time>2022-04-04T07:35:25.862Z</time>
      </trkpt>
      <trkpt lat="42.68015" lon="23.28224">
        <ele>649.553417</ele>
        <time>2022-04-04T07:35:28.842Z</time>
      </trkpt>
      <trkpt lat="42.68025" lon="23.28218">
        <ele>650.081842</ele>
        <time>2022-04-04T07:35:31.856Z</time>
      </trkpt>
      <trkpt lat="42.68034" lon="23.2821">
        <ele>650.574511</ele>
        <time>2022-04-04T07:35:34.863Z</time>
      </trkpt>
      <trkpt lat="42.68042" lon="23.28201">
        <ele>651.064373</ele>
        <time>2022-04-04T07:35:37.868Z</time>
      </trkpt>
      <trkpt lat="42.68047" lon="23.28189">
        <ele>651.57383</ele>
        <time>2022-04-04T07:35:41.850Z</time>
      </trkpt>
      <trkpt lat="42.68052" lon="23.28177">
        <ele>652.040285</ele>
        <time>2022-04-04T07:35:44.863Z</time>
      </trkpt>
      <trkpt lat="42.68058" lon="23.28165">
        <ele>652.55606</ele>
        <time>2022-04-04T07:35:47.852Z</time>
      </trkpt>
      <trkpt lat="42.68065" lon="23.28153">
        <ele>653.102486</ele>
        <time>2022-04-04T07:35:50.863Z</time>
      </trkpt>
      <trkpt lat="42.68072" lon="23.2814">
        <ele>652.912839</ele>
        <time>2022-04-04T07:35:53.870Z</time>
      </trkpt>
      <trkpt lat="42.6808" lon="23.28126">
        <ele>651.703253</ele>
        <time>2022-04-04T07:35:56.864Z</time>
      </trkpt>
      <trkpt lat="42.68087" lon="23.28117">
        <ele>650.870983</ele>
        <time>2022-04-04T07:35:58.861Z</time>
      </trkpt>
      <trkpt lat="42.68095" lon="23.28107">
        <ele>649.924753</ele>
        <time>2022-04-04T07:36:00.890Z</time>
      </trkpt>
      <trkpt lat="42.68102" lon="23.28095">
        <ele>648.931667</ele>
        <time>2022-04-04T07:36:02.879Z</time>
      </trkpt>
      <trkpt lat="42.68111" lon="23.28083">
        <ele>647.846841</ele>
        <time>2022-04-04T07:36:04.866Z</time>
      </trkpt>
      <trkpt lat="42.68122" lon="23.2807">
        <ele>646.511002</ele>
        <time>2022-04-04T07:36:06.893Z</time>
      </trkpt>
      <trkpt lat="42.68136" lon="23.28056">
        <ele>644.935968</ele>
        <time>2022-04-04T07:36:08.860Z</time>
      </trkpt>
      <trkpt lat="42.68143" lon="23.28048">
        <ele>644.108036</ele>
        <time>2022-04-04T07:36:09.885Z</time>
      </trkpt>
      <trkpt lat="42.6815" lon="23.2804">
        <ele>643.292387</ele>
        <time>2022-04-04T07:36:10.861Z</time>
      </trkpt>
      <trkpt lat="42.68158" lon="23.28032">
        <ele>642.468581</ele>
        <time>2022-04-04T07:36:11.856Z</time>
      </trkpt>
      <trkpt lat="42.68165" lon="23.28024">
        <ele>641.619563</ele>
        <time>2022-04-04T07:36:12.865Z</time>
      </trkpt>
      <trkpt lat="42.68172" lon="23.28015">
        <ele>640.759528</ele>
        <time>2022-04-04T07:36:13.859Z</time>
      </trkpt>
      <trkpt lat="42.68179" lon="23.28006">
        <ele>639.912878</ele>
        <time>2022-04-04T07:36:14.865Z</time>
      </trkpt>
      <trkpt lat="42.68186" lon="23.27998">
        <ele>639.081577</ele>
        <time>2022-04-04T07:36:15.876Z</time>
      </trkpt>
      <trkpt lat="42.68193" lon="23.27989">
        <ele>638.245931</ele>
        <time>2022-04-04T07:36:16.880Z</time>
      </trkpt>
      <trkpt lat="42.682" lon="23.27981">
        <ele>637.414573</ele>
        <time>2022-04-04T07:36:17.854Z</time>
      </trkpt>
      <trkpt lat="42.68207" lon="23.27972">
        <ele>636.955914</ele>
        <time>2022-04-04T07:36:18.860Z</time>
      </trkpt>
      <trkpt lat="42.68214" lon="23.27963">
        <ele>636.490385</ele>
        <time>2022-04-04T07:36:19.850Z</time>
      </trkpt>
      <trkpt lat="42.6822" lon="23.27953">
        <ele>636.024117</ele>
        <time>2022-04-04T07:36:20.867Z</time>
      </trkpt>
      <trkpt lat="42.68227" lon="23.27943">
        <ele>635.560362</ele>
        <time>2022-04-04T07:36:21.892Z</time>
      </trkpt>
      <trkpt lat="42.68233" lon="23.27934">
        <ele>635.123842</ele>
        <time>2022-04-04T07:36:22.886Z</time>
      </trkpt>
      <trkpt lat="42.6824" lon="23.27924">
        <ele>634.663627</ele>
        <time>2022-04-04T07:36:23.850Z</time>
      </trkpt>
      <trkpt lat="42.68246" lon="23.27913">
        <ele>634.172034</ele>
        <time>2022-04-04T07:36:24.865Z</time>
      </trkpt>
      <trkpt lat="42.68253" lon="23.27903">
        <ele>633.683267</ele>
        <time>2022-04-04T07:36:25.867Z</time>
      </trkpt>
      <trkpt lat="42.6826" lon="23.27894">
        <ele>633.244484</ele>
        <time>2022-04-04T07:36:26.859Z</time>
      </trkpt>
      <trkpt lat="42.68273" lon="23.27879">
        <ele>632.41152</ele>
        <time>2022-04-04T07:36:28.861Z</time>
      </trkpt>
      <trkpt lat="42.6828" lon="23.27871">
        <ele>631.978785</ele>
        <time>2022-04-04T07:36:29.909Z</time>
      </trkpt>
      <trkpt lat="42.68287" lon="23.27863">
        <ele>631.543043</ele>
        <time>2022-04-04T07:36:30.873Z</time>
      </trkpt>
      <trkpt lat="42.68298" lon="23.27846">
        <ele>630.757204</ele>
        <time>2022-04-04T07:36:32.868Z</time>
      </trkpt>
      <trkpt lat="42.68307" lon="23.27832">
        <ele>630.108567</ele>
        <time>2022-04-04T07:36:34.872Z</time>
      </trkpt>
      <trkpt lat="42.68314" lon="23.2782">
        <ele>629.578689</ele>
        <time>2022-04-04T07:36:36.871Z</time>
      </trkpt>
      <trkpt lat="42.68323" lon="23.27808">
        <ele>628.99586</ele>
        <time>2022-04-04T07:36:39.875Z</time>
      </trkpt>
      <trkpt lat="42.68331" lon="23.27795">
        <ele>628.534273</ele>
        <time>2022-04-04T07:36:42.865Z</time>
      </trkpt>
      <trkpt lat="42.68339" lon="23.27783">
        <ele>628.174543</ele>
        <time>2022-04-04T07:36:45.880Z</time>
      </trkpt>
      <trkpt lat="42.68349" lon="23.27772">
        <ele>627.802726</ele>
        <time>2022-04-04T07:36:48.867Z</time>
      </trkpt>
      <trkpt lat="42.68356" lon="23.27764">
        <ele>627.517411</ele>
        <time>2022-04-04T07:36:50.868Z</time>
      </trkpt>
      <trkpt lat="42.68364" lon="23.27752">
        <ele>627.147906</ele>
        <time>2022-04-04T07:36:53.867Z</time>
      </trkpt>
      <trkpt lat="42.68373" lon="23.2774">
        <ele>626.757316</ele>
        <time>2022-04-04T07:36:56.862Z</time>
      </trkpt>
      <trkpt lat="42.6838" lon="23.27731">
        <ele>626.470384</ele>
        <time>2022-04-04T07:36:58.868Z</time>
      </trkpt>
      <trkpt lat="42.68387" lon="23.27723">
        <ele>626.19407</ele>
        <time>2022-04-04T07:37:00.887Z</time>
      </trkpt>
      <trkpt lat="42.68396" lon="23.2771">
        <ele>625.802419</ele>
        <time>2022-04-04T07:37:03.921Z</time>
      </trkpt>
      <trkpt lat="42.68403" lon="23.27697">
        <ele>625.420601</ele>
        <time>2022-04-04T07:37:06.860Z</time>
      </trkpt>
      <trkpt lat="42.6841" lon="23.27683">
        <ele>625.059088</ele>
        <time>2022-04-04T07:37:09.880Z</time>
      </trkpt>
      <trkpt lat="42.68416" lon="23.2767">
        <ele>624.721639</ele>
        <time>2022-04-04T07:37:12.870Z</time>
      </trkpt>
      <trkpt lat="42.68424" lon="23.27657">
        <ele>624.322338</ele>
        <time>2022-04-04T07:37:15.860Z</time>
      </trkpt>
      <trkpt lat="42.68431" lon="23.27647">
        <ele>624.034305</ele>
        <time>2022-04-04T07:37:17.872Z</time>
      </trkpt>
      <trkpt lat="42.68438" lon="23.27637">
        <ele>623.721424</ele>
        <time>2022-04-04T07:37:19.909Z</time>
      </trkpt>
      <trkpt lat="42.68445" lon="23.27629">
        <ele>623.447693</ele>
        <time>2022-04-04T07:37:21.872Z</time>
      </trkpt>
      <trkpt lat="42.68451" lon="23.2762">
        <ele>623.366653</ele>
        <time>2022-04-04T07:37:23.867Z</time>
      </trkpt>
      <trkpt lat="42.68457" lon="23.2761">
        <ele>623.389164</ele>
        <time>2022-04-04T07:37:25.909Z</time>
      </trkpt>
      <trkpt lat="42.68464" lon="23.27596">
        <ele>623.42054</ele>
        <time>2022-04-04T07:37:28.869Z</time>
      </trkpt>
      <trkpt lat="42.6847" lon="23.27582">
        <ele>623.44888</ele>
        <time>2022-04-04T07:37:31.901Z</time>
      </trkpt>
      <trkpt lat="42.68474" lon="23.2757">
        <ele>623.473684</ele>
        <time>2022-04-04T07:37:34.973Z</time>
      </trkpt>
      <trkpt lat="42.68482" lon="23.27555">
        <ele>623.505356</ele>
        <time>2022-04-04T07:37:37.840Z</time>
      </trkpt>
      <trkpt lat="42.68488" lon="23.27546">
        <ele>623.527651</ele>
        <time>2022-04-04T07:37:39.859Z</time>
      </trkpt>
      <trkpt lat="42.68496" lon="23.27532">
        <ele>623.558653</ele>
        <time>2022-04-04T07:37:42.857Z</time>
      </trkpt>
      <trkpt lat="42.68503" lon="23.2752">
        <ele>623.585886</ele>
        <time>2022-04-04T07:37:45.873Z</time>
      </trkpt>
      <trkpt lat="42.68509" lon="23.27506">
        <ele>623.61574</ele>
        <time>2022-04-04T07:37:48.883Z</time>
      </trkpt>
      <trkpt lat="42.68515" lon="23.2749">
        <ele>623.647743</ele>
        <time>2022-04-04T07:37:51.867Z</time>
      </trkpt>
      <trkpt lat="42.6852" lon="23.27478">
        <ele>623.671376</ele>
        <time>2022-04-04T07:37:53.887Z</time>
      </trkpt>
      <trkpt lat="42.68524" lon="23.27466">
        <ele>623.695511</ele>
        <time>2022-04-04T07:37:55.889Z</time>
      </trkpt>
      <trkpt lat="42.68532" lon="23.27454">
        <ele>623.722664</ele>
        <time>2022-04-04T07:37:58.880Z</time>
      </trkpt>
      <trkpt lat="42.68538" lon="23.27441">
        <ele>623.74992</ele>
        <time>2022-04-04T07:38:01.905Z</time>
      </trkpt>
      <trkpt lat="42.68546" lon="23.27434">
        <ele>623.774141</ele>
        <time>2022-04-04T07:38:04.869Z</time>
      </trkpt>
      <trkpt lat="42.68559" lon="23.27437">
        <ele>623.464059</ele>
        <time>2022-04-04T07:38:07.923Z</time>
      </trkpt>
      <trkpt lat="42.6857" lon="23.27447">
        <ele>622.897929</ele>
        <time>2022-04-04T07:38:10.864Z</time>
      </trkpt>
      <trkpt lat="42.68577" lon="23.27455">
        <ele>622.472872</ele>
        <time>2022-04-04T07:38:12.919Z</time>
      </trkpt>
      <trkpt lat="42.68586" lon="23.27462">
        <ele>622.030285</ele>
        <time>2022-04-04T07:38:14.858Z</time>
      </trkpt>
      <trkpt lat="42.68595" lon="23.27469">
        <ele>621.586114</ele>
        <time>2022-04-04T07:38:16.875Z</time>
      </trkpt>
      <trkpt lat="42.68604" lon="23.27475">
        <ele>621.145095</ele>
        <time>2022-04-04T07:38:18.889Z</time>
      </trkpt>
      <trkpt lat="42.68612" lon="23.27484">
        <ele>620.69809</ele>
        <time>2022-04-04T07:38:20.863Z</time>
      </trkpt>
      <trkpt lat="42.6862" lon="23.27491">
        <ele>620.249477</ele>
        <time>2022-04-04T07:38:22.859Z</time>
      </trkpt>
      <trkpt lat="42.6863" lon="23.27498">
        <ele>619.793812</ele>
        <time>2022-04-04T07:38:24.862Z</time>
      </trkpt>
      <trkpt lat="42.68639" lon="23.27504">
        <ele>619.338147</ele>
        <time>2022-04-04T07:38:26.867Z</time>
      </trkpt>
      <trkpt lat="42.68648" lon="23.27512">
        <ele>618.838204</ele>
        <time>2022-04-04T07:38:28.871Z</time>
      </trkpt>
      <trkpt lat="42.68659" lon="23.2752">
        <ele>618.322401</ele>
        <time>2022-04-04T07:38:30.898Z</time>
      </trkpt>
      <trkpt lat="42.68668" lon="23.27527">
        <ele>617.851274</ele>
        <time>2022-04-04T07:38:32.867Z</time>
      </trkpt>
      <trkpt lat="42.68677" lon="23.27533">
        <ele>617.400189</ele>
        <time>2022-04-04T07:38:34.869Z</time>
      </trkpt>
      <trkpt lat="42.68687" lon="23.2754">
        <ele>616.929878</ele>
        <time>2022-04-04T07:38:36.874Z</time>
      </trkpt>
      <trkpt lat="42.68697" lon="23.27547">
        <ele>616.426223</ele>
        <time>2022-04-04T07:38:38.881Z</time>
      </trkpt>
      <trkpt lat="42.68709" lon="23.27553">
        <ele>615.881681</ele>
        <time>2022-04-04T07:38:40.856Z</time>
      </trkpt>
      <trkpt lat="42.6872" lon="23.2756">
        <ele>615.718032</ele>
        <time>2022-04-04T07:38:42.869Z</time>
      </trkpt>
      <trkpt lat="42.6873" lon="23.27568">
        <ele>615.554103</ele>
        <time>2022-04-04T07:38:44.895Z</time>
      </trkpt>
      <trkpt lat="42.68739" lon="23.27576">
        <ele>615.398233</ele>
        <time>2022-04-04T07:38:46.857Z</time>
      </trkpt>
      <trkpt lat="42.68748" lon="23.27582">
        <ele>615.261661</ele>
        <time>2022-04-04T07:38:48.883Z</time>
      </trkpt>
      <trkpt lat="42.68757" lon="23.27586">
        <ele>615.123736</ele>
        <time>2022-04-04T07:38:50.869Z</time>
      </trkpt>
      <trkpt lat="42.68767" lon="23.27592">
        <ele>614.975108</ele>
        <time>2022-04-04T07:38:52.861Z</time>
      </trkpt>
      <trkpt lat="42.68777" lon="23.27599">
        <ele>614.81136</ele>
        <time>2022-04-04T07:38:54.869Z</time>
      </trkpt>
      <trkpt lat="42.68788" lon="23.27608">
        <ele>614.631027</ele>
        <time>2022-04-04T07:38:56.879Z</time>
      </trkpt>
      <trkpt lat="42.688" lon="23.27619">
        <ele>614.430986</ele>
        <time>2022-04-04T07:38:58.857Z</time>
      </trkpt>
      <trkpt lat="42.6881" lon="23.27627">
        <ele>614.253294</ele>
        <time>2022-04-04T07:39:00.858Z</time>
      </trkpt>
      <trkpt lat="42.68821" lon="23.27635">
        <ele>614.086816</ele>
        <time>2022-04-04T07:39:02.867Z</time>
      </trkpt>
      <trkpt lat="42.68831" lon="23.27641">
        <ele>613.928792</ele>
        <time>2022-04-04T07:39:04.869Z</time>
      </trkpt>
      <trkpt lat="42.68841" lon="23.27647">
        <ele>613.780164</ele>
        <time>2022-04-04T07:39:06.872Z</time>
      </trkpt>
      <trkpt lat="42.68851" lon="23.27652">
        <ele>613.62008</ele>
        <time>2022-04-04T07:39:08.860Z</time>
      </trkpt>
      <trkpt lat="42.68862" lon="23.2766">
        <ele>613.443982</ele>
        <time>2022-04-04T07:39:10.860Z</time>
      </trkpt>
      <trkpt lat="42.68873" lon="23.27667">
        <ele>613.218462</ele>
        <time>2022-04-04T07:39:12.869Z</time>
      </trkpt>
      <trkpt lat="42.68884" lon="23.27674">
        <ele>612.924</ele>
        <time>2022-04-04T07:39:14.865Z</time>
      </trkpt>
      <trkpt lat="42.68894" lon="23.27682">
        <ele>612.645968</ele>
        <time>2022-04-04T07:39:16.887Z</time>
      </trkpt>
      <trkpt lat="42.68904" lon="23.2769">
        <ele>612.347971</ele>
        <time>2022-04-04T07:39:18.866Z</time>
      </trkpt>
      <trkpt lat="42.68914" lon="23.27698">
        <ele>612.054497</ele>
        <time>2022-04-04T07:39:20.867Z</time>
      </trkpt>
      <trkpt lat="42.68925" lon="23.27706">
        <ele>611.758285</ele>
        <time>2022-04-04T07:39:22.880Z</time>
      </trkpt>
      <trkpt lat="42.68936" lon="23.27714">
        <ele>611.448019</ele>
        <time>2022-04-04T07:39:24.866Z</time>
      </trkpt>
      <trkpt lat="42.68947" lon="23.27722">
        <ele>611.141341</ele>
        <time>2022-04-04T07:39:26.868Z</time>
      </trkpt>
      <trkpt lat="42.68959" lon="23.2773">
        <ele>610.820919</ele>
        <time>2022-04-04T07:39:28.866Z</time>
      </trkpt>
      <trkpt lat="42.6897" lon="23.27739">
        <ele>610.503475</ele>
        <time>2022-04-04T07:39:30.869Z</time>
      </trkpt>
      <trkpt lat="42.6898" lon="23.27748">
        <ele>610.199202</ele>
        <time>2022-04-04T07:39:32.897Z</time>
      </trkpt>
      <trkpt lat="42.6899" lon="23.27757">
        <ele>609.901917</ele>
        <time>2022-04-04T07:39:34.879Z</time>
      </trkpt>
      <trkpt lat="42.69001" lon="23.27765">
        <ele>609.598142</ele>
        <time>2022-04-04T07:39:36.867Z</time>
      </trkpt>
      <trkpt lat="42.6901" lon="23.27773">
        <ele>609.337415</ele>
        <time>2022-04-04T07:39:38.856Z</time>
      </trkpt>
      <trkpt lat="42.6902" lon="23.27782">
        <ele>609.038178</ele>
        <time>2022-04-04T07:39:40.862Z</time>
      </trkpt>
      <trkpt lat="42.69032" lon="23.27793">
        <ele>608.972395</ele>
        <time>2022-04-04T07:39:42.905Z</time>
      </trkpt>
      <trkpt lat="42.69042" lon="23.27804">
        <ele>609.043088</ele>
        <time>2022-04-04T07:39:44.863Z</time>
      </trkpt>
      <trkpt lat="42.69053" lon="23.27814">
        <ele>609.114431</ele>
        <time>2022-04-04T07:39:46.863Z</time>
      </trkpt>
      <trkpt lat="42.69065" lon="23.27824">
        <ele>609.18978</ele>
        <time>2022-04-04T07:39:48.873Z</time>
      </trkpt>
      <trkpt lat="42.69076" lon="23.27835">
        <ele>609.265606</ele>
        <time>2022-04-04T07:39:50.875Z</time>
      </trkpt>
      <trkpt lat="42.69086" lon="23.27847">
        <ele>609.335845</ele>
        <time>2022-04-04T07:39:52.867Z</time>
      </trkpt>
      <trkpt lat="42.69095" lon="23.2786">
        <ele>609.405609</ele>
        <time>2022-04-04T07:39:54.863Z</time>
      </trkpt>
      <trkpt lat="42.69103" lon="23.27873">
        <ele>609.471159</ele>
        <time>2022-04-04T07:39:56.870Z</time>
      </trkpt>
      <trkpt lat="42.69112" lon="23.27884">
        <ele>609.534616</ele>
        <time>2022-04-04T07:39:58.849Z</time>
      </trkpt>
      <trkpt lat="42.6912" lon="23.27896">
        <ele>609.600841</ele>
        <time>2022-04-04T07:40:00.902Z</time>
      </trkpt>
      <trkpt lat="42.69129" lon="23.27908">
        <ele>609.668481</ele>
        <time>2022-04-04T07:40:02.872Z</time>
      </trkpt>
      <trkpt lat="42.69138" lon="23.2792">
        <ele>609.737735</ele>
        <time>2022-04-04T07:40:04.875Z</time>
      </trkpt>
      <trkpt lat="42.69145" lon="23.27932">
        <ele>609.799976</ele>
        <time>2022-04-04T07:40:06.875Z</time>
      </trkpt>
      <trkpt lat="42.69154" lon="23.27945">
        <ele>609.8685</ele>
        <time>2022-04-04T07:40:08.869Z</time>
      </trkpt>
      <trkpt lat="42.69162" lon="23.27958">
        <ele>610.075861</ele>
        <time>2022-04-04T07:40:10.851Z</time>
      </trkpt>
      <trkpt lat="42.69172" lon="23.2797">
        <ele>610.352211</ele>
        <time>2022-04-04T07:40:12.858Z</time>
      </trkpt>
      <trkpt lat="42.6918" lon="23.27983">
        <ele>610.627814</ele>
        <time>2022-04-04T07:40:14.856Z</time>
      </trkpt>
      <trkpt lat="42.6919" lon="23.27996">
        <ele>610.918017</ele>
        <time>2022-04-04T07:40:16.857Z</time>
      </trkpt>
      <trkpt lat="42.692" lon="23.28008">
        <ele>611.199847</ele>
        <time>2022-04-04T07:40:18.863Z</time>
      </trkpt>
      <trkpt lat="42.69209" lon="23.28019">
        <ele>611.46827</ele>
        <time>2022-04-04T07:40:20.872Z</time>
      </trkpt>
      <trkpt lat="42.69219" lon="23.28031">
        <ele>611.746201</ele>
        <time>2022-04-04T07:40:22.861Z</time>
      </trkpt>
      <trkpt lat="42.69229" lon="23.28043">
        <ele>612.035188</ele>
        <time>2022-04-04T07:40:24.884Z</time>
      </trkpt>
      <trkpt lat="42.69236" lon="23.28056">
        <ele>612.291421</ele>
        <time>2022-04-04T07:40:26.875Z</time>
      </trkpt>
      <trkpt lat="42.69242" lon="23.28067">
        <ele>612.505352</ele>
        <time>2022-04-04T07:40:28.879Z</time>
      </trkpt>
      <trkpt lat="42.69248" lon="23.28077">
        <ele>612.702731</ele>
        <time>2022-04-04T07:40:30.880Z</time>
      </trkpt>
      <trkpt lat="42.69254" lon="23.28086">
        <ele>612.908483</ele>
        <time>2022-04-04T07:40:32.886Z</time>
      </trkpt>
      <trkpt lat="42.6926" lon="23.28097">
        <ele>613.120984</ele>
        <time>2022-04-04T07:40:34.857Z</time>
      </trkpt>
      <trkpt lat="42.69266" lon="23.28107">
        <ele>613.332676</ele>
        <time>2022-04-04T07:40:36.871Z</time>
      </trkpt>
      <trkpt lat="42.69272" lon="23.28118">
        <ele>613.5489</ele>
        <time>2022-04-04T07:40:38.903Z</time>
      </trkpt>
      <trkpt lat="42.69281" lon="23.28131">
        <ele>613.676377</ele>
        <time>2022-04-04T07:40:41.858Z</time>
      </trkpt>
      <trkpt lat="42.6929" lon="23.28142">
        <ele>613.411636</ele>
        <time>2022-04-04T07:40:44.902Z</time>
      </trkpt>
      <trkpt lat="42.69299" lon="23.28156">
        <ele>613.110212</ele>
        <time>2022-04-04T07:40:47.860Z</time>
      </trkpt>
      <trkpt lat="42.69307" lon="23.28167">
        <ele>612.858414</ele>
        <time>2022-04-04T07:40:49.874Z</time>
      </trkpt>
      <trkpt lat="42.69315" lon="23.28179">
        <ele>612.608686</ele>
        <time>2022-04-04T07:40:51.871Z</time>
      </trkpt>
      <trkpt lat="42.69321" lon="23.28191">
        <ele>612.361243</ele>
        <time>2022-04-04T07:40:53.870Z</time>
      </trkpt>
      <trkpt lat="42.69329" lon="23.28203">
        <ele>612.093592</ele>
        <time>2022-04-04T07:40:55.915Z</time>
      </trkpt>
      <trkpt lat="42.69335" lon="23.28216">
        <ele>611.849878</ele>
        <time>2022-04-04T07:40:57.870Z</time>
      </trkpt>
      <trkpt lat="42.69343" lon="23.28228">
        <ele>611.586727</ele>
        <time>2022-04-04T07:40:59.866Z</time>
      </trkpt>
      <trkpt lat="42.69353" lon="23.28239">
        <ele>611.303461</ele>
        <time>2022-04-04T07:41:01.904Z</time>
      </trkpt>
      <trkpt lat="42.69363" lon="23.28252">
        <ele>610.994594</ele>
        <time>2022-04-04T07:41:03.864Z</time>
      </trkpt>
      <trkpt lat="42.69373" lon="23.28264">
        <ele>610.707501</ele>
        <time>2022-04-04T07:41:05.856Z</time>
      </trkpt>
      <trkpt lat="42.69383" lon="23.28275">
        <ele>610.427355</ele>
        <time>2022-04-04T07:41:07.868Z</time>
      </trkpt>
      <trkpt lat="42.69393" lon="23.28285">
        <ele>610.144862</ele>
        <time>2022-04-04T07:41:09.864Z</time>
      </trkpt>
      <trkpt lat="42.69402" lon="23.28296">
        <ele>609.876928</ele>
        <time>2022-04-04T07:41:11.870Z</time>
      </trkpt>
      <trkpt lat="42.6941" lon="23.28307">
        <ele>609.709497</ele>
        <time>2022-04-04T07:41:13.871Z</time>
      </trkpt>
      <trkpt lat="42.69418" lon="23.28319">
        <ele>609.586211</ele>
        <time>2022-04-04T07:41:15.867Z</time>
      </trkpt>
      <trkpt lat="42.69425" lon="23.28334">
        <ele>609.45037</ele>
        <time>2022-04-04T07:41:17.865Z</time>
      </trkpt>
      <trkpt lat="42.69434" lon="23.28348">
        <ele>609.31309</ele>
        <time>2022-04-04T07:41:19.875Z</time>
      </trkpt>
      <trkpt lat="42.69441" lon="23.28361">
        <ele>609.190532</ele>
        <time>2022-04-04T07:41:21.861Z</time>
      </trkpt>
      <trkpt lat="42.69451" lon="23.28372">
        <ele>609.066552</ele>
        <time>2022-04-04T07:41:23.867Z</time>
      </trkpt>
      <trkpt lat="42.6946" lon="23.28382">
        <ele>608.944915</ele>
        <time>2022-04-04T07:41:25.860Z</time>
      </trkpt>
      <trkpt lat="42.69468" lon="23.28393">
        <ele>608.825576</ele>
        <time>2022-04-04T07:41:27.892Z</time>
      </trkpt>
      <trkpt lat="42.69477" lon="23.28405">
        <ele>608.69982</ele>
        <time>2022-04-04T07:41:29.900Z</time>
      </trkpt>
      <trkpt lat="42.69484" lon="23.28417">
        <ele>608.581952</ele>
        <time>2022-04-04T07:41:31.873Z</time>
      </trkpt>
      <trkpt lat="42.6949" lon="23.28428">
        <ele>608.482129</ele>
        <time>2022-04-04T07:41:33.869Z</time>
      </trkpt>
      <trkpt lat="42.69497" lon="23.28439">
        <ele>608.373456</ele>
        <time>2022-04-04T07:41:35.909Z</time>
      </trkpt>
      <trkpt lat="42.69503" lon="23.2845">
        <ele>608.268343</ele>
        <time>2022-04-04T07:41:37.879Z</time>
      </trkpt>
      <trkpt lat="42.6951" lon="23.28461">
        <ele>608.162642</ele>
        <time>2022-04-04T07:41:39.865Z</time>
      </trkpt>
      <trkpt lat="42.69516" lon="23.28473">
        <ele>608.053949</ele>
        <time>2022-04-04T07:41:41.872Z</time>
      </trkpt>
      <trkpt lat="42.69523" lon="23.28484">
        <ele>607.948138</ele>
        <time>2022-04-04T07:41:43.861Z</time>
      </trkpt>
      <trkpt lat="42.6953" lon="23.28495">
        <ele>608.277854</ele>
        <time>2022-04-04T07:41:45.866Z</time>
      </trkpt>
      <trkpt lat="42.69538" lon="23.28506">
        <ele>608.643208</ele>
        <time>2022-04-04T07:41:47.866Z</time>
      </trkpt>
      <trkpt lat="42.69545" lon="23.28516">
        <ele>608.975692</ele>
        <time>2022-04-04T07:41:49.875Z</time>
      </trkpt>
      <trkpt lat="42.69552" lon="23.28527">
        <ele>609.321614</ele>
        <time>2022-04-04T07:41:52.900Z</time>
      </trkpt>
      <trkpt lat="42.69557" lon="23.28541">
        <ele>609.671818</ele>
        <time>2022-04-04T07:41:56.863Z</time>
      </trkpt>
      <trkpt lat="42.69562" lon="23.28553">
        <ele>609.994486</ele>
        <time>2022-04-04T07:41:59.871Z</time>
      </trkpt>
      <trkpt lat="42.69565" lon="23.28568">
        <ele>610.367589</ele>
        <time>2022-04-04T07:42:02.972Z</time>
      </trkpt>
      <trkpt lat="42.69566" lon="23.28586">
        <ele>610.787305</ele>
        <time>2022-04-04T07:42:05.871Z</time>
      </trkpt>
      <trkpt lat="42.69566" lon="23.28599">
        <ele>611.080169</ele>
        <time>2022-04-04T07:42:07.895Z</time>
      </trkpt>
      <trkpt lat="42.69565" lon="23.28616">
        <ele>611.493653</ele>
        <time>2022-04-04T07:42:10.852Z</time>
      </trkpt>
      <trkpt lat="42.69564" lon="23.28635">
        <ele>611.92741</ele>
        <time>2022-04-04T07:42:13.905Z</time>
      </trkpt>
      <trkpt lat="42.69565" lon="23.28649">
        <ele>612.255478</ele>
        <time>2022-04-04T07:42:15.923Z</time>
      </trkpt>
      <trkpt lat="42.69565" lon="23.28662">
        <ele>612.56937</ele>
        <time>2022-04-04T07:42:17.882Z</time>
      </trkpt>
      <trkpt lat="42.69566" lon="23.28674">
        <ele>612.858903</ele>
        <time>2022-04-04T07:42:19.989Z</time>
      </trkpt>
      <trkpt lat="42.69566" lon="23.28692">
        <ele>613.282977</ele>
        <time>2022-04-04T07:42:22.859Z</time>
      </trkpt>
      <trkpt lat="42.69567" lon="23.28708">
        <ele>613.646071</ele>
        <time>2022-04-04T07:42:25.851Z</time>
      </trkpt>
      <trkpt lat="42.69563" lon="23.28719">
        <ele>613.719986</ele>
        <time>2022-04-04T07:42:29.868Z</time>
      </trkpt>
      <trkpt lat="42.69557" lon="23.28737">
        <ele>613.794824</ele>
        <time>2022-04-04T08:06:29.887Z</time>
      </trkpt>
      <trkpt lat="42.6955" lon="23.28728">
        <ele>613.843316</ele>
        <time>2022-04-04T08:06:53.878Z</time>
      </trkpt>
      <trkpt lat="42.69544" lon="23.28718">
        <ele>613.892426</ele>
        <time>2022-04-04T08:07:03.872Z</time>
      </trkpt>
      <trkpt lat="42.69552" lon="23.28705">
        <ele>613.957135</ele>
        <time>2022-04-04T08:07:07.895Z</time>
      </trkpt>
      <trkpt lat="42.69563" lon="23.28696">
        <ele>614.022092</ele>
        <time>2022-04-04T08:07:10.867Z</time>
      </trkpt>
      <trkpt lat="42.69572" lon="23.28688">
        <ele>614.077672</ele>
        <time>2022-04-04T08:07:14.877Z</time>
      </trkpt>
      <trkpt lat="42.69578" lon="23.28677">
        <ele>614.127414</ele>
        <time>2022-04-04T08:07:17.880Z</time>
      </trkpt>
      <trkpt lat="42.6958" lon="23.28661">
        <ele>614.189749</ele>
        <time>2022-04-04T08:07:20.867Z</time>
      </trkpt>
      <trkpt lat="42.69579" lon="23.28649">
        <ele>614.235778</ele>
        <time>2022-04-04T08:07:22.929Z</time>
      </trkpt>
      <trkpt lat="42.69581" lon="23.28631">
        <ele>614.301266</ele>
        <time>2022-04-04T08:07:25.894Z</time>
      </trkpt>
      <trkpt lat="42.69583" lon="23.28615">
        <ele>614.363637</ele>
        <time>2022-04-04T08:07:28.900Z</time>
      </trkpt>
      <trkpt lat="42.69583" lon="23.286">
        <ele>614.418282</ele>
        <time>2022-04-04T08:07:31.862Z</time>
      </trkpt>
      <trkpt lat="42.69582" lon="23.28586">
        <ele>614.472324</ele>
        <time>2022-04-04T08:07:34.890Z</time>
      </trkpt>
      <trkpt lat="42.69579" lon="23.28571">
        <ele>614.528297</ele>
        <time>2022-04-04T08:07:37.955Z</time>
      </trkpt>
      <trkpt lat="42.69574" lon="23.28556">
        <ele>614.607333</ele>
        <time>2022-04-04T08:07:40.905Z</time>
      </trkpt>
      <trkpt lat="42.6957" lon="23.2854">
        <ele>615.716946</ele>
        <time>2022-04-04T08:07:43.901Z</time>
      </trkpt>
      <trkpt lat="42.69566" lon="23.28524">
        <ele>616.830065</ele>
        <time>2022-04-04T08:07:46.878Z</time>
      </trkpt>
      <trkpt lat="42.69558" lon="23.28512">
        <ele>617.911956</ele>
        <time>2022-04-04T08:07:49.864Z</time>
      </trkpt>
      <trkpt lat="42.69551" lon="23.285">
        <ele>618.91442</ele>
        <time>2022-04-04T08:07:52.894Z</time>
      </trkpt>
      <trkpt lat="42.69546" lon="23.28489">
        <ele>619.79839</ele>
        <time>2022-04-04T08:07:55.922Z</time>
      </trkpt>
      <trkpt lat="42.69539" lon="23.28477">
        <ele>620.820668</ele>
        <time>2022-04-04T08:07:58.867Z</time>
      </trkpt>
      <trkpt lat="42.69531" lon="23.28467">
        <ele>621.780085</ele>
        <time>2022-04-04T08:08:01.928Z</time>
      </trkpt>
      <trkpt lat="42.69521" lon="23.28457">
        <ele>622.907138</ele>
        <time>2022-04-04T08:08:04.888Z</time>
      </trkpt>
      <trkpt lat="42.69511" lon="23.28447">
        <ele>624.016544</ele>
        <time>2022-04-04T08:08:07.877Z</time>
      </trkpt>
      <trkpt lat="42.69501" lon="23.28438">
        <ele>625.103766</ele>
        <time>2022-04-04T08:08:10.879Z</time>
      </trkpt>
      <trkpt lat="42.69493" lon="23.28429">
        <ele>626.065689</ele>
        <time>2022-04-04T08:08:13.887Z</time>
      </trkpt>
      <trkpt lat="42.69484" lon="23.28419">
        <ele>627.093182</ele>
        <time>2022-04-04T08:08:16.873Z</time>
      </trkpt>
      <trkpt lat="42.69477" lon="23.28408">
        <ele>628.045572</ele>
        <time>2022-04-04T08:08:19.886Z</time>
      </trkpt>
      <trkpt lat="42.69469" lon="23.28396">
        <ele>629.130328</ele>
        <time>2022-04-04T08:08:22.879Z</time>
      </trkpt>
      <trkpt lat="42.69461" lon="23.28385">
        <ele>630.166002</ele>
        <time>2022-04-04T08:08:25.851Z</time>
      </trkpt>
      <trkpt lat="42.69453" lon="23.28373">
        <ele>631.317783</ele>
        <time>2022-04-04T08:08:28.905Z</time>
      </trkpt>
      <trkpt lat="42.69445" lon="23.28361">
        <ele>632.606758</ele>
        <time>2022-04-04T08:08:31.938Z</time>
      </trkpt>
      <trkpt lat="42.69436" lon="23.28352">
        <ele>633.824391</ele>
        <time>2022-04-04T08:08:34.878Z</time>
      </trkpt>
      <trkpt lat="42.69428" lon="23.28345">
        <ele>634.876411</ele>
        <time>2022-04-04T08:08:36.872Z</time>
      </trkpt>
      <trkpt lat="42.69422" lon="23.28337">
        <ele>635.875998</ele>
        <time>2022-04-04T08:08:38.860Z</time>
      </trkpt>
      <trkpt lat="42.69412" lon="23.28327">
        <ele>637.230891</ele>
        <time>2022-04-04T08:08:41.886Z</time>
      </trkpt>
      <trkpt lat="42.69404" lon="23.28318">
        <ele>638.327603</ele>
        <time>2022-04-04T08:08:44.888Z</time>
      </trkpt>
      <trkpt lat="42.69396" lon="23.28308">
        <ele>639.518572</ele>
        <time>2022-04-04T08:08:47.871Z</time>
      </trkpt>
      <trkpt lat="42.69387" lon="23.28301">
        <ele>640.751148</ele>
        <time>2022-04-04T08:08:50.872Z</time>
      </trkpt>
      <trkpt lat="42.69378" lon="23.28289">
        <ele>642.089502</ele>
        <time>2022-04-04T08:08:53.880Z</time>
      </trkpt>
      <trkpt lat="42.6937" lon="23.28276">
        <ele>643.466364</ele>
        <time>2022-04-04T08:08:56.875Z</time>
      </trkpt>
      <trkpt lat="42.69365" lon="23.28266">
        <ele>644.475484</ele>
        <time>2022-04-04T08:08:58.877Z</time>
      </trkpt>
      <trkpt lat="42.69359" lon="23.28256">
        <ele>645.503967</ele>
        <time>2022-04-04T08:09:00.881Z</time>
      </trkpt>
      <trkpt lat="42.69351" lon="23.28244">
        <ele>646.829024</ele>
        <time>2022-04-04T08:09:03.856Z</time>
      </trkpt>
      <trkpt lat="42.69343" lon="23.28233">
        <ele>648.087028</ele>
        <time>2022-04-04T08:09:06.884Z</time>
      </trkpt>
      <trkpt lat="42.69336" lon="23.28221">
        <ele>649.371135</ele>
        <time>2022-04-04T08:09:09.879Z</time>
      </trkpt>
      <trkpt lat="42.69329" lon="23.28206">
        <ele>650.664785</ele>
        <time>2022-04-04T08:09:12.865Z</time>
      </trkpt>
      <trkpt lat="42.69322" lon="23.28192">
        <ele>648.740873</ele>
        <time>2022-04-04T08:09:15.874Z</time>
      </trkpt>
      <trkpt lat="42.69316" lon="23.28182">
        <ele>647.19663</ele>
        <time>2022-04-04T08:09:18.865Z</time>
      </trkpt>
      <trkpt lat="42.69309" lon="23.28172">
        <ele>645.666512</ele>
        <time>2022-04-04T08:09:26.892Z</time>
      </trkpt>
      <trkpt lat="42.69298" lon="23.28147">
        <ele>642.336444</ele>
        <time>2022-04-04T08:09:53.885Z</time>
      </trkpt>
      <trkpt lat="42.6929" lon="23.28137">
        <ele>640.609003</ele>
        <time>2022-04-04T08:09:57.868Z</time>
      </trkpt>
      <trkpt lat="42.69282" lon="23.28127">
        <ele>638.958931</ele>
        <time>2022-04-04T08:10:01.867Z</time>
      </trkpt>
      <trkpt lat="42.69276" lon="23.28116">
        <ele>637.368371</ele>
        <time>2022-04-04T08:10:05.875Z</time>
      </trkpt>
      <trkpt lat="42.69273" lon="23.28103">
        <ele>635.796215</ele>
        <time>2022-04-04T08:10:09.879Z</time>
      </trkpt>
      <trkpt lat="42.69266" lon="23.2809">
        <ele>634.001668</ele>
        <time>2022-04-04T08:10:13.873Z</time>
      </trkpt>
      <trkpt lat="42.69257" lon="23.2808">
        <ele>632.148958</ele>
        <time>2022-04-04T08:10:17.913Z</time>
      </trkpt>
      <trkpt lat="42.69249" lon="23.28071">
        <ele>630.555045</ele>
        <time>2022-04-04T08:10:20.880Z</time>
      </trkpt>
      <trkpt lat="42.69242" lon="23.2806">
        <ele>628.841828</ele>
        <time>2022-04-04T08:10:23.879Z</time>
      </trkpt>
      <trkpt lat="42.69235" lon="23.28047">
        <ele>626.946129</ele>
        <time>2022-04-04T08:10:26.859Z</time>
      </trkpt>
      <trkpt lat="42.69225" lon="23.28037">
        <ele>625.095603</ele>
        <time>2022-04-04T08:10:29.880Z</time>
      </trkpt>
      <trkpt lat="42.69217" lon="23.28026">
        <ele>623.297884</ele>
        <time>2022-04-04T08:10:32.882Z</time>
      </trkpt>
      <trkpt lat="42.6921" lon="23.28017">
        <ele>622.592591</ele>
        <time>2022-04-04T08:10:35.878Z</time>
      </trkpt>
      <trkpt lat="42.69202" lon="23.28007">
        <ele>622.480324</ele>
        <time>2022-04-04T08:10:38.871Z</time>
      </trkpt>
      <trkpt lat="42.69195" lon="23.27995">
        <ele>622.365397</ele>
        <time>2022-04-04T08:10:41.874Z</time>
      </trkpt>
      <trkpt lat="42.69186" lon="23.27982">
        <ele>622.224641</ele>
        <time>2022-04-04T08:10:44.900Z</time>
      </trkpt>
      <trkpt lat="42.69179" lon="23.27974">
        <ele>622.125754</ele>
        <time>2022-04-04T08:10:46.879Z</time>
      </trkpt>
      <trkpt lat="42.69173" lon="23.27965">
        <ele>622.026732</ele>
        <time>2022-04-04T08:10:48.870Z</time>
      </trkpt>
      <trkpt lat="42.69164" lon="23.27953">
        <ele>621.893107</ele>
        <time>2022-04-04T08:10:51.866Z</time>
      </trkpt>
      <trkpt lat="42.69156" lon="23.27941">
        <ele>621.770866</ele>
        <time>2022-04-04T08:10:54.886Z</time>
      </trkpt>
      <trkpt lat="42.69151" lon="23.27928">
        <ele>621.649006</ele>
        <time>2022-04-04T08:10:57.886Z</time>
      </trkpt>
      <trkpt lat="42.69142" lon="23.27916">
        <ele>621.515381</ele>
        <time>2022-04-04T08:11:00.877Z</time>
      </trkpt>
      <trkpt lat="42.69132" lon="23.27905">
        <ele>621.377226</ele>
        <time>2022-04-04T08:11:03.886Z</time>
      </trkpt>
      <trkpt lat="42.69122" lon="23.27893">
        <ele>621.231946</ele>
        <time>2022-04-04T08:11:06.858Z</time>
      </trkpt>
      <trkpt lat="42.69114" lon="23.27878">
        <ele>621.093278</ele>
        <time>2022-04-04T08:11:09.882Z</time>
      </trkpt>
      <trkpt lat="42.69108" lon="23.27864">
        <ele>620.967147</ele>
        <time>2022-04-04T08:11:12.895Z</time>
      </trkpt>
      <trkpt lat="42.69102" lon="23.27855">
        <ele>620.864621</ele>
        <time>2022-04-04T08:11:14.880Z</time>
      </trkpt>
      <trkpt lat="42.69096" lon="23.27846">
        <ele>620.767383</ele>
        <time>2022-04-04T08:11:16.859Z</time>
      </trkpt>
      <trkpt lat="42.69088" lon="23.27837">
        <ele>620.602497</ele>
        <time>2022-04-04T08:11:18.885Z</time>
      </trkpt>
      <trkpt lat="42.6908" lon="23.27829">
        <ele>620.402764</ele>
        <time>2022-04-04T08:11:20.868Z</time>
      </trkpt>
      <trkpt lat="42.69072" lon="23.27821">
        <ele>620.207642</ele>
        <time>2022-04-04T08:11:22.858Z</time>
      </trkpt>
      <trkpt lat="42.69065" lon="23.27814">
        <ele>620.028699</ele>
        <time>2022-04-04T08:11:24.872Z</time>
      </trkpt>
      <trkpt lat="42.69055" lon="23.27803">
        <ele>619.77505</ele>
        <time>2022-04-04T08:11:27.904Z</time>
      </trkpt>
      <trkpt lat="42.69045" lon="23.27793">
        <ele>619.532823</ele>
        <time>2022-04-04T08:11:30.875Z</time>
      </trkpt>
      <trkpt lat="42.69036" lon="23.27784">
        <ele>619.308492</ele>
        <time>2022-04-04T08:11:33.879Z</time>
      </trkpt>
      <trkpt lat="42.69028" lon="23.27772">
        <ele>619.071798</ele>
        <time>2022-04-04T08:11:36.878Z</time>
      </trkpt>
      <trkpt lat="42.69019" lon="23.27763">
        <ele>618.856703</ele>
        <time>2022-04-04T08:11:39.876Z</time>
      </trkpt>
      <trkpt lat="42.6901" lon="23.27753">
        <ele>618.617108</ele>
        <time>2022-04-04T08:11:42.874Z</time>
      </trkpt>
      <trkpt lat="42.69001" lon="23.27745">
        <ele>618.400656</ele>
        <time>2022-04-04T08:11:45.872Z</time>
      </trkpt>
      <trkpt lat="42.68991" lon="23.27738">
        <ele>618.187447</ele>
        <time>2022-04-04T08:11:48.878Z</time>
      </trkpt>
      <trkpt lat="42.68982" lon="23.27729">
        <ele>617.96855</ele>
        <time>2022-04-04T08:11:51.879Z</time>
      </trkpt>
      <trkpt lat="42.68973" lon="23.2772">
        <ele>617.742274</ele>
        <time>2022-04-04T08:11:54.879Z</time>
      </trkpt>
      <trkpt lat="42.68962" lon="23.27712">
        <ele>617.494115</ele>
        <time>2022-04-04T08:11:57.906Z</time>
      </trkpt>
      <trkpt lat="42.68951" lon="23.27704">
        <ele>617.244329</ele>
        <time>2022-04-04T08:12:00.878Z</time>
      </trkpt>
      <trkpt lat="42.6894" lon="23.27697">
        <ele>616.998033</ele>
        <time>2022-04-04T08:12:03.910Z</time>
      </trkpt>
      <trkpt lat="42.68928" lon="23.2769">
        <ele>616.720773</ele>
        <time>2022-04-04T08:12:06.901Z</time>
      </trkpt>
      <trkpt lat="42.68916" lon="23.27684">
        <ele>616.450778</ele>
        <time>2022-04-04T08:12:09.865Z</time>
      </trkpt>
      <trkpt lat="42.68905" lon="23.27677">
        <ele>616.201799</ele>
        <time>2022-04-04T08:12:12.866Z</time>
      </trkpt>
      <trkpt lat="42.68896" lon="23.2767">
        <ele>615.965812</ele>
        <time>2022-04-04T08:12:15.906Z</time>
      </trkpt>
      <trkpt lat="42.68885" lon="23.27664">
        <ele>615.716886</ele>
        <time>2022-04-04T08:12:18.880Z</time>
      </trkpt>
      <trkpt lat="42.68874" lon="23.27656">
        <ele>615.464645</ele>
        <time>2022-04-04T08:12:21.855Z</time>
      </trkpt>
      <trkpt lat="42.68864" lon="23.2765">
        <ele>615.233074</ele>
        <time>2022-04-04T08:12:24.869Z</time>
      </trkpt>
      <trkpt lat="42.68854" lon="23.27644">
        <ele>614.987983</ele>
        <time>2022-04-04T08:12:27.889Z</time>
      </trkpt>
      <trkpt lat="42.68843" lon="23.27636">
        <ele>614.734503</ele>
        <time>2022-04-04T08:12:30.893Z</time>
      </trkpt>
      <trkpt lat="42.68834" lon="23.27629">
        <ele>614.505938</ele>
        <time>2022-04-04T08:12:33.877Z</time>
      </trkpt>
      <trkpt lat="42.68824" lon="23.27621">
        <ele>614.255273</ele>
        <time>2022-04-04T08:12:36.881Z</time>
      </trkpt>
      <trkpt lat="42.68814" lon="23.27611">
        <ele>613.999273</ele>
        <time>2022-04-04T08:12:39.875Z</time>
      </trkpt>
      <trkpt lat="42.68806" lon="23.27604">
        <ele>613.802845</ele>
        <time>2022-04-04T08:12:41.867Z</time>
      </trkpt>
      <trkpt lat="42.68795" lon="23.27595">
        <ele>613.533252</ele>
        <time>2022-04-04T08:12:44.912Z</time>
      </trkpt>
      <trkpt lat="42.68785" lon="23.27588">
        <ele>613.348364</ele>
        <time>2022-04-04T08:12:47.871Z</time>
      </trkpt>
      <trkpt lat="42.68775" lon="23.27583">
        <ele>613.317337</ele>
        <time>2022-04-04T08:12:50.887Z</time>
      </trkpt>
      <trkpt lat="42.68767" lon="23.27577">
        <ele>613.291154</ele>
        <time>2022-04-04T08:12:52.862Z</time>
      </trkpt>
      <trkpt lat="42.68758" lon="23.2757">
        <ele>613.262604</ele>
        <time>2022-04-04T08:12:54.882Z</time>
      </trkpt>
      <trkpt lat="42.6875" lon="23.27564">
        <ele>613.234448</ele>
        <time>2022-04-04T08:12:56.868Z</time>
      </trkpt>
      <trkpt lat="42.68739" lon="23.27555">
        <ele>613.198635</ele>
        <time>2022-04-04T08:12:59.868Z</time>
      </trkpt>
      <trkpt lat="42.68729" lon="23.27547">
        <ele>613.164742</ele>
        <time>2022-04-04T08:13:02.886Z</time>
      </trkpt>
      <trkpt lat="42.68718" lon="23.27541">
        <ele>613.131679</ele>
        <time>2022-04-04T08:13:05.874Z</time>
      </trkpt>
      <trkpt lat="42.68707" lon="23.27533">
        <ele>613.095519</ele>
        <time>2022-04-04T08:13:08.879Z</time>
      </trkpt>
      <trkpt lat="42.68695" lon="23.27525">
        <ele>613.057287</ele>
        <time>2022-04-04T08:13:11.925Z</time>
      </trkpt>
      <trkpt lat="42.68683" lon="23.27517">
        <ele>613.020011</ele>
        <time>2022-04-04T08:13:14.880Z</time>
      </trkpt>
      <trkpt lat="42.68675" lon="23.27511">
        <ele>612.994029</ele>
        <time>2022-04-04T08:13:16.869Z</time>
      </trkpt>
      <trkpt lat="42.68665" lon="23.27504">
        <ele>612.960679</ele>
        <time>2022-04-04T08:13:19.876Z</time>
      </trkpt>
      <trkpt lat="42.68654" lon="23.27496">
        <ele>612.925764</ele>
        <time>2022-04-04T08:13:22.906Z</time>
      </trkpt>
      <trkpt lat="42.68643" lon="23.27487">
        <ele>612.888727</ele>
        <time>2022-04-04T08:13:25.896Z</time>
      </trkpt>
      <trkpt lat="42.68633" lon="23.27479">
        <ele>612.855666</ele>
        <time>2022-04-04T08:13:28.914Z</time>
      </trkpt>
      <trkpt lat="42.68624" lon="23.2747">
        <ele>613.056494</ele>
        <time>2022-04-04T08:13:31.889Z</time>
      </trkpt>
      <trkpt lat="42.68615" lon="23.27464">
        <ele>613.425735</ele>
        <time>2022-04-04T08:13:34.908Z</time>
      </trkpt>
      <trkpt lat="42.68605" lon="23.27457">
        <ele>613.799179</ele>
        <time>2022-04-04T08:13:37.876Z</time>
      </trkpt>
      <trkpt lat="42.68596" lon="23.2745">
        <ele>614.159813</ele>
        <time>2022-04-04T08:13:40.878Z</time>
      </trkpt>
      <trkpt lat="42.68587" lon="23.27442">
        <ele>614.518886</ele>
        <time>2022-04-04T08:13:43.880Z</time>
      </trkpt>
      <trkpt lat="42.68579" lon="23.27435">
        <ele>614.84253</ele>
        <time>2022-04-04T08:13:46.880Z</time>
      </trkpt>
      <trkpt lat="42.6857" lon="23.27427">
        <ele>615.207334</ele>
        <time>2022-04-04T08:13:50.867Z</time>
      </trkpt>
      <trkpt lat="42.68561" lon="23.27421">
        <ele>615.544116</ele>
        <time>2022-04-04T08:13:55.875Z</time>
      </trkpt>
      <trkpt lat="42.68552" lon="23.27411">
        <ele>615.946794</ele>
        <time>2022-04-04T08:14:03.860Z</time>
      </trkpt>
      <trkpt lat="42.68544" lon="23.27404">
        <ele>616.266185</ele>
        <time>2022-04-04T08:14:06.877Z</time>
      </trkpt>
      <trkpt lat="42.68535" lon="23.27399">
        <ele>616.614298</ele>
        <time>2022-04-04T08:14:09.865Z</time>
      </trkpt>
      <trkpt lat="42.68527" lon="23.27394">
        <ele>616.92487</ele>
        <time>2022-04-04T08:14:12.913Z</time>
      </trkpt>
      <trkpt lat="42.68519" lon="23.27386">
        <ele>617.266908</ele>
        <time>2022-04-04T08:14:15.863Z</time>
      </trkpt>
      <trkpt lat="42.68511" lon="23.27379">
        <ele>617.582046</ele>
        <time>2022-04-04T08:14:18.875Z</time>
      </trkpt>
      <trkpt lat="42.685" lon="23.27371">
        <ele>617.998924</ele>
        <time>2022-04-04T08:14:22.870Z</time>
      </trkpt>
      <trkpt lat="42.68491" lon="23.27363">
        <ele>618.368147</ele>
        <time>2022-04-04T08:14:25.887Z</time>
      </trkpt>
      <trkpt lat="42.68482" lon="23.27352">
        <ele>618.7971</ele>
        <time>2022-04-04T08:14:28.865Z</time>
      </trkpt>
      <trkpt lat="42.68474" lon="23.27343">
        <ele>619.235515</ele>
        <time>2022-04-04T08:14:31.875Z</time>
      </trkpt>
      <trkpt lat="42.68465" lon="23.27334">
        <ele>619.805838</ele>
        <time>2022-04-04T08:14:34.876Z</time>
      </trkpt>
      <trkpt lat="42.68455" lon="23.27326">
        <ele>620.4069</ele>
        <time>2022-04-04T08:14:37.868Z</time>
      </trkpt>
      <trkpt lat="42.68446" lon="23.27318">
        <ele>620.940689</ele>
        <time>2022-04-04T08:14:40.874Z</time>
      </trkpt>
      <trkpt lat="42.68436" lon="23.2731">
        <ele>621.538757</ele>
        <time>2022-04-04T08:14:43.876Z</time>
      </trkpt>
      <trkpt lat="42.68425" lon="23.27303">
        <ele>622.145192</ele>
        <time>2022-04-04T08:14:46.929Z</time>
      </trkpt>
      <trkpt lat="42.68417" lon="23.27295">
        <ele>622.672539</ele>
        <time>2022-04-04T08:14:49.878Z</time>
      </trkpt>
      <trkpt lat="42.68408" lon="23.27286">
        <ele>623.230098</ele>
        <time>2022-04-04T08:14:52.876Z</time>
      </trkpt>
      <trkpt lat="42.684" lon="23.27276">
        <ele>623.811008</ele>
        <time>2022-04-04T08:14:55.883Z</time>
      </trkpt>
      <trkpt lat="42.68391" lon="23.27266">
        <ele>624.406641</ele>
        <time>2022-04-04T08:14:58.879Z</time>
      </trkpt>
      <trkpt lat="42.68383" lon="23.27257">
        <ele>624.927791</ele>
        <time>2022-04-04T08:15:01.871Z</time>
      </trkpt>
      <trkpt lat="42.68375" lon="23.27248">
        <ele>625.460167</ele>
        <time>2022-04-04T08:15:04.884Z</time>
      </trkpt>
      <trkpt lat="42.68365" lon="23.27239">
        <ele>626.081701</ele>
        <time>2022-04-04T08:15:07.886Z</time>
      </trkpt>
      <trkpt lat="42.68355" lon="23.2723">
        <ele>626.715313</ele>
        <time>2022-04-04T08:15:10.868Z</time>
      </trkpt>
      <trkpt lat="42.68345" lon="23.27221">
        <ele>627.314916</ele>
        <time>2022-04-04T08:15:13.884Z</time>
      </trkpt>
      <trkpt lat="42.68337" lon="23.27212">
        <ele>627.873546</ele>
        <time>2022-04-04T08:15:16.870Z</time>
      </trkpt>
      <trkpt lat="42.68327" lon="23.27204">
        <ele>628.268391</ele>
        <time>2022-04-04T08:15:19.864Z</time>
      </trkpt>
      <trkpt lat="42.68319" lon="23.27197">
        <ele>628.274227</ele>
        <time>2022-04-04T08:15:22.894Z</time>
      </trkpt>
      <trkpt lat="42.68312" lon="23.27189">
        <ele>628.279654</ele>
        <time>2022-04-04T08:15:25.873Z</time>
      </trkpt>
      <trkpt lat="42.68304" lon="23.27182">
        <ele>628.285488</ele>
        <time>2022-04-04T08:15:28.876Z</time>
      </trkpt>
      <trkpt lat="42.68296" lon="23.27175">
        <ele>628.291096</ele>
        <time>2022-04-04T08:15:31.863Z</time>
      </trkpt>
      <trkpt lat="42.68288" lon="23.27166">
        <ele>628.297502</ele>
        <time>2022-04-04T08:15:35.870Z</time>
      </trkpt>
      <trkpt lat="42.68281" lon="23.27157">
        <ele>628.303308</ele>
        <time>2022-04-04T08:15:41.866Z</time>
      </trkpt>
      <trkpt lat="42.68276" lon="23.27139">
        <ele>628.312106</ele>
        <time>2022-04-04T08:16:23.885Z</time>
      </trkpt>
      <trkpt lat="42.6827" lon="23.27128">
        <ele>628.317999</ele>
        <time>2022-04-04T08:16:27.870Z</time>
      </trkpt>
      <trkpt lat="42.68262" lon="23.27117">
        <ele>628.324592</ele>
        <time>2022-04-04T08:16:31.873Z</time>
      </trkpt>
      <trkpt lat="42.68254" lon="23.27109">
        <ele>628.330631</ele>
        <time>2022-04-04T08:16:34.870Z</time>
      </trkpt>
      <trkpt lat="42.68246" lon="23.27101">
        <ele>628.336649</ele>
        <time>2022-04-04T08:16:37.874Z</time>
      </trkpt>
      <trkpt lat="42.6824" lon="23.2709">
        <ele>628.342543</ele>
        <time>2022-04-04T08:16:40.877Z</time>
      </trkpt>
      <trkpt lat="42.68233" lon="23.27078">
        <ele>628.349557</ele>
        <time>2022-04-04T08:16:44.868Z</time>
      </trkpt>
      <trkpt lat="42.68226" lon="23.27069">
        <ele>628.35518</ele>
        <time>2022-04-04T08:16:47.873Z</time>
      </trkpt>
      <trkpt lat="42.6822" lon="23.27059">
        <ele>628.361103</ele>
        <time>2022-04-04T08:16:50.879Z</time>
      </trkpt>
      <trkpt lat="42.68211" lon="23.2705">
        <ele>628.367511</ele>
        <time>2022-04-04T08:16:53.877Z</time>
      </trkpt>
      <trkpt lat="42.68203" lon="23.27041">
        <ele>628.374331</ele>
        <time>2022-04-04T08:16:56.853Z</time>
      </trkpt>
      <trkpt lat="42.68195" lon="23.27029">
        <ele>628.406423</ele>
        <time>2022-04-04T08:17:00.896Z</time>
      </trkpt>
      <trkpt lat="42.68185" lon="23.27019">
        <ele>628.442432</ele>
        <time>2022-04-04T08:17:04.881Z</time>
      </trkpt>
      <trkpt lat="42.68176" lon="23.2701">
        <ele>628.475214</ele>
        <time>2022-04-04T08:17:07.862Z</time>
      </trkpt>
      <trkpt lat="42.6817" lon="23.26999">
        <ele>628.506273</ele>
        <time>2022-04-04T08:17:10.886Z</time>
      </trkpt>
      <trkpt lat="42.68163" lon="23.26989">
        <ele>628.536739</ele>
        <time>2022-04-04T08:17:13.888Z</time>
      </trkpt>
      <trkpt lat="42.68154" lon="23.26979">
        <ele>628.570486</ele>
        <time>2022-04-04T08:17:16.866Z</time>
      </trkpt>
      <trkpt lat="42.68145" lon="23.2697">
        <ele>628.605166</ele>
        <time>2022-04-04T08:17:19.880Z</time>
      </trkpt>
      <trkpt lat="42.68136" lon="23.26963">
        <ele>628.634693</ele>
        <time>2022-04-04T08:17:22.890Z</time>
      </trkpt>
      <trkpt lat="42.68129" lon="23.26956">
        <ele>628.662413</ele>
        <time>2022-04-04T08:17:25.864Z</time>
      </trkpt>
      <trkpt lat="42.6812" lon="23.26948">
        <ele>628.692962</ele>
        <time>2022-04-04T08:17:28.911Z</time>
      </trkpt>
      <trkpt lat="42.68111" lon="23.26944">
        <ele>628.72251</ele>
        <time>2022-04-04T08:17:31.883Z</time>
      </trkpt>
      <trkpt lat="42.68101" lon="23.2694">
        <ele>628.752871</ele>
        <time>2022-04-04T08:17:34.877Z</time>
      </trkpt>
      <trkpt lat="42.68092" lon="23.26937">
        <ele>628.780586</ele>
        <time>2022-04-04T08:17:37.880Z</time>
      </trkpt>
      <trkpt lat="42.68082" lon="23.26933">
        <ele>628.812154</ele>
        <time>2022-04-04T08:17:40.866Z</time>
      </trkpt>
      <trkpt lat="42.68072" lon="23.26929">
        <ele>628.843102</ele>
        <time>2022-04-04T08:17:43.868Z</time>
      </trkpt>
      <trkpt lat="42.68061" lon="23.26926">
        <ele>628.875419</ele>
        <time>2022-04-04T08:17:47.879Z</time>
      </trkpt>
      <trkpt lat="42.68051" lon="23.26922">
        <ele>628.906822</ele>
        <time>2022-04-04T08:17:52.920Z</time>
      </trkpt>
      <trkpt lat="42.68031" lon="23.26916">
        <ele>629.302028</ele>
        <time>2022-04-04T08:18:22.887Z</time>
      </trkpt>
      <trkpt lat="42.68025" lon="23.26906">
        <ele>629.495</ele>
        <time>2022-04-04T08:18:26.883Z</time>
      </trkpt>
      <trkpt lat="42.68027" lon="23.26891">
        <ele>629.728762</ele>
        <time>2022-04-04T08:18:30.867Z</time>
      </trkpt>
      <trkpt lat="42.68028" lon="23.26879">
        <ele>629.918379</ele>
        <time>2022-04-04T08:18:33.880Z</time>
      </trkpt>
      <trkpt lat="42.68027" lon="23.26866">
        <ele>630.114336</ele>
        <time>2022-04-04T08:18:38.860Z</time>
      </trkpt>
      <trkpt lat="42.68029" lon="23.26852">
        <ele>630.333073</ele>
        <time>2022-04-04T08:18:42.878Z</time>
      </trkpt>
      <trkpt lat="42.68031" lon="23.26837">
        <ele>630.576138</ele>
        <time>2022-04-04T08:18:46.866Z</time>
      </trkpt>
      <trkpt lat="42.68033" lon="23.2682">
        <ele>630.838681</ele>
        <time>2022-04-04T08:18:50.875Z</time>
      </trkpt>
      <trkpt lat="42.68037" lon="23.26804">
        <ele>631.087223</ele>
        <time>2022-04-04T08:18:53.882Z</time>
      </trkpt>
      <trkpt lat="42.6804" lon="23.2679">
        <ele>631.308614</ele>
        <time>2022-04-04T08:18:57.919Z</time>
      </trkpt>
      <trkpt lat="42.68038" lon="23.26777">
        <ele>631.516951</ele>
        <time>2022-04-04T08:19:02.880Z</time>
      </trkpt>
      <trkpt lat="42.68039" lon="23.26764">
        <ele>631.712335</ele>
        <time>2022-04-04T08:19:05.881Z</time>
      </trkpt>
      <trkpt lat="42.6804" lon="23.26749">
        <ele>631.942896</ele>
        <time>2022-04-04T08:19:09.885Z</time>
      </trkpt>
      <trkpt lat="42.6804" lon="23.26736">
        <ele>632.145852</ele>
        <time>2022-04-04T08:19:14.872Z</time>
      </trkpt>
      <trkpt lat="42.6804" lon="23.26721">
        <ele>632.367109</ele>
        <time>2022-04-04T08:19:18.883Z</time>
      </trkpt>
      <trkpt lat="42.68041" lon="23.26707">
        <ele>632.587466</ele>
        <time>2022-04-04T08:19:22.867Z</time>
      </trkpt>
      <trkpt lat="42.68045" lon="23.26693">
        <ele>633.025387</ele>
        <time>2022-04-04T08:19:25.877Z</time>
      </trkpt>
      <trkpt lat="42.68049" lon="23.26681">
        <ele>633.434172</ele>
        <time>2022-04-04T08:19:27.901Z</time>
      </trkpt>
      <trkpt lat="42.68052" lon="23.26665">
        <ele>633.944829</ele>
        <time>2022-04-04T08:19:30.927Z</time>
      </trkpt>
      <trkpt lat="42.68051" lon="23.26651">
        <ele>634.401754</ele>
        <time>2022-04-04T08:19:34.877Z</time>
      </trkpt>
      <trkpt lat="42.68044" lon="23.2664">
        <ele>634.912351</ele>
        <time>2022-04-04T08:19:38.873Z</time>
      </trkpt>
      <trkpt lat="42.68039" lon="23.26625">
        <ele>635.419252</ele>
        <time>2022-04-04T08:19:42.869Z</time>
      </trkpt>
      <trkpt lat="42.68037" lon="23.26612">
        <ele>635.839252</ele>
        <time>2022-04-04T08:19:46.908Z</time>
      </trkpt>
      <trkpt lat="42.68039" lon="23.26598">
        <ele>636.315119</ele>
        <time>2022-04-04T08:19:50.877Z</time>
      </trkpt>
      <trkpt lat="42.68039" lon="23.26583">
        <ele>636.79404</ele>
        <time>2022-04-04T08:19:55.904Z</time>
      </trkpt>
      <trkpt lat="42.68034" lon="23.26571">
        <ele>637.230807</ele>
        <time>2022-04-04T08:19:59.886Z</time>
      </trkpt>
      <trkpt lat="42.68027" lon="23.26563">
        <ele>637.640658</ele>
        <time>2022-04-04T08:20:02.862Z</time>
      </trkpt>
      <trkpt lat="42.68017" lon="23.26554">
        <ele>638.156563</ele>
        <time>2022-04-04T08:20:05.875Z</time>
      </trkpt>
      <trkpt lat="42.68008" lon="23.26542">
        <ele>638.721988</ele>
        <time>2022-04-04T08:20:08.869Z</time>
      </trkpt>
      <trkpt lat="42.68004" lon="23.26525">
        <ele>639.303152</ele>
        <time>2022-04-04T08:20:11.875Z</time>
      </trkpt>
      <trkpt lat="42.68003" lon="23.2651">
        <ele>639.790861</ele>
        <time>2022-04-04T08:20:14.880Z</time>
      </trkpt>
      <trkpt lat="42.67995" lon="23.26496">
        <ele>640.36348</ele>
        <time>2022-04-04T08:20:17.879Z</time>
      </trkpt>
      <trkpt lat="42.67991" lon="23.26484">
        <ele>640.559212</ele>
        <time>2022-04-04T08:20:20.859Z</time>
      </trkpt>
      <trkpt lat="42.6799" lon="23.26468">
        <ele>640.666239</ele>
        <time>2022-04-04T08:20:24.896Z</time>
      </trkpt>
      <trkpt lat="42.67987" lon="23.26455">
        <ele>640.755127</ele>
        <time>2022-04-04T08:20:28.860Z</time>
      </trkpt>
      <trkpt lat="42.67978" lon="23.26447">
        <ele>640.856397</ele>
        <time>2022-04-04T08:20:32.909Z</time>
      </trkpt>
      <trkpt lat="42.6797" lon="23.26434">
        <ele>640.963503</ele>
        <time>2022-04-04T08:20:36.880Z</time>
      </trkpt>
      <trkpt lat="42.67963" lon="23.26424">
        <ele>641.056314</ele>
        <time>2022-04-04T08:20:40.883Z</time>
      </trkpt>
      <trkpt lat="42.67961" lon="23.26409">
        <ele>641.153852</ele>
        <time>2022-04-04T08:20:44.891Z</time>
      </trkpt>
      <trkpt lat="42.67957" lon="23.26397">
        <ele>641.240267</ele>
        <time>2022-04-04T08:20:47.865Z</time>
      </trkpt>
      <trkpt lat="42.67949" lon="23.26386">
        <ele>641.341136</ele>
        <time>2022-04-04T08:20:51.859Z</time>
      </trkpt>
      <trkpt lat="42.67945" lon="23.26373">
        <ele>641.43007</ele>
        <time>2022-04-04T08:20:55.874Z</time>
      </trkpt>
      <trkpt lat="42.67942" lon="23.26361">
        <ele>641.513383</ele>
        <time>2022-04-04T08:20:59.910Z</time>
      </trkpt>
      <trkpt lat="42.67941" lon="23.26347">
        <ele>641.611386</ele>
        <time>2022-04-04T08:21:03.888Z</time>
      </trkpt>
      <trkpt lat="42.67938" lon="23.26335">
        <ele>641.69229</ele>
        <time>2022-04-04T08:21:06.870Z</time>
      </trkpt>
      <trkpt lat="42.67934" lon="23.2632">
        <ele>641.793391</ele>
        <time>2022-04-04T08:21:10.941Z</time>
      </trkpt>
      <trkpt lat="42.67926" lon="23.2631">
        <ele>641.894206</ele>
        <time>2022-04-04T08:21:14.880Z</time>
      </trkpt>
      <trkpt lat="42.67921" lon="23.26298">
        <ele>641.987171</ele>
        <time>2022-04-04T08:21:18.867Z</time>
      </trkpt>
      <trkpt lat="42.67916" lon="23.26284">
        <ele>642.08536</ele>
        <time>2022-04-04T08:21:23.881Z</time>
      </trkpt>
      <trkpt lat="42.6791" lon="23.26273">
        <ele>642.199083</ele>
        <time>2022-04-04T08:21:27.874Z</time>
      </trkpt>
      <trkpt lat="42.67904" lon="23.2626">
        <ele>642.342355</ele>
        <time>2022-04-04T08:21:31.883Z</time>
      </trkpt>
      <trkpt lat="42.67901" lon="23.26247">
        <ele>642.4667</ele>
        <time>2022-04-04T08:21:35.875Z</time>
      </trkpt>
      <trkpt lat="42.67898" lon="23.26233">
        <ele>642.600333</ele>
        <time>2022-04-04T08:21:39.883Z</time>
      </trkpt>
      <trkpt lat="42.67895" lon="23.26218">
        <ele>642.738564</ele>
        <time>2022-04-04T08:21:43.914Z</time>
      </trkpt>
      <trkpt lat="42.67888" lon="23.26206">
        <ele>642.880919</ele>
        <time>2022-04-04T08:21:47.888Z</time>
      </trkpt>
      <trkpt lat="42.67881" lon="23.26197">
        <ele>642.993646</ele>
        <time>2022-04-04T08:21:50.871Z</time>
      </trkpt>
      <trkpt lat="42.67876" lon="23.26187">
        <ele>643.108753</ele>
        <time>2022-04-04T08:21:54.882Z</time>
      </trkpt>
      <trkpt lat="42.67876" lon="23.26174">
        <ele>643.229422</ele>
        <time>2022-04-04T08:21:58.870Z</time>
      </trkpt>
      <trkpt lat="42.67876" lon="23.26159">
        <ele>643.364695</ele>
        <time>2022-04-04T08:22:03.867Z</time>
      </trkpt>
      <trkpt lat="42.67874" lon="23.26146">
        <ele>643.485189</ele>
        <time>2022-04-04T08:22:07.878Z</time>
      </trkpt>
      <trkpt lat="42.6787" lon="23.26133">
        <ele>643.613867</ele>
        <time>2022-04-04T08:22:12.870Z</time>
      </trkpt>
      <trkpt lat="42.67862" lon="23.26128">
        <ele>643.728944</ele>
        <time>2022-04-04T08:22:16.872Z</time>
      </trkpt>
      <trkpt lat="42.67857" lon="23.26116">
        <ele>643.863406</ele>
        <time>2022-04-04T08:22:21.875Z</time>
      </trkpt>
      <trkpt lat="42.67848" lon="23.26107">
        <ele>643.991945</ele>
        <time>2022-04-04T08:22:25.878Z</time>
      </trkpt>
      <trkpt lat="42.67844" lon="23.26096">
        <ele>644.112406</ele>
        <time>2022-04-04T08:22:29.879Z</time>
      </trkpt>
      <trkpt lat="42.67842" lon="23.26082">
        <ele>644.238272</ele>
        <time>2022-04-04T08:22:34.878Z</time>
      </trkpt>
      <trkpt lat="42.67842" lon="23.26068">
        <ele>644.414597</ele>
        <time>2022-04-04T08:22:39.869Z</time>
      </trkpt>
      <trkpt lat="42.67836" lon="23.26056">
        <ele>644.888647</ele>
        <time>2022-04-04T08:22:44.867Z</time>
      </trkpt>
      <trkpt lat="42.67828" lon="23.26047">
        <ele>645.367805</ele>
        <time>2022-04-04T08:22:49.877Z</time>
      </trkpt>
      <trkpt lat="42.67822" lon="23.26036">
        <ele>645.838262</ele>
        <time>2022-04-04T08:22:54.885Z</time>
      </trkpt>
      <trkpt lat="42.67817" lon="23.26023">
        <ele>646.328879</ele>
        <time>2022-04-04T08:22:58.878Z</time>
      </trkpt>
      <trkpt lat="42.67815" lon="23.26008">
        <ele>646.82027</ele>
        <time>2022-04-04T08:23:02.874Z</time>
      </trkpt>
      <trkpt lat="42.67815" lon="23.25993">
        <ele>647.339821</ele>
        <time>2022-04-04T08:23:07.915Z</time>
      </trkpt>
      <trkpt lat="42.67809" lon="23.25981">
        <ele>647.835896</ele>
        <time>2022-04-04T08:23:11.870Z</time>
      </trkpt>
      <trkpt lat="42.67801" lon="23.2597">
        <ele>648.357727</ele>
        <time>2022-04-04T08:23:15.864Z</time>
      </trkpt>
      <trkpt lat="42.67793" lon="23.25962">
        <ele>648.809133</ele>
        <time>2022-04-04T08:23:18.882Z</time>
      </trkpt>
      <trkpt lat="42.6779" lon="23.25949">
        <ele>649.2829</ele>
        <time>2022-04-04T08:23:22.859Z</time>
      </trkpt>
      <trkpt lat="42.67789" lon="23.25934">
        <ele>649.782794</ele>
        <time>2022-04-04T08:23:27.892Z</time>
      </trkpt>
      <trkpt lat="42.67782" lon="23.2592">
        <ele>650.351014</ele>
        <time>2022-04-04T08:23:31.874Z</time>
      </trkpt>
      <trkpt lat="42.67776" lon="23.25907">
        <ele>650.879693</ele>
        <time>2022-04-04T08:23:36.861Z</time>
      </trkpt>
      <trkpt lat="42.67767" lon="23.25899">
        <ele>651.357643</ele>
        <time>2022-04-04T08:23:40.880Z</time>
      </trkpt>
      <trkpt lat="42.6776" lon="23.25889">
        <ele>651.840374</ele>
        <time>2022-04-04T08:23:44.867Z</time>
      </trkpt>
      <trkpt lat="42.67755" lon="23.25875">
        <ele>652.333471</ele>
        <time>2022-04-04T08:23:49.895Z</time>
      </trkpt>
      <trkpt lat="42.67751" lon="23.25863">
        <ele>652.764712</ele>
        <time>2022-04-04T08:23:54.864Z</time>
      </trkpt>
      <trkpt lat="42.67748" lon="23.25848">
        <ele>653.217462</ele>
        <time>2022-04-04T08:23:59.872Z</time>
      </trkpt>
      <trkpt lat="42.67745" lon="23.25833">
        <ele>653.699983</ele>
        <time>2022-04-04T08:24:03.876Z</time>
      </trkpt>
      <trkpt lat="42.67741" lon="23.2582">
        <ele>654.119391</ele>
        <time>2022-04-04T08:24:07.877Z</time>
      </trkpt>
      <trkpt lat="42.67736" lon="23.25808">
        <ele>654.535958</ele>
        <time>2022-04-04T08:24:12.875Z</time>
      </trkpt>
      <trkpt lat="42.67736" lon="23.25793">
        <ele>654.981206</ele>
        <time>2022-04-04T08:24:17.880Z</time>
      </trkpt>
      <trkpt lat="42.67735" lon="23.2578">
        <ele>655.362185</ele>
        <time>2022-04-04T08:24:21.869Z</time>
      </trkpt>
      <trkpt lat="42.67736" lon="23.25765">
        <ele>655.819572</ele>
        <time>2022-04-04T08:24:26.862Z</time>
      </trkpt>
      <trkpt lat="42.67738" lon="23.25749">
        <ele>656.274985</ele>
        <time>2022-04-04T08:24:30.859Z</time>
      </trkpt>
      <trkpt lat="42.67741" lon="23.25736">
        <ele>656.687317</ele>
        <time>2022-04-04T08:24:33.897Z</time>
      </trkpt>
      <trkpt lat="42.67744" lon="23.25722">
        <ele>657.135534</ele>
        <time>2022-04-04T08:24:38.876Z</time>
      </trkpt>
      <trkpt lat="42.67742" lon="23.25708">
        <ele>657.550803</ele>
        <time>2022-04-04T08:24:42.924Z</time>
      </trkpt>
      <trkpt lat="42.67737" lon="23.25697">
        <ele>657.953059</ele>
        <time>2022-04-04T08:24:46.882Z</time>
      </trkpt>
      <trkpt lat="42.67735" lon="23.25683">
        <ele>658.35015</ele>
        <time>2022-04-04T08:24:50.878Z</time>
      </trkpt>
      <trkpt lat="42.67733" lon="23.25669">
        <ele>658.798342</ele>
        <time>2022-04-04T08:24:55.872Z</time>
      </trkpt>
      <trkpt lat="42.6773" lon="23.25654">
        <ele>659.236346</ele>
        <time>2022-04-04T08:24:59.874Z</time>
      </trkpt>
      <trkpt lat="42.6773" lon="23.25641">
        <ele>659.646276</ele>
        <time>2022-04-04T08:25:03.872Z</time>
      </trkpt>
      <trkpt lat="42.67727" lon="23.25628">
        <ele>660.214161</ele>
        <time>2022-04-04T08:25:07.882Z</time>
      </trkpt>
      <trkpt lat="42.67724" lon="23.25616">
        <ele>661.034464</ele>
        <time>2022-04-04T08:25:12.876Z</time>
      </trkpt>
      <trkpt lat="42.67723" lon="23.25603">
        <ele>661.807607</ele>
        <time>2022-04-04T08:25:16.863Z</time>
      </trkpt>
      <trkpt lat="42.67721" lon="23.2559">
        <ele>662.667527</ele>
        <time>2022-04-04T08:25:21.876Z</time>
      </trkpt>
      <trkpt lat="42.67713" lon="23.25581">
        <ele>663.513927</ele>
        <time>2022-04-04T08:25:25.879Z</time>
      </trkpt>
      <trkpt lat="42.67714" lon="23.25565">
        <ele>664.480999</ele>
        <time>2022-04-04T08:25:30.879Z</time>
      </trkpt>
      <trkpt lat="42.67713" lon="23.25552">
        <ele>665.285864</ele>
        <time>2022-04-04T08:25:34.883Z</time>
      </trkpt>
      <trkpt lat="42.67715" lon="23.25539">
        <ele>666.145306</ele>
        <time>2022-04-04T08:25:40.867Z</time>
      </trkpt>
      <trkpt lat="42.67715" lon="23.25525">
        <ele>667.014028</ele>
        <time>2022-04-04T08:25:46.876Z</time>
      </trkpt>
      <trkpt lat="42.67713" lon="23.25511">
        <ele>667.892866</ele>
        <time>2022-04-04T08:25:52.883Z</time>
      </trkpt>
      <trkpt lat="42.67713" lon="23.25497">
        <ele>668.761917</ele>
        <time>2022-04-04T08:25:57.868Z</time>
      </trkpt>
      <trkpt lat="42.67714" lon="23.25483">
        <ele>669.641715</ele>
        <time>2022-04-04T08:26:02.876Z</time>
      </trkpt>
      <trkpt lat="42.67717" lon="23.25469">
        <ele>670.505536</ele>
        <time>2022-04-04T08:26:07.875Z</time>
      </trkpt>
      <trkpt lat="42.67709" lon="23.25461">
        <ele>671.356877</ele>
        <time>2022-04-04T08:26:10.884Z</time>
      </trkpt>
      <trkpt lat="42.67706" lon="23.25449">
        <ele>672.12272</ele>
        <time>2022-04-04T08:26:15.879Z</time>
      </trkpt>
      <trkpt lat="42.67711" lon="23.25438">
        <ele>672.932491</ele>
        <time>2022-04-04T08:26:19.863Z</time>
      </trkpt>
      <trkpt lat="42.67707" lon="23.25425">
        <ele>673.778386</ele>
        <time>2022-04-04T08:26:25.900Z</time>
      </trkpt>
      <trkpt lat="42.677" lon="23.25416">
        <ele>674.554075</ele>
        <time>2022-04-04T08:26:30.873Z</time>
      </trkpt>
      <trkpt lat="42.67703" lon="23.25405">
        <ele>674.958047</ele>
        <time>2022-04-04T08:26:34.870Z</time>
      </trkpt>
      <trkpt lat="42.67709" lon="23.25392">
        <ele>674.664885</ele>
        <time>2022-04-04T08:26:38.886Z</time>
      </trkpt>
      <trkpt lat="42.67712" lon="23.25378">
        <ele>674.370668</ele>
        <time>2022-04-04T08:26:42.874Z</time>
      </trkpt>
      <trkpt lat="42.67707" lon="23.25367">
        <ele>674.128704</ele>
        <time>2022-04-04T08:26:46.862Z</time>
      </trkpt>
      <trkpt lat="42.67703" lon="23.25356">
        <ele>673.884437</ele>
        <time>2022-04-04T08:26:50.864Z</time>
      </trkpt>
      <trkpt lat="42.67699" lon="23.25344">
        <ele>673.611939</ele>
        <time>2022-04-04T08:26:54.879Z</time>
      </trkpt>
      <trkpt lat="42.6769" lon="23.25335">
        <ele>673.325524</ele>
        <time>2022-04-04T08:27:00.870Z</time>
      </trkpt>
      <trkpt lat="42.6768" lon="23.25333">
        <ele>673.049915</ele>
        <time>2022-04-04T08:27:04.911Z</time>
      </trkpt>
      <trkpt lat="42.6767" lon="23.25332">
        <ele>672.795832</ele>
        <time>2022-04-04T08:27:08.863Z</time>
      </trkpt>
      <trkpt lat="42.67659" lon="23.2533">
        <ele>672.494994</ele>
        <time>2022-04-04T08:27:13.883Z</time>
      </trkpt>
      <trkpt lat="42.67651" lon="23.25325">
        <ele>672.238452</ele>
        <time>2022-04-04T08:27:17.892Z</time>
      </trkpt>
      <trkpt lat="42.67641" lon="23.25321">
        <ele>671.98612</ele>
        <time>2022-04-04T08:27:23.909Z</time>
      </trkpt>
      <trkpt lat="42.67632" lon="23.25317">
        <ele>671.729035</ele>
        <time>2022-04-04T08:27:28.887Z</time>
      </trkpt>
      <trkpt lat="42.67623" lon="23.25313">
        <ele>671.468924</ele>
        <time>2022-04-04T08:27:32.876Z</time>
      </trkpt>
      <trkpt lat="42.67613" lon="23.25309">
        <ele>671.183568</ele>
        <time>2022-04-04T08:27:36.919Z</time>
      </trkpt>
      <trkpt lat="42.67603" lon="23.25305">
        <ele>670.90572</ele>
        <time>2022-04-04T08:27:40.883Z</time>
      </trkpt>
      <trkpt lat="42.67594" lon="23.253">
        <ele>670.649399</ele>
        <time>2022-04-04T08:27:44.879Z</time>
      </trkpt>
      <trkpt lat="42.67584" lon="23.25296">
        <ele>670.374664</ele>
        <time>2022-04-04T08:27:48.878Z</time>
      </trkpt>
      <trkpt lat="42.67575" lon="23.25294">
        <ele>670.101288</ele>
        <time>2022-04-04T08:27:52.869Z</time>
      </trkpt>
      <trkpt lat="42.67565" lon="23.25292">
        <ele>669.774349</ele>
        <time>2022-04-04T08:27:56.883Z</time>
      </trkpt>
      <trkpt lat="42.67554" lon="23.25288">
        <ele>669.393591</ele>
        <time>2022-04-04T08:28:00.921Z</time>
      </trkpt>
      <trkpt lat="42.67545" lon="23.25284">
        <ele>669.07645</ele>
        <time>2022-04-04T08:28:03.883Z</time>
      </trkpt>
      <trkpt lat="42.67533" lon="23.2528">
        <ele>668.665371</ele>
        <time>2022-04-04T08:28:07.875Z</time>
      </trkpt>
      <trkpt lat="42.67523" lon="23.25276">
        <ele>668.300559</ele>
        <time>2022-04-04T08:28:10.911Z</time>
      </trkpt>
      <trkpt lat="42.67512" lon="23.25273">
        <ele>667.911158</ele>
        <time>2022-04-04T08:28:13.876Z</time>
      </trkpt>
      <trkpt lat="42.67499" lon="23.25271">
        <ele>667.4923</ele>
        <time>2022-04-04T08:28:16.883Z</time>
      </trkpt>
      <trkpt lat="42.67486" lon="23.25266">
        <ele>667.031993</ele>
        <time>2022-04-04T08:28:19.908Z</time>
      </trkpt>
      <trkpt lat="42.67475" lon="23.25261">
        <ele>666.665401</ele>
        <time>2022-04-04T08:28:21.863Z</time>
      </trkpt>
      <trkpt lat="42.67463" lon="23.25255">
        <ele>666.231699</ele>
        <time>2022-04-04T08:28:23.874Z</time>
      </trkpt>
      <trkpt lat="42.67453" lon="23.25249">
        <ele>665.850127</ele>
        <time>2022-04-04T08:28:25.895Z</time>
      </trkpt>
      <trkpt lat="42.67442" lon="23.25243">
        <ele>665.454428</ele>
        <time>2022-04-04T08:28:27.891Z</time>
      </trkpt>
      <trkpt lat="42.6743" lon="23.25239">
        <ele>665.032483</ele>
        <time>2022-04-04T08:28:29.890Z</time>
      </trkpt>
      <trkpt lat="42.67418" lon="23.25235">
        <ele>664.627066</ele>
        <time>2022-04-04T08:28:31.886Z</time>
      </trkpt>
      <trkpt lat="42.67407" lon="23.2523">
        <ele>664.241598</ele>
        <time>2022-04-04T08:28:33.913Z</time>
      </trkpt>
      <trkpt lat="42.67396" lon="23.25226">
        <ele>664.14671</ele>
        <time>2022-04-04T08:28:35.893Z</time>
      </trkpt>
      <trkpt lat="42.67385" lon="23.25224">
        <ele>664.079642</ele>
        <time>2022-04-04T08:28:37.896Z</time>
      </trkpt>
      <trkpt lat="42.67375" lon="23.2522">
        <ele>664.013944</ele>
        <time>2022-04-04T08:28:39.883Z</time>
      </trkpt>
      <trkpt lat="42.67365" lon="23.25216">
        <ele>663.948246</ele>
        <time>2022-04-04T08:28:41.939Z</time>
      </trkpt>
      <trkpt lat="42.67354" lon="23.25213">
        <ele>663.882321</ele>
        <time>2022-04-04T08:28:43.877Z</time>
      </trkpt>
      <trkpt lat="42.67343" lon="23.2521">
        <ele>663.811556</ele>
        <time>2022-04-04T08:28:45.887Z</time>
      </trkpt>
      <trkpt lat="42.67331" lon="23.25208">
        <ele>663.741067</ele>
        <time>2022-04-04T08:28:47.868Z</time>
      </trkpt>
      <trkpt lat="42.67322" lon="23.25205">
        <ele>663.68423</ele>
        <time>2022-04-04T08:28:49.896Z</time>
      </trkpt>
      <trkpt lat="42.67313" lon="23.25202">
        <ele>663.624421</ele>
        <time>2022-04-04T08:28:51.876Z</time>
      </trkpt>
      <trkpt lat="42.67303" lon="23.25198">
        <ele>663.564612</ele>
        <time>2022-04-04T08:28:53.885Z</time>
      </trkpt>
      <trkpt lat="42.67293" lon="23.25193">
        <ele>663.496871</ele>
        <time>2022-04-04T08:28:56.909Z</time>
      </trkpt>
      <trkpt lat="42.67283" lon="23.25189">
        <ele>663.434413</ele>
        <time>2022-04-04T08:29:00.878Z</time>
      </trkpt>
      <trkpt lat="42.67271" lon="23.25183">
        <ele>663.35399</ele>
        <time>2022-04-04T08:29:03.961Z</time>
      </trkpt>
      <trkpt lat="42.6726" lon="23.25177">
        <ele>663.285426</ele>
        <time>2022-04-04T08:29:05.898Z</time>
      </trkpt>
      <trkpt lat="42.67251" lon="23.25173">
        <ele>663.22732</ele>
        <time>2022-04-04T08:29:07.881Z</time>
      </trkpt>
      <trkpt lat="42.67242" lon="23.2517">
        <ele>663.169546</ele>
        <time>2022-04-04T08:29:09.988Z</time>
      </trkpt>
      <trkpt lat="42.6723" lon="23.25167">
        <ele>663.100594</ele>
        <time>2022-04-04T08:29:11.865Z</time>
      </trkpt>
      <trkpt lat="42.67219" lon="23.25166">
        <ele>663.066232</ele>
        <time>2022-04-04T08:29:13.890Z</time>
      </trkpt>
      <trkpt lat="42.6721" lon="23.25163">
        <ele>663.036192</ele>
        <time>2022-04-04T08:29:15.880Z</time>
      </trkpt>
      <trkpt lat="42.67198" lon="23.2516">
        <ele>662.995863</ele>
        <time>2022-04-04T08:29:18.920Z</time>
      </trkpt>
      <trkpt lat="42.67187" lon="23.25158">
        <ele>662.958146</ele>
        <time>2022-04-04T08:29:21.872Z</time>
      </trkpt>
      <trkpt lat="42.67175" lon="23.25163">
        <ele>662.918307</ele>
        <time>2022-04-04T08:29:24.983Z</time>
      </trkpt>
      <trkpt lat="42.67165" lon="23.25173">
        <ele>662.8799</ele>
        <time>2022-04-04T08:29:27.862Z</time>
      </trkpt>
      <trkpt lat="42.67157" lon="23.25183">
        <ele>662.844392</ele>
        <time>2022-04-04T08:29:30.878Z</time>
      </trkpt>
      <trkpt lat="42.67149" lon="23.25194">
        <ele>662.806057</ele>
        <time>2022-04-04T08:29:33.877Z</time>
      </trkpt>
      <trkpt lat="42.67142" lon="23.25204">
        <ele>662.775493</ele>
        <time>2022-04-04T08:29:35.858Z</time>
      </trkpt>
      <trkpt lat="42.67134" lon="23.25214">
        <ele>662.737741</ele>
        <time>2022-04-04T08:29:38.874Z</time>
      </trkpt>
      <trkpt lat="42.67124" lon="23.25226">
        <ele>662.697535</ele>
        <time>2022-04-04T08:29:41.874Z</time>
      </trkpt>
      <trkpt lat="42.67118" lon="23.25235">
        <ele>662.667968</ele>
        <time>2022-04-04T08:29:43.923Z</time>
      </trkpt>
      <trkpt lat="42.67111" lon="23.25246">
        <ele>662.633908</ele>
        <time>2022-04-04T08:29:45.895Z</time>
      </trkpt>
      <trkpt lat="42.67104" lon="23.25256">
        <ele>662.599756</ele>
        <time>2022-04-04T08:29:47.887Z</time>
      </trkpt>
      <trkpt lat="42.67097" lon="23.25268">
        <ele>662.564162</ele>
        <time>2022-04-04T08:29:49.885Z</time>
      </trkpt>
      <trkpt lat="42.67091" lon="23.25279">
        <ele>662.531399</ele>
        <time>2022-04-04T08:29:51.910Z</time>
      </trkpt>
      <trkpt lat="42.67084" lon="23.25292">
        <ele>662.486517</ele>
        <time>2022-04-04T08:29:54.866Z</time>
      </trkpt>
      <trkpt lat="42.67076" lon="23.25301">
        <ele>662.448432</ele>
        <time>2022-04-04T08:29:56.944Z</time>
      </trkpt>
      <trkpt lat="42.67064" lon="23.25312">
        <ele>662.397163</ele>
        <time>2022-04-04T08:29:58.900Z</time>
      </trkpt>
      <trkpt lat="42.67054" lon="23.25321">
        <ele>662.352168</ele>
        <time>2022-04-04T08:30:00.891Z</time>
      </trkpt>
      <trkpt lat="42.67044" lon="23.25332">
        <ele>662.302943</ele>
        <time>2022-04-04T08:30:03.874Z</time>
      </trkpt>
      <trkpt lat="42.67037" lon="23.2534">
        <ele>662.269381</ele>
        <time>2022-04-04T08:30:05.893Z</time>
      </trkpt>
      <trkpt lat="42.67027" lon="23.25343">
        <ele>662.231652</ele>
        <time>2022-04-04T08:30:08.875Z</time>
      </trkpt>
      <trkpt lat="42.67018" lon="23.25334">
        <ele>662.190601</ele>
        <time>2022-04-04T08:30:12.866Z</time>
      </trkpt>
      <trkpt lat="42.67013" lon="23.25323">
        <ele>662.1532</ele>
        <time>2022-04-04T08:30:16.871Z</time>
      </trkpt>
      <trkpt lat="42.67006" lon="23.25314">
        <ele>662.119899</ele>
        <time>2022-04-04T08:30:19.888Z</time>
      </trkpt>
      <trkpt lat="42.67001" lon="23.25304">
        <ele>662.085004</ele>
        <time>2022-04-04T08:30:22.870Z</time>
      </trkpt>
      <trkpt lat="42.66995" lon="23.25292">
        <ele>662.046579</ele>
        <time>2022-04-04T08:30:26.869Z</time>
      </trkpt>
      <trkpt lat="42.66988" lon="23.25282">
        <ele>662.007644</ele>
        <time>2022-04-04T08:30:29.856Z</time>
      </trkpt>
      <trkpt lat="42.66981" lon="23.25272">
        <ele>661.972014</ele>
        <time>2022-04-04T08:30:32.885Z</time>
      </trkpt>
      <trkpt lat="42.66975" lon="23.25263">
        <ele>661.937996</ele>
        <time>2022-04-04T08:30:35.866Z</time>
      </trkpt>
      <trkpt lat="42.66967" lon="23.25251">
        <ele>661.894124</ele>
        <time>2022-04-04T08:30:39.887Z</time>
      </trkpt>
      <trkpt lat="42.66958" lon="23.25241">
        <ele>661.979702</ele>
        <time>2022-04-04T08:30:42.882Z</time>
      </trkpt>
      <trkpt lat="42.66949" lon="23.25232">
        <ele>662.347834</ele>
        <time>2022-04-04T08:30:45.882Z</time>
      </trkpt>
      <trkpt lat="42.66941" lon="23.25223">
        <ele>662.699331</ele>
        <time>2022-04-04T08:30:48.896Z</time>
      </trkpt>
      <trkpt lat="42.66932" lon="23.25213">
        <ele>663.096333</ele>
        <time>2022-04-04T08:30:52.865Z</time>
      </trkpt>
      <trkpt lat="42.66925" lon="23.25204">
        <ele>663.418226</ele>
        <time>2022-04-04T08:30:55.886Z</time>
      </trkpt>
      <trkpt lat="42.66918" lon="23.25195">
        <ele>663.762024</ele>
        <time>2022-04-04T08:30:58.883Z</time>
      </trkpt>
      <trkpt lat="42.66908" lon="23.25187">
        <ele>664.136903</ele>
        <time>2022-04-04T08:31:02.880Z</time>
      </trkpt>
      <trkpt lat="42.669" lon="23.25181">
        <ele>664.451861</ele>
        <time>2022-04-04T08:31:05.863Z</time>
      </trkpt>
      <trkpt lat="42.66891" lon="23.25173">
        <ele>664.840721</ele>
        <time>2022-04-04T08:31:09.882Z</time>
      </trkpt>
      <trkpt lat="42.66882" lon="23.25165">
        <ele>665.203412</ele>
        <time>2022-04-04T08:31:13.867Z</time>
      </trkpt>
      <trkpt lat="42.66874" lon="23.25154">
        <ele>665.58177</ele>
        <time>2022-04-04T08:31:17.864Z</time>
      </trkpt>
      <trkpt lat="42.66868" lon="23.25141">
        <ele>665.987136</ele>
        <time>2022-04-04T08:31:21.884Z</time>
      </trkpt>
      <trkpt lat="42.66859" lon="23.2513">
        <ele>666.380058</ele>
        <time>2022-04-04T08:31:25.902Z</time>
      </trkpt>
      <trkpt lat="42.6685" lon="23.25118">
        <ele>666.812942</ele>
        <time>2022-04-04T08:31:29.864Z</time>
      </trkpt>
      <trkpt lat="42.66844" lon="23.25108">
        <ele>667.144021</ele>
        <time>2022-04-04T08:31:32.901Z</time>
      </trkpt>
      <trkpt lat="42.66836" lon="23.25098">
        <ele>667.492457</ele>
        <time>2022-04-04T08:31:36.867Z</time>
      </trkpt>
      <trkpt lat="42.66828" lon="23.25089">
        <ele>667.85824</ele>
        <time>2022-04-04T08:31:39.877Z</time>
      </trkpt>
      <trkpt lat="42.66819" lon="23.2508">
        <ele>668.078299</ele>
        <time>2022-04-04T08:31:42.882Z</time>
      </trkpt>
      <trkpt lat="42.6681" lon="23.25072">
        <ele>668.179589</ele>
        <time>2022-04-04T08:31:45.874Z</time>
      </trkpt>
      <trkpt lat="42.66803" lon="23.25064">
        <ele>668.267183</ele>
        <time>2022-04-04T08:31:48.879Z</time>
      </trkpt>
      <trkpt lat="42.66794" lon="23.25054">
        <ele>668.370866</ele>
        <time>2022-04-04T08:31:52.862Z</time>
      </trkpt>
      <trkpt lat="42.66785" lon="23.25044">
        <ele>668.479081</ele>
        <time>2022-04-04T08:31:56.867Z</time>
      </trkpt>
      <trkpt lat="42.66774" lon="23.25037">
        <ele>668.590955</ele>
        <time>2022-04-04T08:32:00.884Z</time>
      </trkpt>
      <trkpt lat="42.66768" lon="23.25028">
        <ele>668.675325</ele>
        <time>2022-04-04T08:32:03.883Z</time>
      </trkpt>
      <trkpt lat="42.6676" lon="23.25015">
        <ele>668.79004</ele>
        <time>2022-04-04T08:32:07.891Z</time>
      </trkpt>
      <trkpt lat="42.66755" lon="23.25003">
        <ele>668.886684</ele>
        <time>2022-04-04T08:32:11.886Z</time>
      </trkpt>
      <trkpt lat="42.66746" lon="23.24996">
        <ele>668.983018</ele>
        <time>2022-04-04T08:32:15.891Z</time>
      </trkpt>
      <trkpt lat="42.66736" lon="23.24989">
        <ele>669.086224</ele>
        <time>2022-04-04T08:32:18.879Z</time>
      </trkpt>
      <trkpt lat="42.66727" lon="23.2498">
        <ele>669.192532</ele>
        <time>2022-04-04T08:32:21.907Z</time>
      </trkpt>
      <trkpt lat="42.66719" lon="23.24971">
        <ele>669.288912</ele>
        <time>2022-04-04T08:32:24.865Z</time>
      </trkpt>
      <trkpt lat="42.66712" lon="23.24961">
        <ele>669.379832</ele>
        <time>2022-04-04T08:32:27.866Z</time>
      </trkpt>
      <trkpt lat="42.66704" lon="23.24954">
        <ele>669.467209</ele>
        <time>2022-04-04T08:32:30.885Z</time>
      </trkpt>
      <trkpt lat="42.66694" lon="23.24944">
        <ele>669.58399</ele>
        <time>2022-04-04T08:32:34.878Z</time>
      </trkpt>
      <trkpt lat="42.66686" lon="23.24934">
        <ele>669.683534</ele>
        <time>2022-04-04T08:32:37.890Z</time>
      </trkpt>
      <trkpt lat="42.66679" lon="23.24924">
        <ele>669.582092</ele>
        <time>2022-04-04T08:32:40.883Z</time>
      </trkpt>
      <trkpt lat="42.66672" lon="23.24914">
        <ele>669.463302</ele>
        <time>2022-04-04T08:32:44.849Z</time>
      </trkpt>
      <trkpt lat="42.66664" lon="23.24904">
        <ele>669.347839</ele>
        <time>2022-04-04T08:32:47.873Z</time>
      </trkpt>
      <trkpt lat="42.66656" lon="23.24897">
        <ele>669.238801</ele>
        <time>2022-04-04T08:32:50.877Z</time>
      </trkpt>
      <trkpt lat="42.66647" lon="23.24887">
        <ele>669.115949</ele>
        <time>2022-04-04T08:32:54.875Z</time>
      </trkpt>
      <trkpt lat="42.66639" lon="23.24878">
        <ele>669.000332</ele>
        <time>2022-04-04T08:32:58.875Z</time>
      </trkpt>
      <trkpt lat="42.6663" lon="23.24872">
        <ele>668.888752</ele>
        <time>2022-04-04T08:33:02.884Z</time>
      </trkpt>
      <trkpt lat="42.66622" lon="23.24865">
        <ele>668.779854</ele>
        <time>2022-04-04T08:33:09.879Z</time>
      </trkpt>
      <trkpt lat="42.66612" lon="23.24857">
        <ele>668.651444</ele>
        <time>2022-04-04T08:33:12.901Z</time>
      </trkpt>
      <trkpt lat="42.66602" lon="23.2485">
        <ele>668.530284</ele>
        <time>2022-04-04T08:33:15.873Z</time>
      </trkpt>
      <trkpt lat="42.66593" lon="23.24843">
        <ele>668.410476</ele>
        <time>2022-04-04T08:33:19.879Z</time>
      </trkpt>
      <trkpt lat="42.66584" lon="23.24838">
        <ele>668.306634</ele>
        <time>2022-04-04T08:33:23.884Z</time>
      </trkpt>
      <trkpt lat="42.66574" lon="23.24832">
        <ele>668.184959</ele>
        <time>2022-04-04T08:33:26.883Z</time>
      </trkpt>
      <trkpt lat="42.66566" lon="23.24825">
        <ele>668.080542</ele>
        <time>2022-04-04T08:33:29.877Z</time>
      </trkpt>
      <trkpt lat="42.66558" lon="23.24818">
        <ele>667.980661</ele>
        <time>2022-04-04T08:33:32.881Z</time>
      </trkpt>
      <trkpt lat="42.66547" lon="23.24812">
        <ele>667.845562</ele>
        <time>2022-04-04T08:33:36.870Z</time>
      </trkpt>
      <trkpt lat="42.66538" lon="23.24806">
        <ele>667.730926</ele>
        <time>2022-04-04T08:33:39.861Z</time>
      </trkpt>
      <trkpt lat="42.66529" lon="23.24799">
        <ele>668.096092</ele>
        <time>2022-04-04T08:33:43.897Z</time>
      </trkpt>
      <trkpt lat="42.6652" lon="23.2479">
        <ele>668.771338</ele>
        <time>2022-04-04T08:33:47.867Z</time>
      </trkpt>
      <trkpt lat="42.6651" lon="23.24782">
        <ele>669.397351</ele>
        <time>2022-04-04T08:33:51.888Z</time>
      </trkpt>
      <trkpt lat="42.66503" lon="23.24776">
        <ele>669.929646</ele>
        <time>2022-04-04T08:33:54.885Z</time>
      </trkpt>
      <trkpt lat="42.66496" lon="23.24768">
        <ele>670.457208</ele>
        <time>2022-04-04T08:33:57.886Z</time>
      </trkpt>
      <trkpt lat="42.66486" lon="23.24763">
        <ele>671.037632</ele>
        <time>2022-04-04T08:34:01.891Z</time>
      </trkpt>
      <trkpt lat="42.66477" lon="23.24756">
        <ele>671.667206</ele>
        <time>2022-04-04T08:34:06.867Z</time>
      </trkpt>
      <trkpt lat="42.66467" lon="23.24748">
        <ele>672.295417</ele>
        <time>2022-04-04T08:34:10.859Z</time>
      </trkpt>
      <trkpt lat="42.66458" lon="23.24739">
        <ele>672.957328</ele>
        <time>2022-04-04T08:34:14.883Z</time>
      </trkpt>
      <trkpt lat="42.6645" lon="23.24732">
        <ele>673.483594</ele>
        <time>2022-04-04T08:34:17.881Z</time>
      </trkpt>
      <trkpt lat="42.66441" lon="23.24729">
        <ele>674.042671</ele>
        <time>2022-04-04T08:34:21.864Z</time>
      </trkpt>
      <trkpt lat="42.6643" lon="23.24725">
        <ele>674.672032</ele>
        <time>2022-04-04T08:34:25.903Z</time>
      </trkpt>
      <trkpt lat="42.66423" lon="23.24715">
        <ele>675.265817</ele>
        <time>2022-04-04T08:34:29.876Z</time>
      </trkpt>
      <trkpt lat="42.66417" lon="23.24702">
        <ele>675.919662</ele>
        <time>2022-04-04T08:34:33.869Z</time>
      </trkpt>
      <trkpt lat="42.6641" lon="23.24688">
        <ele>676.648507</ele>
        <time>2022-04-04T08:34:37.879Z</time>
      </trkpt>
      <trkpt lat="42.66403" lon="23.24677">
        <ele>677.260767</ele>
        <time>2022-04-04T08:34:40.869Z</time>
      </trkpt>
      <trkpt lat="42.66396" lon="23.24667">
        <ele>677.836639</ele>
        <time>2022-04-04T08:34:44.876Z</time>
      </trkpt>
      <trkpt lat="42.66388" lon="23.24659">
        <ele>677.937605</ele>
        <time>2022-04-04T08:34:47.877Z</time>
      </trkpt>
      <trkpt lat="42.66381" lon="23.24647">
        <ele>677.654997</ele>
        <time>2022-04-04T08:34:51.882Z</time>
      </trkpt>
      <trkpt lat="42.66375" lon="23.24636">
        <ele>677.392915</ele>
        <time>2022-04-04T08:34:55.936Z</time>
      </trkpt>
      <trkpt lat="42.66367" lon="23.24625">
        <ele>677.122056</ele>
        <time>2022-04-04T08:34:59.888Z</time>
      </trkpt>
      <trkpt lat="42.6636" lon="23.24615">
        <ele>676.86336</ele>
        <time>2022-04-04T08:35:04.876Z</time>
      </trkpt>
      <trkpt lat="42.66354" lon="23.24604">
        <ele>676.6017</ele>
        <time>2022-04-04T08:35:10.900Z</time>
      </trkpt>
      <trkpt lat="42.66347" lon="23.24592">
        <ele>676.318939</ele>
        <time>2022-04-04T08:35:14.883Z</time>
      </trkpt>
      <trkpt lat="42.66343" lon="23.24579">
        <ele>676.078697</ele>
        <time>2022-04-04T08:35:17.885Z</time>
      </trkpt>
      <trkpt lat="42.66348" lon="23.24567">
        <ele>675.829863</ele>
        <time>2022-04-04T08:35:21.881Z</time>
      </trkpt>
      <trkpt lat="42.66357" lon="23.24557">
        <ele>675.54102</ele>
        <time>2022-04-04T08:35:24.859Z</time>
      </trkpt>
      <trkpt lat="42.66362" lon="23.24546">
        <ele>675.29953</ele>
        <time>2022-04-04T08:35:28.889Z</time>
      </trkpt>
      <trkpt lat="42.66369" lon="23.24537">
        <ele>675.042527</ele>
        <time>2022-04-04T08:35:31.870Z</time>
      </trkpt>
      <trkpt lat="42.66375" lon="23.24526">
        <ele>674.79713</ele>
        <time>2022-04-04T08:35:34.858Z</time>
      </trkpt>
      <trkpt lat="42.66368" lon="23.24515">
        <ele>674.526613</ele>
        <time>2022-04-04T08:35:40.926Z</time>
      </trkpt>
      <trkpt lat="42.66358" lon="23.24509">
        <ele>674.255138</ele>
        <time>2022-04-04T08:35:43.872Z</time>
      </trkpt>
      <trkpt lat="42.66351" lon="23.24498">
        <ele>673.991897</ele>
        <time>2022-04-04T08:35:47.908Z</time>
      </trkpt>
      <trkpt lat="42.66346" lon="23.24484">
        <ele>673.706684</ele>
        <time>2022-04-04T08:35:51.867Z</time>
      </trkpt>
      <trkpt lat="42.66344" lon="23.24471">
        <ele>673.877778</ele>
        <time>2022-04-04T08:35:55.880Z</time>
      </trkpt>
      <trkpt lat="42.66336" lon="23.24462">
        <ele>674.428436</ele>
        <time>2022-04-04T08:36:01.876Z</time>
      </trkpt>
      <trkpt lat="42.66327" lon="23.24454">
        <ele>674.988437</ele>
        <time>2022-04-04T08:36:05.868Z</time>
      </trkpt>
      <trkpt lat="42.66321" lon="23.24444">
        <ele>675.464981</ele>
        <time>2022-04-04T08:36:10.899Z</time>
      </trkpt>
      <trkpt lat="42.66315" lon="23.24434">
        <ele>675.98331</ele>
        <time>2022-04-04T08:36:14.920Z</time>
      </trkpt>
      <trkpt lat="42.66308" lon="23.24422">
        <ele>676.588141</ele>
        <time>2022-04-04T08:36:18.877Z</time>
      </trkpt>
      <trkpt lat="42.663" lon="23.24412">
        <ele>677.159417</ele>
        <time>2022-04-04T08:36:22.884Z</time>
      </trkpt>
      <trkpt lat="42.66293" lon="23.24402">
        <ele>677.690002</ele>
        <time>2022-04-04T08:36:26.881Z</time>
      </trkpt>
      <trkpt lat="42.66287" lon="23.24391">
        <ele>678.232381</ele>
        <time>2022-04-04T08:36:30.885Z</time>
      </trkpt>
      <trkpt lat="42.66281" lon="23.24381">
        <ele>678.739293</ele>
        <time>2022-04-04T08:36:34.897Z</time>
      </trkpt>
      <trkpt lat="42.66274" lon="23.24372">
        <ele>679.248053</ele>
        <time>2022-04-04T08:36:38.887Z</time>
      </trkpt>
      <trkpt lat="42.66267" lon="23.24363">
        <ele>679.726707</ele>
        <time>2022-04-04T08:36:42.887Z</time>
      </trkpt>
      <trkpt lat="42.66261" lon="23.24353">
        <ele>680.235162</ele>
        <time>2022-04-04T08:36:47.882Z</time>
      </trkpt>
      <trkpt lat="42.6625" lon="23.24352">
        <ele>680.794084</ele>
        <time>2022-04-04T08:36:52.878Z</time>
      </trkpt>
      <trkpt lat="42.66242" lon="23.24346">
        <ele>681.273977</ele>
        <time>2022-04-04T08:36:55.856Z</time>
      </trkpt>
      <trkpt lat="42.66234" lon="23.24336">
        <ele>681.864062</ele>
        <time>2022-04-04T08:36:59.894Z</time>
      </trkpt>
      <trkpt lat="42.66229" lon="23.24326">
        <ele>682.356415</ele>
        <time>2022-04-04T08:37:03.920Z</time>
      </trkpt>
      <trkpt lat="42.6622" lon="23.24315">
        <ele>682.978538</ele>
        <time>2022-04-04T08:37:08.870Z</time>
      </trkpt>
      <trkpt lat="42.66214" lon="23.24303">
        <ele>683.261011</ele>
        <time>2022-04-04T08:37:12.868Z</time>
      </trkpt>
      <trkpt lat="42.66211" lon="23.24291">
        <ele>683.478135</ele>
        <time>2022-04-04T08:37:17.882Z</time>
      </trkpt>
      <trkpt lat="42.66208" lon="23.24278">
        <ele>683.699884</ele>
        <time>2022-04-04T08:37:22.887Z</time>
      </trkpt>
      <trkpt lat="42.66204" lon="23.24265">
        <ele>683.918045</ele>
        <time>2022-04-04T08:37:27.868Z</time>
      </trkpt>
      <trkpt lat="42.66201" lon="23.24253">
        <ele>684.135847</ele>
        <time>2022-04-04T08:37:32.897Z</time>
      </trkpt>
      <trkpt lat="42.66195" lon="23.24243">
        <ele>684.341703</ele>
        <time>2022-04-04T08:37:36.872Z</time>
      </trkpt>
      <trkpt lat="42.66188" lon="23.24232">
        <ele>684.578827</ele>
        <time>2022-04-04T08:37:42.872Z</time>
      </trkpt>
      <trkpt lat="42.66183" lon="23.24218">
        <ele>684.822634</ele>
        <time>2022-04-04T08:37:47.869Z</time>
      </trkpt>
      <trkpt lat="42.66177" lon="23.24207">
        <ele>685.053151</ele>
        <time>2022-04-04T08:37:51.870Z</time>
      </trkpt>
      <trkpt lat="42.66167" lon="23.24199">
        <ele>685.307917</ele>
        <time>2022-04-04T08:37:55.871Z</time>
      </trkpt>
      <trkpt lat="42.66158" lon="23.24192">
        <ele>685.519233</ele>
        <time>2022-04-04T08:38:01.883Z</time>
      </trkpt>
      <trkpt lat="42.6615" lon="23.24186">
        <ele>685.737804</ele>
        <time>2022-04-04T08:38:07.866Z</time>
      </trkpt>
      <trkpt lat="42.6614" lon="23.24187">
        <ele>685.958917</ele>
        <time>2022-04-04T08:38:11.888Z</time>
      </trkpt>
      <trkpt lat="42.66129" lon="23.2419">
        <ele>686.193196</ele>
        <time>2022-04-04T08:38:16.901Z</time>
      </trkpt>
      <trkpt lat="42.6612" lon="23.24192">
        <ele>686.406646</ele>
        <time>2022-04-04T08:38:19.878Z</time>
      </trkpt>
      <trkpt lat="42.66109" lon="23.24193">
        <ele>686.63886</ele>
        <time>2022-04-04T08:38:22.851Z</time>
      </trkpt>
      <trkpt lat="42.66098" lon="23.24195">
        <ele>686.873441</ele>
        <time>2022-04-04T08:38:25.880Z</time>
      </trkpt>
      <trkpt lat="42.66086" lon="23.24197">
        <ele>687.02706</ele>
        <time>2022-04-04T08:38:28.860Z</time>
      </trkpt>
      <trkpt lat="42.66075" lon="23.24202">
        <ele>686.992858</ele>
        <time>2022-04-04T08:38:31.868Z</time>
      </trkpt>
      <trkpt lat="42.66064" lon="23.24201">
        <ele>686.96098</ele>
        <time>2022-04-04T08:38:35.865Z</time>
      </trkpt>
      <trkpt lat="42.66054" lon="23.24192">
        <ele>686.929169</ele>
        <time>2022-04-04T08:38:38.907Z</time>
      </trkpt>
      <trkpt lat="42.66048" lon="23.24182">
        <ele>686.900213</ele>
        <time>2022-04-04T08:38:41.880Z</time>
      </trkpt>
      <trkpt lat="42.66043" lon="23.24167">
        <ele>686.867628</ele>
        <time>2022-04-04T08:38:45.881Z</time>
      </trkpt>
      <trkpt lat="42.66039" lon="23.24155">
        <ele>686.838424</ele>
        <time>2022-04-04T08:38:49.876Z</time>
      </trkpt>
      <trkpt lat="42.66033" lon="23.24141">
        <ele>686.806341</ele>
        <time>2022-04-04T08:38:53.895Z</time>
      </trkpt>
      <trkpt lat="42.66026" lon="23.2413">
        <ele>686.775972</ele>
        <time>2022-04-04T08:38:57.886Z</time>
      </trkpt>
      <trkpt lat="42.6602" lon="23.24117">
        <ele>686.742964</ele>
        <time>2022-04-04T08:39:01.868Z</time>
      </trkpt>
      <trkpt lat="42.66015" lon="23.24105">
        <ele>686.714026</ele>
        <time>2022-04-04T08:39:05.868Z</time>
      </trkpt>
      <trkpt lat="42.66011" lon="23.24093">
        <ele>686.686213</ele>
        <time>2022-04-04T08:39:09.868Z</time>
      </trkpt>
      <trkpt lat="42.66006" lon="23.24081">
        <ele>686.657719</ele>
        <time>2022-04-04T08:39:14.899Z</time>
      </trkpt>
      <trkpt lat="42.66002" lon="23.24069">
        <ele>686.630351</ele>
        <time>2022-04-04T08:39:18.904Z</time>
      </trkpt>
      <trkpt lat="42.65997" lon="23.24055">
        <ele>686.599046</ele>
        <time>2022-04-04T08:39:22.873Z</time>
      </trkpt>
      <trkpt lat="42.65992" lon="23.24043">
        <ele>686.569202</ele>
        <time>2022-04-04T08:39:26.870Z</time>
      </trkpt>
      <trkpt lat="42.65988" lon="23.24029">
        <ele>686.5386</ele>
        <time>2022-04-04T08:39:30.873Z</time>
      </trkpt>
      <trkpt lat="42.65984" lon="23.24019">
        <ele>686.974357</ele>
        <time>2022-04-04T08:39:34.881Z</time>
      </trkpt>
      <trkpt lat="42.65974" lon="23.24018">
        <ele>687.795303</ele>
        <time>2022-04-04T08:39:39.893Z</time>
      </trkpt>
      <trkpt lat="42.65964" lon="23.24023">
        <ele>688.615776</ele>
        <time>2022-04-04T08:39:44.876Z</time>
      </trkpt>
      <trkpt lat="42.65953" lon="23.24031">
        <ele>689.538095</ele>
        <time>2022-04-04T08:39:48.894Z</time>
      </trkpt>
      <trkpt lat="42.65945" lon="23.24036">
        <ele>690.300816</ele>
        <time>2022-04-04T08:39:51.864Z</time>
      </trkpt>
      <trkpt lat="42.65935" lon="23.24038">
        <ele>691.07372</ele>
        <time>2022-04-04T08:39:56.877Z</time>
      </trkpt>
      <trkpt lat="42.65925" lon="23.24046">
        <ele>691.957607</ele>
        <time>2022-04-04T08:40:01.882Z</time>
      </trkpt>
      <trkpt lat="42.65916" lon="23.24052">
        <ele>692.737545</ele>
        <time>2022-04-04T08:40:05.867Z</time>
      </trkpt>
      <trkpt lat="42.65908" lon="23.24059">
        <ele>693.500964</ele>
        <time>2022-04-04T08:40:12.864Z</time>
      </trkpt>
      <trkpt lat="42.65898" lon="23.24061">
        <ele>694.251637</ele>
        <time>2022-04-04T08:40:18.882Z</time>
      </trkpt>
      <trkpt lat="42.65893" lon="23.2405">
        <ele>694.972965</ele>
        <time>2022-04-04T08:40:22.877Z</time>
      </trkpt>
      <trkpt lat="42.65888" lon="23.2404">
        <ele>695.687828</ele>
        <time>2022-04-04T08:40:26.893Z</time>
      </trkpt>
      <trkpt lat="42.65883" lon="23.24029">
        <ele>696.455523</ele>
        <time>2022-04-04T08:40:30.922Z</time>
      </trkpt>
      <trkpt lat="42.65877" lon="23.24018">
        <ele>697.213453</ele>
        <time>2022-04-04T08:40:33.885Z</time>
      </trkpt>
      <trkpt lat="42.65872" lon="23.24006">
        <ele>698.013494</ele>
        <time>2022-04-04T08:40:39.877Z</time>
      </trkpt>
      <trkpt lat="42.65869" lon="23.23991">
        <ele>698.885608</ele>
        <time>2022-04-04T08:40:45.881Z</time>
      </trkpt>
      <trkpt lat="42.65863" lon="23.23979">
        <ele>699.733356</ele>
        <time>2022-04-04T08:40:49.874Z</time>
      </trkpt>
      <trkpt lat="42.65861" lon="23.23966">
        <ele>700.483715</ele>
        <time>2022-04-04T08:40:53.877Z</time>
      </trkpt>
      <trkpt lat="42.65859" lon="23.23953">
        <ele>700.492534</ele>
        <time>2022-04-04T08:40:57.882Z</time>
      </trkpt>
      <trkpt lat="42.65853" lon="23.23942">
        <ele>700.418021</ele>
        <time>2022-04-04T08:41:01.875Z</time>
      </trkpt>
      <trkpt lat="42.65848" lon="23.23931">
        <ele>700.352237</ele>
        <time>2022-04-04T08:41:05.878Z</time>
      </trkpt>
      <trkpt lat="42.65842" lon="23.23918">
        <ele>700.26913</ele>
        <time>2022-04-04T08:41:09.867Z</time>
      </trkpt>
      <trkpt lat="42.65838" lon="23.23904">
        <ele>700.185925</ele>
        <time>2022-04-04T08:41:13.861Z</time>
      </trkpt>
      <trkpt lat="42.65833" lon="23.23891">
        <ele>700.109836</ele>
        <time>2022-04-04T08:41:17.877Z</time>
      </trkpt>
      <trkpt lat="42.65824" lon="23.23881">
        <ele>700.027135</ele>
        <time>2022-04-04T08:41:22.864Z</time>
      </trkpt>
      <trkpt lat="42.65821" lon="23.2387">
        <ele>699.959863</ele>
        <time>2022-04-04T08:41:26.873Z</time>
      </trkpt>
      <trkpt lat="42.65819" lon="23.23856">
        <ele>699.882758</ele>
        <time>2022-04-04T08:41:30.895Z</time>
      </trkpt>
      <trkpt lat="42.65818" lon="23.23841">
        <ele>699.805014</ele>
        <time>2022-04-04T08:41:35.894Z</time>
      </trkpt>
      <trkpt lat="42.65815" lon="23.23826">
        <ele>699.7213</ele>
        <time>2022-04-04T08:41:40.877Z</time>
      </trkpt>
      <trkpt lat="42.65809" lon="23.23814">
        <ele>699.642704</ele>
        <time>2022-04-04T08:41:44.903Z</time>
      </trkpt>
      <trkpt lat="42.65805" lon="23.23802">
        <ele>699.573661</ele>
        <time>2022-04-04T08:41:48.881Z</time>
      </trkpt>
      <trkpt lat="42.65801" lon="23.23791">
        <ele>699.504799</ele>
        <time>2022-04-04T08:41:52.885Z</time>
      </trkpt>
      <trkpt lat="42.65798" lon="23.23777">
        <ele>699.429086</ele>
        <time>2022-04-04T08:41:57.881Z</time>
      </trkpt>
      <trkpt lat="42.65792" lon="23.23765">
        <ele>699.348494</ele>
        <time>2022-04-04T08:42:02.871Z</time>
      </trkpt>
      <trkpt lat="42.65788" lon="23.23753">
        <ele>699.282056</ele>
        <time>2022-04-04T08:42:06.883Z</time>
      </trkpt>
      <trkpt lat="42.65784" lon="23.23742">
        <ele>699.435308</ele>
        <time>2022-04-04T08:42:12.868Z</time>
      </trkpt>
      <trkpt lat="42.65777" lon="23.23731">
        <ele>699.876128</ele>
        <time>2022-04-04T08:42:17.880Z</time>
      </trkpt>
      <trkpt lat="42.65771" lon="23.2372">
        <ele>700.331266</ele>
        <time>2022-04-04T08:42:23.895Z</time>
      </trkpt>
      <trkpt lat="42.65765" lon="23.23707">
        <ele>700.797089</ele>
        <time>2022-04-04T08:42:28.875Z</time>
      </trkpt>
      <trkpt lat="42.65761" lon="23.23696">
        <ele>701.202719</ele>
        <time>2022-04-04T08:42:32.877Z</time>
      </trkpt>
      <trkpt lat="42.65756" lon="23.23685">
        <ele>701.612432</ele>
        <time>2022-04-04T08:42:36.884Z</time>
      </trkpt>
      <trkpt lat="42.6575" lon="23.23673">
        <ele>702.057241</ele>
        <time>2022-04-04T08:42:41.908Z</time>
      </trkpt>
      <trkpt lat="42.65744" lon="23.23664">
        <ele>702.45087</ele>
        <time>2022-04-04T08:42:44.883Z</time>
      </trkpt>
      <trkpt lat="42.65739" lon="23.23652">
        <ele>702.886902</ele>
        <time>2022-04-04T08:42:48.886Z</time>
      </trkpt>
      <trkpt lat="42.65739" lon="23.23639">
        <ele>703.313607</ele>
        <time>2022-04-04T08:42:53.868Z</time>
      </trkpt>
      <trkpt lat="42.65735" lon="23.23624">
        <ele>703.797683</ele>
        <time>2022-04-04T08:42:58.870Z</time>
      </trkpt>
      <trkpt lat="42.65727" lon="23.23614">
        <ele>704.275864</ele>
        <time>2022-04-04T08:43:02.885Z</time>
      </trkpt>
      <trkpt lat="42.65723" lon="23.23601">
        <ele>704.716925</ele>
        <time>2022-04-04T08:43:07.912Z</time>
      </trkpt>
      <trkpt lat="42.65718" lon="23.23587">
        <ele>705.21007</ele>
        <time>2022-04-04T08:43:12.874Z</time>
      </trkpt>
      <trkpt lat="42.65713" lon="23.23574">
        <ele>705.65764</ele>
        <time>2022-04-04T08:43:16.877Z</time>
      </trkpt>
      <trkpt lat="42.65709" lon="23.23563">
        <ele>706.064801</ele>
        <time>2022-04-04T08:43:20.885Z</time>
      </trkpt>
      <trkpt lat="42.65704" lon="23.23552">
        <ele>706.465027</ele>
        <time>2022-04-04T08:43:23.891Z</time>
      </trkpt>
      <trkpt lat="42.657" lon="23.23541">
        <ele>706.867796</ele>
        <time>2022-04-04T08:43:26.876Z</time>
      </trkpt>
      <trkpt lat="42.65694" lon="23.23531">
        <ele>707.103241</ele>
        <time>2022-04-04T08:43:29.886Z</time>
      </trkpt>
      <trkpt lat="42.65688" lon="23.23519">
        <ele>707.273751</ele>
        <time>2022-04-04T08:43:33.873Z</time>
      </trkpt>
      <trkpt lat="42.65683" lon="23.23509">
        <ele>707.423946</ele>
        <time>2022-04-04T08:43:37.887Z</time>
      </trkpt>
      <trkpt lat="42.65675" lon="23.23497">
        <ele>707.609261</ele>
        <time>2022-04-04T08:43:41.908Z</time>
      </trkpt>
      <trkpt lat="42.65671" lon="23.23486">
        <ele>707.755481</ele>
        <time>2022-04-04T08:43:45.906Z</time>
      </trkpt>
      <trkpt lat="42.65668" lon="23.23473">
        <ele>707.917752</ele>
        <time>2022-04-04T08:43:49.880Z</time>
      </trkpt>
      <trkpt lat="42.65665" lon="23.23459">
        <ele>708.093688</ele>
        <time>2022-04-04T08:43:54.919Z</time>
      </trkpt>
      <trkpt lat="42.6566" lon="23.23448">
        <ele>708.252874</ele>
        <time>2022-04-04T08:43:58.887Z</time>
      </trkpt>
      <trkpt lat="42.65653" lon="23.23439">
        <ele>708.406144</ele>
        <time>2022-04-04T08:44:01.877Z</time>
      </trkpt>
      <trkpt lat="42.65649" lon="23.23426">
        <ele>708.576272</ele>
        <time>2022-04-04T08:44:06.877Z</time>
      </trkpt>
      <trkpt lat="42.65643" lon="23.23414">
        <ele>708.746295</ele>
        <time>2022-04-04T08:44:11.877Z</time>
      </trkpt>
      <trkpt lat="42.65638" lon="23.23401">
        <ele>708.915735</ele>
        <time>2022-04-04T08:44:16.881Z</time>
      </trkpt>
      <trkpt lat="42.65635" lon="23.23389">
        <ele>709.078457</ele>
        <time>2022-04-04T08:44:20.894Z</time>
      </trkpt>
      <trkpt lat="42.65632" lon="23.23376">
        <ele>709.240331</ele>
        <time>2022-04-04T08:44:25.886Z</time>
      </trkpt>
      <trkpt lat="42.65626" lon="23.23364">
        <ele>709.411436</ele>
        <time>2022-04-04T08:44:30.885Z</time>
      </trkpt>
      <trkpt lat="42.65622" lon="23.23351">
        <ele>709.572136</ele>
        <time>2022-04-04T08:44:35.870Z</time>
      </trkpt>
      <trkpt lat="42.65616" lon="23.23341">
        <ele>709.73166</ele>
        <time>2022-04-04T08:44:38.888Z</time>
      </trkpt>
      <trkpt lat="42.65609" lon="23.23329">
        <ele>709.910459</ele>
        <time>2022-04-04T08:44:42.886Z</time>
      </trkpt>
      <trkpt lat="42.65604" lon="23.23319">
        <ele>710.276878</ele>
        <time>2022-04-04T08:44:46.879Z</time>
      </trkpt>
      <trkpt lat="42.65601" lon="23.23306">
        <ele>710.679162</ele>
        <time>2022-04-04T08:44:50.919Z</time>
      </trkpt>
      <trkpt lat="42.65596" lon="23.23294">
        <ele>711.115088</ele>
        <time>2022-04-04T08:44:54.881Z</time>
      </trkpt>
      <trkpt lat="42.65592" lon="23.23281">
        <ele>711.554778</ele>
        <time>2022-04-04T08:44:58.881Z</time>
      </trkpt>
      <trkpt lat="42.65587" lon="23.23266">
        <ele>712.050753</ele>
        <time>2022-04-04T08:45:02.890Z</time>
      </trkpt>
      <trkpt lat="42.65582" lon="23.23254">
        <ele>712.474562</ele>
        <time>2022-04-04T08:45:06.888Z</time>
      </trkpt>
      <trkpt lat="42.6558" lon="23.2324">
        <ele>712.894462</ele>
        <time>2022-04-04T08:45:11.874Z</time>
      </trkpt>
      <trkpt lat="42.65576" lon="23.23227">
        <ele>713.320504</ele>
        <time>2022-04-04T08:45:15.873Z</time>
      </trkpt>
      <trkpt lat="42.65574" lon="23.23215">
        <ele>713.700973</ele>
        <time>2022-04-04T08:45:20.892Z</time>
      </trkpt>
      <trkpt lat="42.65573" lon="23.232">
        <ele>714.179199</ele>
        <time>2022-04-04T08:45:25.879Z</time>
      </trkpt>
      <trkpt lat="42.65567" lon="23.23187">
        <ele>714.611593</ele>
        <time>2022-04-04T08:45:29.890Z</time>
      </trkpt>
      <trkpt lat="42.65562" lon="23.23175">
        <ele>715.064548</ele>
        <time>2022-04-04T08:45:33.879Z</time>
      </trkpt>
      <trkpt lat="42.65555" lon="23.23162">
        <ele>715.5394</ele>
        <time>2022-04-04T08:45:37.887Z</time>
      </trkpt>
      <trkpt lat="42.65552" lon="23.23149">
        <ele>715.950585</ele>
        <time>2022-04-04T08:45:42.869Z</time>
      </trkpt>
      <trkpt lat="42.65547" lon="23.23135">
        <ele>716.421953</ele>
        <time>2022-04-04T08:45:46.900Z</time>
      </trkpt>
      <trkpt lat="42.6554" lon="23.23124">
        <ele>716.864554</ele>
        <time>2022-04-04T08:45:49.890Z</time>
      </trkpt>
      <trkpt lat="42.65535" lon="23.23113">
        <ele>717.253652</ele>
        <time>2022-04-04T08:45:52.874Z</time>
      </trkpt>
      <trkpt lat="42.65533" lon="23.23099">
        <ele>717.727512</ele>
        <time>2022-04-04T08:45:56.885Z</time>
      </trkpt>
      <trkpt lat="42.6553" lon="23.23087">
        <ele>718.164044</ele>
        <time>2022-04-04T08:46:00.874Z</time>
      </trkpt>
      <trkpt lat="42.65526" lon="23.23075">
        <ele>718.64553</ele>
        <time>2022-04-04T08:46:04.882Z</time>
      </trkpt>
      <trkpt lat="42.65521" lon="23.23064">
        <ele>719.092516</ele>
        <time>2022-04-04T08:46:08.890Z</time>
      </trkpt>
      <trkpt lat="42.65517" lon="23.23051">
        <ele>719.591143</ele>
        <time>2022-04-04T08:46:13.893Z</time>
      </trkpt>
      <trkpt lat="42.65512" lon="23.23039">
        <ele>720.081056</ele>
        <time>2022-04-04T08:46:18.882Z</time>
      </trkpt>
      <trkpt lat="42.6551" lon="23.23026">
        <ele>720.559711</ele>
        <time>2022-04-04T08:46:23.887Z</time>
      </trkpt>
      <trkpt lat="42.65509" lon="23.23013">
        <ele>721.009331</ele>
        <time>2022-04-04T08:46:27.899Z</time>
      </trkpt>
      <trkpt lat="42.65504" lon="23.22999">
        <ele>721.538326</ele>
        <time>2022-04-04T08:46:31.918Z</time>
      </trkpt>
      <trkpt lat="42.65497" lon="23.22986">
        <ele>722.117427</ele>
        <time>2022-04-04T08:46:35.890Z</time>
      </trkpt>
      <trkpt lat="42.6549" lon="23.22977">
        <ele>722.582457</ele>
        <time>2022-04-04T08:46:38.870Z</time>
      </trkpt>
      <trkpt lat="42.65484" lon="23.22963">
        <ele>723.138291</ele>
        <time>2022-04-04T08:46:42.918Z</time>
      </trkpt>
      <trkpt lat="42.6548" lon="23.22951">
        <ele>723.611718</ele>
        <time>2022-04-04T08:46:46.882Z</time>
      </trkpt>
      <trkpt lat="42.65475" lon="23.22938">
        <ele>724.13115</ele>
        <time>2022-04-04T08:46:50.878Z</time>
      </trkpt>
      <trkpt lat="42.65474" lon="23.22923">
        <ele>724.644551</ele>
        <time>2022-04-04T08:46:55.884Z</time>
      </trkpt>
      <trkpt lat="42.65469" lon="23.2291">
        <ele>725.17917</ele>
        <time>2022-04-04T08:47:00.867Z</time>
      </trkpt>
      <trkpt lat="42.65466" lon="23.22897">
        <ele>725.663291</ele>
        <time>2022-04-04T08:47:04.880Z</time>
      </trkpt>
      <trkpt lat="42.65463" lon="23.22883">
        <ele>726.007359</ele>
        <time>2022-04-04T08:47:09.867Z</time>
      </trkpt>
      <trkpt lat="42.65461" lon="23.2287">
        <ele>726.051792</ele>
        <time>2022-04-04T08:47:13.887Z</time>
      </trkpt>
      <trkpt lat="42.65457" lon="23.22856">
        <ele>726.101423</ele>
        <time>2022-04-04T08:47:17.894Z</time>
      </trkpt>
      <trkpt lat="42.65452" lon="23.22845">
        <ele>726.141996</ele>
        <time>2022-04-04T08:47:21.863Z</time>
      </trkpt>
      <trkpt lat="42.65452" lon="23.22832">
        <ele>726.184131</ele>
        <time>2022-04-04T08:47:25.887Z</time>
      </trkpt>
      <trkpt lat="42.65446" lon="23.22819">
        <ele>726.235855</ele>
        <time>2022-04-04T08:47:29.904Z</time>
      </trkpt>
      <trkpt lat="42.65444" lon="23.22805">
        <ele>726.282634</ele>
        <time>2022-04-04T08:47:33.893Z</time>
      </trkpt>
      <trkpt lat="42.6544" lon="23.2279">
        <ele>726.334209</ele>
        <time>2022-04-04T08:47:37.884Z</time>
      </trkpt>
      <trkpt lat="42.65435" lon="23.22776">
        <ele>726.386015</ele>
        <time>2022-04-04T08:47:41.899Z</time>
      </trkpt>
      <trkpt lat="42.65432" lon="23.22763">
        <ele>726.43172</ele>
        <time>2022-04-04T08:47:45.881Z</time>
      </trkpt>
      <trkpt lat="42.65434" lon="23.2275">
        <ele>726.477029</ele>
        <time>2022-04-04T08:47:49.882Z</time>
      </trkpt>
      <trkpt lat="42.65434" lon="23.22736">
        <ele>726.52277</ele>
        <time>2022-04-04T08:47:54.875Z</time>
      </trkpt>
      <trkpt lat="42.65428" lon="23.22726">
        <ele>726.563084</ele>
        <time>2022-04-04T08:47:57.880Z</time>
      </trkpt>
      <trkpt lat="42.65423" lon="23.22716">
        <ele>726.603381</ele>
        <time>2022-04-04T08:48:00.880Z</time>
      </trkpt>
      <trkpt lat="42.65416" lon="23.22705">
        <ele>726.652749</ele>
        <time>2022-04-04T08:48:04.871Z</time>
      </trkpt>
      <trkpt lat="42.65412" lon="23.22691">
        <ele>726.701746</ele>
        <time>2022-04-04T08:48:09.883Z</time>
      </trkpt>
      <trkpt lat="42.65413" lon="23.22678">
        <ele>726.743769</ele>
        <time>2022-04-04T08:48:13.903Z</time>
      </trkpt>
      <trkpt lat="42.65412" lon="23.22665">
        <ele>726.785465</ele>
        <time>2022-04-04T08:48:17.885Z</time>
      </trkpt>
      <trkpt lat="42.65412" lon="23.22651">
        <ele>726.835254</ele>
        <time>2022-04-04T08:48:22.881Z</time>
      </trkpt>
      <trkpt lat="42.65414" lon="23.22638">
        <ele>726.885622</ele>
        <time>2022-04-04T08:48:27.886Z</time>
      </trkpt>
      <trkpt lat="42.65411" lon="23.22623">
        <ele>726.942265</ele>
        <time>2022-04-04T08:48:32.879Z</time>
      </trkpt>
      <trkpt lat="42.65408" lon="23.2261">
        <ele>726.991018</ele>
        <time>2022-04-04T08:48:36.884Z</time>
      </trkpt>
      <trkpt lat="42.65405" lon="23.22598">
        <ele>727.038756</ele>
        <time>2022-04-04T08:48:41.869Z</time>
      </trkpt>
      <trkpt lat="42.65398" lon="23.22587">
        <ele>727.090026</ele>
        <time>2022-04-04T08:48:45.884Z</time>
      </trkpt>
      <trkpt lat="42.65396" lon="23.22572">
        <ele>727.144451</ele>
        <time>2022-04-04T08:48:50.865Z</time>
      </trkpt>
      <trkpt lat="42.6539" lon="23.22562">
        <ele>727.190555</ele>
        <time>2022-04-04T08:48:54.871Z</time>
      </trkpt>
      <trkpt lat="42.65384" lon="23.22551">
        <ele>727.241082</ele>
        <time>2022-04-04T08:48:58.883Z</time>
      </trkpt>
      <trkpt lat="42.65383" lon="23.22538">
        <ele>727.288903</ele>
        <time>2022-04-04T08:49:03.928Z</time>
      </trkpt>
      <trkpt lat="42.65377" lon="23.22526">
        <ele>727.340973</ele>
        <time>2022-04-04T08:49:08.877Z</time>
      </trkpt>
      <trkpt lat="42.6537" lon="23.22515">
        <ele>727.39363</ele>
        <time>2022-04-04T08:49:13.862Z</time>
      </trkpt>
      <trkpt lat="42.65365" lon="23.22505">
        <ele>727.439169</ele>
        <time>2022-04-04T08:49:18.923Z</time>
      </trkpt>
      <trkpt lat="42.6536" lon="23.22493">
        <ele>727.488998</ele>
        <time>2022-04-04T08:49:23.881Z</time>
      </trkpt>
      <trkpt lat="42.65355" lon="23.22481">
        <ele>727.540537</ele>
        <time>2022-04-04T08:49:28.863Z</time>
      </trkpt>
      <trkpt lat="42.65349" lon="23.2247">
        <ele>727.588703</ele>
        <time>2022-04-04T08:49:32.863Z</time>
      </trkpt>
      <trkpt lat="42.65343" lon="23.22458">
        <ele>727.64422</ele>
        <time>2022-04-04T08:49:37.867Z</time>
      </trkpt>
      <trkpt lat="42.65334" lon="23.22447">
        <ele>727.760255</ele>
        <time>2022-04-04T08:49:41.889Z</time>
      </trkpt>
      <trkpt lat="42.65327" lon="23.22437">
        <ele>728.0946</ele>
        <time>2022-04-04T08:49:46.876Z</time>
      </trkpt>
      <trkpt lat="42.6532" lon="23.22428">
        <ele>728.405085</ele>
        <time>2022-04-04T08:49:51.866Z</time>
      </trkpt>
      <trkpt lat="42.65311" lon="23.2242">
        <ele>728.782535</ele>
        <time>2022-04-04T08:49:55.873Z</time>
      </trkpt>
      <trkpt lat="42.65301" lon="23.22411">
        <ele>729.149244</ele>
        <time>2022-04-04T08:49:59.861Z</time>
      </trkpt>
      <trkpt lat="42.65295" lon="23.224">
        <ele>729.488641</ele>
        <time>2022-04-04T08:50:03.889Z</time>
      </trkpt>
      <trkpt lat="42.65287" lon="23.22392">
        <ele>729.80164</ele>
        <time>2022-04-04T08:50:07.867Z</time>
      </trkpt>
      <trkpt lat="42.65277" lon="23.22386">
        <ele>730.14422</ele>
        <time>2022-04-04T08:50:12.888Z</time>
      </trkpt>
      <trkpt lat="42.6527" lon="23.22376">
        <ele>730.468355</ele>
        <time>2022-04-04T08:50:16.864Z</time>
      </trkpt>
      <trkpt lat="42.65264" lon="23.22364">
        <ele>730.837903</ele>
        <time>2022-04-04T08:50:21.891Z</time>
      </trkpt>
      <trkpt lat="42.65256" lon="23.22353">
        <ele>731.184852</ele>
        <time>2022-04-04T08:50:25.862Z</time>
      </trkpt>
      <trkpt lat="42.6525" lon="23.22345">
        <ele>731.481813</ele>
        <time>2022-04-04T08:50:28.883Z</time>
      </trkpt>
      <trkpt lat="42.65246" lon="23.22333">
        <ele>731.78171</ele>
        <time>2022-04-04T08:50:32.890Z</time>
      </trkpt>
      <trkpt lat="42.6524" lon="23.22319">
        <ele>732.161457</ele>
        <time>2022-04-04T08:50:37.868Z</time>
      </trkpt>
      <trkpt lat="42.65235" lon="23.22307">
        <ele>732.49899</ele>
        <time>2022-04-04T08:50:41.871Z</time>
      </trkpt>
      <trkpt lat="42.6523" lon="23.22295">
        <ele>732.824831</ele>
        <time>2022-04-04T08:50:45.875Z</time>
      </trkpt>
      <trkpt lat="42.65226" lon="23.22283">
        <ele>733.152247</ele>
        <time>2022-04-04T08:50:49.914Z</time>
      </trkpt>
      <trkpt lat="42.6522" lon="23.22272">
        <ele>733.480149</ele>
        <time>2022-04-04T08:50:53.879Z</time>
      </trkpt>
      <trkpt lat="42.65217" lon="23.2226">
        <ele>733.841302</ele>
        <time>2022-04-04T08:50:57.901Z</time>
      </trkpt>
      <trkpt lat="42.65217" lon="23.22247">
        <ele>734.207925</ele>
        <time>2022-04-04T08:51:01.860Z</time>
      </trkpt>
      <trkpt lat="42.65212" lon="23.22234">
        <ele>734.602236</ele>
        <time>2022-04-04T08:51:05.879Z</time>
      </trkpt>
      <trkpt lat="42.65208" lon="23.22223">
        <ele>734.962075</ele>
        <time>2022-04-04T08:51:09.905Z</time>
      </trkpt>
      <trkpt lat="42.65206" lon="23.22209">
        <ele>735.38018</ele>
        <time>2022-04-04T08:51:14.883Z</time>
      </trkpt>
      <trkpt lat="42.65204" lon="23.22196">
        <ele>735.769872</ele>
        <time>2022-04-04T08:51:19.858Z</time>
      </trkpt>
      <trkpt lat="42.65201" lon="23.22182">
        <ele>736.195505</ele>
        <time>2022-04-04T08:51:24.903Z</time>
      </trkpt>
      <trkpt lat="42.65198" lon="23.22167">
        <ele>736.620451</ele>
        <time>2022-04-04T08:51:29.886Z</time>
      </trkpt>
      <trkpt lat="42.65193" lon="23.22155">
        <ele>737.01658</ele>
        <time>2022-04-04T08:51:33.885Z</time>
      </trkpt>
      <trkpt lat="42.6519" lon="23.22142">
        <ele>737.427282</ele>
        <time>2022-04-04T08:51:38.898Z</time>
      </trkpt>
      <trkpt lat="42.65188" lon="23.22127">
        <ele>737.847405</ele>
        <time>2022-04-04T08:51:43.862Z</time>
      </trkpt>
      <trkpt lat="42.65181" lon="23.22115">
        <ele>738.295625</ele>
        <time>2022-04-04T08:51:47.879Z</time>
      </trkpt>
      <trkpt lat="42.65175" lon="23.22103">
        <ele>738.712984</ele>
        <time>2022-04-04T08:51:51.883Z</time>
      </trkpt>
      <trkpt lat="42.65173" lon="23.22089">
        <ele>739.120365</ele>
        <time>2022-04-04T08:51:56.887Z</time>
      </trkpt>
      <trkpt lat="42.65167" lon="23.22077">
        <ele>739.537333</ele>
        <time>2022-04-04T08:52:00.910Z</time>
      </trkpt>
      <trkpt lat="42.65164" lon="23.22063">
        <ele>739.972069</ele>
        <time>2022-04-04T08:52:05.880Z</time>
      </trkpt>
      <trkpt lat="42.65159" lon="23.2205">
        <ele>740.379617</ele>
        <time>2022-04-04T08:52:09.888Z</time>
      </trkpt>
      <trkpt lat="42.65152" lon="23.22041">
        <ele>740.798688</ele>
        <time>2022-04-04T08:52:12.881Z</time>
      </trkpt>
      <trkpt lat="42.65146" lon="23.22029">
        <ele>741.355752</ele>
        <time>2022-04-04T08:52:16.901Z</time>
      </trkpt>
      <trkpt lat="42.65146" lon="23.22016">
        <ele>741.844062</ele>
        <time>2022-04-04T08:52:21.897Z</time>
      </trkpt>
      <trkpt lat="42.65143" lon="23.22004">
        <ele>742.309769</ele>
        <time>2022-04-04T08:52:25.878Z</time>
      </trkpt>
      <trkpt lat="42.65136" lon="23.21992">
        <ele>742.859768</ele>
        <time>2022-04-04T08:52:29.883Z</time>
      </trkpt>
      <trkpt lat="42.65131" lon="23.21981">
        <ele>743.344324</ele>
        <time>2022-04-04T08:52:33.896Z</time>
      </trkpt>
      <trkpt lat="42.6513" lon="23.21967">
        <ele>743.881707</ele>
        <time>2022-04-04T08:52:38.885Z</time>
      </trkpt>
      <trkpt lat="42.65127" lon="23.21953">
        <ele>744.436128</ele>
        <time>2022-04-04T08:52:43.926Z</time>
      </trkpt>
      <trkpt lat="42.65124" lon="23.21941">
        <ele>744.901836</ele>
        <time>2022-04-04T08:52:47.884Z</time>
      </trkpt>
      <trkpt lat="42.65121" lon="23.21927">
        <ele>745.456016</ele>
        <time>2022-04-04T08:52:52.883Z</time>
      </trkpt>
      <trkpt lat="42.65115" lon="23.21916">
        <ele>745.988522</ele>
        <time>2022-04-04T08:52:56.893Z</time>
      </trkpt>
      <trkpt lat="42.6511" lon="23.21904">
        <ele>746.521028</ele>
        <time>2022-04-04T08:53:00.907Z</time>
      </trkpt>
      <trkpt lat="42.65106" lon="23.2189">
        <ele>747.073335</ele>
        <time>2022-04-04T08:53:05.883Z</time>
      </trkpt>
      <trkpt lat="42.65099" lon="23.21881">
        <ele>747.555405</ele>
        <time>2022-04-04T08:53:08.866Z</time>
      </trkpt>
      <trkpt lat="42.65095" lon="23.21869">
        <ele>748.055825</ele>
        <time>2022-04-04T08:53:13.879Z</time>
      </trkpt>
      <trkpt lat="42.65093" lon="23.21857">
        <ele>748.525176</ele>
        <time>2022-04-04T08:53:18.887Z</time>
      </trkpt>
      <trkpt lat="42.65092" lon="23.21845">
        <ele>748.991958</ele>
        <time>2022-04-04T08:53:23.867Z</time>
      </trkpt>
      <trkpt lat="42.65084" lon="23.21822">
        <ele>749.96232</ele>
        <time>2022-04-04T08:54:37.888Z</time>
      </trkpt>
      <trkpt lat="42.65079" lon="23.21812">
        <ele>750.537248</ele>
        <time>2022-04-04T08:54:43.932Z</time>
      </trkpt>
      <trkpt lat="42.65075" lon="23.218">
        <ele>751.148943</ele>
        <time>2022-04-04T08:54:49.899Z</time>
      </trkpt>
      <trkpt lat="42.65069" lon="23.21789">
        <ele>751.782469</ele>
        <time>2022-04-04T08:54:55.920Z</time>
      </trkpt>
      <trkpt lat="42.65066" lon="23.21776">
        <ele>752.391664</ele>
        <time>2022-04-04T08:55:01.876Z</time>
      </trkpt>
      <trkpt lat="42.65061" lon="23.21764">
        <ele>753.045158</ele>
        <time>2022-04-04T08:55:07.879Z</time>
      </trkpt>
      <trkpt lat="42.65058" lon="23.21751">
        <ele>753.656279</ele>
        <time>2022-04-04T08:55:12.886Z</time>
      </trkpt>
      <trkpt lat="42.65056" lon="23.21739">
        <ele>754.258182</ele>
        <time>2022-04-04T08:55:18.884Z</time>
      </trkpt>
      <trkpt lat="42.65053" lon="23.21724">
        <ele>754.935237</ele>
        <time>2022-04-04T08:55:24.864Z</time>
      </trkpt>
      <trkpt lat="42.65052" lon="23.21711">
        <ele>755.547151</ele>
        <time>2022-04-04T08:55:30.886Z</time>
      </trkpt>
      <trkpt lat="42.65046" lon="23.21701">
        <ele>756.159744</ele>
        <time>2022-04-04T08:55:34.894Z</time>
      </trkpt>
      <trkpt lat="42.65043" lon="23.21688">
        <ele>756.788677</ele>
        <time>2022-04-04T08:55:39.860Z</time>
      </trkpt>
      <trkpt lat="42.65045" lon="23.21676">
        <ele>757.357344</ele>
        <time>2022-04-04T08:55:45.890Z</time>
      </trkpt>
      <trkpt lat="42.6504" lon="23.21664">
        <ele>757.970462</ele>
        <time>2022-04-04T08:55:50.926Z</time>
      </trkpt>
      <trkpt lat="42.65036" lon="23.21651">
        <ele>758.613227</ele>
        <time>2022-04-04T08:55:55.876Z</time>
      </trkpt>
      <trkpt lat="42.65029" lon="23.21641">
        <ele>759.252064</ele>
        <time>2022-04-04T08:55:59.889Z</time>
      </trkpt>
      <trkpt lat="42.65026" lon="23.21628">
        <ele>759.902391</ele>
        <time>2022-04-04T08:56:06.888Z</time>
      </trkpt>
      <trkpt lat="42.6502" lon="23.21616">
        <ele>760.532685</ele>
        <time>2022-04-04T08:56:11.919Z</time>
      </trkpt>
      <trkpt lat="42.65016" lon="23.21604">
        <ele>761.189223</ele>
        <time>2022-04-04T08:56:17.882Z</time>
      </trkpt>
      <trkpt lat="42.65013" lon="23.21591">
        <ele>761.818642</ele>
        <time>2022-04-04T08:56:23.883Z</time>
      </trkpt>
      <trkpt lat="42.65013" lon="23.21577">
        <ele>762.493815</ele>
        <time>2022-04-04T08:56:31.886Z</time>
      </trkpt>
      <trkpt lat="42.6501" lon="23.21565">
        <ele>763.14127</ele>
        <time>2022-04-04T08:56:36.922Z</time>
      </trkpt>
      <trkpt lat="42.65003" lon="23.21553">
        <ele>763.841688</ele>
        <time>2022-04-04T08:56:42.876Z</time>
      </trkpt>
      <trkpt lat="42.65001" lon="23.21541">
        <ele>764.455088</ele>
        <time>2022-04-04T08:56:47.922Z</time>
      </trkpt>
      <trkpt lat="42.64998" lon="23.21527">
        <ele>765.146654</ele>
        <time>2022-04-04T08:56:52.881Z</time>
      </trkpt>
      <trkpt lat="42.64993" lon="23.21517">
        <ele>765.75617</ele>
        <time>2022-04-04T08:56:56.887Z</time>
      </trkpt>
      <trkpt lat="42.64987" lon="23.21508">
        <ele>766.356137</ele>
        <time>2022-04-04T08:57:00.874Z</time>
      </trkpt>
      <trkpt lat="42.64984" lon="23.21496">
        <ele>766.964847</ele>
        <time>2022-04-04T08:57:07.937Z</time>
      </trkpt>
      <trkpt lat="42.64982" lon="23.21481">
        <ele>767.671089</ele>
        <time>2022-04-04T08:57:13.883Z</time>
      </trkpt>
      <trkpt lat="42.64974" lon="23.21472">
        <ele>768.34983</ele>
        <time>2022-04-04T08:57:18.876Z</time>
      </trkpt>
      <trkpt lat="42.64972" lon="23.2146">
        <ele>768.982085</ele>
        <time>2022-04-04T08:57:23.878Z</time>
      </trkpt>
      <trkpt lat="42.6497" lon="23.21448">
        <ele>769.586109</ele>
        <time>2022-04-04T08:57:28.887Z</time>
      </trkpt>
      <trkpt lat="42.64964" lon="23.21437">
        <ele>770.255241</ele>
        <time>2022-04-04T08:57:35.882Z</time>
      </trkpt>
      <trkpt lat="42.64959" lon="23.21426">
        <ele>770.874113</ele>
        <time>2022-04-04T08:57:42.869Z</time>
      </trkpt>
      <trkpt lat="42.64954" lon="23.21413">
        <ele>771.579773</ele>
        <time>2022-04-04T08:57:48.879Z</time>
      </trkpt>
      <trkpt lat="42.64953" lon="23.214">
        <ele>772.201988</ele>
        <time>2022-04-04T08:57:54.880Z</time>
      </trkpt>
      <trkpt lat="42.64948" lon="23.21387">
        <ele>772.893489</ele>
        <time>2022-04-04T08:58:00.873Z</time>
      </trkpt>
      <trkpt lat="42.64945" lon="23.21373">
        <ele>773.442432</ele>
        <time>2022-04-04T08:58:06.861Z</time>
      </trkpt>
      <trkpt lat="42.64941" lon="23.2136">
        <ele>773.903437</ele>
        <time>2022-04-04T08:58:11.927Z</time>
      </trkpt>
      <trkpt lat="42.64938" lon="23.21348">
        <ele>774.359694</ele>
        <time>2022-04-04T08:58:16.903Z</time>
      </trkpt>
      <trkpt lat="42.64937" lon="23.21334">
        <ele>774.834181</ele>
        <time>2022-04-04T08:58:22.929Z</time>
      </trkpt>
      <trkpt lat="42.64934" lon="23.2132">
        <ele>775.331629</ele>
        <time>2022-04-04T08:58:28.863Z</time>
      </trkpt>
      <trkpt lat="42.64931" lon="23.21307">
        <ele>775.783757</ele>
        <time>2022-04-04T08:58:35.871Z</time>
      </trkpt>
      <trkpt lat="42.64927" lon="23.21297">
        <ele>776.204274</ele>
        <time>2022-04-04T08:58:40.920Z</time>
      </trkpt>
      <trkpt lat="42.64922" lon="23.21286">
        <ele>776.640202</ele>
        <time>2022-04-04T08:58:45.876Z</time>
      </trkpt>
      <trkpt lat="42.64924" lon="23.21273">
        <ele>777.110344</ele>
        <time>2022-04-04T08:58:51.875Z</time>
      </trkpt>
      <trkpt lat="42.64923" lon="23.2126">
        <ele>777.559086</ele>
        <time>2022-04-04T08:58:56.877Z</time>
      </trkpt>
      <trkpt lat="42.64918" lon="23.21249">
        <ele>778.017002</ele>
        <time>2022-04-04T08:59:01.883Z</time>
      </trkpt>
      <trkpt lat="42.64915" lon="23.21237">
        <ele>778.45262</ele>
        <time>2022-04-04T08:59:06.880Z</time>
      </trkpt>
      <trkpt lat="42.64915" lon="23.21224">
        <ele>778.897135</ele>
        <time>2022-04-04T08:59:12.887Z</time>
      </trkpt>
      <trkpt lat="42.64909" lon="23.21213">
        <ele>779.363699</ele>
        <time>2022-04-04T08:59:16.880Z</time>
      </trkpt>
      <trkpt lat="42.64902" lon="23.21202">
        <ele>779.869686</ele>
        <time>2022-04-04T08:59:20.885Z</time>
      </trkpt>
      <trkpt lat="42.64897" lon="23.21191">
        <ele>780.315173</ele>
        <time>2022-04-04T08:59:24.880Z</time>
      </trkpt>
      <trkpt lat="42.6489" lon="23.2118">
        <ele>780.81586</ele>
        <time>2022-04-04T08:59:28.876Z</time>
      </trkpt>
      <trkpt lat="42.64882" lon="23.2117">
        <ele>781.306993</ele>
        <time>2022-04-04T08:59:32.874Z</time>
      </trkpt>
      <trkpt lat="42.64875" lon="23.21159">
        <ele>780.965135</ele>
        <time>2022-04-04T08:59:36.891Z</time>
      </trkpt>
      <trkpt lat="42.64867" lon="23.2115">
        <ele>780.39217</ele>
        <time>2022-04-04T08:59:39.867Z</time>
      </trkpt>
      <trkpt lat="42.6486" lon="23.21138">
        <ele>779.736713</ele>
        <time>2022-04-04T08:59:43.873Z</time>
      </trkpt>
      <trkpt lat="42.64851" lon="23.21128">
        <ele>779.083974</ele>
        <time>2022-04-04T08:59:46.884Z</time>
      </trkpt>
      <trkpt lat="42.64842" lon="23.21117">
        <ele>778.411661</ele>
        <time>2022-04-04T08:59:49.867Z</time>
      </trkpt>
      <trkpt lat="42.64833" lon="23.21107">
        <ele>777.76012</ele>
        <time>2022-04-04T08:59:52.871Z</time>
      </trkpt>
      <trkpt lat="42.64823" lon="23.21095">
        <ele>777.02003</ele>
        <time>2022-04-04T08:59:55.908Z</time>
      </trkpt>
      <trkpt lat="42.64816" lon="23.21087">
        <ele>776.491342</ele>
        <time>2022-04-04T08:59:57.873Z</time>
      </trkpt>
      <trkpt lat="42.64808" lon="23.21075">
        <ele>775.830988</ele>
        <time>2022-04-04T09:00:00.874Z</time>
      </trkpt>
      <trkpt lat="42.64802" lon="23.21063">
        <ele>775.236957</ele>
        <time>2022-04-04T09:00:03.878Z</time>
      </trkpt>
      <trkpt lat="42.648" lon="23.2105">
        <ele>774.704667</ele>
        <time>2022-04-04T09:00:06.887Z</time>
      </trkpt>
      <trkpt lat="42.64797" lon="23.21037">
        <ele>774.145053</ele>
        <time>2022-04-04T09:00:09.885Z</time>
      </trkpt>
      <trkpt lat="42.64795" lon="23.21025">
        <ele>773.615588</ele>
        <time>2022-04-04T09:00:12.876Z</time>
      </trkpt>
      <trkpt lat="42.6479" lon="23.21013">
        <ele>773.040266</ele>
        <time>2022-04-04T09:00:15.878Z</time>
      </trkpt>
      <trkpt lat="42.64785" lon="23.21002">
        <ele>772.498561</ele>
        <time>2022-04-04T09:00:18.922Z</time>
      </trkpt>
      <trkpt lat="42.64783" lon="23.20988">
        <ele>771.930136</ele>
        <time>2022-04-04T09:00:22.887Z</time>
      </trkpt>
      <trkpt lat="42.64781" lon="23.20975">
        <ele>771.39511</ele>
        <time>2022-04-04T09:00:25.865Z</time>
      </trkpt>
      <trkpt lat="42.64778" lon="23.20962">
        <ele>771.83315</ele>
        <time>2022-04-04T09:00:28.879Z</time>
      </trkpt>
      <trkpt lat="42.64769" lon="23.20949">
        <ele>772.466505</ele>
        <time>2022-04-04T09:00:31.890Z</time>
      </trkpt>
      <trkpt lat="42.64764" lon="23.20938">
        <ele>772.955832</ele>
        <time>2022-04-04T09:00:34.867Z</time>
      </trkpt>
      <trkpt lat="42.6476" lon="23.20926">
        <ele>773.455145</ele>
        <time>2022-04-04T09:00:38.890Z</time>
      </trkpt>
      <trkpt lat="42.64759" lon="23.20913">
        <ele>773.928537</ele>
        <time>2022-04-04T09:00:42.891Z</time>
      </trkpt>
      <trkpt lat="42.64754" lon="23.20901">
        <ele>774.430833</ele>
        <time>2022-04-04T09:00:47.859Z</time>
      </trkpt>
      <trkpt lat="42.64748" lon="23.20889">
        <ele>774.961569</ele>
        <time>2022-04-04T09:00:52.884Z</time>
      </trkpt>
      <trkpt lat="42.64741" lon="23.2088">
        <ele>775.441583</ele>
        <time>2022-04-04T09:00:56.869Z</time>
      </trkpt>
      <trkpt lat="42.64736" lon="23.20868">
        <ele>775.942773</ele>
        <time>2022-04-04T09:01:01.882Z</time>
      </trkpt>
      <trkpt lat="42.64731" lon="23.20857">
        <ele>776.452194</ele>
        <time>2022-04-04T09:01:05.950Z</time>
      </trkpt>
      <trkpt lat="42.64724" lon="23.20845">
        <ele>777.003737</ele>
        <time>2022-04-04T09:01:09.898Z</time>
      </trkpt>
      <trkpt lat="42.64715" lon="23.20836">
        <ele>777.542813</ele>
        <time>2022-04-04T09:01:12.872Z</time>
      </trkpt>
      <trkpt lat="42.64709" lon="23.20824">
        <ele>778.058679</ele>
        <time>2022-04-04T09:01:17.872Z</time>
      </trkpt>
      <trkpt lat="42.64702" lon="23.20814">
        <ele>778.595625</ele>
        <time>2022-04-04T09:01:21.871Z</time>
      </trkpt>
      <trkpt lat="42.64694" lon="23.20805">
        <ele>779.108222</ele>
        <time>2022-04-04T09:01:25.879Z</time>
      </trkpt>
      <trkpt lat="42.6469" lon="23.20793">
        <ele>779.59519</ele>
        <time>2022-04-04T09:01:30.886Z</time>
      </trkpt>
      <trkpt lat="42.64684" lon="23.20783">
        <ele>780.048922</ele>
        <time>2022-04-04T09:01:34.904Z</time>
      </trkpt>
      <trkpt lat="42.64679" lon="23.20771">
        <ele>780.490527</ele>
        <time>2022-04-04T09:01:39.878Z</time>
      </trkpt>
      <trkpt lat="42.64673" lon="23.20761">
        <ele>780.824219</ele>
        <time>2022-04-04T09:01:43.883Z</time>
      </trkpt>
      <trkpt lat="42.64667" lon="23.20749">
        <ele>781.176578</ele>
        <time>2022-04-04T09:01:49.873Z</time>
      </trkpt>
      <trkpt lat="42.64659" lon="23.20741">
        <ele>781.495384</ele>
        <time>2022-04-04T09:01:53.881Z</time>
      </trkpt>
      <trkpt lat="42.64653" lon="23.20732">
        <ele>781.797619</ele>
        <time>2022-04-04T09:01:57.874Z</time>
      </trkpt>
      <trkpt lat="42.64646" lon="23.2072">
        <ele>782.180686</ele>
        <time>2022-04-04T09:02:02.908Z</time>
      </trkpt>
      <trkpt lat="42.64639" lon="23.20709">
        <ele>782.545455</ele>
        <time>2022-04-04T09:02:07.880Z</time>
      </trkpt>
      <trkpt lat="42.64631" lon="23.207">
        <ele>782.873103</ele>
        <time>2022-04-04T09:02:10.890Z</time>
      </trkpt>
      <trkpt lat="42.64623" lon="23.2069">
        <ele>783.231466</ele>
        <time>2022-04-04T09:02:14.922Z</time>
      </trkpt>
      <trkpt lat="42.64616" lon="23.20681">
        <ele>783.55901</ele>
        <time>2022-04-04T09:02:18.877Z</time>
      </trkpt>
      <trkpt lat="42.64607" lon="23.20673">
        <ele>783.920821</ele>
        <time>2022-04-04T09:02:21.888Z</time>
      </trkpt>
      <trkpt lat="42.64599" lon="23.20665">
        <ele>784.27298</ele>
        <time>2022-04-04T09:02:25.892Z</time>
      </trkpt>
      <trkpt lat="42.64593" lon="23.20655">
        <ele>784.592093</ele>
        <time>2022-04-04T09:02:29.864Z</time>
      </trkpt>
      <trkpt lat="42.64587" lon="23.20644">
        <ele>784.906799</ele>
        <time>2022-04-04T09:02:35.884Z</time>
      </trkpt>
      <trkpt lat="42.64579" lon="23.20635">
        <ele>785.263955</ele>
        <time>2022-04-04T09:02:40.883Z</time>
      </trkpt>
      <trkpt lat="42.64573" lon="23.20625">
        <ele>785.570712</ele>
        <time>2022-04-04T09:02:45.879Z</time>
      </trkpt>
      <trkpt lat="42.64567" lon="23.20613">
        <ele>785.930944</ele>
        <time>2022-04-04T09:02:50.879Z</time>
      </trkpt>
      <trkpt lat="42.64559" lon="23.20605">
        <ele>786.259904</ele>
        <time>2022-04-04T09:02:55.883Z</time>
      </trkpt>
      <trkpt lat="42.64549" lon="23.206">
        <ele>786.981731</ele>
        <time>2022-04-04T09:02:58.865Z</time>
      </trkpt>
      <trkpt lat="42.64539" lon="23.20593">
        <ele>787.868701</ele>
        <time>2022-04-04T09:03:02.896Z</time>
      </trkpt>
      <trkpt lat="42.64531" lon="23.20587">
        <ele>788.588553</ele>
        <time>2022-04-04T09:03:06.883Z</time>
      </trkpt>
      <trkpt lat="42.64523" lon="23.20579">
        <ele>789.381761</ele>
        <time>2022-04-04T09:03:13.889Z</time>
      </trkpt>
      <trkpt lat="42.64515" lon="23.20572">
        <ele>790.113157</ele>
        <time>2022-04-04T09:03:19.876Z</time>
      </trkpt>
      <trkpt lat="42.64507" lon="23.20564">
        <ele>790.880123</ele>
        <time>2022-04-04T09:03:24.888Z</time>
      </trkpt>
      <trkpt lat="42.64501" lon="23.20555">
        <ele>791.609842</ele>
        <time>2022-04-04T09:03:30.896Z</time>
      </trkpt>
      <trkpt lat="42.64494" lon="23.20544">
        <ele>792.433942</ele>
        <time>2022-04-04T09:03:36.884Z</time>
      </trkpt>
      <trkpt lat="42.64487" lon="23.20534">
        <ele>793.216063</ele>
        <time>2022-04-04T09:03:42.921Z</time>
      </trkpt>
      <trkpt lat="42.64479" lon="23.20528">
        <ele>793.998363</ele>
        <time>2022-04-04T09:03:49.865Z</time>
      </trkpt>
      <trkpt lat="42.64469" lon="23.20527">
        <ele>794.734652</ele>
        <time>2022-04-04T09:03:56.935Z</time>
      </trkpt>
      <trkpt lat="42.64461" lon="23.20522">
        <ele>795.461942</ele>
        <time>2022-04-04T09:04:01.890Z</time>
      </trkpt>
      <trkpt lat="42.64453" lon="23.20516">
        <ele>796.217015</ele>
        <time>2022-04-04T09:04:05.882Z</time>
      </trkpt>
      <trkpt lat="42.64444" lon="23.20509">
        <ele>797.008957</ele>
        <time>2022-04-04T09:04:10.876Z</time>
      </trkpt>
      <trkpt lat="42.64435" lon="23.20503">
        <ele>797.762197</ele>
        <time>2022-04-04T09:04:15.878Z</time>
      </trkpt>
      <trkpt lat="42.64426" lon="23.20499">
        <ele>798.503857</ele>
        <time>2022-04-04T09:04:19.877Z</time>
      </trkpt>
      <trkpt lat="42.64418" lon="23.20491">
        <ele>799.299007</ele>
        <time>2022-04-04T09:04:26.890Z</time>
      </trkpt>
      <trkpt lat="42.64411" lon="23.20484">
        <ele>800.023691</ele>
        <time>2022-04-04T09:04:32.893Z</time>
      </trkpt>
      <trkpt lat="42.64402" lon="23.20477">
        <ele>800.825595</ele>
        <time>2022-04-04T09:04:37.880Z</time>
      </trkpt>
      <trkpt lat="42.64393" lon="23.20474">
        <ele>801.511599</ele>
        <time>2022-04-04T09:04:44.876Z</time>
      </trkpt>
      <trkpt lat="42.64384" lon="23.20468">
        <ele>802.203516</ele>
        <time>2022-04-04T09:04:52.879Z</time>
      </trkpt>
      <trkpt lat="42.64375" lon="23.20464">
        <ele>802.902406</ele>
        <time>2022-04-04T09:04:59.879Z</time>
      </trkpt>
      <trkpt lat="42.64365" lon="23.20463">
        <ele>803.645573</ele>
        <time>2022-04-04T09:05:04.870Z</time>
      </trkpt>
      <trkpt lat="42.64357" lon="23.20456">
        <ele>804.354648</ele>
        <time>2022-04-04T09:05:10.894Z</time>
      </trkpt>
      <trkpt lat="42.64347" lon="23.2045">
        <ele>805.145017</ele>
        <time>2022-04-04T09:05:17.888Z</time>
      </trkpt>
      <trkpt lat="42.6434" lon="23.20443">
        <ele>805.822442</ele>
        <time>2022-04-04T09:05:23.870Z</time>
      </trkpt>
      <trkpt lat="42.64332" lon="23.20436">
        <ele>806.493698</ele>
        <time>2022-04-04T09:05:28.885Z</time>
      </trkpt>
      <trkpt lat="42.64323" lon="23.20429">
        <ele>807.264732</ele>
        <time>2022-04-04T09:05:34.856Z</time>
      </trkpt>
      <trkpt lat="42.64313" lon="23.20424">
        <ele>808.015953</ele>
        <time>2022-04-04T09:05:39.856Z</time>
      </trkpt>
      <trkpt lat="42.64305" lon="23.2042">
        <ele>808.686665</ele>
        <time>2022-04-04T09:05:44.919Z</time>
      </trkpt>
      <trkpt lat="42.64297" lon="23.20414">
        <ele>809.361769</ele>
        <time>2022-04-04T09:05:49.881Z</time>
      </trkpt>
      <trkpt lat="42.64289" lon="23.20408">
        <ele>810.032927</ele>
        <time>2022-04-04T09:05:55.920Z</time>
      </trkpt>
      <trkpt lat="42.6428" lon="23.20402">
        <ele>810.769743</ele>
        <time>2022-04-04T09:06:02.874Z</time>
      </trkpt>
      <trkpt lat="42.64272" lon="23.20395">
        <ele>811.474269</ele>
        <time>2022-04-04T09:06:12.872Z</time>
      </trkpt>
      <trkpt lat="42.64263" lon="23.20388">
        <ele>812.197257</ele>
        <time>2022-04-04T09:06:17.936Z</time>
      </trkpt>
      <trkpt lat="42.64256" lon="23.20381">
        <ele>812.871485</ele>
        <time>2022-04-04T09:06:23.877Z</time>
      </trkpt>
      <trkpt lat="42.64248" lon="23.20374">
        <ele>813.551563</ele>
        <time>2022-04-04T09:06:30.882Z</time>
      </trkpt>
      <trkpt lat="42.6424" lon="23.20364">
        <ele>814.479196</ele>
        <time>2022-04-04T09:06:37.877Z</time>
      </trkpt>
      <trkpt lat="42.64231" lon="23.20357">
        <ele>815.358874</ele>
        <time>2022-04-04T09:06:42.880Z</time>
      </trkpt>
      <trkpt lat="42.64224" lon="23.20349">
        <ele>816.174639</ele>
        <time>2022-04-04T09:06:47.886Z</time>
      </trkpt>
      <trkpt lat="42.64215" lon="23.20343">
        <ele>817.014977</ele>
        <time>2022-04-04T09:06:52.885Z</time>
      </trkpt>
      <trkpt lat="42.64207" lon="23.20337">
        <ele>817.872153</ele>
        <time>2022-04-04T09:06:58.880Z</time>
      </trkpt>
      <trkpt lat="42.64199" lon="23.20329">
        <ele>818.725443</ele>
        <time>2022-04-04T09:07:05.887Z</time>
      </trkpt>
      <trkpt lat="42.64189" lon="23.20323">
        <ele>819.627965</ele>
        <time>2022-04-04T09:07:11.880Z</time>
      </trkpt>
      <trkpt lat="42.64184" lon="23.20314">
        <ele>820.431897</ele>
        <time>2022-04-04T09:07:19.876Z</time>
      </trkpt>
      <trkpt lat="42.64177" lon="23.20304">
        <ele>821.281682</ele>
        <time>2022-04-04T09:07:28.891Z</time>
      </trkpt>
      <trkpt lat="42.64169" lon="23.20296">
        <ele>822.129987</ele>
        <time>2022-04-04T09:07:33.873Z</time>
      </trkpt>
      <trkpt lat="42.64163" lon="23.20286">
        <ele>822.977879</ele>
        <time>2022-04-04T09:07:38.882Z</time>
      </trkpt>
      <trkpt lat="42.64155" lon="23.20277">
        <ele>823.894006</ele>
        <time>2022-04-04T09:07:43.882Z</time>
      </trkpt>
      <trkpt lat="42.64147" lon="23.20269">
        <ele>824.721148</ele>
        <time>2022-04-04T09:07:49.889Z</time>
      </trkpt>
      <trkpt lat="42.64139" lon="23.20263">
        <ele>825.57699</ele>
        <time>2022-04-04T09:07:55.884Z</time>
      </trkpt>
      <trkpt lat="42.64132" lon="23.20254">
        <ele>826.41269</ele>
        <time>2022-04-04T09:08:00.906Z</time>
      </trkpt>
      <trkpt lat="42.64124" lon="23.20245">
        <ele>827.307163</ele>
        <time>2022-04-04T09:08:06.877Z</time>
      </trkpt>
      <trkpt lat="42.6412" lon="23.20234">
        <ele>828.113983</ele>
        <time>2022-04-04T09:08:14.908Z</time>
      </trkpt>
      <trkpt lat="42.64113" lon="23.20225">
        <ele>828.956349</ele>
        <time>2022-04-04T09:08:20.899Z</time>
      </trkpt>
      <trkpt lat="42.64106" lon="23.20213">
        <ele>829.393379</ele>
        <time>2022-04-04T09:08:26.898Z</time>
      </trkpt>
      <trkpt lat="42.64102" lon="23.20201">
        <ele>829.062844</ele>
        <time>2022-04-04T09:08:35.882Z</time>
      </trkpt>
      <trkpt lat="42.64094" lon="23.20194">
        <ele>828.722197</ele>
        <time>2022-04-04T09:08:40.876Z</time>
      </trkpt>
      <trkpt lat="42.64085" lon="23.20186">
        <ele>828.364241</ele>
        <time>2022-04-04T09:08:46.872Z</time>
      </trkpt>
      <trkpt lat="42.64077" lon="23.20177">
        <ele>827.998871</ele>
        <time>2022-04-04T09:08:53.867Z</time>
      </trkpt>
      <trkpt lat="42.6407" lon="23.20166">
        <ele>827.642325</ele>
        <time>2022-04-04T09:08:59.914Z</time>
      </trkpt>
      <trkpt lat="42.64061" lon="23.20157">
        <ele>827.267213</ele>
        <time>2022-04-04T09:09:05.882Z</time>
      </trkpt>
      <trkpt lat="42.64051" lon="23.2015">
        <ele>826.883491</ele>
        <time>2022-04-04T09:09:10.900Z</time>
      </trkpt>
      <trkpt lat="42.64042" lon="23.20144">
        <ele>826.524256</ele>
        <time>2022-04-04T09:09:14.890Z</time>
      </trkpt>
      <trkpt lat="42.64036" lon="23.20134">
        <ele>826.205278</ele>
        <time>2022-04-04T09:09:22.895Z</time>
      </trkpt>
      <trkpt lat="42.64031" lon="23.20123">
        <ele>825.887904</ele>
        <time>2022-04-04T09:09:27.885Z</time>
      </trkpt>
      <trkpt lat="42.64021" lon="23.20113">
        <ele>825.474735</ele>
        <time>2022-04-04T09:09:38.868Z</time>
      </trkpt>
      <trkpt lat="42.64013" lon="23.20107">
        <ele>825.168883</ele>
        <time>2022-04-04T09:09:41.882Z</time>
      </trkpt>
      <trkpt lat="42.64005" lon="23.201">
        <ele>824.837138</ele>
        <time>2022-04-04T09:09:44.952Z</time>
      </trkpt>
      <trkpt lat="42.63998" lon="23.20091">
        <ele>824.522233</ele>
        <time>2022-04-04T09:09:49.876Z</time>
      </trkpt>
      <trkpt lat="42.6399" lon="23.20084">
        <ele>824.18834</ele>
        <time>2022-04-04T09:09:56.887Z</time>
      </trkpt>
      <trkpt lat="42.63983" lon="23.20075">
        <ele>823.87194</ele>
        <time>2022-04-04T09:10:03.869Z</time>
      </trkpt>
      <trkpt lat="42.63977" lon="23.20066">
        <ele>823.552849</ele>
        <time>2022-04-04T09:10:08.900Z</time>
      </trkpt>
      <trkpt lat="42.63968" lon="23.20058">
        <ele>823.665596</ele>
        <time>2022-04-04T09:10:12.878Z</time>
      </trkpt>
      <trkpt lat="42.63961" lon="23.20049">
        <ele>824.058741</ele>
        <time>2022-04-04T09:10:18.898Z</time>
      </trkpt>
      <trkpt lat="42.63953" lon="23.20042">
        <ele>824.455305</ele>
        <time>2022-04-04T09:10:22.867Z</time>
      </trkpt>
      <trkpt lat="42.63947" lon="23.20031">
        <ele>824.843764</ele>
        <time>2022-04-04T09:10:28.889Z</time>
      </trkpt>
      <trkpt lat="42.63948" lon="23.20018">
        <ele>825.210022</ele>
        <time>2022-04-04T09:10:34.903Z</time>
      </trkpt>
      <trkpt lat="42.63947" lon="23.20005">
        <ele>825.585473</ele>
        <time>2022-04-04T09:10:42.918Z</time>
      </trkpt>
      <trkpt lat="42.63942" lon="23.19994">
        <ele>825.96122</ele>
        <time>2022-04-04T09:10:48.883Z</time>
      </trkpt>
      <trkpt lat="42.6394" lon="23.19982">
        <ele>826.315528</ele>
        <time>2022-04-04T09:10:54.882Z</time>
      </trkpt>
      <trkpt lat="42.63935" lon="23.19971">
        <ele>826.711533</ele>
        <time>2022-04-04T09:10:59.891Z</time>
      </trkpt>
      <trkpt lat="42.63929" lon="23.19961">
        <ele>827.078729</ele>
        <time>2022-04-04T09:11:04.894Z</time>
      </trkpt>
      <trkpt lat="42.63928" lon="23.19946">
        <ele>827.500511</ele>
        <time>2022-04-04T09:11:11.863Z</time>
      </trkpt>
      <trkpt lat="42.63925" lon="23.19934">
        <ele>827.871058</ele>
        <time>2022-04-04T09:11:17.906Z</time>
      </trkpt>
      <trkpt lat="42.6392" lon="23.19922">
        <ele>828.281504</ele>
        <time>2022-04-04T09:11:24.918Z</time>
      </trkpt>
      <trkpt lat="42.63914" lon="23.19912">
        <ele>828.654125</ele>
        <time>2022-04-04T09:11:29.895Z</time>
      </trkpt>
      <trkpt lat="42.63912" lon="23.19899">
        <ele>829.033846</ele>
        <time>2022-04-04T09:11:37.882Z</time>
      </trkpt>
      <trkpt lat="42.63903" lon="23.1989">
        <ele>829.488841</ele>
        <time>2022-04-04T09:11:42.917Z</time>
      </trkpt>
      <trkpt lat="42.63901" lon="23.19877">
        <ele>829.854404</ele>
        <time>2022-04-04T09:11:48.917Z</time>
      </trkpt>
      <trkpt lat="42.63903" lon="23.19866">
        <ele>830.211946</ele>
        <time>2022-04-04T09:11:53.887Z</time>
      </trkpt>
      <trkpt lat="42.63898" lon="23.19854">
        <ele>830.723964</ele>
        <time>2022-04-04T09:11:58.886Z</time>
      </trkpt>
      <trkpt lat="42.63889" lon="23.19843">
        <ele>831.852098</ele>
        <time>2022-04-04T09:12:02.891Z</time>
      </trkpt>
      <trkpt lat="42.6388" lon="23.19833">
        <ele>832.862433</ele>
        <time>2022-04-04T09:12:06.886Z</time>
      </trkpt>
      <trkpt lat="42.63874" lon="23.19823">
        <ele>833.753495</ele>
        <time>2022-04-04T09:12:10.920Z</time>
      </trkpt>
      <trkpt lat="42.63868" lon="23.19812">
        <ele>834.603941</ele>
        <time>2022-04-04T09:12:15.897Z</time>
      </trkpt>
      <trkpt lat="42.63863" lon="23.198">
        <ele>835.559812</ele>
        <time>2022-04-04T09:12:22.899Z</time>
      </trkpt>
      <trkpt lat="42.63857" lon="23.19789">
        <ele>836.476124</ele>
        <time>2022-04-04T09:12:27.926Z</time>
      </trkpt>
      <trkpt lat="42.63849" lon="23.1978">
        <ele>837.437443</ele>
        <time>2022-04-04T09:12:31.891Z</time>
      </trkpt>
      <trkpt lat="42.63842" lon="23.1977">
        <ele>838.314506</ele>
        <time>2022-04-04T09:12:37.890Z</time>
      </trkpt>
      <trkpt lat="42.63834" lon="23.19761">
        <ele>839.261645</ele>
        <time>2022-04-04T09:12:41.878Z</time>
      </trkpt>
      <trkpt lat="42.63825" lon="23.19754">
        <ele>840.21034</ele>
        <time>2022-04-04T09:12:45.882Z</time>
      </trkpt>
      <trkpt lat="42.63817" lon="23.19744">
        <ele>841.158004</ele>
        <time>2022-04-04T09:12:51.884Z</time>
      </trkpt>
      <trkpt lat="42.63809" lon="23.19735">
        <ele>842.063453</ele>
        <time>2022-04-04T09:12:57.891Z</time>
      </trkpt>
      <trkpt lat="42.63801" lon="23.19728">
        <ele>842.985443</ele>
        <time>2022-04-04T09:13:01.896Z</time>
      </trkpt>
      <trkpt lat="42.63792" lon="23.19721">
        <ele>843.870416</ele>
        <time>2022-04-04T09:13:06.918Z</time>
      </trkpt>
      <trkpt lat="42.63783" lon="23.19714">
        <ele>844.806356</ele>
        <time>2022-04-04T09:13:10.863Z</time>
      </trkpt>
      <trkpt lat="42.63775" lon="23.1971">
        <ele>845.643002</ele>
        <time>2022-04-04T09:13:14.881Z</time>
      </trkpt>
      <trkpt lat="42.63766" lon="23.19703">
        <ele>846.56669</ele>
        <time>2022-04-04T09:13:21.877Z</time>
      </trkpt>
      <trkpt lat="42.63758" lon="23.19695">
        <ele>846.802832</ele>
        <time>2022-04-04T09:13:28.915Z</time>
      </trkpt>
      <trkpt lat="42.63749" lon="23.19688">
        <ele>846.874154</ele>
        <time>2022-04-04T09:13:34.886Z</time>
      </trkpt>
      <trkpt lat="42.63739" lon="23.19681">
        <ele>846.956573</ele>
        <time>2022-04-04T09:13:39.915Z</time>
      </trkpt>
      <trkpt lat="42.6373" lon="23.19677">
        <ele>847.023163</ele>
        <time>2022-04-04T09:13:42.871Z</time>
      </trkpt>
      <trkpt lat="42.63722" lon="23.19671">
        <ele>847.087381</ele>
        <time>2022-04-04T09:13:46.876Z</time>
      </trkpt>
      <trkpt lat="42.63712" lon="23.19665">
        <ele>847.166793</ele>
        <time>2022-04-04T09:13:50.897Z</time>
      </trkpt>
      <trkpt lat="42.63703" lon="23.19659">
        <ele>847.232921</ele>
        <time>2022-04-04T09:13:55.876Z</time>
      </trkpt>
      <trkpt lat="42.63694" lon="23.19654">
        <ele>847.300522</ele>
        <time>2022-04-04T09:14:00.889Z</time>
      </trkpt>
      <trkpt lat="42.63684" lon="23.19649">
        <ele>847.375833</ele>
        <time>2022-04-04T09:14:04.869Z</time>
      </trkpt>
      <trkpt lat="42.63676" lon="23.19644">
        <ele>847.442153</ele>
        <time>2022-04-04T09:14:08.891Z</time>
      </trkpt>
      <trkpt lat="42.63667" lon="23.19637">
        <ele>847.510216</ele>
        <time>2022-04-04T09:14:12.908Z</time>
      </trkpt>
      <trkpt lat="42.63658" lon="23.1963">
        <ele>847.584378</ele>
        <time>2022-04-04T09:14:17.902Z</time>
      </trkpt>
      <trkpt lat="42.6365" lon="23.19623">
        <ele>847.655926</ele>
        <time>2022-04-04T09:14:22.950Z</time>
      </trkpt>
      <trkpt lat="42.63641" lon="23.19618">
        <ele>847.721166</ele>
        <time>2022-04-04T09:14:26.901Z</time>
      </trkpt>
      <trkpt lat="42.63632" lon="23.19615">
        <ele>847.787475</ele>
        <time>2022-04-04T09:14:30.884Z</time>
      </trkpt>
      <trkpt lat="42.63622" lon="23.19613">
        <ele>847.861016</ele>
        <time>2022-04-04T09:14:34.881Z</time>
      </trkpt>
      <trkpt lat="42.6361" lon="23.19608">
        <ele>847.947704</ele>
        <time>2022-04-04T09:14:38.862Z</time>
      </trkpt>
      <trkpt lat="42.636" lon="23.19601">
        <ele>847.964121</ele>
        <time>2022-04-04T09:14:42.892Z</time>
      </trkpt>
      <trkpt lat="42.6359" lon="23.19594">
        <ele>847.58398</ele>
        <time>2022-04-04T09:14:46.879Z</time>
      </trkpt>
      <trkpt lat="42.6358" lon="23.1959">
        <ele>847.201579</ele>
        <time>2022-04-04T09:14:50.868Z</time>
      </trkpt>
      <trkpt lat="42.63569" lon="23.19587">
        <ele>846.838519</ele>
        <time>2022-04-04T09:14:54.899Z</time>
      </trkpt>
      <trkpt lat="42.63557" lon="23.19586">
        <ele>846.418477</ele>
        <time>2022-04-04T09:14:58.880Z</time>
      </trkpt>
      <trkpt lat="42.63547" lon="23.19584">
        <ele>846.055319</ele>
        <time>2022-04-04T09:15:01.887Z</time>
      </trkpt>
      <trkpt lat="42.63536" lon="23.19582">
        <ele>845.682701</ele>
        <time>2022-04-04T09:15:04.866Z</time>
      </trkpt>
      <trkpt lat="42.63526" lon="23.1958">
        <ele>845.318623</ele>
        <time>2022-04-04T09:15:07.882Z</time>
      </trkpt>
      <trkpt lat="42.63516" lon="23.19577">
        <ele>844.940911</ele>
        <time>2022-04-04T09:15:10.879Z</time>
      </trkpt>
      <trkpt lat="42.63505" lon="23.19575">
        <ele>844.561594</ele>
        <time>2022-04-04T09:15:13.876Z</time>
      </trkpt>
      <trkpt lat="42.63495" lon="23.19572">
        <ele>844.213456</ele>
        <time>2022-04-04T09:15:16.879Z</time>
      </trkpt>
      <trkpt lat="42.63484" lon="23.19568">
        <ele>843.822371</ele>
        <time>2022-04-04T09:15:19.869Z</time>
      </trkpt>
      <trkpt lat="42.63475" lon="23.19563">
        <ele>843.471032</ele>
        <time>2022-04-04T09:15:23.863Z</time>
      </trkpt>
      <trkpt lat="42.63466" lon="23.19557">
        <ele>843.118847</ele>
        <time>2022-04-04T09:15:27.886Z</time>
      </trkpt>
      <trkpt lat="42.63455" lon="23.1955">
        <ele>842.700816</ele>
        <time>2022-04-04T09:15:31.901Z</time>
      </trkpt>
      <trkpt lat="42.63447" lon="23.19543">
        <ele>842.378595</ele>
        <time>2022-04-04T09:15:34.867Z</time>
      </trkpt>
      <trkpt lat="42.63439" lon="23.19534">
        <ele>842.010368</ele>
        <time>2022-04-04T09:15:37.887Z</time>
      </trkpt>
      <trkpt lat="42.63431" lon="23.19524">
        <ele>841.858064</ele>
        <time>2022-04-04T09:15:41.886Z</time>
      </trkpt>
      <trkpt lat="42.63423" lon="23.19517">
        <ele>842.236964</ele>
        <time>2022-04-04T09:15:45.871Z</time>
      </trkpt>
      <trkpt lat="42.63414" lon="23.1951">
        <ele>842.633639</ele>
        <time>2022-04-04T09:15:48.889Z</time>
      </trkpt>
      <trkpt lat="42.63405" lon="23.19504">
        <ele>843.051128</ele>
        <time>2022-04-04T09:15:52.919Z</time>
      </trkpt>
      <trkpt lat="42.63395" lon="23.19496">
        <ele>843.509029</ele>
        <time>2022-04-04T09:15:57.883Z</time>
      </trkpt>
      <trkpt lat="42.63386" lon="23.19491">
        <ele>843.889607</ele>
        <time>2022-04-04T09:16:00.898Z</time>
      </trkpt>
      <trkpt lat="42.63378" lon="23.19485">
        <ele>844.251017</ele>
        <time>2022-04-04T09:16:03.878Z</time>
      </trkpt>
      <trkpt lat="42.63369" lon="23.19478">
        <ele>844.683351</ele>
        <time>2022-04-04T09:16:07.878Z</time>
      </trkpt>
      <trkpt lat="42.63359" lon="23.19469">
        <ele>845.146034</ele>
        <time>2022-04-04T09:16:11.894Z</time>
      </trkpt>
      <trkpt lat="42.6335" lon="23.19461">
        <ele>845.585727</ele>
        <time>2022-04-04T09:16:15.886Z</time>
      </trkpt>
      <trkpt lat="42.63341" lon="23.19455">
        <ele>845.953733</ele>
        <time>2022-04-04T09:16:19.886Z</time>
      </trkpt>
      <trkpt lat="42.63333" lon="23.19449">
        <ele>846.334528</ele>
        <time>2022-04-04T09:16:24.870Z</time>
      </trkpt>
      <trkpt lat="42.63324" lon="23.19442">
        <ele>846.763072</ele>
        <time>2022-04-04T09:16:30.887Z</time>
      </trkpt>
      <trkpt lat="42.63315" lon="23.19435">
        <ele>847.136167</ele>
        <time>2022-04-04T09:16:34.880Z</time>
      </trkpt>
      <trkpt lat="42.63308" lon="23.19427">
        <ele>847.513898</ele>
        <time>2022-04-04T09:16:39.889Z</time>
      </trkpt>
      <trkpt lat="42.633" lon="23.19422">
        <ele>847.874046</ele>
        <time>2022-04-04T09:16:44.891Z</time>
      </trkpt>
      <trkpt lat="42.63291" lon="23.19417">
        <ele>848.248705</ele>
        <time>2022-04-04T09:16:48.897Z</time>
      </trkpt>
      <trkpt lat="42.63282" lon="23.19413">
        <ele>848.623824</ele>
        <time>2022-04-04T09:16:53.930Z</time>
      </trkpt>
      <trkpt lat="42.63273" lon="23.19407">
        <ele>848.957293</ele>
        <time>2022-04-04T09:16:59.885Z</time>
      </trkpt>
      <trkpt lat="42.63264" lon="23.194">
        <ele>849.195088</ele>
        <time>2022-04-04T09:17:04.922Z</time>
      </trkpt>
      <trkpt lat="42.63254" lon="23.19396">
        <ele>849.423336</ele>
        <time>2022-04-04T09:17:09.904Z</time>
      </trkpt>
      <trkpt lat="42.63244" lon="23.19391">
        <ele>849.665071</ele>
        <time>2022-04-04T09:17:14.891Z</time>
      </trkpt>
      <trkpt lat="42.63235" lon="23.19387">
        <ele>849.888001</ele>
        <time>2022-04-04T09:17:19.889Z</time>
      </trkpt>
      <trkpt lat="42.63224" lon="23.19384">
        <ele>850.127035</ele>
        <time>2022-04-04T09:17:26.880Z</time>
      </trkpt>
      <trkpt lat="42.63215" lon="23.19382">
        <ele>850.351129</ele>
        <time>2022-04-04T09:17:32.881Z</time>
      </trkpt>
      <trkpt lat="42.63205" lon="23.19376">
        <ele>850.588901</ele>
        <time>2022-04-04T09:17:37.875Z</time>
      </trkpt>
      <trkpt lat="42.63196" lon="23.19372">
        <ele>850.81018</ele>
        <time>2022-04-04T09:17:42.887Z</time>
      </trkpt>
      <trkpt lat="42.63186" lon="23.19369">
        <ele>851.026133</ele>
        <time>2022-04-04T09:17:47.871Z</time>
      </trkpt>
      <trkpt lat="42.63176" lon="23.19368">
        <ele>851.257137</ele>
        <time>2022-04-04T09:17:54.870Z</time>
      </trkpt>
      <trkpt lat="42.63167" lon="23.19369">
        <ele>851.465465</ele>
        <time>2022-04-04T09:17:59.876Z</time>
      </trkpt>
      <trkpt lat="42.63157" lon="23.19371">
        <ele>851.701191</ele>
        <time>2022-04-04T09:18:04.897Z</time>
      </trkpt>
      <trkpt lat="42.63147" lon="23.19375">
        <ele>851.928446</ele>
        <time>2022-04-04T09:18:09.883Z</time>
      </trkpt>
      <trkpt lat="42.63138" lon="23.19377">
        <ele>852.143533</ele>
        <time>2022-04-04T09:18:14.881Z</time>
      </trkpt>
      <trkpt lat="42.63127" lon="23.1938">
        <ele>852.39521</ele>
        <time>2022-04-04T09:18:20.890Z</time>
      </trkpt>
      <trkpt lat="42.63117" lon="23.19383">
        <ele>852.62596</ele>
        <time>2022-04-04T09:18:24.891Z</time>
      </trkpt>
      <trkpt lat="42.63108" lon="23.19387">
        <ele>852.838647</ele>
        <time>2022-04-04T09:18:29.880Z</time>
      </trkpt>
      <trkpt lat="42.63099" lon="23.19391">
        <ele>853.321938</ele>
        <time>2022-04-04T09:18:35.882Z</time>
      </trkpt>
      <trkpt lat="42.6309" lon="23.19394">
        <ele>853.985454</ele>
        <time>2022-04-04T09:18:41.885Z</time>
      </trkpt>
      <trkpt lat="42.6308" lon="23.19396">
        <ele>854.701939</ele>
        <time>2022-04-04T09:18:46.879Z</time>
      </trkpt>
      <trkpt lat="42.6307" lon="23.19399">
        <ele>855.4595</ele>
        <time>2022-04-04T09:18:50.930Z</time>
      </trkpt>
      <trkpt lat="42.6306" lon="23.19405">
        <ele>856.213806</ele>
        <time>2022-04-04T09:18:57.888Z</time>
      </trkpt>
      <trkpt lat="42.63049" lon="23.19408">
        <ele>857.020282</ele>
        <time>2022-04-04T09:19:03.888Z</time>
      </trkpt>
      <trkpt lat="42.63039" lon="23.19411">
        <ele>857.811507</ele>
        <time>2022-04-04T09:19:08.882Z</time>
      </trkpt>
      <trkpt lat="42.6303" lon="23.19415">
        <ele>858.495342</ele>
        <time>2022-04-04T09:19:13.916Z</time>
      </trkpt>
      <trkpt lat="42.63021" lon="23.19421">
        <ele>859.181713</ele>
        <time>2022-04-04T09:19:18.900Z</time>
      </trkpt>
      <trkpt lat="42.63012" lon="23.19427">
        <ele>859.897587</ele>
        <time>2022-04-04T09:19:24.897Z</time>
      </trkpt>
      <trkpt lat="42.63006" lon="23.19437">
        <ele>860.570937</ele>
        <time>2022-04-04T09:19:29.871Z</time>
      </trkpt>
      <trkpt lat="42.62998" lon="23.19446">
        <ele>861.346696</ele>
        <time>2022-04-04T09:19:34.922Z</time>
      </trkpt>
      <trkpt lat="42.62992" lon="23.19456">
        <ele>862.001613</ele>
        <time>2022-04-04T09:19:39.892Z</time>
      </trkpt>
      <trkpt lat="42.62986" lon="23.19465">
        <ele>862.68818</ele>
        <time>2022-04-04T09:19:43.890Z</time>
      </trkpt>
      <trkpt lat="42.62984" lon="23.19478">
        <ele>863.365266</ele>
        <time>2022-04-04T09:19:47.883Z</time>
      </trkpt>
      <trkpt lat="42.62981" lon="23.1949">
        <ele>864.041286</ele>
        <time>2022-04-04T09:19:52.891Z</time>
      </trkpt>
      <trkpt lat="42.62977" lon="23.19502">
        <ele>864.76848</ele>
        <time>2022-04-04T09:19:58.883Z</time>
      </trkpt>
      <trkpt lat="42.62978" lon="23.19515">
        <ele>865.476112</ele>
        <time>2022-04-04T09:20:02.918Z</time>
      </trkpt>
      <trkpt lat="42.62978" lon="23.19528">
        <ele>865.968272</ele>
        <time>2022-04-04T09:20:06.883Z</time>
      </trkpt>
      <trkpt lat="42.62976" lon="23.1954">
        <ele>866.103426</ele>
        <time>2022-04-04T09:20:12.900Z</time>
      </trkpt>
      <trkpt lat="42.62974" lon="23.19553">
        <ele>866.238247</ele>
        <time>2022-04-04T09:20:17.869Z</time>
      </trkpt>
      <trkpt lat="42.62973" lon="23.19566">
        <ele>866.382558</ele>
        <time>2022-04-04T09:20:22.876Z</time>
      </trkpt>
      <trkpt lat="42.62965" lon="23.19577">
        <ele>866.537255</ele>
        <time>2022-04-04T09:20:27.895Z</time>
      </trkpt>
      <trkpt lat="42.62959" lon="23.19587">
        <ele>866.67305</ele>
        <time>2022-04-04T09:20:32.869Z</time>
      </trkpt>
      <trkpt lat="42.62951" lon="23.19594">
        <ele>866.806803</ele>
        <time>2022-04-04T09:20:36.879Z</time>
      </trkpt>
      <trkpt lat="42.6294" lon="23.19599">
        <ele>866.972133</ele>
        <time>2022-04-04T09:20:39.883Z</time>
      </trkpt>
      <trkpt lat="42.62928" lon="23.19599">
        <ele>867.143213</ele>
        <time>2022-04-04T09:20:42.882Z</time>
      </trkpt>
      <trkpt lat="42.62918" lon="23.19599">
        <ele>867.284274</ele>
        <time>2022-04-04T09:20:44.875Z</time>
      </trkpt>
      <trkpt lat="42.62909" lon="23.19597">
        <ele>867.419242</ele>
        <time>2022-04-04T09:20:46.905Z</time>
      </trkpt>
      <trkpt lat="42.62899" lon="23.19596">
        <ele>867.553966</ele>
        <time>2022-04-04T09:20:48.893Z</time>
      </trkpt>
      <trkpt lat="42.62886" lon="23.19592">
        <ele>867.752899</ele>
        <time>2022-04-04T09:20:51.880Z</time>
      </trkpt>
      <trkpt lat="42.62877" lon="23.19587">
        <ele>867.894455</ele>
        <time>2022-04-04T09:20:53.877Z</time>
      </trkpt>
      <trkpt lat="42.62867" lon="23.19579">
        <ele>868.055682</ele>
        <time>2022-04-04T09:20:55.894Z</time>
      </trkpt>
      <trkpt lat="42.62857" lon="23.19571">
        <ele>868.221876</ele>
        <time>2022-04-04T09:20:57.882Z</time>
      </trkpt>
      <trkpt lat="42.62848" lon="23.19558">
        <ele>868.406711</ele>
        <time>2022-04-04T09:21:00.881Z</time>
      </trkpt>
      <trkpt lat="42.62843" lon="23.19546">
        <ele>868.469359</ele>
        <time>2022-04-04T09:21:03.909Z</time>
      </trkpt>
      <trkpt lat="42.62839" lon="23.1953">
        <ele>868.397286</ele>
        <time>2022-04-04T09:21:07.874Z</time>
      </trkpt>
      <trkpt lat="42.62834" lon="23.19519">
        <ele>868.342885</ele>
        <time>2022-04-04T09:21:09.872Z</time>
      </trkpt>
      <trkpt lat="42.62827" lon="23.19508">
        <ele>868.281614</ele>
        <time>2022-04-04T09:21:11.883Z</time>
      </trkpt>
      <trkpt lat="42.6282" lon="23.19497">
        <ele>868.220742</ele>
        <time>2022-04-04T09:21:13.895Z</time>
      </trkpt>
      <trkpt lat="42.62812" lon="23.19484">
        <ele>868.148945</ele>
        <time>2022-04-04T09:21:16.881Z</time>
      </trkpt>
      <trkpt lat="42.62805" lon="23.19474">
        <ele>868.092103</ele>
        <time>2022-04-04T09:21:19.879Z</time>
      </trkpt>
      <trkpt lat="42.62798" lon="23.19462">
        <ele>868.027639</ele>
        <time>2022-04-04T09:21:22.880Z</time>
      </trkpt>
      <trkpt lat="42.62792" lon="23.19449">
        <ele>867.96109</ele>
        <time>2022-04-04T09:21:25.909Z</time>
      </trkpt>
      <trkpt lat="42.62783" lon="23.19434">
        <ele>867.880497</ele>
        <time>2022-04-04T09:21:28.884Z</time>
      </trkpt>
      <trkpt lat="42.62775" lon="23.19423">
        <ele>867.814328</ele>
        <time>2022-04-04T09:21:30.883Z</time>
      </trkpt>
      <trkpt lat="42.62768" lon="23.19409">
        <ele>867.743579</ele>
        <time>2022-04-04T09:21:32.885Z</time>
      </trkpt>
      <trkpt lat="42.62761" lon="23.19398">
        <ele>867.680997</ele>
        <time>2022-04-04T09:21:34.887Z</time>
      </trkpt>
      <trkpt lat="42.62755" lon="23.19388">
        <ele>867.626223</ele>
        <time>2022-04-04T09:21:36.888Z</time>
      </trkpt>
      <trkpt lat="42.62749" lon="23.19376">
        <ele>867.56708</ele>
        <time>2022-04-04T09:21:39.882Z</time>
      </trkpt>
      <trkpt lat="42.62741" lon="23.19363">
        <ele>867.496721</ele>
        <time>2022-04-04T09:21:43.892Z</time>
      </trkpt>
      <trkpt lat="42.62733" lon="23.19351">
        <ele>867.291903</ele>
        <time>2022-04-04T09:21:46.893Z</time>
      </trkpt>
      <trkpt lat="42.62724" lon="23.1934">
        <ele>866.943239</ele>
        <time>2022-04-04T09:21:49.882Z</time>
      </trkpt>
      <trkpt lat="42.62715" lon="23.19332">
        <ele>866.605346</ele>
        <time>2022-04-04T09:21:52.894Z</time>
      </trkpt>
      <trkpt lat="42.62705" lon="23.19322">
        <ele>866.262494</ele>
        <time>2022-04-04T09:21:55.882Z</time>
      </trkpt>
      <trkpt lat="42.62695" lon="23.19314">
        <ele>865.927722</ele>
        <time>2022-04-04T09:21:58.886Z</time>
      </trkpt>
      <trkpt lat="42.62683" lon="23.19307">
        <ele>865.534716</ele>
        <time>2022-04-04T09:22:01.899Z</time>
      </trkpt>
      <trkpt lat="42.62671" lon="23.193">
        <ele>865.158538</ele>
        <time>2022-04-04T09:22:04.876Z</time>
      </trkpt>
      <trkpt lat="42.6266" lon="23.19294">
        <ele>864.804816</ele>
        <time>2022-04-04T09:22:07.897Z</time>
      </trkpt>
      <trkpt lat="42.62651" lon="23.19291">
        <ele>864.532507</ele>
        <time>2022-04-04T09:22:09.881Z</time>
      </trkpt>
      <trkpt lat="42.62641" lon="23.19288">
        <ele>864.239687</ele>
        <time>2022-04-04T09:22:11.866Z</time>
      </trkpt>
      <trkpt lat="42.62631" lon="23.19285">
        <ele>863.920993</ele>
        <time>2022-04-04T09:22:14.872Z</time>
      </trkpt>
      <trkpt lat="42.62621" lon="23.19286">
        <ele>863.631072</ele>
        <time>2022-04-04T09:22:17.890Z</time>
      </trkpt>
      <trkpt lat="42.62609" lon="23.19284">
        <ele>863.274124</ele>
        <time>2022-04-04T09:22:20.879Z</time>
      </trkpt>
      <trkpt lat="42.626" lon="23.19283">
        <ele>863.010533</ele>
        <time>2022-04-04T09:22:23.902Z</time>
      </trkpt>
      <trkpt lat="42.6259" lon="23.19283">
        <ele>862.726477</ele>
        <time>2022-04-04T09:22:27.910Z</time>
      </trkpt>
      <trkpt lat="42.62579" lon="23.19285">
        <ele>862.407571</ele>
        <time>2022-04-04T09:22:32.870Z</time>
      </trkpt>
      <trkpt lat="42.62567" lon="23.19287">
        <ele>862.239524</ele>
        <time>2022-04-04T09:22:36.882Z</time>
      </trkpt>
      <trkpt lat="42.62558" lon="23.19287">
        <ele>862.335169</ele>
        <time>2022-04-04T09:22:39.888Z</time>
      </trkpt>
      <trkpt lat="42.62549" lon="23.19288">
        <ele>862.436362</ele>
        <time>2022-04-04T09:22:43.893Z</time>
      </trkpt>
      <trkpt lat="42.62539" lon="23.19287">
        <ele>862.540516</ele>
        <time>2022-04-04T09:22:48.901Z</time>
      </trkpt>
      <trkpt lat="42.6253" lon="23.19283">
        <ele>862.637813</ele>
        <time>2022-04-04T09:22:51.902Z</time>
      </trkpt>
      <trkpt lat="42.62521" lon="23.19276">
        <ele>862.742532</ele>
        <time>2022-04-04T09:22:55.880Z</time>
      </trkpt>
      <trkpt lat="42.62514" lon="23.19269">
        <ele>862.842509</ele>
        <time>2022-04-04T09:22:59.870Z</time>
      </trkpt>
      <trkpt lat="42.62505" lon="23.19261">
        <ele>862.949009</ele>
        <time>2022-04-04T09:23:03.891Z</time>
      </trkpt>
      <trkpt lat="42.62497" lon="23.19252">
        <ele>863.058159</ele>
        <time>2022-04-04T09:23:07.887Z</time>
      </trkpt>
      <trkpt lat="42.6249" lon="23.19243">
        <ele>863.163322</ele>
        <time>2022-04-04T09:23:12.931Z</time>
      </trkpt>
      <trkpt lat="42.62484" lon="23.19233">
        <ele>863.263959</ele>
        <time>2022-04-04T09:23:18.923Z</time>
      </trkpt>
      <trkpt lat="42.62476" lon="23.19224">
        <ele>863.371164</ele>
        <time>2022-04-04T09:23:24.878Z</time>
      </trkpt>
      <trkpt lat="42.62468" lon="23.19217">
        <ele>863.471585</ele>
        <time>2022-04-04T09:23:29.903Z</time>
      </trkpt>
      <trkpt lat="42.62459" lon="23.1921">
        <ele>863.58434</ele>
        <time>2022-04-04T09:23:35.870Z</time>
      </trkpt>
      <trkpt lat="42.6245" lon="23.19205">
        <ele>863.685399</ele>
        <time>2022-04-04T09:23:41.903Z</time>
      </trkpt>
      <trkpt lat="42.6244" lon="23.19203">
        <ele>863.791869</ele>
        <time>2022-04-04T09:23:46.874Z</time>
      </trkpt>
      <trkpt lat="42.6243" lon="23.19199">
        <ele>863.896959</ele>
        <time>2022-04-04T09:23:52.890Z</time>
      </trkpt>
      <trkpt lat="42.62419" lon="23.19196">
        <ele>864.011339</ele>
        <time>2022-04-04T09:23:58.887Z</time>
      </trkpt>
      <trkpt lat="42.6241" lon="23.19195">
        <ele>864.179262</ele>
        <time>2022-04-04T09:24:03.879Z</time>
      </trkpt>
      <trkpt lat="42.62399" lon="23.19195">
        <ele>864.648821</ele>
        <time>2022-04-04T09:24:09.879Z</time>
      </trkpt>
      <trkpt lat="42.62389" lon="23.19196">
        <ele>865.093157</ele>
        <time>2022-04-04T09:24:15.869Z</time>
      </trkpt>
      <trkpt lat="42.62378" lon="23.19197">
        <ele>865.548077</ele>
        <time>2022-04-04T09:24:21.864Z</time>
      </trkpt>
      <trkpt lat="42.62367" lon="23.19197">
        <ele>866.01772</ele>
        <time>2022-04-04T09:24:27.881Z</time>
      </trkpt>
      <trkpt lat="42.62357" lon="23.192">
        <ele>866.439156</ele>
        <time>2022-04-04T09:24:35.864Z</time>
      </trkpt>
      <trkpt lat="42.62348" lon="23.19196">
        <ele>866.875941</ele>
        <time>2022-04-04T09:24:41.869Z</time>
      </trkpt>
      <trkpt lat="42.6234" lon="23.19189">
        <ele>867.266222</ele>
        <time>2022-04-04T09:24:47.907Z</time>
      </trkpt>
      <trkpt lat="42.62332" lon="23.1918">
        <ele>867.707083</ele>
        <time>2022-04-04T09:24:52.890Z</time>
      </trkpt>
      <trkpt lat="42.62325" lon="23.19172">
        <ele>868.107383</ele>
        <time>2022-04-04T09:24:57.874Z</time>
      </trkpt>
      <trkpt lat="42.62321" lon="23.1916">
        <ele>868.508758</ele>
        <time>2022-04-04T09:25:03.887Z</time>
      </trkpt>
      <trkpt lat="42.62318" lon="23.19148">
        <ele>868.916762</ele>
        <time>2022-04-04T09:25:11.876Z</time>
      </trkpt>
      <trkpt lat="42.62314" lon="23.19136">
        <ele>869.342023</ele>
        <time>2022-04-04T09:25:18.881Z</time>
      </trkpt>
      <trkpt lat="42.62329" lon="23.19152">
        <ele>870.181656</ele>
        <time>2022-04-04T09:32:11.927Z</time>
      </trkpt>
      <trkpt lat="42.6236" lon="23.19188">
        <ele>871.928765</ele>
        <time>2022-04-04T09:36:09.883Z</time>
      </trkpt>
      <trkpt lat="42.6234" lon="23.19166">
        <ele>873.336141</ele>
        <time>2022-04-04T09:36:12.939Z</time>
      </trkpt>
      <trkpt lat="42.62311" lon="23.19146">
        <ele>875.158703</ele>
        <time>2022-04-04T09:44:30.871Z</time>
      </trkpt>
      <trkpt lat="42.62328" lon="23.19168">
        <ele>876.460516</ele>
        <time>2022-04-04T09:46:57.890Z</time>
      </trkpt>
      <trkpt lat="42.62322" lon="23.19158">
        <ele>876.995828</ele>
        <time>2022-04-04T09:47:07.898Z</time>
      </trkpt>
      <trkpt lat="42.62318" lon="23.19146">
        <ele>877.513943</ele>
        <time>2022-04-04T09:47:12.879Z</time>
      </trkpt>
      <trkpt lat="42.62313" lon="23.19134">
        <ele>878.071479</ele>
        <time>2022-04-04T09:47:16.936Z</time>
      </trkpt>
      <trkpt lat="42.62308" lon="23.19122">
        <ele>878.647198</ele>
        <time>2022-04-04T09:47:21.897Z</time>
      </trkpt>
      <trkpt lat="42.62304" lon="23.1911">
        <ele>879.205702</ele>
        <time>2022-04-04T09:47:26.880Z</time>
      </trkpt>
      <trkpt lat="42.623" lon="23.19098">
        <ele>879.742082</ele>
        <time>2022-04-04T09:47:32.870Z</time>
      </trkpt>
      <trkpt lat="42.62296" lon="23.19086">
        <ele>880.268636</ele>
        <time>2022-04-04T09:47:37.885Z</time>
      </trkpt>
      <trkpt lat="42.62294" lon="23.19074">
        <ele>880.78298</ele>
        <time>2022-04-04T09:47:42.894Z</time>
      </trkpt>
      <trkpt lat="42.62291" lon="23.1906">
        <ele>881.392533</ele>
        <time>2022-04-04T09:47:47.862Z</time>
      </trkpt>
      <trkpt lat="42.62289" lon="23.19046">
        <ele>881.884954</ele>
        <time>2022-04-04T09:47:52.879Z</time>
      </trkpt>
      <trkpt lat="42.62284" lon="23.19033">
        <ele>882.169216</ele>
        <time>2022-04-04T09:47:58.916Z</time>
      </trkpt>
      <trkpt lat="42.62277" lon="23.19023">
        <ele>882.456673</ele>
        <time>2022-04-04T09:48:04.877Z</time>
      </trkpt>
      <trkpt lat="42.6227" lon="23.19013">
        <ele>882.74616</ele>
        <time>2022-04-04T09:48:10.884Z</time>
      </trkpt>
      <trkpt lat="42.62262" lon="23.19005">
        <ele>883.019305</ele>
        <time>2022-04-04T09:48:15.900Z</time>
      </trkpt>
      <trkpt lat="42.62254" lon="23.18999">
        <ele>883.267434</ele>
        <time>2022-04-04T09:48:20.913Z</time>
      </trkpt>
      <trkpt lat="42.62246" lon="23.18992">
        <ele>883.533609</ele>
        <time>2022-04-04T09:48:26.870Z</time>
      </trkpt>
      <trkpt lat="42.62237" lon="23.18985">
        <ele>883.806202</ele>
        <time>2022-04-04T09:48:32.866Z</time>
      </trkpt>
      <trkpt lat="42.62229" lon="23.18979">
        <ele>884.059592</ele>
        <time>2022-04-04T09:48:38.876Z</time>
      </trkpt>
      <trkpt lat="42.62221" lon="23.18973">
        <ele>884.320042</ele>
        <time>2022-04-04T09:48:43.874Z</time>
      </trkpt>
      <trkpt lat="42.62212" lon="23.18966">
        <ele>884.610756</ele>
        <time>2022-04-04T09:48:49.861Z</time>
      </trkpt>
      <trkpt lat="42.62203" lon="23.18961">
        <ele>884.88216</ele>
        <time>2022-04-04T09:48:55.906Z</time>
      </trkpt>
      <trkpt lat="42.62193" lon="23.18958">
        <ele>885.147933</ele>
        <time>2022-04-04T09:49:00.871Z</time>
      </trkpt>
      <trkpt lat="42.62184" lon="23.18954">
        <ele>885.417205</ele>
        <time>2022-04-04T09:49:07.871Z</time>
      </trkpt>
      <trkpt lat="42.62174" lon="23.18949">
        <ele>885.720321</ele>
        <time>2022-04-04T09:49:12.913Z</time>
      </trkpt>
      <trkpt lat="42.62164" lon="23.18944">
        <ele>886.003645</ele>
        <time>2022-04-04T09:49:17.883Z</time>
      </trkpt>
      <trkpt lat="42.62155" lon="23.18941">
        <ele>886.258674</ele>
        <time>2022-04-04T09:49:24.880Z</time>
      </trkpt>
      <trkpt lat="42.62146" lon="23.18935">
        <ele>886.534831</ele>
        <time>2022-04-04T09:49:29.884Z</time>
      </trkpt>
      <trkpt lat="42.62137" lon="23.18931">
        <ele>886.857784</ele>
        <time>2022-04-04T09:49:35.891Z</time>
      </trkpt>
      <trkpt lat="42.62128" lon="23.18928">
        <ele>887.40719</ele>
        <time>2022-04-04T09:49:41.868Z</time>
      </trkpt>
      <trkpt lat="42.62119" lon="23.18923">
        <ele>887.974272</ele>
        <time>2022-04-04T09:49:46.877Z</time>
      </trkpt>
      <trkpt lat="42.62109" lon="23.18917">
        <ele>888.606307</ele>
        <time>2022-04-04T09:49:52.875Z</time>
      </trkpt>
      <trkpt lat="42.621" lon="23.18914">
        <ele>889.154348</ele>
        <time>2022-04-04T09:49:58.884Z</time>
      </trkpt>
      <trkpt lat="42.62091" lon="23.18912">
        <ele>889.688818</ele>
        <time>2022-04-04T09:50:04.893Z</time>
      </trkpt>
      <trkpt lat="42.62081" lon="23.18909">
        <ele>890.30152</ele>
        <time>2022-04-04T09:50:11.870Z</time>
      </trkpt>
      <trkpt lat="42.62072" lon="23.18903">
        <ele>890.882593</ele>
        <time>2022-04-04T09:50:16.886Z</time>
      </trkpt>
      <trkpt lat="42.62062" lon="23.189">
        <ele>891.478932</ele>
        <time>2022-04-04T09:50:21.888Z</time>
      </trkpt>
      <trkpt lat="42.62053" lon="23.18897">
        <ele>892.022156</ele>
        <time>2022-04-04T09:50:26.861Z</time>
      </trkpt>
      <trkpt lat="42.62044" lon="23.18898">
        <ele>892.560115</ele>
        <time>2022-04-04T09:50:33.880Z</time>
      </trkpt>
      <trkpt lat="42.62035" lon="23.18896">
        <ele>893.125537</ele>
        <time>2022-04-04T09:50:39.863Z</time>
      </trkpt>
      <trkpt lat="42.62025" lon="23.18892">
        <ele>893.699931</ele>
        <time>2022-04-04T09:50:44.884Z</time>
      </trkpt>
      <trkpt lat="42.62016" lon="23.18892">
        <ele>894.259747</ele>
        <time>2022-04-04T09:50:50.867Z</time>
      </trkpt>
      <trkpt lat="42.62006" lon="23.18886">
        <ele>894.866107</ele>
        <time>2022-04-04T09:50:57.863Z</time>
      </trkpt>
      <trkpt lat="42.61999" lon="23.18875">
        <ele>895.496865</ele>
        <time>2022-04-04T09:51:02.904Z</time>
      </trkpt>
      <trkpt lat="42.61994" lon="23.18862">
        <ele>896.148429</ele>
        <time>2022-04-04T09:51:07.893Z</time>
      </trkpt>
      <trkpt lat="42.61992" lon="23.1885">
        <ele>896.688493</ele>
        <time>2022-04-04T09:51:11.860Z</time>
      </trkpt>
      <trkpt lat="42.61991" lon="23.18837">
        <ele>897.253295</ele>
        <time>2022-04-04T09:51:16.872Z</time>
      </trkpt>
      <trkpt lat="42.61992" lon="23.18824">
        <ele>897.578085</ele>
        <time>2022-04-04T09:51:21.878Z</time>
      </trkpt>
      <trkpt lat="42.61993" lon="23.18809">
        <ele>897.915153</ele>
        <time>2022-04-04T09:51:26.868Z</time>
      </trkpt>
      <trkpt lat="42.61993" lon="23.18797">
        <ele>898.182429</ele>
        <time>2022-04-04T09:51:30.881Z</time>
      </trkpt>
      <trkpt lat="42.61993" lon="23.18784">
        <ele>898.460897</ele>
        <time>2022-04-04T09:51:35.885Z</time>
      </trkpt>
      <trkpt lat="42.61996" lon="23.18771">
        <ele>898.761609</ele>
        <time>2022-04-04T09:51:41.876Z</time>
      </trkpt>
      <trkpt lat="42.62" lon="23.18758">
        <ele>899.071844</ele>
        <time>2022-04-04T09:51:47.895Z</time>
      </trkpt>
      <trkpt lat="42.62002" lon="23.18745">
        <ele>899.368334</ele>
        <time>2022-04-04T09:51:52.882Z</time>
      </trkpt>
      <trkpt lat="42.62007" lon="23.18733">
        <ele>899.647619</ele>
        <time>2022-04-04T09:51:57.875Z</time>
      </trkpt>
      <trkpt lat="42.6201" lon="23.1872">
        <ele>899.956237</ele>
        <time>2022-04-04T09:52:03.881Z</time>
      </trkpt>
      <trkpt lat="42.62013" lon="23.18707">
        <ele>900.242473</ele>
        <time>2022-04-04T09:52:07.901Z</time>
      </trkpt>
      <trkpt lat="42.62018" lon="23.18698">
        <ele>900.519852</ele>
        <time>2022-04-04T09:52:12.882Z</time>
      </trkpt>
      <trkpt lat="42.62026" lon="23.1869">
        <ele>900.810553</ele>
        <time>2022-04-04T09:52:17.877Z</time>
      </trkpt>
      <trkpt lat="42.62033" lon="23.18681">
        <ele>901.078496</ele>
        <time>2022-04-04T09:52:21.900Z</time>
      </trkpt>
      <trkpt lat="42.62042" lon="23.18674">
        <ele>901.404475</ele>
        <time>2022-04-04T09:52:26.937Z</time>
      </trkpt>
      <trkpt lat="42.6205" lon="23.18664">
        <ele>901.724589</ele>
        <time>2022-04-04T09:52:31.859Z</time>
      </trkpt>
      <trkpt lat="42.62058" lon="23.18658">
        <ele>902.007741</ele>
        <time>2022-04-04T09:52:36.865Z</time>
      </trkpt>
      <trkpt lat="42.62068" lon="23.18651">
        <ele>902.33774</ele>
        <time>2022-04-04T09:52:41.871Z</time>
      </trkpt>
      <trkpt lat="42.62078" lon="23.18646">
        <ele>902.648748</ele>
        <time>2022-04-04T09:52:46.867Z</time>
      </trkpt>
      <trkpt lat="42.62088" lon="23.18644">
        <ele>902.743307</ele>
        <time>2022-04-04T09:52:50.907Z</time>
      </trkpt>
      <trkpt lat="42.62099" lon="23.18639">
        <ele>902.816334</ele>
        <time>2022-04-04T09:52:54.953Z</time>
      </trkpt>
      <trkpt lat="42.62111" lon="23.18637">
        <ele>902.88883</ele>
        <time>2022-04-04T09:52:58.883Z</time>
      </trkpt>
      <trkpt lat="42.62121" lon="23.18635">
        <ele>902.948664</ele>
        <time>2022-04-04T09:53:02.866Z</time>
      </trkpt>
      <trkpt lat="42.6213" lon="23.18633">
        <ele>903.004819</ele>
        <time>2022-04-04T09:53:06.877Z</time>
      </trkpt>
      <trkpt lat="42.6214" lon="23.18628">
        <ele>903.071101</ele>
        <time>2022-04-04T09:53:10.882Z</time>
      </trkpt>
      <trkpt lat="42.62151" lon="23.18622">
        <ele>903.140146</ele>
        <time>2022-04-04T09:53:14.888Z</time>
      </trkpt>
      <trkpt lat="42.6216" lon="23.18621">
        <ele>903.198916</ele>
        <time>2022-04-04T09:53:18.874Z</time>
      </trkpt>
      <trkpt lat="42.62171" lon="23.18623">
        <ele>903.263568</ele>
        <time>2022-04-04T09:53:23.883Z</time>
      </trkpt>
      <trkpt lat="42.62181" lon="23.1862">
        <ele>903.32559</ele>
        <time>2022-04-04T09:53:27.885Z</time>
      </trkpt>
      <trkpt lat="42.62192" lon="23.1862">
        <ele>903.393214</ele>
        <time>2022-04-04T09:53:32.869Z</time>
      </trkpt>
      <trkpt lat="42.62202" lon="23.18622">
        <ele>903.458405</ele>
        <time>2022-04-04T09:53:37.885Z</time>
      </trkpt>
      <trkpt lat="42.62211" lon="23.18623">
        <ele>903.514194</ele>
        <time>2022-04-04T09:53:41.912Z</time>
      </trkpt>
      <trkpt lat="42.62223" lon="23.18624">
        <ele>903.583067</ele>
        <time>2022-04-04T09:53:44.875Z</time>
      </trkpt>
      <trkpt lat="42.62234" lon="23.18625">
        <ele>903.653402</ele>
        <time>2022-04-04T09:53:47.892Z</time>
      </trkpt>
      <trkpt lat="42.62247" lon="23.18626">
        <ele>903.733833</ele>
        <time>2022-04-04T09:53:50.890Z</time>
      </trkpt>
      <trkpt lat="42.62259" lon="23.18626">
        <ele>903.824449</ele>
        <time>2022-04-04T09:53:52.862Z</time>
      </trkpt>
      <trkpt lat="42.62268" lon="23.18627">
        <ele>903.97605</ele>
        <time>2022-04-04T09:53:54.862Z</time>
      </trkpt>
      <trkpt lat="42.62278" lon="23.18628">
        <ele>904.143639</ele>
        <time>2022-04-04T09:53:57.858Z</time>
      </trkpt>
      <trkpt lat="42.62288" lon="23.18627">
        <ele>904.301816</ele>
        <time>2022-04-04T09:54:02.879Z</time>
      </trkpt>
      <trkpt lat="42.62296" lon="23.1862">
        <ele>904.45529</ele>
        <time>2022-04-04T09:54:09.893Z</time>
      </trkpt>
      <trkpt lat="42.62296" lon="23.18608">
        <ele>904.602591</ele>
        <time>2022-04-04T09:54:12.908Z</time>
      </trkpt>
      <trkpt lat="42.62294" lon="23.18594">
        <ele>904.772183</ele>
        <time>2022-04-04T09:54:16.884Z</time>
      </trkpt>
      <trkpt lat="42.62293" lon="23.18582">
        <ele>904.922716</ele>
        <time>2022-04-04T09:54:20.884Z</time>
      </trkpt>
      <trkpt lat="42.62291" lon="23.18569">
        <ele>905.07502</ele>
        <time>2022-04-04T09:54:24.883Z</time>
      </trkpt>
      <trkpt lat="42.62289" lon="23.18556">
        <ele>905.239075</ele>
        <time>2022-04-04T09:54:29.859Z</time>
      </trkpt>
      <trkpt lat="42.62288" lon="23.18541">
        <ele>905.413378</ele>
        <time>2022-04-04T09:54:34.910Z</time>
      </trkpt>
      <trkpt lat="42.62287" lon="23.18528">
        <ele>905.566649</ele>
        <time>2022-04-04T09:54:39.876Z</time>
      </trkpt>
      <trkpt lat="42.62288" lon="23.18515">
        <ele>905.725817</ele>
        <time>2022-04-04T09:54:45.872Z</time>
      </trkpt>
      <trkpt lat="42.62288" lon="23.18502">
        <ele>905.877686</ele>
        <time>2022-04-04T09:54:50.879Z</time>
      </trkpt>
      <trkpt lat="42.62289" lon="23.18488">
        <ele>906.045374</ele>
        <time>2022-04-04T09:54:56.883Z</time>
      </trkpt>
      <trkpt lat="42.62289" lon="23.18474">
        <ele>906.212091</ele>
        <time>2022-04-04T09:55:01.884Z</time>
      </trkpt>
      <trkpt lat="42.6229" lon="23.1846">
        <ele>906.383361</ele>
        <time>2022-04-04T09:55:07.859Z</time>
      </trkpt>
      <trkpt lat="42.6229" lon="23.18448">
        <ele>906.532909</ele>
        <time>2022-04-04T09:55:12.870Z</time>
      </trkpt>
      <trkpt lat="42.6229" lon="23.18435">
        <ele>906.689552</ele>
        <time>2022-04-04T09:55:17.862Z</time>
      </trkpt>
      <trkpt lat="42.62291" lon="23.18422">
        <ele>906.751851</ele>
        <time>2022-04-04T09:55:22.887Z</time>
      </trkpt>
      <trkpt lat="42.62291" lon="23.18409">
        <ele>906.798217</ele>
        <time>2022-04-04T09:55:27.868Z</time>
      </trkpt>
      <trkpt lat="42.62292" lon="23.18395">
        <ele>906.850492</ele>
        <time>2022-04-04T09:55:33.870Z</time>
      </trkpt>
      <trkpt lat="42.62291" lon="23.18383">
        <ele>906.897902</ele>
        <time>2022-04-04T09:55:39.864Z</time>
      </trkpt>
      <trkpt lat="42.62291" lon="23.18368">
        <ele>906.950894</ele>
        <time>2022-04-04T09:55:44.866Z</time>
      </trkpt>
      <trkpt lat="42.62291" lon="23.18356">
        <ele>906.997577</ele>
        <time>2022-04-04T09:55:49.876Z</time>
      </trkpt>
      <trkpt lat="42.62291" lon="23.18343">
        <ele>907.045719</ele>
        <time>2022-04-04T09:55:54.866Z</time>
      </trkpt>
      <trkpt lat="42.62289" lon="23.18328">
        <ele>907.101764</ele>
        <time>2022-04-04T09:55:59.863Z</time>
      </trkpt>
      <trkpt lat="42.62288" lon="23.18315">
        <ele>907.152416</ele>
        <time>2022-04-04T09:56:03.862Z</time>
      </trkpt>
      <trkpt lat="42.62286" lon="23.18302">
        <ele>907.201038</ele>
        <time>2022-04-04T09:56:07.873Z</time>
      </trkpt>
      <trkpt lat="42.62284" lon="23.18289">
        <ele>907.251063</ele>
        <time>2022-04-04T09:56:11.888Z</time>
      </trkpt>
      <trkpt lat="42.62281" lon="23.18277">
        <ele>907.297737</ele>
        <time>2022-04-04T09:56:15.856Z</time>
      </trkpt>
      <trkpt lat="42.62279" lon="23.18263">
        <ele>907.349804</ele>
        <time>2022-04-04T09:56:19.872Z</time>
      </trkpt>
      <trkpt lat="42.62276" lon="23.1825">
        <ele>907.402955</ele>
        <time>2022-04-04T09:56:23.884Z</time>
      </trkpt>
      <trkpt lat="42.62272" lon="23.18235">
        <ele>907.45883</ele>
        <time>2022-04-04T09:56:27.870Z</time>
      </trkpt>
      <trkpt lat="42.62268" lon="23.18222">
        <ele>907.512831</ele>
        <time>2022-04-04T09:56:31.874Z</time>
      </trkpt>
      <trkpt lat="42.62264" lon="23.1821">
        <ele>907.564543</ele>
        <time>2022-04-04T09:56:35.877Z</time>
      </trkpt>
      <trkpt lat="42.62259" lon="23.18198">
        <ele>907.613874</ele>
        <time>2022-04-04T09:56:39.858Z</time>
      </trkpt>
      <trkpt lat="42.62254" lon="23.18187">
        <ele>907.315033</ele>
        <time>2022-04-04T09:56:43.884Z</time>
      </trkpt>
      <trkpt lat="42.62249" lon="23.18175">
        <ele>906.919532</ele>
        <time>2022-04-04T09:56:47.884Z</time>
      </trkpt>
      <trkpt lat="42.62243" lon="23.18162">
        <ele>906.509571</ele>
        <time>2022-04-04T09:56:51.858Z</time>
      </trkpt>
      <trkpt lat="42.62237" lon="23.18151">
        <ele>906.104851</ele>
        <time>2022-04-04T09:56:55.887Z</time>
      </trkpt>
      <trkpt lat="42.6223" lon="23.1814">
        <ele>905.69863</ele>
        <time>2022-04-04T09:56:59.866Z</time>
      </trkpt>
      <trkpt lat="42.62222" lon="23.18129">
        <ele>905.280983</ele>
        <time>2022-04-04T09:57:03.859Z</time>
      </trkpt>
      <trkpt lat="42.62214" lon="23.18117">
        <ele>904.825506</ele>
        <time>2022-04-04T09:57:07.890Z</time>
      </trkpt>
      <trkpt lat="42.62207" lon="23.18108">
        <ele>904.455003</ele>
        <time>2022-04-04T09:57:10.859Z</time>
      </trkpt>
      <trkpt lat="42.62199" lon="23.18098">
        <ele>904.022842</ele>
        <time>2022-04-04T09:57:13.874Z</time>
      </trkpt>
      <trkpt lat="42.6219" lon="23.18087">
        <ele>903.554671</ele>
        <time>2022-04-04T09:57:16.878Z</time>
      </trkpt>
      <trkpt lat="42.6218" lon="23.18077">
        <ele>903.078437</ele>
        <time>2022-04-04T09:57:19.903Z</time>
      </trkpt>
      <trkpt lat="42.62173" lon="23.18069">
        <ele>902.715154</ele>
        <time>2022-04-04T09:57:21.860Z</time>
      </trkpt>
      <trkpt lat="42.62165" lon="23.1806">
        <ele>902.337606</ele>
        <time>2022-04-04T09:57:23.884Z</time>
      </trkpt>
      <trkpt lat="42.62157" lon="23.18053">
        <ele>901.97875</ele>
        <time>2022-04-04T09:57:25.875Z</time>
      </trkpt>
      <trkpt lat="42.62147" lon="23.18041">
        <ele>901.45548</ele>
        <time>2022-04-04T09:57:28.882Z</time>
      </trkpt>
      <trkpt lat="42.62139" lon="23.18033">
        <ele>901.076158</ele>
        <time>2022-04-04T09:57:30.864Z</time>
      </trkpt>
      <trkpt lat="42.62131" lon="23.18025">
        <ele>900.701331</ele>
        <time>2022-04-04T09:57:32.876Z</time>
      </trkpt>
      <trkpt lat="42.62122" lon="23.18016">
        <ele>900.404115</ele>
        <time>2022-04-04T09:57:34.889Z</time>
      </trkpt>
      <trkpt lat="42.62112" lon="23.18005">
        <ele>900.060258</ele>
        <time>2022-04-04T09:57:36.854Z</time>
      </trkpt>
      <trkpt lat="42.62102" lon="23.17994">
        <ele>899.710781</ele>
        <time>2022-04-04T09:57:38.876Z</time>
      </trkpt>
      <trkpt lat="42.62091" lon="23.17983">
        <ele>899.362235</ele>
        <time>2022-04-04T09:57:40.881Z</time>
      </trkpt>
      <trkpt lat="42.62081" lon="23.17972">
        <ele>899.006339</ele>
        <time>2022-04-04T09:57:42.866Z</time>
      </trkpt>
      <trkpt lat="42.62071" lon="23.17961">
        <ele>898.656585</ele>
        <time>2022-04-04T09:57:44.889Z</time>
      </trkpt>
      <trkpt lat="42.6206" lon="23.17951">
        <ele>898.323046</ele>
        <time>2022-04-04T09:57:46.887Z</time>
      </trkpt>
      <trkpt lat="42.62051" lon="23.17942">
        <ele>898.014859</ele>
        <time>2022-04-04T09:57:48.867Z</time>
      </trkpt>
      <trkpt lat="42.62043" lon="23.17934">
        <ele>897.741091</ele>
        <time>2022-04-04T09:57:50.873Z</time>
      </trkpt>
      <trkpt lat="42.62033" lon="23.17924">
        <ele>897.409742</ele>
        <time>2022-04-04T09:57:53.887Z</time>
      </trkpt>
      <trkpt lat="42.62015" lon="23.17909">
        <ele>896.859943</ele>
        <time>2022-04-04T09:59:36.934Z</time>
      </trkpt>
      <trkpt lat="42.62008" lon="23.17902">
        <ele>896.606916</ele>
        <time>2022-04-04T09:59:39.884Z</time>
      </trkpt>
      <trkpt lat="42.61999" lon="23.17891">
        <ele>896.281203</ele>
        <time>2022-04-04T09:59:42.874Z</time>
      </trkpt>
      <trkpt lat="42.61988" lon="23.1788">
        <ele>895.922362</ele>
        <time>2022-04-04T09:59:45.889Z</time>
      </trkpt>
      <trkpt lat="42.61981" lon="23.17872">
        <ele>895.795835</ele>
        <time>2022-04-04T09:59:47.919Z</time>
      </trkpt>
      <trkpt lat="42.61972" lon="23.17862">
        <ele>895.662345</ele>
        <time>2022-04-04T09:59:49.904Z</time>
      </trkpt>
      <trkpt lat="42.61964" lon="23.17853">
        <ele>895.524066</ele>
        <time>2022-04-04T09:59:51.885Z</time>
      </trkpt>
      <trkpt lat="42.61955" lon="23.17842">
        <ele>895.382231</ele>
        <time>2022-04-04T09:59:53.874Z</time>
      </trkpt>
      <trkpt lat="42.61946" lon="23.17832">
        <ele>895.236897</ele>
        <time>2022-04-04T09:59:55.889Z</time>
      </trkpt>
      <trkpt lat="42.61936" lon="23.17822">
        <ele>895.078346</ele>
        <time>2022-04-04T09:59:57.882Z</time>
      </trkpt>
      <trkpt lat="42.61925" lon="23.17811">
        <ele>894.919795</ele>
        <time>2022-04-04T09:59:59.898Z</time>
      </trkpt>
      <trkpt lat="42.61915" lon="23.17801">
        <ele>894.75558</ele>
        <time>2022-04-04T10:00:01.878Z</time>
      </trkpt>
      <trkpt lat="42.61904" lon="23.1779">
        <ele>894.594027</ele>
        <time>2022-04-04T10:00:03.885Z</time>
      </trkpt>
      <trkpt lat="42.61893" lon="23.1778">
        <ele>894.435044</ele>
        <time>2022-04-04T10:00:05.877Z</time>
      </trkpt>
      <trkpt lat="42.61884" lon="23.1777">
        <ele>894.289493</ele>
        <time>2022-04-04T10:00:07.903Z</time>
      </trkpt>
      <trkpt lat="42.61876" lon="23.1776">
        <ele>894.156476</ele>
        <time>2022-04-04T10:00:09.867Z</time>
      </trkpt>
      <trkpt lat="42.61869" lon="23.17749">
        <ele>894.020272</ele>
        <time>2022-04-04T10:00:11.944Z</time>
      </trkpt>
      <trkpt lat="42.61861" lon="23.17736">
        <ele>893.866787</ele>
        <time>2022-04-04T10:00:13.870Z</time>
      </trkpt>
      <trkpt lat="42.61854" lon="23.17722">
        <ele>893.713427</ele>
        <time>2022-04-04T10:00:15.889Z</time>
      </trkpt>
      <trkpt lat="42.61846" lon="23.17709">
        <ele>893.287205</ele>
        <time>2022-04-04T10:00:17.902Z</time>
      </trkpt>
      <trkpt lat="42.61839" lon="23.17695">
        <ele>892.814549</ele>
        <time>2022-04-04T10:00:19.887Z</time>
      </trkpt>
      <trkpt lat="42.61831" lon="23.17682">
        <ele>892.316544</ele>
        <time>2022-04-04T10:00:21.896Z</time>
      </trkpt>
      <trkpt lat="42.61822" lon="23.17667">
        <ele>891.780578</ele>
        <time>2022-04-04T10:00:23.869Z</time>
      </trkpt>
      <trkpt lat="42.61813" lon="23.17654">
        <ele>891.24853</ele>
        <time>2022-04-04T10:00:25.883Z</time>
      </trkpt>
      <trkpt lat="42.61803" lon="23.17641">
        <ele>890.737466</ele>
        <time>2022-04-04T10:00:27.898Z</time>
      </trkpt>
      <trkpt lat="42.61794" lon="23.17629">
        <ele>890.258938</ele>
        <time>2022-04-04T10:00:29.895Z</time>
      </trkpt>
      <trkpt lat="42.61786" lon="23.17619">
        <ele>889.817167</ele>
        <time>2022-04-04T10:00:31.893Z</time>
      </trkpt>
      <trkpt lat="42.61778" lon="23.17609">
        <ele>889.400137</ele>
        <time>2022-04-04T10:00:33.891Z</time>
      </trkpt>
      <trkpt lat="42.6177" lon="23.17598">
        <ele>888.96639</ele>
        <time>2022-04-04T10:00:35.894Z</time>
      </trkpt>
      <trkpt lat="42.61763" lon="23.17589">
        <ele>888.569528</ele>
        <time>2022-04-04T10:00:37.884Z</time>
      </trkpt>
      <trkpt lat="42.61754" lon="23.17578">
        <ele>888.13426</ele>
        <time>2022-04-04T10:00:39.875Z</time>
      </trkpt>
      <trkpt lat="42.61745" lon="23.17567">
        <ele>887.661896</ele>
        <time>2022-04-04T10:00:41.885Z</time>
      </trkpt>
      <trkpt lat="42.61736" lon="23.17555">
        <ele>887.169441</ele>
        <time>2022-04-04T10:00:43.885Z</time>
      </trkpt>
      <trkpt lat="42.61727" lon="23.17544">
        <ele>886.684015</ele>
        <time>2022-04-04T10:00:45.879Z</time>
      </trkpt>
      <trkpt lat="42.61718" lon="23.17532">
        <ele>886.113538</ele>
        <time>2022-04-04T10:00:47.894Z</time>
      </trkpt>
      <trkpt lat="42.61709" lon="23.17521">
        <ele>885.612291</ele>
        <time>2022-04-04T10:00:49.926Z</time>
      </trkpt>
      <trkpt lat="42.61703" lon="23.17513">
        <ele>885.207135</ele>
        <time>2022-04-04T10:00:51.904Z</time>
      </trkpt>
      <trkpt lat="42.61696" lon="23.17504">
        <ele>884.776909</ele>
        <time>2022-04-04T10:00:53.876Z</time>
      </trkpt>
      <trkpt lat="42.61689" lon="23.17495">
        <ele>884.355397</ele>
        <time>2022-04-04T10:00:55.911Z</time>
      </trkpt>
      <trkpt lat="42.61682" lon="23.17487">
        <ele>883.954652</ele>
        <time>2022-04-04T10:00:57.883Z</time>
      </trkpt>
      <trkpt lat="42.61672" lon="23.17474">
        <ele>883.345346</ele>
        <time>2022-04-04T10:01:00.883Z</time>
      </trkpt>
      <trkpt lat="42.61662" lon="23.17462">
        <ele>882.752414</ele>
        <time>2022-04-04T10:01:03.871Z</time>
      </trkpt>
      <trkpt lat="42.61654" lon="23.17453">
        <ele>882.304986</ele>
        <time>2022-04-04T10:01:05.872Z</time>
      </trkpt>
      <trkpt lat="42.61647" lon="23.17444">
        <ele>881.877696</ele>
        <time>2022-04-04T10:01:07.890Z</time>
      </trkpt>
      <trkpt lat="42.61638" lon="23.1743">
        <ele>881.283261</ele>
        <time>2022-04-04T10:01:10.873Z</time>
      </trkpt>
      <trkpt lat="42.61631" lon="23.17421">
        <ele>880.852174</ele>
        <time>2022-04-04T10:01:12.876Z</time>
      </trkpt>
      <trkpt lat="42.61624" lon="23.17411">
        <ele>880.40945</ele>
        <time>2022-04-04T10:01:14.863Z</time>
      </trkpt>
      <trkpt lat="42.61617" lon="23.17401">
        <ele>879.953575</ele>
        <time>2022-04-04T10:01:16.968Z</time>
      </trkpt>
      <trkpt lat="42.61609" lon="23.17391">
        <ele>879.469087</ele>
        <time>2022-04-04T10:01:18.883Z</time>
      </trkpt>
      <trkpt lat="42.61602" lon="23.17381">
        <ele>879.007785</ele>
        <time>2022-04-04T10:01:20.926Z</time>
      </trkpt>
      <trkpt lat="42.61595" lon="23.17371">
        <ele>878.62526</ele>
        <time>2022-04-04T10:01:22.906Z</time>
      </trkpt>
      <trkpt lat="42.61586" lon="23.17359">
        <ele>878.212621</ele>
        <time>2022-04-04T10:01:25.863Z</time>
      </trkpt>
      <trkpt lat="42.61579" lon="23.17347">
        <ele>877.846439</ele>
        <time>2022-04-04T10:01:28.895Z</time>
      </trkpt>
      <trkpt lat="42.61573" lon="23.17334">
        <ele>877.483109</ele>
        <time>2022-04-04T10:01:31.868Z</time>
      </trkpt>
      <trkpt lat="42.61569" lon="23.1732">
        <ele>877.11605</ele>
        <time>2022-04-04T10:01:34.915Z</time>
      </trkpt>
      <trkpt lat="42.61567" lon="23.17304">
        <ele>876.734956</ele>
        <time>2022-04-04T10:01:37.890Z</time>
      </trkpt>
      <trkpt lat="42.61568" lon="23.17288">
        <ele>876.358488</ele>
        <time>2022-04-04T10:01:40.930Z</time>
      </trkpt>
      <trkpt lat="42.61572" lon="23.17273">
        <ele>875.974795</ele>
        <time>2022-04-04T10:01:43.874Z</time>
      </trkpt>
      <trkpt lat="42.61578" lon="23.1726">
        <ele>875.593172</ele>
        <time>2022-04-04T10:01:46.900Z</time>
      </trkpt>
      <trkpt lat="42.61585" lon="23.1725">
        <ele>875.277859</ele>
        <time>2022-04-04T10:01:48.898Z</time>
      </trkpt>
      <trkpt lat="42.61593" lon="23.17242">
        <ele>874.952125</ele>
        <time>2022-04-04T10:01:50.884Z</time>
      </trkpt>
      <trkpt lat="42.61601" lon="23.17237">
        <ele>874.65402</ele>
        <time>2022-04-04T10:01:52.918Z</time>
      </trkpt>
      <trkpt lat="42.61614" lon="23.17232">
        <ele>874.225521</ele>
        <time>2022-04-04T10:01:55.990Z</time>
      </trkpt>
      <trkpt lat="42.61623" lon="23.17228">
        <ele>873.930693</ele>
        <time>2022-04-04T10:01:57.878Z</time>
      </trkpt>
      <trkpt lat="42.61635" lon="23.17221">
        <ele>873.50414</ele>
        <time>2022-04-04T10:02:00.893Z</time>
      </trkpt>
      <trkpt lat="42.61645" lon="23.17212">
        <ele>873.112084</ele>
        <time>2022-04-04T10:02:03.889Z</time>
      </trkpt>
      <trkpt lat="42.61652" lon="23.17199">
        <ele>872.585114</ele>
        <time>2022-04-04T10:02:06.886Z</time>
      </trkpt>
      <trkpt lat="42.61655" lon="23.17186">
        <ele>872.076458</ele>
        <time>2022-04-04T10:02:08.887Z</time>
      </trkpt>
      <trkpt lat="42.61656" lon="23.17172">
        <ele>871.53139</ele>
        <time>2022-04-04T10:02:10.879Z</time>
      </trkpt>
      <trkpt lat="42.61656" lon="23.17157">
        <ele>870.971421</ele>
        <time>2022-04-04T10:02:12.884Z</time>
      </trkpt>
      <trkpt lat="42.61655" lon="23.17141">
        <ele>870.36259</ele>
        <time>2022-04-04T10:02:14.917Z</time>
      </trkpt>
      <trkpt lat="42.61652" lon="23.17126">
        <ele>869.755274</ele>
        <time>2022-04-04T10:02:16.864Z</time>
      </trkpt>
      <trkpt lat="42.61648" lon="23.17112">
        <ele>869.172543</ele>
        <time>2022-04-04T10:02:18.892Z</time>
      </trkpt>
      <trkpt lat="42.61644" lon="23.17098">
        <ele>868.608945</ele>
        <time>2022-04-04T10:02:20.917Z</time>
      </trkpt>
      <trkpt lat="42.61641" lon="23.17084">
        <ele>868.074494</ele>
        <time>2022-04-04T10:02:22.883Z</time>
      </trkpt>
      <trkpt lat="42.61637" lon="23.1707">
        <ele>867.484089</ele>
        <time>2022-04-04T10:02:24.897Z</time>
      </trkpt>
      <trkpt lat="42.61632" lon="23.17054">
        <ele>866.821948</ele>
        <time>2022-04-04T10:02:26.923Z</time>
      </trkpt>
      <trkpt lat="42.61626" lon="23.17039">
        <ele>866.171623</ele>
        <time>2022-04-04T10:02:28.887Z</time>
      </trkpt>
      <trkpt lat="42.61619" lon="23.17026">
        <ele>865.562227</ele>
        <time>2022-04-04T10:02:30.903Z</time>
      </trkpt>
      <trkpt lat="42.61612" lon="23.17012">
        <ele>864.914886</ele>
        <time>2022-04-04T10:02:32.905Z</time>
      </trkpt>
      <trkpt lat="42.61605" lon="23.17">
        <ele>864.356169</ele>
        <time>2022-04-04T10:02:34.888Z</time>
      </trkpt>
      <trkpt lat="42.61597" lon="23.16989">
        <ele>863.739874</ele>
        <time>2022-04-04T10:02:37.895Z</time>
      </trkpt>
      <trkpt lat="42.61591" lon="23.16977">
        <ele>863.753396</ele>
        <time>2022-04-04T10:02:41.891Z</time>
      </trkpt>
      <trkpt lat="42.61582" lon="23.16967">
        <ele>863.925425</ele>
        <time>2022-04-04T10:02:45.884Z</time>
      </trkpt>
      <trkpt lat="42.61574" lon="23.16958">
        <ele>864.098312</ele>
        <time>2022-04-04T10:02:49.889Z</time>
      </trkpt>
      <trkpt lat="42.61565" lon="23.16949">
        <ele>864.278346</ele>
        <time>2022-04-04T10:02:53.886Z</time>
      </trkpt>
      <trkpt lat="42.61557" lon="23.16939">
        <ele>864.443485</ele>
        <time>2022-04-04T10:02:57.890Z</time>
      </trkpt>
      <trkpt lat="42.61549" lon="23.16929">
        <ele>864.616163</ele>
        <time>2022-04-04T10:03:01.886Z</time>
      </trkpt>
      <trkpt lat="42.61541" lon="23.16919">
        <ele>864.785507</ele>
        <time>2022-04-04T10:03:06.882Z</time>
      </trkpt>
      <trkpt lat="42.61531" lon="23.1691">
        <ele>864.973325</ele>
        <time>2022-04-04T10:03:10.894Z</time>
      </trkpt>
      <trkpt lat="42.61522" lon="23.16901">
        <ele>865.159838</ele>
        <time>2022-04-04T10:03:13.888Z</time>
      </trkpt>
      <trkpt lat="42.61513" lon="23.16892">
        <ele>865.33303</ele>
        <time>2022-04-04T10:03:17.888Z</time>
      </trkpt>
      <trkpt lat="42.61506" lon="23.16883">
        <ele>865.489784</ele>
        <time>2022-04-04T10:03:21.877Z</time>
      </trkpt>
      <trkpt lat="42.61498" lon="23.16873">
        <ele>865.661785</ele>
        <time>2022-04-04T10:03:25.893Z</time>
      </trkpt>
      <trkpt lat="42.61491" lon="23.16864">
        <ele>865.809573</ele>
        <time>2022-04-04T10:03:28.919Z</time>
      </trkpt>
      <trkpt lat="42.61483" lon="23.16855">
        <ele>865.966368</ele>
        <time>2022-04-04T10:03:33.881Z</time>
      </trkpt>
      <trkpt lat="42.61474" lon="23.16849">
        <ele>866.140348</ele>
        <time>2022-04-04T10:03:38.874Z</time>
      </trkpt>
      <trkpt lat="42.61465" lon="23.16843">
        <ele>866.291754</ele>
        <time>2022-04-04T10:03:42.896Z</time>
      </trkpt>
      <trkpt lat="42.61456" lon="23.16839">
        <ele>866.440456</ele>
        <time>2022-04-04T10:03:45.947Z</time>
      </trkpt>
      <trkpt lat="42.61447" lon="23.16836">
        <ele>865.520369</ele>
        <time>2022-04-04T10:03:48.905Z</time>
      </trkpt>
      <trkpt lat="42.61436" lon="23.16833">
        <ele>864.215245</ele>
        <time>2022-04-04T10:03:52.887Z</time>
      </trkpt>
      <trkpt lat="42.61425" lon="23.16827">
        <ele>862.788893</ele>
        <time>2022-04-04T10:03:56.920Z</time>
      </trkpt>
      <trkpt lat="42.61415" lon="23.16822">
        <ele>861.444975</ele>
        <time>2022-04-04T10:04:00.883Z</time>
      </trkpt>
      <trkpt lat="42.61405" lon="23.16815">
        <ele>860.109557</ele>
        <time>2022-04-04T10:04:04.894Z</time>
      </trkpt>
      <trkpt lat="42.61396" lon="23.16808">
        <ele>858.890913</ele>
        <time>2022-04-04T10:04:08.892Z</time>
      </trkpt>
      <trkpt lat="42.61388" lon="23.16799">
        <ele>857.594913</ele>
        <time>2022-04-04T10:04:13.879Z</time>
      </trkpt>
      <trkpt lat="42.61382" lon="23.16787">
        <ele>856.380834</ele>
        <time>2022-04-04T10:04:18.904Z</time>
      </trkpt>
      <trkpt lat="42.6138" lon="23.16774">
        <ele>855.197511</ele>
        <time>2022-04-04T10:04:23.888Z</time>
      </trkpt>
      <trkpt lat="42.61379" lon="23.1676">
        <ele>853.979632</ele>
        <time>2022-04-04T10:04:29.909Z</time>
      </trkpt>
      <trkpt lat="42.61382" lon="23.16748">
        <ele>852.807539</ele>
        <time>2022-04-04T10:04:34.879Z</time>
      </trkpt>
      <trkpt lat="42.61391" lon="23.16743">
        <ele>851.664885</ele>
        <time>2022-04-04T10:04:42.890Z</time>
      </trkpt>
      <trkpt lat="42.61401" lon="23.16738">
        <ele>850.407967</ele>
        <time>2022-04-04T10:04:47.024Z</time>
      </trkpt>
      <trkpt lat="42.61412" lon="23.16737">
        <ele>849.154366</ele>
        <time>2022-04-04T10:04:49.869Z</time>
      </trkpt>
      <trkpt lat="42.61421" lon="23.16739">
        <ele>848.045734</ele>
        <time>2022-04-04T10:04:53.901Z</time>
      </trkpt>
      <trkpt lat="42.61431" lon="23.16742">
        <ele>846.832738</ele>
        <time>2022-04-04T10:04:58.879Z</time>
      </trkpt>
      <trkpt lat="42.6144" lon="23.16747">
        <ele>845.638041</ele>
        <time>2022-04-04T10:05:03.886Z</time>
      </trkpt>
      <trkpt lat="42.61449" lon="23.16753">
        <ele>844.761853</ele>
        <time>2022-04-04T10:05:09.881Z</time>
      </trkpt>
      <trkpt lat="42.61459" lon="23.16757">
        <ele>844.377186</ele>
        <time>2022-04-04T10:05:15.887Z</time>
      </trkpt>
      <trkpt lat="42.61469" lon="23.1676">
        <ele>844.003469</ele>
        <time>2022-04-04T10:05:21.888Z</time>
      </trkpt>
      <trkpt lat="42.61479" lon="23.16762">
        <ele>843.659205</ele>
        <time>2022-04-04T10:05:26.882Z</time>
      </trkpt>
      <trkpt lat="42.61489" lon="23.16766">
        <ele>843.250299</ele>
        <time>2022-04-04T10:05:31.864Z</time>
      </trkpt>
      <trkpt lat="42.61498" lon="23.16771">
        <ele>842.907024</ele>
        <time>2022-04-04T10:05:36.879Z</time>
      </trkpt>
      <trkpt lat="42.61507" lon="23.16776">
        <ele>842.566202</ele>
        <time>2022-04-04T10:05:41.905Z</time>
      </trkpt>
      <trkpt lat="42.61516" lon="23.16778">
        <ele>842.224873</ele>
        <time>2022-04-04T10:05:46.886Z</time>
      </trkpt>
      <trkpt lat="42.61526" lon="23.16782">
        <ele>841.831479</ele>
        <time>2022-04-04T10:05:52.895Z</time>
      </trkpt>
      <trkpt lat="42.61534" lon="23.16789">
        <ele>841.497731</ele>
        <time>2022-04-04T10:05:57.888Z</time>
      </trkpt>
      <trkpt lat="42.61544" lon="23.16791">
        <ele>841.151233</ele>
        <time>2022-04-04T10:06:02.876Z</time>
      </trkpt>
      <trkpt lat="42.61553" lon="23.16795">
        <ele>840.791081</ele>
        <time>2022-04-04T10:06:07.876Z</time>
      </trkpt>
      <trkpt lat="42.61562" lon="23.16798">
        <ele>840.449997</ele>
        <time>2022-04-04T10:06:12.883Z</time>
      </trkpt>
      <trkpt lat="42.61572" lon="23.16799">
        <ele>840.085158</ele>
        <time>2022-04-04T10:06:18.892Z</time>
      </trkpt>
      <trkpt lat="42.6158" lon="23.16793">
        <ele>839.745099</ele>
        <time>2022-04-04T10:06:23.880Z</time>
      </trkpt>
      <trkpt lat="42.61587" lon="23.16784">
        <ele>839.396739</ele>
        <time>2022-04-04T10:06:30.891Z</time>
      </trkpt>
      <trkpt lat="42.61588" lon="23.1677">
        <ele>839.0436</ele>
        <time>2022-04-04T10:06:35.884Z</time>
      </trkpt>
      <trkpt lat="42.61589" lon="23.16758">
        <ele>838.714456</ele>
        <time>2022-04-04T10:06:40.873Z</time>
      </trkpt>
      <trkpt lat="42.6159" lon="23.16744">
        <ele>838.313937</ele>
        <time>2022-04-04T10:06:45.883Z</time>
      </trkpt>
      <trkpt lat="42.61589" lon="23.16731">
        <ele>837.683649</ele>
        <time>2022-04-04T10:06:49.884Z</time>
      </trkpt>
      <trkpt lat="42.61589" lon="23.16718">
        <ele>837.090512</ele>
        <time>2022-04-04T10:06:53.925Z</time>
      </trkpt>
      <trkpt lat="42.61586" lon="23.16704">
        <ele>836.412712</ele>
        <time>2022-04-04T10:06:57.893Z</time>
      </trkpt>
      <trkpt lat="42.61582" lon="23.16691">
        <ele>835.740156</ele>
        <time>2022-04-04T10:07:01.888Z</time>
      </trkpt>
      <trkpt lat="42.61577" lon="23.16677">
        <ele>835.001818</ele>
        <time>2022-04-04T10:07:05.901Z</time>
      </trkpt>
      <trkpt lat="42.61572" lon="23.16664">
        <ele>834.32983</ele>
        <time>2022-04-04T10:07:09.888Z</time>
      </trkpt>
      <trkpt lat="42.61568" lon="23.16651">
        <ele>833.662041</ele>
        <time>2022-04-04T10:07:13.896Z</time>
      </trkpt>
      <trkpt lat="42.61562" lon="23.16637">
        <ele>832.912745</ele>
        <time>2022-04-04T10:07:16.899Z</time>
      </trkpt>
      <trkpt lat="42.61559" lon="23.16626">
        <ele>832.329115</ele>
        <time>2022-04-04T10:07:18.906Z</time>
      </trkpt>
      <trkpt lat="42.61555" lon="23.16614">
        <ele>831.714544</ele>
        <time>2022-04-04T10:07:20.877Z</time>
      </trkpt>
      <trkpt lat="42.61549" lon="23.16598">
        <ele>830.88922</ele>
        <time>2022-04-04T10:07:23.891Z</time>
      </trkpt>
      <trkpt lat="42.61544" lon="23.16581">
        <ele>830.018551</ele>
        <time>2022-04-04T10:07:26.882Z</time>
      </trkpt>
      <trkpt lat="42.6154" lon="23.16568">
        <ele>829.376899</ele>
        <time>2022-04-04T10:07:28.893Z</time>
      </trkpt>
      <trkpt lat="42.61536" lon="23.16557">
        <ele>828.775121</ele>
        <time>2022-04-04T10:07:30.912Z</time>
      </trkpt>
      <trkpt lat="42.61531" lon="23.16546">
        <ele>828.15813</ele>
        <time>2022-04-04T10:07:32.895Z</time>
      </trkpt>
      <trkpt lat="42.61526" lon="23.16532">
        <ele>827.44109</ele>
        <time>2022-04-04T10:07:34.886Z</time>
      </trkpt>
      <trkpt lat="42.6152" lon="23.16517">
        <ele>826.778503</ele>
        <time>2022-04-04T10:07:36.896Z</time>
      </trkpt>
      <trkpt lat="42.61514" lon="23.16502">
        <ele>826.355748</ele>
        <time>2022-04-04T10:07:38.885Z</time>
      </trkpt>
      <trkpt lat="42.61507" lon="23.16485">
        <ele>825.902403</ele>
        <time>2022-04-04T10:07:40.885Z</time>
      </trkpt>
      <trkpt lat="42.615" lon="23.16468">
        <ele>825.453792</ele>
        <time>2022-04-04T10:07:42.879Z</time>
      </trkpt>
      <trkpt lat="42.61493" lon="23.16451">
        <ele>824.987691</ele>
        <time>2022-04-04T10:07:44.885Z</time>
      </trkpt>
      <trkpt lat="42.61485" lon="23.16436">
        <ele>824.568374</ele>
        <time>2022-04-04T10:07:46.889Z</time>
      </trkpt>
      <trkpt lat="42.61478" lon="23.16422">
        <ele>824.137714</ele>
        <time>2022-04-04T10:07:48.933Z</time>
      </trkpt>
      <trkpt lat="42.6147" lon="23.16407">
        <ele>823.714618</ele>
        <time>2022-04-04T10:07:50.895Z</time>
      </trkpt>
      <trkpt lat="42.61463" lon="23.16391">
        <ele>823.284568</ele>
        <time>2022-04-04T10:07:52.879Z</time>
      </trkpt>
      <trkpt lat="42.61456" lon="23.16376">
        <ele>822.870026</ele>
        <time>2022-04-04T10:07:54.886Z</time>
      </trkpt>
      <trkpt lat="42.6145" lon="23.16362">
        <ele>822.480601</ele>
        <time>2022-04-04T10:07:56.890Z</time>
      </trkpt>
      <trkpt lat="42.61443" lon="23.16349">
        <ele>822.113726</ele>
        <time>2022-04-04T10:07:58.885Z</time>
      </trkpt>
      <trkpt lat="42.61438" lon="23.16337">
        <ele>821.777034</ele>
        <time>2022-04-04T10:08:00.871Z</time>
      </trkpt>
      <trkpt lat="42.61433" lon="23.16325">
        <ele>821.454694</ele>
        <time>2022-04-04T10:08:02.879Z</time>
      </trkpt>
      <trkpt lat="42.61428" lon="23.16315">
        <ele>821.15952</ele>
        <time>2022-04-04T10:08:04.882Z</time>
      </trkpt>
      <trkpt lat="42.61423" lon="23.16304">
        <ele>821.054026</ele>
        <time>2022-04-04T10:08:06.893Z</time>
      </trkpt>
      <trkpt lat="42.61418" lon="23.16292">
        <ele>820.952542</ele>
        <time>2022-04-04T10:08:09.886Z</time>
      </trkpt>
      <trkpt lat="42.61411" lon="23.16278">
        <ele>820.833405</ele>
        <time>2022-04-04T10:08:13.879Z</time>
      </trkpt>
      <trkpt lat="42.61405" lon="23.16265">
        <ele>820.725185</ele>
        <time>2022-04-04T10:08:16.887Z</time>
      </trkpt>
      <trkpt lat="42.61398" lon="23.16252">
        <ele>820.616832</ele>
        <time>2022-04-04T10:08:19.883Z</time>
      </trkpt>
      <trkpt lat="42.61393" lon="23.1624">
        <ele>820.522355</ele>
        <time>2022-04-04T10:08:22.891Z</time>
      </trkpt>
      <trkpt lat="42.61389" lon="23.16227">
        <ele>820.419932</ele>
        <time>2022-04-04T10:08:26.890Z</time>
      </trkpt>
      <trkpt lat="42.61384" lon="23.16215">
        <ele>820.326339</ele>
        <time>2022-04-04T10:08:30.892Z</time>
      </trkpt>
      <trkpt lat="42.6138" lon="23.16203">
        <ele>820.228748</ele>
        <time>2022-04-04T10:08:34.914Z</time>
      </trkpt>
      <trkpt lat="42.61376" lon="23.1619">
        <ele>820.128969</ele>
        <time>2022-04-04T10:08:38.916Z</time>
      </trkpt>
      <trkpt lat="42.61371" lon="23.16177">
        <ele>820.028803</ele>
        <time>2022-04-04T10:08:42.883Z</time>
      </trkpt>
      <trkpt lat="42.61368" lon="23.16164">
        <ele>819.930907</ele>
        <time>2022-04-04T10:08:46.934Z</time>
      </trkpt>
      <trkpt lat="42.61364" lon="23.16151">
        <ele>819.832612</ele>
        <time>2022-04-04T10:08:50.876Z</time>
      </trkpt>
      <trkpt lat="42.6136" lon="23.16139">
        <ele>819.740604</ele>
        <time>2022-04-04T10:08:54.907Z</time>
      </trkpt>
      <trkpt lat="42.61357" lon="23.16127">
        <ele>819.647924</ele>
        <time>2022-04-04T10:08:58.892Z</time>
      </trkpt>
      <trkpt lat="42.61352" lon="23.16114">
        <ele>819.547147</ele>
        <time>2022-04-04T10:09:02.870Z</time>
      </trkpt>
      <trkpt lat="42.61348" lon="23.16101">
        <ele>819.44919</ele>
        <time>2022-04-04T10:09:06.891Z</time>
      </trkpt>
      <trkpt lat="42.61344" lon="23.16089">
        <ele>819.445539</ele>
        <time>2022-04-04T10:09:10.876Z</time>
      </trkpt>
      <trkpt lat="42.61338" lon="23.16078">
        <ele>819.49264</ele>
        <time>2022-04-04T10:09:14.910Z</time>
      </trkpt>
      <trkpt lat="42.61333" lon="23.16067">
        <ele>819.542011</ele>
        <time>2022-04-04T10:09:18.889Z</time>
      </trkpt>
      <trkpt lat="42.61329" lon="23.16053">
        <ele>819.597439</ele>
        <time>2022-04-04T10:09:22.908Z</time>
      </trkpt>
      <trkpt lat="42.61324" lon="23.16039">
        <ele>819.655415</ele>
        <time>2022-04-04T10:09:26.875Z</time>
      </trkpt>
      <trkpt lat="42.61319" lon="23.16027">
        <ele>819.708247</ele>
        <time>2022-04-04T10:09:30.873Z</time>
      </trkpt>
      <trkpt lat="42.61314" lon="23.16013">
        <ele>819.764883</ele>
        <time>2022-04-04T10:09:35.867Z</time>
      </trkpt>
      <trkpt lat="42.6131" lon="23.16002">
        <ele>819.810744</ele>
        <time>2022-04-04T10:09:39.910Z</time>
      </trkpt>
      <trkpt lat="42.61305" lon="23.1599">
        <ele>819.861281</ele>
        <time>2022-04-04T10:09:44.925Z</time>
      </trkpt>
      <trkpt lat="42.61299" lon="23.15979">
        <ele>819.911977</ele>
        <time>2022-04-04T10:09:48.883Z</time>
      </trkpt>
      <trkpt lat="42.61292" lon="23.15969">
        <ele>819.964406</ele>
        <time>2022-04-04T10:09:53.909Z</time>
      </trkpt>
      <trkpt lat="42.61286" lon="23.15959">
        <ele>820.01275</ele>
        <time>2022-04-04T10:09:58.882Z</time>
      </trkpt>
      <trkpt lat="42.61282" lon="23.15948">
        <ele>820.058905</ele>
        <time>2022-04-04T10:10:02.899Z</time>
      </trkpt>
      <trkpt lat="42.61278" lon="23.15933">
        <ele>820.116785</ele>
        <time>2022-04-04T10:10:06.877Z</time>
      </trkpt>
      <trkpt lat="42.61273" lon="23.15921">
        <ele>820.168279</ele>
        <time>2022-04-04T10:10:10.901Z</time>
      </trkpt>
      <trkpt lat="42.61268" lon="23.15911">
        <ele>820.216281</ele>
        <time>2022-04-04T10:10:14.885Z</time>
      </trkpt>
      <trkpt lat="42.61261" lon="23.15899">
        <ele>820.270359</ele>
        <time>2022-04-04T10:10:18.886Z</time>
      </trkpt>
      <trkpt lat="42.61253" lon="23.15889">
        <ele>820.307911</ele>
        <time>2022-04-04T10:10:22.861Z</time>
      </trkpt>
      <trkpt lat="42.61246" lon="23.15882">
        <ele>820.048888</ele>
        <time>2022-04-04T10:10:26.884Z</time>
      </trkpt>
      <trkpt lat="42.61238" lon="23.15873">
        <ele>819.772351</ele>
        <time>2022-04-04T10:10:30.915Z</time>
      </trkpt>
      <trkpt lat="42.61231" lon="23.15863">
        <ele>819.486713</ele>
        <time>2022-04-04T10:10:34.953Z</time>
      </trkpt>
      <trkpt lat="42.61223" lon="23.15854">
        <ele>819.182135</ele>
        <time>2022-04-04T10:10:39.893Z</time>
      </trkpt>
      <trkpt lat="42.61216" lon="23.15844">
        <ele>818.889751</ele>
        <time>2022-04-04T10:10:43.887Z</time>
      </trkpt>
      <trkpt lat="42.61207" lon="23.15834">
        <ele>818.574776</ele>
        <time>2022-04-04T10:10:48.886Z</time>
      </trkpt>
      <trkpt lat="42.61198" lon="23.15826">
        <ele>818.265304</ele>
        <time>2022-04-04T10:10:53.889Z</time>
      </trkpt>
      <trkpt lat="42.61191" lon="23.15816">
        <ele>817.98788</ele>
        <time>2022-04-04T10:10:57.875Z</time>
      </trkpt>
      <trkpt lat="42.61184" lon="23.15805">
        <ele>817.672309</ele>
        <time>2022-04-04T10:11:01.875Z</time>
      </trkpt>
      <trkpt lat="42.61176" lon="23.15796">
        <ele>817.376178</ele>
        <time>2022-04-04T10:11:06.877Z</time>
      </trkpt>
      <trkpt lat="42.61168" lon="23.15788">
        <ele>817.090951</ele>
        <time>2022-04-04T10:11:11.882Z</time>
      </trkpt>
      <trkpt lat="42.61162" lon="23.15778">
        <ele>816.830397</ele>
        <time>2022-04-04T10:11:15.883Z</time>
      </trkpt>
      <trkpt lat="42.61155" lon="23.15768">
        <ele>816.542992</ele>
        <time>2022-04-04T10:11:19.888Z</time>
      </trkpt>
      <trkpt lat="42.61149" lon="23.15756">
        <ele>816.241985</ele>
        <time>2022-04-04T10:11:24.888Z</time>
      </trkpt>
      <trkpt lat="42.61141" lon="23.15747">
        <ele>815.946334</ele>
        <time>2022-04-04T10:11:29.909Z</time>
      </trkpt>
      <trkpt lat="42.61133" lon="23.15737">
        <ele>815.643144</ele>
        <time>2022-04-04T10:11:34.889Z</time>
      </trkpt>
      <trkpt lat="42.61128" lon="23.15727">
        <ele>815.386118</ele>
        <time>2022-04-04T10:11:38.893Z</time>
      </trkpt>
      <trkpt lat="42.6112" lon="23.15716">
        <ele>815.156605</ele>
        <time>2022-04-04T10:11:44.894Z</time>
      </trkpt>
      <trkpt lat="42.61114" lon="23.15707">
        <ele>815.028477</ele>
        <time>2022-04-04T10:11:48.876Z</time>
      </trkpt>
      <trkpt lat="42.6111" lon="23.15696">
        <ele>814.902475</ele>
        <time>2022-04-04T10:11:52.878Z</time>
      </trkpt>
      <trkpt lat="42.61104" lon="23.15685">
        <ele>814.767126</ele>
        <time>2022-04-04T10:11:57.869Z</time>
      </trkpt>
      <trkpt lat="42.611" lon="23.15672">
        <ele>814.626071</ele>
        <time>2022-04-04T10:12:01.892Z</time>
      </trkpt>
      <trkpt lat="42.61094" lon="23.1566">
        <ele>814.478189</ele>
        <time>2022-04-04T10:12:06.883Z</time>
      </trkpt>
      <trkpt lat="42.61089" lon="23.15649">
        <ele>814.345172</ele>
        <time>2022-04-04T10:12:10.885Z</time>
      </trkpt>
      <trkpt lat="42.61083" lon="23.15639">
        <ele>814.207919</ele>
        <time>2022-04-04T10:12:14.930Z</time>
      </trkpt>
      <trkpt lat="42.61077" lon="23.15628">
        <ele>814.067646</ele>
        <time>2022-04-04T10:12:18.880Z</time>
      </trkpt>
      <trkpt lat="42.61073" lon="23.15617">
        <ele>813.941957</ele>
        <time>2022-04-04T10:12:21.915Z</time>
      </trkpt>
      <trkpt lat="42.61067" lon="23.15603">
        <ele>813.781216</ele>
        <time>2022-04-04T10:12:25.885Z</time>
      </trkpt>
      <trkpt lat="42.61061" lon="23.15593">
        <ele>813.645898</ele>
        <time>2022-04-04T10:12:29.884Z</time>
      </trkpt>
      <trkpt lat="42.61054" lon="23.1558">
        <ele>813.490042</ele>
        <time>2022-04-04T10:12:33.913Z</time>
      </trkpt>
      <trkpt lat="42.61048" lon="23.15567">
        <ele>813.334909</ele>
        <time>2022-04-04T10:12:37.889Z</time>
      </trkpt>
      <trkpt lat="42.61044" lon="23.15556">
        <ele>813.19919</ele>
        <time>2022-04-04T10:12:41.888Z</time>
      </trkpt>
      <trkpt lat="42.61039" lon="23.15541">
        <ele>813.039828</ele>
        <time>2022-04-04T10:12:45.893Z</time>
      </trkpt>
      <trkpt lat="42.61033" lon="23.1553">
        <ele>812.898759</ele>
        <time>2022-04-04T10:12:49.902Z</time>
      </trkpt>
      <trkpt lat="42.61028" lon="23.15518">
        <ele>812.761692</ele>
        <time>2022-04-04T10:12:53.891Z</time>
      </trkpt>
      <trkpt lat="42.61023" lon="23.15507">
        <ele>812.574277</ele>
        <time>2022-04-04T10:12:57.888Z</time>
      </trkpt>
      <trkpt lat="42.61019" lon="23.15496">
        <ele>812.380345</ele>
        <time>2022-04-04T10:13:02.922Z</time>
      </trkpt>
      <trkpt lat="42.61014" lon="23.15485">
        <ele>812.182254</ele>
        <time>2022-04-04T10:13:06.920Z</time>
      </trkpt>
      <trkpt lat="42.6101" lon="23.15473">
        <ele>811.981885</ele>
        <time>2022-04-04T10:13:09.885Z</time>
      </trkpt>
      <trkpt lat="42.61006" lon="23.15461">
        <ele>811.776414</ele>
        <time>2022-04-04T10:13:12.899Z</time>
      </trkpt>
      <trkpt lat="42.61002" lon="23.15448">
        <ele>811.547952</ele>
        <time>2022-04-04T10:13:16.888Z</time>
      </trkpt>
      <trkpt lat="42.60997" lon="23.15435">
        <ele>811.32348</ele>
        <time>2022-04-04T10:13:20.876Z</time>
      </trkpt>
      <trkpt lat="42.60993" lon="23.15423">
        <ele>811.129064</ele>
        <time>2022-04-04T10:13:23.917Z</time>
      </trkpt>
      <trkpt lat="42.60989" lon="23.15411">
        <ele>810.920181</ele>
        <time>2022-04-04T10:13:27.890Z</time>
      </trkpt>
      <trkpt lat="42.60986" lon="23.15396">
        <ele>810.680895</ele>
        <time>2022-04-04T10:13:31.892Z</time>
      </trkpt>
      <trkpt lat="42.60983" lon="23.15384">
        <ele>810.488974</ele>
        <time>2022-04-04T10:13:34.890Z</time>
      </trkpt>
      <trkpt lat="42.6098" lon="23.15372">
        <ele>810.289087</ele>
        <time>2022-04-04T10:13:37.891Z</time>
      </trkpt>
      <trkpt lat="42.60976" lon="23.15358">
        <ele>810.049149</ele>
        <time>2022-04-04T10:13:41.917Z</time>
      </trkpt>
      <trkpt lat="42.60973" lon="23.15344">
        <ele>809.825647</ele>
        <time>2022-04-04T10:13:45.889Z</time>
      </trkpt>
      <trkpt lat="42.60969" lon="23.1533">
        <ele>809.592864</ele>
        <time>2022-04-04T10:13:49.925Z</time>
      </trkpt>
      <trkpt lat="42.60966" lon="23.15318">
        <ele>809.394428</ele>
        <time>2022-04-04T10:13:53.872Z</time>
      </trkpt>
      <trkpt lat="42.60961" lon="23.15307">
        <ele>809.190188</ele>
        <time>2022-04-04T10:13:57.889Z</time>
      </trkpt>
      <trkpt lat="42.60956" lon="23.15294">
        <ele>808.957912</ele>
        <time>2022-04-04T10:14:02.890Z</time>
      </trkpt>
      <trkpt lat="42.60954" lon="23.1528">
        <ele>809.265801</ele>
        <time>2022-04-04T10:14:07.899Z</time>
      </trkpt>
      <trkpt lat="42.60951" lon="23.15266">
        <ele>809.596349</ele>
        <time>2022-04-04T10:14:11.883Z</time>
      </trkpt>
      <trkpt lat="42.60947" lon="23.15253">
        <ele>809.920616</ele>
        <time>2022-04-04T10:14:16.907Z</time>
      </trkpt>
      <trkpt lat="42.60945" lon="23.15241">
        <ele>810.202544</ele>
        <time>2022-04-04T10:14:20.887Z</time>
      </trkpt>
      <trkpt lat="42.60942" lon="23.15229">
        <ele>810.489056</ele>
        <time>2022-04-04T10:14:24.890Z</time>
      </trkpt>
      <trkpt lat="42.6094" lon="23.15214">
        <ele>810.819792</ele>
        <time>2022-04-04T10:14:29.898Z</time>
      </trkpt>
      <trkpt lat="42.60937" lon="23.15201">
        <ele>811.145077</ele>
        <time>2022-04-04T10:14:34.895Z</time>
      </trkpt>
      <trkpt lat="42.60934" lon="23.15187">
        <ele>811.464829</ele>
        <time>2022-04-04T10:14:39.875Z</time>
      </trkpt>
      <trkpt lat="42.60933" lon="23.15174">
        <ele>811.769943</ele>
        <time>2022-04-04T10:14:45.878Z</time>
      </trkpt>
      <trkpt lat="42.60931" lon="23.15159">
        <ele>812.107948</ele>
        <time>2022-04-04T10:14:51.884Z</time>
      </trkpt>
      <trkpt lat="42.60929" lon="23.15145">
        <ele>812.438142</ele>
        <time>2022-04-04T10:14:56.909Z</time>
      </trkpt>
      <trkpt lat="42.60925" lon="23.15134">
        <ele>812.725141</ele>
        <time>2022-04-04T10:15:01.891Z</time>
      </trkpt>
      <trkpt lat="42.60923" lon="23.1512">
        <ele>813.033017</ele>
        <time>2022-04-04T10:15:05.880Z</time>
      </trkpt>
      <trkpt lat="42.60921" lon="23.15108">
        <ele>813.334382</ele>
        <time>2022-04-04T10:15:09.878Z</time>
      </trkpt>
      <trkpt lat="42.60917" lon="23.15094">
        <ele>813.665176</ele>
        <time>2022-04-04T10:15:14.887Z</time>
      </trkpt>
      <trkpt lat="42.60915" lon="23.15079">
        <ele>814.015003</ele>
        <time>2022-04-04T10:15:19.879Z</time>
      </trkpt>
      <trkpt lat="42.60911" lon="23.15066">
        <ele>814.32851</ele>
        <time>2022-04-04T10:15:24.882Z</time>
      </trkpt>
      <trkpt lat="42.60907" lon="23.15052">
        <ele>814.412326</ele>
        <time>2022-04-04T10:15:29.927Z</time>
      </trkpt>
      <trkpt lat="42.60905" lon="23.15039">
        <ele>814.167029</ele>
        <time>2022-04-04T10:15:33.879Z</time>
      </trkpt>
      <trkpt lat="42.60901" lon="23.15025">
        <ele>813.912348</ele>
        <time>2022-04-04T10:15:38.888Z</time>
      </trkpt>
      <trkpt lat="42.60897" lon="23.15014">
        <ele>813.679787</ele>
        <time>2022-04-04T10:15:42.887Z</time>
      </trkpt>
      <trkpt lat="42.60892" lon="23.15001">
        <ele>813.426956</ele>
        <time>2022-04-04T10:15:46.907Z</time>
      </trkpt>
      <trkpt lat="42.60886" lon="23.14987">
        <ele>813.149774</ele>
        <time>2022-04-04T10:15:50.877Z</time>
      </trkpt>
      <trkpt lat="42.60881" lon="23.14975">
        <ele>812.902295</ele>
        <time>2022-04-04T10:15:53.880Z</time>
      </trkpt>
      <trkpt lat="42.60875" lon="23.14963">
        <ele>812.647406</ele>
        <time>2022-04-04T10:15:56.898Z</time>
      </trkpt>
      <trkpt lat="42.6087" lon="23.14951">
        <ele>812.407315</ele>
        <time>2022-04-04T10:15:59.905Z</time>
      </trkpt>
      <trkpt lat="42.60864" lon="23.14939">
        <ele>812.143884</ele>
        <time>2022-04-04T10:16:02.887Z</time>
      </trkpt>
      <trkpt lat="42.60857" lon="23.14924">
        <ele>811.840678</ele>
        <time>2022-04-04T10:16:05.920Z</time>
      </trkpt>
      <trkpt lat="42.60851" lon="23.14908">
        <ele>811.525662</ele>
        <time>2022-04-04T10:16:08.887Z</time>
      </trkpt>
      <trkpt lat="42.60847" lon="23.14897">
        <ele>811.299127</ele>
        <time>2022-04-04T10:16:10.896Z</time>
      </trkpt>
      <trkpt lat="42.60841" lon="23.14886">
        <ele>811.066729</ele>
        <time>2022-04-04T10:16:12.877Z</time>
      </trkpt>
      <trkpt lat="42.60837" lon="23.14876">
        <ele>810.849669</ele>
        <time>2022-04-04T10:16:14.943Z</time>
      </trkpt>
      <trkpt lat="42.60829" lon="23.14863">
        <ele>810.562075</ele>
        <time>2022-04-04T10:16:17.897Z</time>
      </trkpt>
      <trkpt lat="42.60821" lon="23.1485">
        <ele>810.256985</ele>
        <time>2022-04-04T10:16:20.880Z</time>
      </trkpt>
      <trkpt lat="42.60813" lon="23.14837">
        <ele>809.503923</ele>
        <time>2022-04-04T10:16:23.890Z</time>
      </trkpt>
      <trkpt lat="42.60808" lon="23.14826">
        <ele>808.842842</ele>
        <time>2022-04-04T10:16:25.932Z</time>
      </trkpt>
      <trkpt lat="42.608" lon="23.14812">
        <ele>807.887388</ele>
        <time>2022-04-04T10:16:28.876Z</time>
      </trkpt>
      <trkpt lat="42.60794" lon="23.148">
        <ele>807.199856</ele>
        <time>2022-04-04T10:16:30.894Z</time>
      </trkpt>
      <trkpt lat="42.60788" lon="23.14784">
        <ele>806.243976</ele>
        <time>2022-04-04T10:16:33.909Z</time>
      </trkpt>
      <trkpt lat="42.60784" lon="23.14771">
        <ele>805.53463</ele>
        <time>2022-04-04T10:16:35.927Z</time>
      </trkpt>
      <trkpt lat="42.6078" lon="23.14758">
        <ele>804.784672</ele>
        <time>2022-04-04T10:16:37.895Z</time>
      </trkpt>
      <trkpt lat="42.60775" lon="23.14747">
        <ele>804.108382</ele>
        <time>2022-04-04T10:16:39.886Z</time>
      </trkpt>
      <trkpt lat="42.60769" lon="23.14735">
        <ele>803.387894</ele>
        <time>2022-04-04T10:16:41.907Z</time>
      </trkpt>
      <trkpt lat="42.60763" lon="23.14722">
        <ele>802.598473</ele>
        <time>2022-04-04T10:16:43.868Z</time>
      </trkpt>
      <trkpt lat="42.60756" lon="23.14708">
        <ele>801.757676</ele>
        <time>2022-04-04T10:16:45.894Z</time>
      </trkpt>
      <trkpt lat="42.60749" lon="23.14693">
        <ele>800.829478</ele>
        <time>2022-04-04T10:16:47.886Z</time>
      </trkpt>
      <trkpt lat="42.60742" lon="23.14678">
        <ele>799.885518</ele>
        <time>2022-04-04T10:16:49.881Z</time>
      </trkpt>
      <trkpt lat="42.60733" lon="23.14664">
        <ele>798.965412</ele>
        <time>2022-04-04T10:16:51.886Z</time>
      </trkpt>
      <trkpt lat="42.60724" lon="23.14652">
        <ele>798.075995</ele>
        <time>2022-04-04T10:16:53.910Z</time>
      </trkpt>
      <trkpt lat="42.60716" lon="23.14639">
        <ele>797.61134</ele>
        <time>2022-04-04T10:16:55.874Z</time>
      </trkpt>
      <trkpt lat="42.60708" lon="23.14626">
        <ele>797.518632</ele>
        <time>2022-04-04T10:16:57.879Z</time>
      </trkpt>
      <trkpt lat="42.607" lon="23.14613">
        <ele>797.429016</ele>
        <time>2022-04-04T10:16:59.889Z</time>
      </trkpt>
      <trkpt lat="42.60693" lon="23.146">
        <ele>797.342108</ele>
        <time>2022-04-04T10:17:01.888Z</time>
      </trkpt>
      <trkpt lat="42.60687" lon="23.14589">
        <ele>797.263109</ele>
        <time>2022-04-04T10:17:03.880Z</time>
      </trkpt>
      <trkpt lat="42.60681" lon="23.14578">
        <ele>797.191574</ele>
        <time>2022-04-04T10:17:05.893Z</time>
      </trkpt>
      <trkpt lat="42.60674" lon="23.14565">
        <ele>797.102904</ele>
        <time>2022-04-04T10:17:08.898Z</time>
      </trkpt>
      <trkpt lat="42.60668" lon="23.14555">
        <ele>797.031917</ele>
        <time>2022-04-04T10:17:11.886Z</time>
      </trkpt>
      <trkpt lat="42.6066" lon="23.14546">
        <ele>796.953611</ele>
        <time>2022-04-04T10:17:15.920Z</time>
      </trkpt>
      <trkpt lat="42.60653" lon="23.14536">
        <ele>796.882424</ele>
        <time>2022-04-04T10:17:19.926Z</time>
      </trkpt>
      <trkpt lat="42.60647" lon="23.14526">
        <ele>796.811271</ele>
        <time>2022-04-04T10:17:23.899Z</time>
      </trkpt>
      <trkpt lat="42.60642" lon="23.14517">
        <ele>796.743591</ele>
        <time>2022-04-04T10:17:27.884Z</time>
      </trkpt>
      <trkpt lat="42.60635" lon="23.14506">
        <ele>796.66607</ele>
        <time>2022-04-04T10:17:32.865Z</time>
      </trkpt>
      <trkpt lat="42.60629" lon="23.14496">
        <ele>796.598857</ele>
        <time>2022-04-04T10:17:36.896Z</time>
      </trkpt>
      <trkpt lat="42.60623" lon="23.14486">
        <ele>796.525403</ele>
        <time>2022-04-04T10:17:40.893Z</time>
      </trkpt>
      <trkpt lat="42.60617" lon="23.14475">
        <ele>796.451219</ele>
        <time>2022-04-04T10:17:45.896Z</time>
      </trkpt>
      <trkpt lat="42.60609" lon="23.14465">
        <ele>796.373921</ele>
        <time>2022-04-04T10:17:51.902Z</time>
      </trkpt>
      <trkpt lat="42.60603" lon="23.14456">
        <ele>796.451821</ele>
        <time>2022-04-04T10:17:56.881Z</time>
      </trkpt>
      <trkpt lat="42.60596" lon="23.14446">
        <ele>796.849129</ele>
        <time>2022-04-04T10:18:01.884Z</time>
      </trkpt>
      <trkpt lat="42.60589" lon="23.14434">
        <ele>797.286387</ele>
        <time>2022-04-04T10:18:06.888Z</time>
      </trkpt>
      <trkpt lat="42.60583" lon="23.14423">
        <ele>797.690566</ele>
        <time>2022-04-04T10:18:11.890Z</time>
      </trkpt>
      <trkpt lat="42.60576" lon="23.14413">
        <ele>798.085821</ele>
        <time>2022-04-04T10:18:16.878Z</time>
      </trkpt>
      <trkpt lat="42.6057" lon="23.14402">
        <ele>798.52308</ele>
        <time>2022-04-04T10:18:21.888Z</time>
      </trkpt>
      <trkpt lat="42.60562" lon="23.14392">
        <ele>798.925953</ele>
        <time>2022-04-04T10:18:26.910Z</time>
      </trkpt>
      <trkpt lat="42.60555" lon="23.1438">
        <ele>799.375003</ele>
        <time>2022-04-04T10:18:31.888Z</time>
      </trkpt>
      <trkpt lat="42.60549" lon="23.14369">
        <ele>799.793423</ele>
        <time>2022-04-04T10:18:35.884Z</time>
      </trkpt>
      <trkpt lat="42.60542" lon="23.14356">
        <ele>800.240114</ele>
        <time>2022-04-04T10:18:39.902Z</time>
      </trkpt>
      <trkpt lat="42.60538" lon="23.14345">
        <ele>800.637704</ele>
        <time>2022-04-04T10:18:42.878Z</time>
      </trkpt>
      <trkpt lat="42.60533" lon="23.14332">
        <ele>801.05663</ele>
        <time>2022-04-04T10:18:45.891Z</time>
      </trkpt>
      <trkpt lat="42.60529" lon="23.14317">
        <ele>801.520834</ele>
        <time>2022-04-04T10:18:48.889Z</time>
      </trkpt>
      <trkpt lat="42.60524" lon="23.14303">
        <ele>801.962172</ele>
        <time>2022-04-04T10:18:51.893Z</time>
      </trkpt>
      <trkpt lat="42.60521" lon="23.1429">
        <ele>802.360401</ele>
        <time>2022-04-04T10:18:54.873Z</time>
      </trkpt>
      <trkpt lat="42.60519" lon="23.14277">
        <ele>802.763229</ele>
        <time>2022-04-04T10:18:57.880Z</time>
      </trkpt>
      <trkpt lat="42.60516" lon="23.14262">
        <ele>803.214562</ele>
        <time>2022-04-04T10:19:00.934Z</time>
      </trkpt>
      <trkpt lat="42.60513" lon="23.14244">
        <ele>803.525598</ele>
        <time>2022-04-04T10:19:03.882Z</time>
      </trkpt>
      <trkpt lat="42.6051" lon="23.14231">
        <ele>803.568835</ele>
        <time>2022-04-04T10:19:05.883Z</time>
      </trkpt>
      <trkpt lat="42.60507" lon="23.14218">
        <ele>803.610683</ele>
        <time>2022-04-04T10:19:07.898Z</time>
      </trkpt>
      <trkpt lat="42.60505" lon="23.14206">
        <ele>803.650477</ele>
        <time>2022-04-04T10:19:09.903Z</time>
      </trkpt>
      <trkpt lat="42.60502" lon="23.14189">
        <ele>803.705473</ele>
        <time>2022-04-04T10:19:12.927Z</time>
      </trkpt>
      <trkpt lat="42.60501" lon="23.14174">
        <ele>803.75455</ele>
        <time>2022-04-04T10:19:15.887Z</time>
      </trkpt>
      <trkpt lat="42.60499" lon="23.14157">
        <ele>803.806701</ele>
        <time>2022-04-04T10:19:18.928Z</time>
      </trkpt>
      <trkpt lat="42.60497" lon="23.14145">
        <ele>803.8464</ele>
        <time>2022-04-04T10:19:20.903Z</time>
      </trkpt>
      <trkpt lat="42.60495" lon="23.1413">
        <ele>803.893856</ele>
        <time>2022-04-04T10:19:23.902Z</time>
      </trkpt>
      <trkpt lat="42.60493" lon="23.14118">
        <ele>803.932939</ele>
        <time>2022-04-04T10:19:26.907Z</time>
      </trkpt>
      <trkpt lat="42.60491" lon="23.14104">
        <ele>803.977935</ele>
        <time>2022-04-04T10:19:29.916Z</time>
      </trkpt>
      <trkpt lat="42.60488" lon="23.1409">
        <ele>804.025485</ele>
        <time>2022-04-04T10:19:32.985Z</time>
      </trkpt>
      <trkpt lat="42.60483" lon="23.14074">
        <ele>804.079466</ele>
        <time>2022-04-04T10:19:35.890Z</time>
      </trkpt>
      <trkpt lat="42.60481" lon="23.1406">
        <ele>804.122116</ele>
        <time>2022-04-04T10:19:37.891Z</time>
      </trkpt>
      <trkpt lat="42.60479" lon="23.14049">
        <ele>804.160785</ele>
        <time>2022-04-04T10:19:39.880Z</time>
      </trkpt>
      <trkpt lat="42.60476" lon="23.14035">
        <ele>804.203229</ele>
        <time>2022-04-04T10:19:41.873Z</time>
      </trkpt>
      <trkpt lat="42.60474" lon="23.14022">
        <ele>804.247514</ele>
        <time>2022-04-04T10:19:43.894Z</time>
      </trkpt>
      <trkpt lat="42.60471" lon="23.14008">
        <ele>803.85711</ele>
        <time>2022-04-04T10:19:45.876Z</time>
      </trkpt>
      <trkpt lat="42.60469" lon="23.13993">
        <ele>803.019789</ele>
        <time>2022-04-04T10:19:47.886Z</time>
      </trkpt>
      <trkpt lat="42.60466" lon="23.13978">
        <ele>802.161072</ele>
        <time>2022-04-04T10:19:49.879Z</time>
      </trkpt>
      <trkpt lat="42.60464" lon="23.13964">
        <ele>801.376088</ele>
        <time>2022-04-04T10:19:51.890Z</time>
      </trkpt>
      <trkpt lat="42.60458" lon="23.13953">
        <ele>800.640923</ele>
        <time>2022-04-04T10:19:53.886Z</time>
      </trkpt>
      <trkpt lat="42.60448" lon="23.13957">
        <ele>799.827907</ele>
        <time>2022-04-04T10:19:56.869Z</time>
      </trkpt>
      <trkpt lat="42.6044" lon="23.13969">
        <ele>798.976408</ele>
        <time>2022-04-04T10:19:59.891Z</time>
      </trkpt>
      <trkpt lat="42.60433" lon="23.1398">
        <ele>798.197304</ele>
        <time>2022-04-04T10:20:02.881Z</time>
      </trkpt>
      <trkpt lat="42.60427" lon="23.13991">
        <ele>797.397261</ele>
        <time>2022-04-04T10:20:05.873Z</time>
      </trkpt>
      <trkpt lat="42.60421" lon="23.14003">
        <ele>796.59614</ele>
        <time>2022-04-04T10:20:08.892Z</time>
      </trkpt>
      <trkpt lat="42.60416" lon="23.14015">
        <ele>795.857897</ele>
        <time>2022-04-04T10:20:11.904Z</time>
      </trkpt>
      <trkpt lat="42.6041" lon="23.14028">
        <ele>795.04815</ele>
        <time>2022-04-04T10:20:14.922Z</time>
      </trkpt>
      <trkpt lat="42.60403" lon="23.1404">
        <ele>794.213091</ele>
        <time>2022-04-04T10:20:17.905Z</time>
      </trkpt>
      <trkpt lat="42.60395" lon="23.14053">
        <ele>793.262191</ele>
        <time>2022-04-04T10:20:20.934Z</time>
      </trkpt>
      <trkpt lat="42.60388" lon="23.14066">
        <ele>792.404225</ele>
        <time>2022-04-04T10:20:23.904Z</time>
      </trkpt>
      <trkpt lat="42.60383" lon="23.14079">
        <ele>791.607124</ele>
        <time>2022-04-04T10:20:26.908Z</time>
      </trkpt>
      <trkpt lat="42.60377" lon="23.14092">
        <ele>790.894614</ele>
        <time>2022-04-04T10:20:29.873Z</time>
      </trkpt>
      <trkpt lat="42.6037" lon="23.14104">
        <ele>790.69251</ele>
        <time>2022-04-04T10:20:32.909Z</time>
      </trkpt>
      <trkpt lat="42.60363" lon="23.14117">
        <ele>790.474008</ele>
        <time>2022-04-04T10:20:35.887Z</time>
      </trkpt>
      <trkpt lat="42.60356" lon="23.1413">
        <ele>790.253068</ele>
        <time>2022-04-04T10:20:38.878Z</time>
      </trkpt>
      <trkpt lat="42.60349" lon="23.1414">
        <ele>790.075236</ele>
        <time>2022-04-04T10:20:42.893Z</time>
      </trkpt>
      <trkpt lat="42.60343" lon="23.14152">
        <ele>789.869794</ele>
        <time>2022-04-04T10:20:47.870Z</time>
      </trkpt>
      <trkpt lat="42.60336" lon="23.14165">
        <ele>789.667652</ele>
        <time>2022-04-04T10:20:51.884Z</time>
      </trkpt>
      <trkpt lat="42.60329" lon="23.14178">
        <ele>789.44825</ele>
        <time>2022-04-04T10:20:55.887Z</time>
      </trkpt>
      <trkpt lat="42.60323" lon="23.14189">
        <ele>789.26884</ele>
        <time>2022-04-04T10:20:58.900Z</time>
      </trkpt>
      <trkpt lat="42.60318" lon="23.14199">
        <ele>789.096643</ele>
        <time>2022-04-04T10:21:01.885Z</time>
      </trkpt>
      <trkpt lat="42.60314" lon="23.14211">
        <ele>788.925932</ele>
        <time>2022-04-04T10:21:04.893Z</time>
      </trkpt>
      <trkpt lat="42.60309" lon="23.14222">
        <ele>788.748051</ele>
        <time>2022-04-04T10:21:07.884Z</time>
      </trkpt>
      <trkpt lat="42.60303" lon="23.14235">
        <ele>788.545375</ele>
        <time>2022-04-04T10:21:10.884Z</time>
      </trkpt>
      <trkpt lat="42.60296" lon="23.14249">
        <ele>788.318324</ele>
        <time>2022-04-04T10:21:13.887Z</time>
      </trkpt>
      <trkpt lat="42.6029" lon="23.14263">
        <ele>788.093519</ele>
        <time>2022-04-04T10:21:16.923Z</time>
      </trkpt>
      <trkpt lat="42.60284" lon="23.14277">
        <ele>787.884098</ele>
        <time>2022-04-04T10:21:19.892Z</time>
      </trkpt>
      <trkpt lat="42.60279" lon="23.14291">
        <ele>787.669645</ele>
        <time>2022-04-04T10:21:22.869Z</time>
      </trkpt>
      <trkpt lat="42.60275" lon="23.14302">
        <ele>787.548424</ele>
        <time>2022-04-04T10:21:24.883Z</time>
      </trkpt>
      <trkpt lat="42.60269" lon="23.14318">
        <ele>787.379787</ele>
        <time>2022-04-04T10:21:27.887Z</time>
      </trkpt>
      <trkpt lat="42.60263" lon="23.14331">
        <ele>787.232165</ele>
        <time>2022-04-04T10:21:30.886Z</time>
      </trkpt>
      <trkpt lat="42.60258" lon="23.14343">
        <ele>787.101788</ele>
        <time>2022-04-04T10:21:33.907Z</time>
      </trkpt>
      <trkpt lat="42.60252" lon="23.14354">
        <ele>786.970887</ele>
        <time>2022-04-04T10:21:36.886Z</time>
      </trkpt>
      <trkpt lat="42.60245" lon="23.14364">
        <ele>786.837533</ele>
        <time>2022-04-04T10:21:39.886Z</time>
      </trkpt>
      <trkpt lat="42.60238" lon="23.14373">
        <ele>786.71118</ele>
        <time>2022-04-04T10:21:42.892Z</time>
      </trkpt>
      <trkpt lat="42.60228" lon="23.1438">
        <ele>786.573297</ele>
        <time>2022-04-04T10:21:45.880Z</time>
      </trkpt>
      <trkpt lat="42.60217" lon="23.14384">
        <ele>786.425398</ele>
        <time>2022-04-04T10:21:48.894Z</time>
      </trkpt>
      <trkpt lat="42.60209" lon="23.14375">
        <ele>786.291711</ele>
        <time>2022-04-04T10:21:51.890Z</time>
      </trkpt>
      <trkpt lat="42.60208" lon="23.14358">
        <ele>786.129484</ele>
        <time>2022-04-04T10:21:54.899Z</time>
      </trkpt>
      <trkpt lat="42.60207" lon="23.1434">
        <ele>785.96198</ele>
        <time>2022-04-04T10:21:57.891Z</time>
      </trkpt>
      <trkpt lat="42.60206" lon="23.14327">
        <ele>785.837818</ele>
        <time>2022-04-04T10:21:59.882Z</time>
      </trkpt>
      <trkpt lat="42.60205" lon="23.14315">
        <ele>785.71662</ele>
        <time>2022-04-04T10:22:01.891Z</time>
      </trkpt>
      <trkpt lat="42.60204" lon="23.14301">
        <ele>785.590992</ele>
        <time>2022-04-04T10:22:03.882Z</time>
      </trkpt>
      <trkpt lat="42.60203" lon="23.14288">
        <ele>785.464486</ele>
        <time>2022-04-04T10:22:05.883Z</time>
      </trkpt>
      <trkpt lat="42.60203" lon="23.14274">
        <ele>785.337779</ele>
        <time>2022-04-04T10:22:07.883Z</time>
      </trkpt>
      <trkpt lat="42.60202" lon="23.14261">
        <ele>785.580332</ele>
        <time>2022-04-04T10:22:09.883Z</time>
      </trkpt>
      <trkpt lat="42.60201" lon="23.14249">
        <ele>785.81245</ele>
        <time>2022-04-04T10:22:11.879Z</time>
      </trkpt>
      <trkpt lat="42.602" lon="23.1423">
        <ele>786.156248</ele>
        <time>2022-04-04T10:22:14.879Z</time>
      </trkpt>
      <trkpt lat="42.60199" lon="23.14215">
        <ele>786.432304</ele>
        <time>2022-04-04T10:22:16.886Z</time>
      </trkpt>
      <trkpt lat="42.60199" lon="23.142">
        <ele>786.708509</ele>
        <time>2022-04-04T10:22:18.866Z</time>
      </trkpt>
      <trkpt lat="42.60198" lon="23.14186">
        <ele>786.972175</ele>
        <time>2022-04-04T10:22:20.875Z</time>
      </trkpt>
      <trkpt lat="42.60197" lon="23.14172">
        <ele>787.232155</ele>
        <time>2022-04-04T10:22:22.894Z</time>
      </trkpt>
      <trkpt lat="42.60196" lon="23.14158">
        <ele>787.501351</ele>
        <time>2022-04-04T10:22:24.906Z</time>
      </trkpt>
      <trkpt lat="42.60195" lon="23.14143">
        <ele>787.767086</ele>
        <time>2022-04-04T10:22:26.890Z</time>
      </trkpt>
      <trkpt lat="42.60194" lon="23.1413">
        <ele>788.022319</ele>
        <time>2022-04-04T10:22:28.915Z</time>
      </trkpt>
      <trkpt lat="42.60192" lon="23.14115">
        <ele>788.294696</ele>
        <time>2022-04-04T10:22:30.884Z</time>
      </trkpt>
      <trkpt lat="42.60192" lon="23.141">
        <ele>788.571266</ele>
        <time>2022-04-04T10:22:32.881Z</time>
      </trkpt>
      <trkpt lat="42.6019" lon="23.14086">
        <ele>788.843039</ele>
        <time>2022-04-04T10:22:34.930Z</time>
      </trkpt>
      <trkpt lat="42.60189" lon="23.14071">
        <ele>789.110617</ele>
        <time>2022-04-04T10:22:36.882Z</time>
      </trkpt>
      <trkpt lat="42.60188" lon="23.14057">
        <ele>789.372922</ele>
        <time>2022-04-04T10:22:38.897Z</time>
      </trkpt>
      <trkpt lat="42.60188" lon="23.14043">
        <ele>789.641743</ele>
        <time>2022-04-04T10:22:40.886Z</time>
      </trkpt>
      <trkpt lat="42.60187" lon="23.14028">
        <ele>789.807295</ele>
        <time>2022-04-04T10:22:42.890Z</time>
      </trkpt>
      <trkpt lat="42.60186" lon="23.14015">
        <ele>789.589788</ele>
        <time>2022-04-04T10:22:44.884Z</time>
      </trkpt>
      <trkpt lat="42.60185" lon="23.14001">
        <ele>789.359964</ele>
        <time>2022-04-04T10:22:46.870Z</time>
      </trkpt>
      <trkpt lat="42.60184" lon="23.13987">
        <ele>789.128942</ele>
        <time>2022-04-04T10:22:48.889Z</time>
      </trkpt>
      <trkpt lat="42.60183" lon="23.13972">
        <ele>788.89159</ele>
        <time>2022-04-04T10:22:50.881Z</time>
      </trkpt>
      <trkpt lat="42.60183" lon="23.13958">
        <ele>788.651474</ele>
        <time>2022-04-04T10:22:52.898Z</time>
      </trkpt>
      <trkpt lat="42.60182" lon="23.13943">
        <ele>788.406133</ele>
        <time>2022-04-04T10:22:54.882Z</time>
      </trkpt>
      <trkpt lat="42.60181" lon="23.13928">
        <ele>788.158845</ele>
        <time>2022-04-04T10:22:56.917Z</time>
      </trkpt>
      <trkpt lat="42.60181" lon="23.13913">
        <ele>787.918728</ele>
        <time>2022-04-04T10:22:58.895Z</time>
      </trkpt>
      <trkpt lat="42.6018" lon="23.13898">
        <ele>787.67632</ele>
        <time>2022-04-04T10:23:00.886Z</time>
      </trkpt>
      <trkpt lat="42.60179" lon="23.13883">
        <ele>787.422523</ele>
        <time>2022-04-04T10:23:02.933Z</time>
      </trkpt>
      <trkpt lat="42.60178" lon="23.13868">
        <ele>787.187829</ele>
        <time>2022-04-04T10:23:04.890Z</time>
      </trkpt>
      <trkpt lat="42.60177" lon="23.13854">
        <ele>786.955519</ele>
        <time>2022-04-04T10:23:06.884Z</time>
      </trkpt>
      <trkpt lat="42.60176" lon="23.1384">
        <ele>786.730793</ele>
        <time>2022-04-04T10:23:08.898Z</time>
      </trkpt>
      <trkpt lat="42.60175" lon="23.13825">
        <ele>786.474983</ele>
        <time>2022-04-04T10:23:10.914Z</time>
      </trkpt>
      <trkpt lat="42.60174" lon="23.13809">
        <ele>786.219559</ele>
        <time>2022-04-04T10:23:12.891Z</time>
      </trkpt>
      <trkpt lat="42.60173" lon="23.13794">
        <ele>785.976512</ele>
        <time>2022-04-04T10:23:14.878Z</time>
      </trkpt>
      <trkpt lat="42.60172" lon="23.13779">
        <ele>785.912233</ele>
        <time>2022-04-04T10:23:16.915Z</time>
      </trkpt>
      <trkpt lat="42.60171" lon="23.13763">
        <ele>785.997485</ele>
        <time>2022-04-04T10:23:18.876Z</time>
      </trkpt>
      <trkpt lat="42.60171" lon="23.13748">
        <ele>786.076401</ele>
        <time>2022-04-04T10:23:20.875Z</time>
      </trkpt>
      <trkpt lat="42.60171" lon="23.13733">
        <ele>786.156798</ele>
        <time>2022-04-04T10:23:22.886Z</time>
      </trkpt>
      <trkpt lat="42.6017" lon="23.13717">
        <ele>786.239904</ele>
        <time>2022-04-04T10:23:24.891Z</time>
      </trkpt>
      <trkpt lat="42.60169" lon="23.13702">
        <ele>786.320446</ele>
        <time>2022-04-04T10:23:26.887Z</time>
      </trkpt>
      <trkpt lat="42.60169" lon="23.13686">
        <ele>786.402043</ele>
        <time>2022-04-04T10:23:28.891Z</time>
      </trkpt>
      <trkpt lat="42.60168" lon="23.13671">
        <ele>786.482056</ele>
        <time>2022-04-04T10:23:30.963Z</time>
      </trkpt>
      <trkpt lat="42.60167" lon="23.13656">
        <ele>786.561119</ele>
        <time>2022-04-04T10:23:32.905Z</time>
      </trkpt>
      <trkpt lat="42.60166" lon="23.13641">
        <ele>786.640032</ele>
        <time>2022-04-04T10:23:34.927Z</time>
      </trkpt>
      <trkpt lat="42.60164" lon="23.13626">
        <ele>786.721659</ele>
        <time>2022-04-04T10:23:36.919Z</time>
      </trkpt>
      <trkpt lat="42.60163" lon="23.13611">
        <ele>786.80401</ele>
        <time>2022-04-04T10:23:38.895Z</time>
      </trkpt>
      <trkpt lat="42.60162" lon="23.13595">
        <ele>786.8846</ele>
        <time>2022-04-04T10:23:40.873Z</time>
      </trkpt>
      <trkpt lat="42.60162" lon="23.1358">
        <ele>786.967212</ele>
        <time>2022-04-04T10:23:42.869Z</time>
      </trkpt>
      <trkpt lat="42.60161" lon="23.13565">
        <ele>787.045284</ele>
        <time>2022-04-04T10:23:44.898Z</time>
      </trkpt>
      <trkpt lat="42.6016" lon="23.1355">
        <ele>787.127509</ele>
        <time>2022-04-04T10:23:46.897Z</time>
      </trkpt>
      <trkpt lat="42.60159" lon="23.13534">
        <ele>787.090658</ele>
        <time>2022-04-04T10:23:48.883Z</time>
      </trkpt>
      <trkpt lat="42.60158" lon="23.13518">
        <ele>786.984113</ele>
        <time>2022-04-04T10:23:50.886Z</time>
      </trkpt>
      <trkpt lat="42.60157" lon="23.13505">
        <ele>786.891267</ele>
        <time>2022-04-04T10:23:52.913Z</time>
      </trkpt>
      <trkpt lat="42.60155" lon="23.13491">
        <ele>786.797627</ele>
        <time>2022-04-04T10:23:54.910Z</time>
      </trkpt>
      <trkpt lat="42.60155" lon="23.13476">
        <ele>786.696715</ele>
        <time>2022-04-04T10:23:56.894Z</time>
      </trkpt>
      <trkpt lat="42.60155" lon="23.13461">
        <ele>786.593096</ele>
        <time>2022-04-04T10:23:58.871Z</time>
      </trkpt>
      <trkpt lat="42.60154" lon="23.13446">
        <ele>786.493469</ele>
        <time>2022-04-04T10:24:00.871Z</time>
      </trkpt>
      <trkpt lat="42.60153" lon="23.13432">
        <ele>786.396378</ele>
        <time>2022-04-04T10:24:02.877Z</time>
      </trkpt>
      <trkpt lat="42.60153" lon="23.13418">
        <ele>786.304866</ele>
        <time>2022-04-04T10:24:04.904Z</time>
      </trkpt>
      <trkpt lat="42.60152" lon="23.13405">
        <ele>786.215944</ele>
        <time>2022-04-04T10:24:06.892Z</time>
      </trkpt>
      <trkpt lat="42.60152" lon="23.13393">
        <ele>786.129841</ele>
        <time>2022-04-04T10:24:08.890Z</time>
      </trkpt>
      <trkpt lat="42.60151" lon="23.1338">
        <ele>786.046062</ele>
        <time>2022-04-04T10:24:10.931Z</time>
      </trkpt>
      <trkpt lat="42.60149" lon="23.13363">
        <ele>785.927073</ele>
        <time>2022-04-04T10:24:13.884Z</time>
      </trkpt>
      <trkpt lat="42.60149" lon="23.13347">
        <ele>785.819852</ele>
        <time>2022-04-04T10:24:16.914Z</time>
      </trkpt>
      <trkpt lat="42.60147" lon="23.13331">
        <ele>785.71097</ele>
        <time>2022-04-04T10:24:19.871Z</time>
      </trkpt>
      <trkpt lat="42.60147" lon="23.13316">
        <ele>785.609991</ele>
        <time>2022-04-04T10:24:22.890Z</time>
      </trkpt>
      <trkpt lat="42.60145" lon="23.133">
        <ele>785.515071</ele>
        <time>2022-04-04T10:24:25.875Z</time>
      </trkpt>
      <trkpt lat="42.60144" lon="23.13284">
        <ele>785.72262</ele>
        <time>2022-04-04T10:24:28.888Z</time>
      </trkpt>
      <trkpt lat="42.60144" lon="23.13269">
        <ele>785.934319</ele>
        <time>2022-04-04T10:24:31.893Z</time>
      </trkpt>
      <trkpt lat="42.60143" lon="23.13254">
        <ele>786.134382</ele>
        <time>2022-04-04T10:24:34.880Z</time>
      </trkpt>
      <trkpt lat="42.60142" lon="23.1324">
        <ele>786.327698</ele>
        <time>2022-04-04T10:24:37.906Z</time>
      </trkpt>
      <trkpt lat="42.60141" lon="23.13226">
        <ele>786.516645</ele>
        <time>2022-04-04T10:24:40.893Z</time>
      </trkpt>
      <trkpt lat="42.6014" lon="23.13212">
        <ele>786.705187</ele>
        <time>2022-04-04T10:24:43.898Z</time>
      </trkpt>
      <trkpt lat="42.60139" lon="23.13199">
        <ele>786.885018</ele>
        <time>2022-04-04T10:24:46.905Z</time>
      </trkpt>
      <trkpt lat="42.60137" lon="23.13186">
        <ele>787.062006</ele>
        <time>2022-04-04T10:24:49.896Z</time>
      </trkpt>
      <trkpt lat="42.60136" lon="23.13173">
        <ele>787.245173</ele>
        <time>2022-04-04T10:24:52.885Z</time>
      </trkpt>
      <trkpt lat="42.60135" lon="23.13157">
        <ele>787.454165</ele>
        <time>2022-04-04T10:24:55.884Z</time>
      </trkpt>
      <trkpt lat="42.60135" lon="23.13143">
        <ele>787.652443</ele>
        <time>2022-04-04T10:24:58.874Z</time>
      </trkpt>
      <trkpt lat="42.60134" lon="23.13129">
        <ele>787.842394</ele>
        <time>2022-04-04T10:25:01.908Z</time>
      </trkpt>
      <trkpt lat="42.60134" lon="23.13116">
        <ele>788.009094</ele>
        <time>2022-04-04T10:25:04.880Z</time>
      </trkpt>
      <trkpt lat="42.60133" lon="23.13104">
        <ele>788.181685</ele>
        <time>2022-04-04T10:25:07.884Z</time>
      </trkpt>
      <trkpt lat="42.60132" lon="23.13089">
        <ele>788.386162</ele>
        <time>2022-04-04T10:25:10.872Z</time>
      </trkpt>
      <trkpt lat="42.60131" lon="23.13074">
        <ele>788.582177</ele>
        <time>2022-04-04T10:25:13.917Z</time>
      </trkpt>
      <trkpt lat="42.6013" lon="23.13062">
        <ele>788.756617</ele>
        <time>2022-04-04T10:25:16.875Z</time>
      </trkpt>
      <trkpt lat="42.60129" lon="23.13046">
        <ele>788.763326</ele>
        <time>2022-04-04T10:25:20.889Z</time>
      </trkpt>
      <trkpt lat="42.60128" lon="23.13033">
        <ele>788.706432</ele>
        <time>2022-04-04T10:25:23.886Z</time>
      </trkpt>
      <trkpt lat="42.60127" lon="23.13016">
        <ele>788.630587</ele>
        <time>2022-04-04T10:25:26.890Z</time>
      </trkpt>
      <trkpt lat="42.60127" lon="23.12999">
        <ele>788.55658</ele>
        <time>2022-04-04T10:25:29.893Z</time>
      </trkpt>
      <trkpt lat="42.60126" lon="23.12983">
        <ele>788.485144</ele>
        <time>2022-04-04T10:25:32.887Z</time>
      </trkpt>
      <trkpt lat="42.60125" lon="23.12969">
        <ele>788.421705</ele>
        <time>2022-04-04T10:25:35.900Z</time>
      </trkpt>
      <trkpt lat="42.60125" lon="23.12957">
        <ele>788.364975</ele>
        <time>2022-04-04T10:25:38.891Z</time>
      </trkpt>
      <trkpt lat="42.60125" lon="23.1294">
        <ele>788.291919</ele>
        <time>2022-04-04T10:25:41.918Z</time>
      </trkpt>
      <trkpt lat="42.60125" lon="23.12923">
        <ele>788.216182</ele>
        <time>2022-04-04T10:25:44.896Z</time>
      </trkpt>
      <trkpt lat="42.60124" lon="23.12909">
        <ele>788.153269</ele>
        <time>2022-04-04T10:25:47.930Z</time>
      </trkpt>
      <trkpt lat="42.60124" lon="23.12892">
        <ele>788.077482</ele>
        <time>2022-04-04T10:25:50.889Z</time>
      </trkpt>
      <trkpt lat="42.60123" lon="23.12874">
        <ele>787.997913</ele>
        <time>2022-04-04T10:25:53.922Z</time>
      </trkpt>
      <trkpt lat="42.6012" lon="23.12857">
        <ele>787.920688</ele>
        <time>2022-04-04T10:25:56.891Z</time>
      </trkpt>
      <trkpt lat="42.60118" lon="23.1284">
        <ele>787.841218</ele>
        <time>2022-04-04T10:25:59.866Z</time>
      </trkpt>
      <trkpt lat="42.60115" lon="23.12827">
        <ele>787.784973</ele>
        <time>2022-04-04T10:26:01.872Z</time>
      </trkpt>
      <trkpt lat="42.60113" lon="23.12815">
        <ele>787.722801</ele>
        <time>2022-04-04T10:26:03.882Z</time>
      </trkpt>
      <trkpt lat="42.6011" lon="23.12802">
        <ele>787.310221</ele>
        <time>2022-04-04T10:26:05.896Z</time>
      </trkpt>
      <trkpt lat="42.60107" lon="23.1279">
        <ele>786.893342</ele>
        <time>2022-04-04T10:26:07.891Z</time>
      </trkpt>
      <trkpt lat="42.60104" lon="23.12776">
        <ele>786.45013</ele>
        <time>2022-04-04T10:26:09.889Z</time>
      </trkpt>
      <trkpt lat="42.601" lon="23.12764">
        <ele>786.021056</ele>
        <time>2022-04-04T10:26:11.902Z</time>
      </trkpt>
      <trkpt lat="42.60095" lon="23.12751">
        <ele>785.574135</ele>
        <time>2022-04-04T10:26:13.914Z</time>
      </trkpt>
      <trkpt lat="42.60091" lon="23.12738">
        <ele>785.122604</ele>
        <time>2022-04-04T10:26:15.889Z</time>
      </trkpt>
      <trkpt lat="42.60086" lon="23.12725">
        <ele>784.673187</ele>
        <time>2022-04-04T10:26:17.869Z</time>
      </trkpt>
      <trkpt lat="42.60081" lon="23.12712">
        <ele>784.207428</ele>
        <time>2022-04-04T10:26:19.902Z</time>
      </trkpt>
      <trkpt lat="42.60076" lon="23.12699">
        <ele>783.751261</ele>
        <time>2022-04-04T10:26:21.983Z</time>
      </trkpt>
      <trkpt lat="42.60071" lon="23.12685">
        <ele>783.262344</ele>
        <time>2022-04-04T10:26:23.884Z</time>
      </trkpt>
      <trkpt lat="42.60066" lon="23.12672">
        <ele>782.775132</ele>
        <time>2022-04-04T10:26:25.885Z</time>
      </trkpt>
      <trkpt lat="42.6006" lon="23.12658">
        <ele>782.295483</ele>
        <time>2022-04-04T10:26:27.888Z</time>
      </trkpt>
      <trkpt lat="42.60056" lon="23.12644">
        <ele>781.804633</ele>
        <time>2022-04-04T10:26:29.923Z</time>
      </trkpt>
      <trkpt lat="42.60051" lon="23.12631">
        <ele>781.352412</ele>
        <time>2022-04-04T10:26:31.932Z</time>
      </trkpt>
      <trkpt lat="42.60046" lon="23.12618">
        <ele>780.880449</ele>
        <time>2022-04-04T10:26:33.879Z</time>
      </trkpt>
      <trkpt lat="42.60041" lon="23.12603">
        <ele>780.373532</ele>
        <time>2022-04-04T10:26:35.881Z</time>
      </trkpt>
      <trkpt lat="42.60036" lon="23.12587">
        <ele>779.96941</ele>
        <time>2022-04-04T10:26:37.874Z</time>
      </trkpt>
      <trkpt lat="42.60032" lon="23.12572">
        <ele>779.807944</ele>
        <time>2022-04-04T10:26:39.972Z</time>
      </trkpt>
      <trkpt lat="42.60031" lon="23.12557">
        <ele>779.649375</ele>
        <time>2022-04-04T10:26:41.889Z</time>
      </trkpt>
      <trkpt lat="42.60031" lon="23.12541">
        <ele>779.483576</ele>
        <time>2022-04-04T10:26:43.896Z</time>
      </trkpt>
      <trkpt lat="42.60033" lon="23.12524">
        <ele>779.310957</ele>
        <time>2022-04-04T10:26:45.888Z</time>
      </trkpt>
      <trkpt lat="42.60038" lon="23.12508">
        <ele>779.132896</ele>
        <time>2022-04-04T10:26:47.888Z</time>
      </trkpt>
      <trkpt lat="42.60047" lon="23.12494">
        <ele>778.944355</ele>
        <time>2022-04-04T10:26:50.026Z</time>
      </trkpt>
      <trkpt lat="42.60058" lon="23.12482">
        <ele>778.750373</ele>
        <time>2022-04-04T10:26:51.914Z</time>
      </trkpt>
      <trkpt lat="42.60068" lon="23.12472">
        <ele>778.576613</ele>
        <time>2022-04-04T10:26:53.907Z</time>
      </trkpt>
      <trkpt lat="42.60077" lon="23.12462">
        <ele>778.411075</ele>
        <time>2022-04-04T10:26:55.884Z</time>
      </trkpt>
      <trkpt lat="42.60086" lon="23.1245">
        <ele>778.238612</ele>
        <time>2022-04-04T10:26:57.909Z</time>
      </trkpt>
      <trkpt lat="42.60091" lon="23.12438">
        <ele>778.097688</ele>
        <time>2022-04-04T10:26:59.885Z</time>
      </trkpt>
      <trkpt lat="42.60094" lon="23.12426">
        <ele>777.967069</ele>
        <time>2022-04-04T10:27:01.867Z</time>
      </trkpt>
      <trkpt lat="42.60099" lon="23.12414">
        <ele>777.824166</ele>
        <time>2022-04-04T10:27:03.903Z</time>
      </trkpt>
      <trkpt lat="42.60101" lon="23.12399">
        <ele>777.670171</ele>
        <time>2022-04-04T10:27:05.892Z</time>
      </trkpt>
      <trkpt lat="42.601" lon="23.12382">
        <ele>777.484058</ele>
        <time>2022-04-04T10:27:07.911Z</time>
      </trkpt>
      <trkpt lat="42.60097" lon="23.12364">
        <ele>777.270643</ele>
        <time>2022-04-04T10:27:09.884Z</time>
      </trkpt>
      <trkpt lat="42.60093" lon="23.12348">
        <ele>777.067965</ele>
        <time>2022-04-04T10:27:11.888Z</time>
      </trkpt>
      <trkpt lat="42.60087" lon="23.12333">
        <ele>776.871053</ele>
        <time>2022-04-04T10:27:13.885Z</time>
      </trkpt>
      <trkpt lat="42.60081" lon="23.1232">
        <ele>776.686763</ele>
        <time>2022-04-04T10:27:15.882Z</time>
      </trkpt>
      <trkpt lat="42.60075" lon="23.12307">
        <ele>776.508309</ele>
        <time>2022-04-04T10:27:17.898Z</time>
      </trkpt>
      <trkpt lat="42.60069" lon="23.12295">
        <ele>776.333128</ele>
        <time>2022-04-04T10:27:19.886Z</time>
      </trkpt>
      <trkpt lat="42.60065" lon="23.12281">
        <ele>776.154235</ele>
        <time>2022-04-04T10:27:21.881Z</time>
      </trkpt>
      <trkpt lat="42.60064" lon="23.12266">
        <ele>775.978369</ele>
        <time>2022-04-04T10:27:24.025Z</time>
      </trkpt>
      <trkpt lat="42.60065" lon="23.12251">
        <ele>775.800625</ele>
        <time>2022-04-04T10:27:25.898Z</time>
      </trkpt>
      <trkpt lat="42.60069" lon="23.12236">
        <ele>775.618097</ele>
        <time>2022-04-04T10:27:27.887Z</time>
      </trkpt>
      <trkpt lat="42.60073" lon="23.12221">
        <ele>775.429867</ele>
        <time>2022-04-04T10:27:29.909Z</time>
      </trkpt>
      <trkpt lat="42.60076" lon="23.12205">
        <ele>775.234816</ele>
        <time>2022-04-04T10:27:31.894Z</time>
      </trkpt>
      <trkpt lat="42.60079" lon="23.12188">
        <ele>775.021443</ele>
        <time>2022-04-04T10:27:33.893Z</time>
      </trkpt>
      <trkpt lat="42.60081" lon="23.1217">
        <ele>774.81109</ele>
        <time>2022-04-04T10:27:35.874Z</time>
      </trkpt>
      <trkpt lat="42.60083" lon="23.12155">
        <ele>774.623479</ele>
        <time>2022-04-04T10:27:37.892Z</time>
      </trkpt>
      <trkpt lat="42.60083" lon="23.12139">
        <ele>774.451336</ele>
        <time>2022-04-04T10:27:39.882Z</time>
      </trkpt>
      <trkpt lat="42.60083" lon="23.12121">
        <ele>774.260075</ele>
        <time>2022-04-04T10:27:41.890Z</time>
      </trkpt>
      <trkpt lat="42.60083" lon="23.12101">
        <ele>774.04915</ele>
        <time>2022-04-04T10:27:43.885Z</time>
      </trkpt>
      <trkpt lat="42.60082" lon="23.1208">
        <ele>773.818744</ele>
        <time>2022-04-04T10:27:45.901Z</time>
      </trkpt>
      <trkpt lat="42.60081" lon="23.12057">
        <ele>773.574618</ele>
        <time>2022-04-04T10:27:47.890Z</time>
      </trkpt>
      <trkpt lat="42.6008" lon="23.12034">
        <ele>773.324106</ele>
        <time>2022-04-04T10:27:49.896Z</time>
      </trkpt>
      <trkpt lat="42.6008" lon="23.1201">
        <ele>773.068371</ele>
        <time>2022-04-04T10:27:51.882Z</time>
      </trkpt>
      <trkpt lat="42.60081" lon="23.11998">
        <ele>772.937208</ele>
        <time>2022-04-04T10:27:52.889Z</time>
      </trkpt>
      <trkpt lat="42.60081" lon="23.11986">
        <ele>772.806046</ele>
        <time>2022-04-04T10:27:53.865Z</time>
      </trkpt>
      <trkpt lat="42.60082" lon="23.11962">
        <ele>772.549037</ele>
        <time>2022-04-04T10:27:55.890Z</time>
      </trkpt>
      <trkpt lat="42.60083" lon="23.11938">
        <ele>772.292707</ele>
        <time>2022-04-04T10:27:57.894Z</time>
      </trkpt>
      <trkpt lat="42.60084" lon="23.11915">
        <ele>772.047941</ele>
        <time>2022-04-04T10:27:59.870Z</time>
      </trkpt>
      <trkpt lat="42.60086" lon="23.11893">
        <ele>771.937006</ele>
        <time>2022-04-04T10:28:01.927Z</time>
      </trkpt>
      <trkpt lat="42.6009" lon="23.11874">
        <ele>771.853831</ele>
        <time>2022-04-04T10:28:03.890Z</time>
      </trkpt>
      <trkpt lat="42.60095" lon="23.11857">
        <ele>771.776149</ele>
        <time>2022-04-04T10:28:05.884Z</time>
      </trkpt>
      <trkpt lat="42.601" lon="23.11841">
        <ele>771.703742</ele>
        <time>2022-04-04T10:28:07.949Z</time>
      </trkpt>
      <trkpt lat="42.60104" lon="23.11826">
        <ele>771.634717</ele>
        <time>2022-04-04T10:28:09.883Z</time>
      </trkpt>
      <trkpt lat="42.60108" lon="23.11811">
        <ele>771.56899</ele>
        <time>2022-04-04T10:28:11.875Z</time>
      </trkpt>
      <trkpt lat="42.60112" lon="23.11797">
        <ele>771.508227</ele>
        <time>2022-04-04T10:28:13.895Z</time>
      </trkpt>
      <trkpt lat="42.60116" lon="23.11784">
        <ele>771.447058</ele>
        <time>2022-04-04T10:28:15.891Z</time>
      </trkpt>
      <trkpt lat="42.60119" lon="23.1177">
        <ele>771.387866</ele>
        <time>2022-04-04T10:28:17.872Z</time>
      </trkpt>
      <trkpt lat="42.60124" lon="23.11756">
        <ele>771.321752</ele>
        <time>2022-04-04T10:28:19.852Z</time>
      </trkpt>
      <trkpt lat="42.60127" lon="23.11741">
        <ele>771.256606</ele>
        <time>2022-04-04T10:28:21.892Z</time>
      </trkpt>
      <trkpt lat="42.60131" lon="23.11726">
        <ele>771.189327</ele>
        <time>2022-04-04T10:28:23.865Z</time>
      </trkpt>
      <trkpt lat="42.60136" lon="23.11709">
        <ele>771.114576</ele>
        <time>2022-04-04T10:28:25.875Z</time>
      </trkpt>
      <trkpt lat="42.6014" lon="23.11691">
        <ele>771.033527</ele>
        <time>2022-04-04T10:28:27.879Z</time>
      </trkpt>
      <trkpt lat="42.60143" lon="23.1167">
        <ele>770.68286</ele>
        <time>2022-04-04T10:28:29.888Z</time>
      </trkpt>
      <trkpt lat="42.60148" lon="23.11649">
        <ele>770.069982</ele>
        <time>2022-04-04T10:28:31.931Z</time>
      </trkpt>
      <trkpt lat="42.60152" lon="23.11628">
        <ele>769.467191</ele>
        <time>2022-04-04T10:28:33.898Z</time>
      </trkpt>
      <trkpt lat="42.60155" lon="23.11608">
        <ele>768.865351</ele>
        <time>2022-04-04T10:28:35.927Z</time>
      </trkpt>
      <trkpt lat="42.60159" lon="23.11588">
        <ele>768.291665</ele>
        <time>2022-04-04T10:28:37.985Z</time>
      </trkpt>
      <trkpt lat="42.60162" lon="23.11569">
        <ele>767.762403</ele>
        <time>2022-04-04T10:28:39.930Z</time>
      </trkpt>
      <trkpt lat="42.60165" lon="23.11554">
        <ele>767.303531</ele>
        <time>2022-04-04T10:28:41.915Z</time>
      </trkpt>
      <trkpt lat="42.60172" lon="23.11542">
        <ele>766.878776</ele>
        <time>2022-04-04T10:28:43.895Z</time>
      </trkpt>
      <trkpt lat="42.60181" lon="23.11536">
        <ele>766.501695</ele>
        <time>2022-04-04T10:28:45.892Z</time>
      </trkpt>
      <trkpt lat="42.60193" lon="23.11535">
        <ele>766.057549</ele>
        <time>2022-04-04T10:28:48.888Z</time>
      </trkpt>
      <trkpt lat="42.60202" lon="23.11532">
        <ele>765.703323</ele>
        <time>2022-04-04T10:28:50.936Z</time>
      </trkpt>
      <trkpt lat="42.60215" lon="23.11528">
        <ele>765.20051</ele>
        <time>2022-04-04T10:28:53.903Z</time>
      </trkpt>
      <trkpt lat="42.60228" lon="23.11523">
        <ele>764.687941</ele>
        <time>2022-04-04T10:28:56.959Z</time>
      </trkpt>
      <trkpt lat="42.60237" lon="23.11519">
        <ele>764.3362</ele>
        <time>2022-04-04T10:28:58.889Z</time>
      </trkpt>
      <trkpt lat="42.60249" lon="23.11514">
        <ele>764.213495</ele>
        <time>2022-04-04T10:29:01.875Z</time>
      </trkpt>
      <trkpt lat="42.60261" lon="23.11511">
        <ele>764.325334</ele>
        <time>2022-04-04T10:29:04.925Z</time>
      </trkpt>
      <trkpt lat="42.60272" lon="23.11506">
        <ele>764.442087</ele>
        <time>2022-04-04T10:29:07.899Z</time>
      </trkpt>
      <trkpt lat="42.60284" lon="23.11502">
        <ele>764.558287</ele>
        <time>2022-04-04T10:29:10.891Z</time>
      </trkpt>
      <trkpt lat="42.60297" lon="23.11497">
        <ele>764.682872</ele>
        <time>2022-04-04T10:29:13.892Z</time>
      </trkpt>
      <trkpt lat="42.60309" lon="23.11492">
        <ele>764.804736</ele>
        <time>2022-04-04T10:29:16.913Z</time>
      </trkpt>
      <trkpt lat="42.60322" lon="23.11488">
        <ele>764.926764</ele>
        <time>2022-04-04T10:29:19.893Z</time>
      </trkpt>
      <trkpt lat="42.60333" lon="23.11482">
        <ele>765.040924</ele>
        <time>2022-04-04T10:29:22.911Z</time>
      </trkpt>
      <trkpt lat="42.60346" lon="23.11477">
        <ele>765.160781</ele>
        <time>2022-04-04T10:29:25.931Z</time>
      </trkpt>
      <trkpt lat="42.60356" lon="23.11476">
        <ele>765.256586</ele>
        <time>2022-04-04T10:29:27.904Z</time>
      </trkpt>
      <trkpt lat="42.60366" lon="23.11476">
        <ele>765.35284</ele>
        <time>2022-04-04T10:29:29.889Z</time>
      </trkpt>
      <trkpt lat="42.60375" lon="23.11474">
        <ele>765.441115</ele>
        <time>2022-04-04T10:29:31.905Z</time>
      </trkpt>
      <trkpt lat="42.60382" lon="23.1146">
        <ele>765.552583</ele>
        <time>2022-04-04T10:29:34.903Z</time>
      </trkpt>
      <trkpt lat="42.60378" lon="23.11448">
        <ele>765.642887</ele>
        <time>2022-04-04T10:29:36.904Z</time>
      </trkpt>
      <trkpt lat="42.60372" lon="23.11439">
        <ele>765.72931</ele>
        <time>2022-04-04T10:29:38.902Z</time>
      </trkpt>
      <trkpt lat="42.60364" lon="23.11432">
        <ele>765.817525</ele>
        <time>2022-04-04T10:29:40.896Z</time>
      </trkpt>
      <trkpt lat="42.60356" lon="23.11424">
        <ele>766.269699</ele>
        <time>2022-04-04T10:29:42.931Z</time>
      </trkpt>
      <trkpt lat="42.6035" lon="23.11414">
        <ele>766.81245</ele>
        <time>2022-04-04T10:29:44.922Z</time>
      </trkpt>
      <trkpt lat="42.60342" lon="23.11405">
        <ele>767.336641</ele>
        <time>2022-04-04T10:29:46.910Z</time>
      </trkpt>
      <trkpt lat="42.60335" lon="23.11397">
        <ele>767.860751</ele>
        <time>2022-04-04T10:29:48.899Z</time>
      </trkpt>
      <trkpt lat="42.60329" lon="23.11388">
        <ele>768.357747</ele>
        <time>2022-04-04T10:29:50.915Z</time>
      </trkpt>
      <trkpt lat="42.60321" lon="23.11373">
        <ele>769.094911</ele>
        <time>2022-04-04T10:29:53.894Z</time>
      </trkpt>
      <trkpt lat="42.60318" lon="23.11355">
        <ele>769.832361</ele>
        <time>2022-04-04T10:29:56.906Z</time>
      </trkpt>
      <trkpt lat="42.60318" lon="23.11342">
        <ele>770.387509</ele>
        <time>2022-04-04T10:29:58.918Z</time>
      </trkpt>
      <trkpt lat="42.6032" lon="23.11328">
        <ele>770.938494</ele>
        <time>2022-04-04T10:30:00.889Z</time>
      </trkpt>
      <trkpt lat="42.60322" lon="23.11314">
        <ele>771.547163</ele>
        <time>2022-04-04T10:30:02.891Z</time>
      </trkpt>
      <trkpt lat="42.60324" lon="23.11299">
        <ele>772.133035</ele>
        <time>2022-04-04T10:30:04.902Z</time>
      </trkpt>
      <trkpt lat="42.60326" lon="23.11286">
        <ele>772.671035</ele>
        <time>2022-04-04T10:30:06.926Z</time>
      </trkpt>
      <trkpt lat="42.60327" lon="23.11274">
        <ele>773.172924</ele>
        <time>2022-04-04T10:30:08.906Z</time>
      </trkpt>
      <trkpt lat="42.60328" lon="23.11261">
        <ele>773.678136</ele>
        <time>2022-04-04T10:30:10.956Z</time>
      </trkpt>
      <trkpt lat="42.6033" lon="23.11249">
        <ele>774.181004</ele>
        <time>2022-04-04T10:30:12.871Z</time>
      </trkpt>
      <trkpt lat="42.60332" lon="23.11237">
        <ele>774.713971</ele>
        <time>2022-04-04T10:30:14.891Z</time>
      </trkpt>
      <trkpt lat="42.60335" lon="23.11225">
        <ele>775.211646</ele>
        <time>2022-04-04T10:30:16.922Z</time>
      </trkpt>
      <trkpt lat="42.60337" lon="23.11208">
        <ele>775.948923</ele>
        <time>2022-04-04T10:30:19.903Z</time>
      </trkpt>
      <trkpt lat="42.6034" lon="23.1119">
        <ele>776.901989</ele>
        <time>2022-04-04T10:30:22.898Z</time>
      </trkpt>
      <trkpt lat="42.60342" lon="23.11177">
        <ele>777.559269</ele>
        <time>2022-04-04T10:30:24.898Z</time>
      </trkpt>
      <trkpt lat="42.60344" lon="23.11164">
        <ele>778.256605</ele>
        <time>2022-04-04T10:30:26.901Z</time>
      </trkpt>
      <trkpt lat="42.60346" lon="23.11151">
        <ele>778.91834</ele>
        <time>2022-04-04T10:30:28.907Z</time>
      </trkpt>
      <trkpt lat="42.60349" lon="23.11134">
        <ele>779.82849</ele>
        <time>2022-04-04T10:30:31.948Z</time>
      </trkpt>
      <trkpt lat="42.60351" lon="23.11117">
        <ele>780.70575</ele>
        <time>2022-04-04T10:30:34.899Z</time>
      </trkpt>
      <trkpt lat="42.60355" lon="23.111">
        <ele>781.622574</ele>
        <time>2022-04-04T10:30:37.892Z</time>
      </trkpt>
      <trkpt lat="42.60358" lon="23.11088">
        <ele>782.274782</ele>
        <time>2022-04-04T10:30:39.894Z</time>
      </trkpt>
      <trkpt lat="42.60361" lon="23.11074">
        <ele>782.981182</ele>
        <time>2022-04-04T10:30:41.902Z</time>
      </trkpt>
      <trkpt lat="42.60363" lon="23.11061">
        <ele>783.65784</ele>
        <time>2022-04-04T10:30:43.906Z</time>
      </trkpt>
      <trkpt lat="42.60366" lon="23.11049">
        <ele>784.313731</ele>
        <time>2022-04-04T10:30:45.894Z</time>
      </trkpt>
      <trkpt lat="42.60368" lon="23.11037">
        <ele>784.972141</ele>
        <time>2022-04-04T10:30:47.897Z</time>
      </trkpt>
      <trkpt lat="42.60371" lon="23.11019">
        <ele>785.872307</ele>
        <time>2022-04-04T10:30:50.917Z</time>
      </trkpt>
      <trkpt lat="42.60373" lon="23.11007">
        <ele>786.504535</ele>
        <time>2022-04-04T10:30:52.898Z</time>
      </trkpt>
      <trkpt lat="42.60375" lon="23.10994">
        <ele>787.17467</ele>
        <time>2022-04-04T10:30:54.879Z</time>
      </trkpt>
      <trkpt lat="42.60377" lon="23.10982">
        <ele>787.826901</ele>
        <time>2022-04-04T10:30:56.902Z</time>
      </trkpt>
      <trkpt lat="42.60379" lon="23.1097">
        <ele>788.082037</ele>
        <time>2022-04-04T10:30:58.905Z</time>
      </trkpt>
      <trkpt lat="42.60382" lon="23.10957">
        <ele>787.744603</ele>
        <time>2022-04-04T10:31:00.883Z</time>
      </trkpt>
      <trkpt lat="42.60384" lon="23.10944">
        <ele>787.409247</ele>
        <time>2022-04-04T10:31:02.894Z</time>
      </trkpt>
      <trkpt lat="42.60386" lon="23.10932">
        <ele>787.084599</ele>
        <time>2022-04-04T10:31:04.894Z</time>
      </trkpt>
      <trkpt lat="42.60389" lon="23.10919">
        <ele>786.734956</ele>
        <time>2022-04-04T10:31:06.912Z</time>
      </trkpt>
      <trkpt lat="42.60392" lon="23.10906">
        <ele>786.395704</ele>
        <time>2022-04-04T10:31:08.879Z</time>
      </trkpt>
      <trkpt lat="42.60396" lon="23.10894">
        <ele>786.067271</ele>
        <time>2022-04-04T10:31:10.915Z</time>
      </trkpt>
      <trkpt lat="42.60399" lon="23.10881">
        <ele>785.714951</ele>
        <time>2022-04-04T10:31:12.912Z</time>
      </trkpt>
      <trkpt lat="42.60403" lon="23.10869">
        <ele>785.391147</ele>
        <time>2022-04-04T10:31:14.888Z</time>
      </trkpt>
      <trkpt lat="42.60411" lon="23.10855">
        <ele>784.9381</ele>
        <time>2022-04-04T10:31:17.928Z</time>
      </trkpt>
      <trkpt lat="42.60419" lon="23.10841">
        <ele>784.47145</ele>
        <time>2022-04-04T10:31:20.904Z</time>
      </trkpt>
      <trkpt lat="42.60427" lon="23.10826">
        <ele>784.021813</ele>
        <time>2022-04-04T10:31:23.916Z</time>
      </trkpt>
      <trkpt lat="42.60433" lon="23.10811">
        <ele>783.558585</ele>
        <time>2022-04-04T10:31:26.923Z</time>
      </trkpt>
      <trkpt lat="42.60439" lon="23.10801">
        <ele>783.244946</ele>
        <time>2022-04-04T10:31:28.927Z</time>
      </trkpt>
      <trkpt lat="42.60444" lon="23.10791">
        <ele>782.925135</ele>
        <time>2022-04-04T10:31:30.903Z</time>
      </trkpt>
      <trkpt lat="42.6045" lon="23.10779">
        <ele>782.568213</ele>
        <time>2022-04-04T10:31:32.907Z</time>
      </trkpt>
      <trkpt lat="42.60456" lon="23.10767">
        <ele>782.212725</ele>
        <time>2022-04-04T10:31:34.891Z</time>
      </trkpt>
      <trkpt lat="42.60461" lon="23.10757">
        <ele>782.079964</ele>
        <time>2022-04-04T10:31:36.879Z</time>
      </trkpt>
      <trkpt lat="42.60468" lon="23.10747">
        <ele>782.331013</ele>
        <time>2022-04-04T10:31:38.910Z</time>
      </trkpt>
      <trkpt lat="42.60475" lon="23.10737">
        <ele>782.594669</ele>
        <time>2022-04-04T10:31:40.929Z</time>
      </trkpt>
      <trkpt lat="42.60482" lon="23.10726">
        <ele>782.879614</ele>
        <time>2022-04-04T10:31:42.895Z</time>
      </trkpt>
      <trkpt lat="42.60488" lon="23.10716">
        <ele>783.140331</ele>
        <time>2022-04-04T10:31:44.930Z</time>
      </trkpt>
      <trkpt lat="42.60495" lon="23.10705">
        <ele>783.417497</ele>
        <time>2022-04-04T10:31:46.890Z</time>
      </trkpt>
      <trkpt lat="42.60499" lon="23.10694">
        <ele>783.659413</ele>
        <time>2022-04-04T10:31:48.921Z</time>
      </trkpt>
      <trkpt lat="42.60505" lon="23.10677">
        <ele>784.019389</ele>
        <time>2022-04-04T10:31:51.891Z</time>
      </trkpt>
      <trkpt lat="42.6051" lon="23.10665">
        <ele>784.287765</ele>
        <time>2022-04-04T10:31:53.892Z</time>
      </trkpt>
      <trkpt lat="42.60515" lon="23.10653">
        <ele>784.56367</ele>
        <time>2022-04-04T10:31:55.899Z</time>
      </trkpt>
      <trkpt lat="42.60521" lon="23.10642">
        <ele>784.823855</ele>
        <time>2022-04-04T10:31:57.912Z</time>
      </trkpt>
      <trkpt lat="42.60526" lon="23.10632">
        <ele>785.072725</ele>
        <time>2022-04-04T10:31:59.915Z</time>
      </trkpt>
      <trkpt lat="42.60532" lon="23.10621">
        <ele>785.32474</ele>
        <time>2022-04-04T10:32:01.883Z</time>
      </trkpt>
      <trkpt lat="42.60538" lon="23.10611">
        <ele>785.572151</ele>
        <time>2022-04-04T10:32:03.889Z</time>
      </trkpt>
      <trkpt lat="42.60544" lon="23.10597">
        <ele>785.889026</ele>
        <time>2022-04-04T10:32:06.910Z</time>
      </trkpt>
      <trkpt lat="42.60549" lon="23.10586">
        <ele>786.147246</ele>
        <time>2022-04-04T10:32:08.901Z</time>
      </trkpt>
      <trkpt lat="42.60556" lon="23.10577">
        <ele>786.391269</ele>
        <time>2022-04-04T10:32:10.913Z</time>
      </trkpt>
      <trkpt lat="42.60563" lon="23.10562">
        <ele>786.743599</ele>
        <time>2022-04-04T10:32:13.972Z</time>
      </trkpt>
      <trkpt lat="42.60568" lon="23.10551">
        <ele>786.924708</ele>
        <time>2022-04-04T10:32:15.892Z</time>
      </trkpt>
      <trkpt lat="42.60573" lon="23.10539">
        <ele>787.105443</ele>
        <time>2022-04-04T10:32:17.906Z</time>
      </trkpt>
      <trkpt lat="42.60577" lon="23.10528">
        <ele>787.276653</ele>
        <time>2022-04-04T10:32:19.906Z</time>
      </trkpt>
      <trkpt lat="42.60585" lon="23.10514">
        <ele>787.514346</ele>
        <time>2022-04-04T10:32:22.907Z</time>
      </trkpt>
      <trkpt lat="42.60591" lon="23.10504">
        <ele>787.69275</ele>
        <time>2022-04-04T10:32:24.883Z</time>
      </trkpt>
      <trkpt lat="42.60597" lon="23.10493">
        <ele>787.878752</ele>
        <time>2022-04-04T10:32:26.914Z</time>
      </trkpt>
      <trkpt lat="42.60602" lon="23.10483">
        <ele>788.047334</ele>
        <time>2022-04-04T10:32:28.905Z</time>
      </trkpt>
      <trkpt lat="42.60606" lon="23.10468">
        <ele>788.26289</ele>
        <time>2022-04-04T10:32:31.931Z</time>
      </trkpt>
      <trkpt lat="42.60614" lon="23.10453">
        <ele>788.515465</ele>
        <time>2022-04-04T10:32:34.888Z</time>
      </trkpt>
      <trkpt lat="42.6062" lon="23.10442">
        <ele>788.704909</ele>
        <time>2022-04-04T10:32:36.907Z</time>
      </trkpt>
      <trkpt lat="42.60626" lon="23.10431">
        <ele>788.882076</ele>
        <time>2022-04-04T10:32:38.918Z</time>
      </trkpt>
      <trkpt lat="42.60631" lon="23.10421">
        <ele>789.054258</ele>
        <time>2022-04-04T10:32:40.900Z</time>
      </trkpt>
      <trkpt lat="42.60636" lon="23.1041">
        <ele>789.233697</ele>
        <time>2022-04-04T10:32:42.965Z</time>
      </trkpt>
      <trkpt lat="42.60642" lon="23.10399">
        <ele>789.423046</ele>
        <time>2022-04-04T10:32:44.907Z</time>
      </trkpt>
      <trkpt lat="42.60649" lon="23.10387">
        <ele>789.634704</ele>
        <time>2022-04-04T10:32:46.909Z</time>
      </trkpt>
      <trkpt lat="42.60657" lon="23.10374">
        <ele>789.86376</ele>
        <time>2022-04-04T10:32:48.905Z</time>
      </trkpt>
      <trkpt lat="42.60664" lon="23.10361">
        <ele>790.074828</ele>
        <time>2022-04-04T10:32:50.904Z</time>
      </trkpt>
      <trkpt lat="42.60671" lon="23.10348">
        <ele>789.972699</ele>
        <time>2022-04-04T10:32:52.897Z</time>
      </trkpt>
      <trkpt lat="42.60677" lon="23.10337">
        <ele>789.882231</ele>
        <time>2022-04-04T10:32:54.905Z</time>
      </trkpt>
      <trkpt lat="42.60684" lon="23.10327">
        <ele>789.792109</ele>
        <time>2022-04-04T10:32:56.912Z</time>
      </trkpt>
      <trkpt lat="42.6069" lon="23.10317">
        <ele>789.709452</ele>
        <time>2022-04-04T10:32:58.907Z</time>
      </trkpt>
      <trkpt lat="42.60694" lon="23.10306">
        <ele>789.627875</ele>
        <time>2022-04-04T10:33:00.894Z</time>
      </trkpt>
      <trkpt lat="42.60697" lon="23.10289">
        <ele>789.512195</ele>
        <time>2022-04-04T10:33:03.909Z</time>
      </trkpt>
      <trkpt lat="42.60698" lon="23.10272">
        <ele>789.400828</ele>
        <time>2022-04-04T10:33:06.923Z</time>
      </trkpt>
      <trkpt lat="42.60699" lon="23.10256">
        <ele>789.296717</ele>
        <time>2022-04-04T10:33:09.898Z</time>
      </trkpt>
      <trkpt lat="42.607" lon="23.10239">
        <ele>789.184923</ele>
        <time>2022-04-04T10:33:12.889Z</time>
      </trkpt>
      <trkpt lat="42.60701" lon="23.10226">
        <ele>789.098103</ele>
        <time>2022-04-04T10:33:14.886Z</time>
      </trkpt>
      <trkpt lat="42.60701" lon="23.10213">
        <ele>789.008766</ele>
        <time>2022-04-04T10:33:16.896Z</time>
      </trkpt>
      <trkpt lat="42.60701" lon="23.10199">
        <ele>788.921181</ele>
        <time>2022-04-04T10:33:18.893Z</time>
      </trkpt>
      <trkpt lat="42.60702" lon="23.10186">
        <ele>788.836372</ele>
        <time>2022-04-04T10:33:20.989Z</time>
      </trkpt>
      <trkpt lat="42.60702" lon="23.10174">
        <ele>788.751407</ele>
        <time>2022-04-04T10:33:22.918Z</time>
      </trkpt>
      <trkpt lat="42.60703" lon="23.1016">
        <ele>788.663822</ele>
        <time>2022-04-04T10:33:24.915Z</time>
      </trkpt>
      <trkpt lat="42.60702" lon="23.10143">
        <ele>788.550902</ele>
        <time>2022-04-04T10:33:27.906Z</time>
      </trkpt>
      <trkpt lat="42.60702" lon="23.1013">
        <ele>788.507918</ele>
        <time>2022-04-04T10:33:29.893Z</time>
      </trkpt>
      <trkpt lat="42.60702" lon="23.10117">
        <ele>789.124406</ele>
        <time>2022-04-04T10:33:31.885Z</time>
      </trkpt>
      <trkpt lat="42.60704" lon="23.10101">
        <ele>789.850947</ele>
        <time>2022-04-04T10:33:33.908Z</time>
      </trkpt>
      <trkpt lat="42.60705" lon="23.10087">
        <ele>790.525924</ele>
        <time>2022-04-04T10:33:35.928Z</time>
      </trkpt>
      <trkpt lat="42.60707" lon="23.10073">
        <ele>791.151392</ele>
        <time>2022-04-04T10:33:37.878Z</time>
      </trkpt>
      <trkpt lat="42.60707" lon="23.1006">
        <ele>791.765291</ele>
        <time>2022-04-04T10:33:39.877Z</time>
      </trkpt>
      <trkpt lat="42.60708" lon="23.10047">
        <ele>792.355523</ele>
        <time>2022-04-04T10:33:41.940Z</time>
      </trkpt>
      <trkpt lat="42.60708" lon="23.10034">
        <ele>792.921885</ele>
        <time>2022-04-04T10:33:43.879Z</time>
      </trkpt>
      <trkpt lat="42.60709" lon="23.10016">
        <ele>793.749531</ele>
        <time>2022-04-04T10:33:46.890Z</time>
      </trkpt>
      <trkpt lat="42.60711" lon="23.10003">
        <ele>794.355901</ele>
        <time>2022-04-04T10:33:48.881Z</time>
      </trkpt>
      <trkpt lat="42.60711" lon="23.09991">
        <ele>794.922433</ele>
        <time>2022-04-04T10:33:50.891Z</time>
      </trkpt>
      <trkpt lat="42.60712" lon="23.09977">
        <ele>795.558637</ele>
        <time>2022-04-04T10:33:52.931Z</time>
      </trkpt>
      <trkpt lat="42.60712" lon="23.09963">
        <ele>796.186711</ele>
        <time>2022-04-04T10:33:54.897Z</time>
      </trkpt>
      <trkpt lat="42.60713" lon="23.0995">
        <ele>796.787501</ele>
        <time>2022-04-04T10:33:56.878Z</time>
      </trkpt>
      <trkpt lat="42.60714" lon="23.09937">
        <ele>797.387746</ele>
        <time>2022-04-04T10:33:58.893Z</time>
      </trkpt>
      <trkpt lat="42.60714" lon="23.09919">
        <ele>798.200647</ele>
        <time>2022-04-04T10:34:01.989Z</time>
      </trkpt>
      <trkpt lat="42.60716" lon="23.09902">
        <ele>798.989435</ele>
        <time>2022-04-04T10:34:04.899Z</time>
      </trkpt>
      <trkpt lat="42.60718" lon="23.09887">
        <ele>799.649603</ele>
        <time>2022-04-04T10:34:07.893Z</time>
      </trkpt>
      <trkpt lat="42.6072" lon="23.0987">
        <ele>799.868187</ele>
        <time>2022-04-04T10:34:10.879Z</time>
      </trkpt>
      <trkpt lat="42.60721" lon="23.09857">
        <ele>800.037708</ele>
        <time>2022-04-04T10:34:14.890Z</time>
      </trkpt>
      <trkpt lat="42.60721" lon="23.09844">
        <ele>800.208022</ele>
        <time>2022-04-04T10:34:20.910Z</time>
      </trkpt>
      <trkpt lat="42.60721" lon="23.09828">
        <ele>800.414827</ele>
        <time>2022-04-04T10:34:24.886Z</time>
      </trkpt>
      <trkpt lat="42.60723" lon="23.09813">
        <ele>800.613243</ele>
        <time>2022-04-04T10:34:27.899Z</time>
      </trkpt>
      <trkpt lat="42.60724" lon="23.09799">
        <ele>800.804925</ele>
        <time>2022-04-04T10:34:30.888Z</time>
      </trkpt>
      <trkpt lat="42.60725" lon="23.09784">
        <ele>801.001273</ele>
        <time>2022-04-04T10:34:33.888Z</time>
      </trkpt>
      <trkpt lat="42.60724" lon="23.09768">
        <ele>801.204267</ele>
        <time>2022-04-04T10:34:36.885Z</time>
      </trkpt>
      <trkpt lat="42.60724" lon="23.09755">
        <ele>801.366701</ele>
        <time>2022-04-04T10:34:38.889Z</time>
      </trkpt>
      <trkpt lat="42.60723" lon="23.09743">
        <ele>801.52559</ele>
        <time>2022-04-04T10:34:40.892Z</time>
      </trkpt>
      <trkpt lat="42.60723" lon="23.0973">
        <ele>801.698429</ele>
        <time>2022-04-04T10:34:42.880Z</time>
      </trkpt>
      <trkpt lat="42.60723" lon="23.09717">
        <ele>801.86737</ele>
        <time>2022-04-04T10:34:44.889Z</time>
      </trkpt>
      <trkpt lat="42.60723" lon="23.09705">
        <ele>802.025945</ele>
        <time>2022-04-04T10:34:46.886Z</time>
      </trkpt>
      <trkpt lat="42.60724" lon="23.09686">
        <ele>802.271647</ele>
        <time>2022-04-04T10:34:49.931Z</time>
      </trkpt>
      <trkpt lat="42.60724" lon="23.09672">
        <ele>802.451677</ele>
        <time>2022-04-04T10:34:51.890Z</time>
      </trkpt>
      <trkpt lat="42.60726" lon="23.09658">
        <ele>802.633757</ele>
        <time>2022-04-04T10:34:53.886Z</time>
      </trkpt>
      <trkpt lat="42.60726" lon="23.09644">
        <ele>802.749656</ele>
        <time>2022-04-04T10:34:55.881Z</time>
      </trkpt>
      <trkpt lat="42.60727" lon="23.09631">
        <ele>801.109919</ele>
        <time>2022-04-04T10:34:57.893Z</time>
      </trkpt>
      <trkpt lat="42.60728" lon="23.09618">
        <ele>799.466351</ele>
        <time>2022-04-04T10:34:59.884Z</time>
      </trkpt>
      <trkpt lat="42.60728" lon="23.09604">
        <ele>797.828918</ele>
        <time>2022-04-04T10:35:01.886Z</time>
      </trkpt>
      <trkpt lat="42.60729" lon="23.09588">
        <ele>795.759862</ele>
        <time>2022-04-04T10:35:04.885Z</time>
      </trkpt>
      <trkpt lat="42.60729" lon="23.09575">
        <ele>794.181535</ele>
        <time>2022-04-04T10:35:06.897Z</time>
      </trkpt>
      <trkpt lat="42.60731" lon="23.09561">
        <ele>792.490159</ele>
        <time>2022-04-04T10:35:08.899Z</time>
      </trkpt>
      <trkpt lat="42.60733" lon="23.09548">
        <ele>790.83503</ele>
        <time>2022-04-04T10:35:10.886Z</time>
      </trkpt>
      <trkpt lat="42.60735" lon="23.09535">
        <ele>789.23734</ele>
        <time>2022-04-04T10:35:12.880Z</time>
      </trkpt>
      <trkpt lat="42.60737" lon="23.09522">
        <ele>787.500411</ele>
        <time>2022-04-04T10:35:14.891Z</time>
      </trkpt>
      <trkpt lat="42.60739" lon="23.09508">
        <ele>785.845283</ele>
        <time>2022-04-04T10:35:16.906Z</time>
      </trkpt>
      <trkpt lat="42.60741" lon="23.09495">
        <ele>784.195439</ele>
        <time>2022-04-04T10:35:18.878Z</time>
      </trkpt>
      <trkpt lat="42.60744" lon="23.09482">
        <ele>782.49432</ele>
        <time>2022-04-04T10:35:20.903Z</time>
      </trkpt>
      <trkpt lat="42.60747" lon="23.0947">
        <ele>780.883006</ele>
        <time>2022-04-04T10:35:22.929Z</time>
      </trkpt>
      <trkpt lat="42.60752" lon="23.09458">
        <ele>779.141674</ele>
        <time>2022-04-04T10:35:24.892Z</time>
      </trkpt>
      <trkpt lat="42.60759" lon="23.09445">
        <ele>777.266313</ele>
        <time>2022-04-04T10:35:26.888Z</time>
      </trkpt>
      <trkpt lat="42.60765" lon="23.09433">
        <ele>775.511942</ele>
        <time>2022-04-04T10:35:28.891Z</time>
      </trkpt>
      <trkpt lat="42.60771" lon="23.09423">
        <ele>773.832976</ele>
        <time>2022-04-04T10:35:30.892Z</time>
      </trkpt>
      <trkpt lat="42.60777" lon="23.09413">
        <ele>772.575381</ele>
        <time>2022-04-04T10:35:32.887Z</time>
      </trkpt>
      <trkpt lat="42.60782" lon="23.09403">
        <ele>771.997283</ele>
        <time>2022-04-04T10:35:34.889Z</time>
      </trkpt>
      <trkpt lat="42.60789" lon="23.09394">
        <ele>771.41025</ele>
        <time>2022-04-04T10:35:36.888Z</time>
      </trkpt>
      <trkpt lat="42.60796" lon="23.09385">
        <ele>770.796031</ele>
        <time>2022-04-04T10:35:38.912Z</time>
      </trkpt>
      <trkpt lat="42.60807" lon="23.09378">
        <ele>769.961943</ele>
        <time>2022-04-04T10:35:41.895Z</time>
      </trkpt>
      <trkpt lat="42.60817" lon="23.09376">
        <ele>769.331028</ele>
        <time>2022-04-04T10:35:43.907Z</time>
      </trkpt>
      <trkpt lat="42.60826" lon="23.09376">
        <ele>768.744512</ele>
        <time>2022-04-04T10:35:45.899Z</time>
      </trkpt>
      <trkpt lat="42.6084" lon="23.09374">
        <ele>767.893115</ele>
        <time>2022-04-04T10:35:48.901Z</time>
      </trkpt>
      <trkpt lat="42.60852" lon="23.09375">
        <ele>767.127796</ele>
        <time>2022-04-04T10:35:51.898Z</time>
      </trkpt>
      <trkpt lat="42.60865" lon="23.09375">
        <ele>766.311523</ele>
        <time>2022-04-04T10:35:54.884Z</time>
      </trkpt>
      <trkpt lat="42.60877" lon="23.09377">
        <ele>765.486356</ele>
        <time>2022-04-04T10:35:57.909Z</time>
      </trkpt>
      <trkpt lat="42.60889" lon="23.09376">
        <ele>764.733586</ele>
        <time>2022-04-04T10:36:00.908Z</time>
      </trkpt>
      <trkpt lat="42.60902" lon="23.09376">
        <ele>763.904998</ele>
        <time>2022-04-04T10:36:03.880Z</time>
      </trkpt>
      <trkpt lat="42.60915" lon="23.09374">
        <ele>763.086571</ele>
        <time>2022-04-04T10:36:06.894Z</time>
      </trkpt>
      <trkpt lat="42.60929" lon="23.09367">
        <ele>762.15524</ele>
        <time>2022-04-04T10:36:09.948Z</time>
      </trkpt>
      <trkpt lat="42.60938" lon="23.09361">
        <ele>761.477907</ele>
        <time>2022-04-04T10:36:11.892Z</time>
      </trkpt>
      <trkpt lat="42.60949" lon="23.09355">
        <ele>761.262105</ele>
        <time>2022-04-04T10:36:14.892Z</time>
      </trkpt>
      <trkpt lat="42.60958" lon="23.09351">
        <ele>761.250082</ele>
        <time>2022-04-04T10:36:17.884Z</time>
      </trkpt>
      <trkpt lat="42.6097" lon="23.09348">
        <ele>761.235909</ele>
        <time>2022-04-04T10:36:20.924Z</time>
      </trkpt>
      <trkpt lat="42.60981" lon="23.09347">
        <ele>761.223149</ele>
        <time>2022-04-04T10:36:23.878Z</time>
      </trkpt>
      <trkpt lat="42.60991" lon="23.09342">
        <ele>761.210617</ele>
        <time>2022-04-04T10:36:26.885Z</time>
      </trkpt>
      <trkpt lat="42.60996" lon="23.09328">
        <ele>761.197967</ele>
        <time>2022-04-04T10:36:29.895Z</time>
      </trkpt>
      <trkpt lat="42.60998" lon="23.09312">
        <ele>761.183515</ele>
        <time>2022-04-04T10:36:32.939Z</time>
      </trkpt>
      <trkpt lat="42.61001" lon="23.09294">
        <ele>761.168103</ele>
        <time>2022-04-04T10:36:35.901Z</time>
      </trkpt>
      <trkpt lat="42.61004" lon="23.09283">
        <ele>761.157337</ele>
        <time>2022-04-04T10:36:37.932Z</time>
      </trkpt>
      <trkpt lat="42.61008" lon="23.09271">
        <ele>761.146506</ele>
        <time>2022-04-04T10:36:39.899Z</time>
      </trkpt>
      <trkpt lat="42.61012" lon="23.09259">
        <ele>761.135124</ele>
        <time>2022-04-04T10:36:41.878Z</time>
      </trkpt>
      <trkpt lat="42.61015" lon="23.09246">
        <ele>761.12378</ele>
        <time>2022-04-04T10:36:43.894Z</time>
      </trkpt>
      <trkpt lat="42.61018" lon="23.09233">
        <ele>761.112007</ele>
        <time>2022-04-04T10:36:45.897Z</time>
      </trkpt>
      <trkpt lat="42.61021" lon="23.09221">
        <ele>761.101011</ele>
        <time>2022-04-04T10:36:47.889Z</time>
      </trkpt>
      <trkpt lat="42.61024" lon="23.09205">
        <ele>761.086463</ele>
        <time>2022-04-04T10:36:50.895Z</time>
      </trkpt>
      <trkpt lat="42.61026" lon="23.09192">
        <ele>761.075447</ele>
        <time>2022-04-04T10:36:52.925Z</time>
      </trkpt>
      <trkpt lat="42.61028" lon="23.0918">
        <ele>761.064598</ele>
        <time>2022-04-04T10:36:54.913Z</time>
      </trkpt>
      <trkpt lat="42.61033" lon="23.09163">
        <ele>761.100055</ele>
        <time>2022-04-04T10:36:57.884Z</time>
      </trkpt>
      <trkpt lat="42.61037" lon="23.09148">
        <ele>761.143124</ele>
        <time>2022-04-04T10:37:00.901Z</time>
      </trkpt>
      <trkpt lat="42.61044" lon="23.09136">
        <ele>761.186312</ele>
        <time>2022-04-04T10:37:03.884Z</time>
      </trkpt>
      <trkpt lat="42.61055" lon="23.0913">
        <ele>761.229695</ele>
        <time>2022-04-04T10:37:06.879Z</time>
      </trkpt>
      <trkpt lat="42.61059" lon="23.09115">
        <ele>761.273136</ele>
        <time>2022-04-04T10:37:10.888Z</time>
      </trkpt>
      <trkpt lat="42.61059" lon="23.09101">
        <ele>761.310875</ele>
        <time>2022-04-04T10:37:16.020Z</time>
      </trkpt>
      <trkpt lat="42.61059" lon="23.09089">
        <ele>761.34454</ele>
        <time>2022-04-04T10:37:20.901Z</time>
      </trkpt>
      <trkpt lat="42.6106" lon="23.09074">
        <ele>761.385504</ele>
        <time>2022-04-04T10:37:24.891Z</time>
      </trkpt>
      <trkpt lat="42.61064" lon="23.09061">
        <ele>761.42172</ele>
        <time>2022-04-04T10:37:27.886Z</time>
      </trkpt>
      <trkpt lat="42.61066" lon="23.09048">
        <ele>761.459836</ele>
        <time>2022-04-04T10:37:30.869Z</time>
      </trkpt>
      <trkpt lat="42.61066" lon="23.09034">
        <ele>761.496487</ele>
        <time>2022-04-04T10:37:33.895Z</time>
      </trkpt>
      <trkpt lat="42.61066" lon="23.09021">
        <ele>761.531811</ele>
        <time>2022-04-04T10:37:36.895Z</time>
      </trkpt>
      <trkpt lat="42.61066" lon="23.09009">
        <ele>761.564935</ele>
        <time>2022-04-04T10:37:39.884Z</time>
      </trkpt>
      <trkpt lat="42.61066" lon="23.08996">
        <ele>761.600569</ele>
        <time>2022-04-04T10:37:43.919Z</time>
      </trkpt>
      <trkpt lat="42.61066" lon="23.08976">
        <ele>761.655743</ele>
        <time>2022-04-04T10:38:14.932Z</time>
      </trkpt>
      <trkpt lat="42.61065" lon="23.08962">
        <ele>761.693896</ele>
        <time>2022-04-04T10:38:18.895Z</time>
      </trkpt>
      <trkpt lat="42.61065" lon="23.08948">
        <ele>761.733274</ele>
        <time>2022-04-04T10:38:22.896Z</time>
      </trkpt>
      <trkpt lat="42.61065" lon="23.08934">
        <ele>761.782436</ele>
        <time>2022-04-04T10:38:25.887Z</time>
      </trkpt>
      <trkpt lat="42.61067" lon="23.0892">
        <ele>761.834893</ele>
        <time>2022-04-04T10:38:28.884Z</time>
      </trkpt>
      <trkpt lat="42.61067" lon="23.08903">
        <ele>761.896511</ele>
        <time>2022-04-04T10:38:32.889Z</time>
      </trkpt>
      <trkpt lat="42.61068" lon="23.08888">
        <ele>761.955055</ele>
        <time>2022-04-04T10:38:35.884Z</time>
      </trkpt>
      <trkpt lat="42.6107" lon="23.08871">
        <ele>762.015191</ele>
        <time>2022-04-04T10:38:38.906Z</time>
      </trkpt>
      <trkpt lat="42.6107" lon="23.08853">
        <ele>762.082276</ele>
        <time>2022-04-04T10:38:41.883Z</time>
      </trkpt>
      <trkpt lat="42.61069" lon="23.08834">
        <ele>762.150943</ele>
        <time>2022-04-04T10:38:44.881Z</time>
      </trkpt>
      <trkpt lat="42.61067" lon="23.0882">
        <ele>762.204933</ele>
        <time>2022-04-04T10:38:46.894Z</time>
      </trkpt>
      <trkpt lat="42.61067" lon="23.08806">
        <ele>762.255679</ele>
        <time>2022-04-04T10:38:48.932Z</time>
      </trkpt>
      <trkpt lat="42.61066" lon="23.08793">
        <ele>762.305178</ele>
        <time>2022-04-04T10:38:50.888Z</time>
      </trkpt>
      <trkpt lat="42.61067" lon="23.08779">
        <ele>762.355055</ele>
        <time>2022-04-04T10:38:52.892Z</time>
      </trkpt>
      <trkpt lat="42.61068" lon="23.08766">
        <ele>762.404118</ele>
        <time>2022-04-04T10:38:54.873Z</time>
      </trkpt>
      <trkpt lat="42.6107" lon="23.08752">
        <ele>762.45541</ele>
        <time>2022-04-04T10:38:56.890Z</time>
      </trkpt>
      <trkpt lat="42.61071" lon="23.08738">
        <ele>762.505025</ele>
        <time>2022-04-04T10:38:58.900Z</time>
      </trkpt>
      <trkpt lat="42.61071" lon="23.08721">
        <ele>762.568828</ele>
        <time>2022-04-04T10:39:01.887Z</time>
      </trkpt>
      <trkpt lat="42.6107" lon="23.08705">
        <ele>762.64354</ele>
        <time>2022-04-04T10:39:04.879Z</time>
      </trkpt>
      <trkpt lat="42.61072" lon="23.0869">
        <ele>762.787152</ele>
        <time>2022-04-04T10:39:07.899Z</time>
      </trkpt>
      <trkpt lat="42.61073" lon="23.08677">
        <ele>762.914408</ele>
        <time>2022-04-04T10:39:11.886Z</time>
      </trkpt>
      <trkpt lat="42.61072" lon="23.08663">
        <ele>763.048985</ele>
        <time>2022-04-04T10:39:25.894Z</time>
      </trkpt>
      <trkpt lat="42.61074" lon="23.08649">
        <ele>763.19373</ele>
        <time>2022-04-04T10:39:31.882Z</time>
      </trkpt>
      <trkpt lat="42.61074" lon="23.08633">
        <ele>763.349979</ele>
        <time>2022-04-04T10:39:35.901Z</time>
      </trkpt>
      <trkpt lat="42.61074" lon="23.0862">
        <ele>763.478989</ele>
        <time>2022-04-04T10:39:38.889Z</time>
      </trkpt>
      <trkpt lat="42.61075" lon="23.08606">
        <ele>763.611146</ele>
        <time>2022-04-04T10:39:41.890Z</time>
      </trkpt>
      <trkpt lat="42.61076" lon="23.08591">
        <ele>763.758349</ele>
        <time>2022-04-04T10:39:44.926Z</time>
      </trkpt>
      <trkpt lat="42.61076" lon="23.08577">
        <ele>763.894319</ele>
        <time>2022-04-04T10:39:47.892Z</time>
      </trkpt>
      <trkpt lat="42.61076" lon="23.08561">
        <ele>764.053497</ele>
        <time>2022-04-04T10:39:50.943Z</time>
      </trkpt>
      <trkpt lat="42.61076" lon="23.08546">
        <ele>764.201934</ele>
        <time>2022-04-04T10:39:53.885Z</time>
      </trkpt>
      <trkpt lat="42.61077" lon="23.0853">
        <ele>764.354738</ele>
        <time>2022-04-04T10:39:56.916Z</time>
      </trkpt>
      <trkpt lat="42.61078" lon="23.08512">
        <ele>764.527628</ele>
        <time>2022-04-04T10:39:59.886Z</time>
      </trkpt>
      <trkpt lat="42.61078" lon="23.08495">
        <ele>764.693975</ele>
        <time>2022-04-04T10:40:02.926Z</time>
      </trkpt>
      <trkpt lat="42.61079" lon="23.08478">
        <ele>764.867434</ele>
        <time>2022-04-04T10:40:05.907Z</time>
      </trkpt>
      <trkpt lat="42.6108" lon="23.08465">
        <ele>764.987663</ele>
        <time>2022-04-04T10:40:07.891Z</time>
      </trkpt>
      <trkpt lat="42.6108" lon="23.08453">
        <ele>764.944207</ele>
        <time>2022-04-04T10:40:09.887Z</time>
      </trkpt>
      <trkpt lat="42.61081" lon="23.0844">
        <ele>764.870167</ele>
        <time>2022-04-04T10:40:11.876Z</time>
      </trkpt>
      <trkpt lat="42.61081" lon="23.08424">
        <ele>764.773561</ele>
        <time>2022-04-04T10:40:14.908Z</time>
      </trkpt>
      <trkpt lat="42.61082" lon="23.08408">
        <ele>764.678409</ele>
        <time>2022-04-04T10:40:17.890Z</time>
      </trkpt>
      <trkpt lat="42.61082" lon="23.08389">
        <ele>764.565801</ele>
        <time>2022-04-04T10:40:20.894Z</time>
      </trkpt>
      <trkpt lat="42.61082" lon="23.08377">
        <ele>764.489978</ele>
        <time>2022-04-04T10:40:22.874Z</time>
      </trkpt>
      <trkpt lat="42.61081" lon="23.08358">
        <ele>764.381492</ele>
        <time>2022-04-04T10:40:25.874Z</time>
      </trkpt>
      <trkpt lat="42.61082" lon="23.08341">
        <ele>764.280152</ele>
        <time>2022-04-04T10:40:28.898Z</time>
      </trkpt>
      <trkpt lat="42.61082" lon="23.08329">
        <ele>764.205659</ele>
        <time>2022-04-04T10:40:30.886Z</time>
      </trkpt>
      <trkpt lat="42.61082" lon="23.08316">
        <ele>764.128199</ele>
        <time>2022-04-04T10:40:32.898Z</time>
      </trkpt>
      <trkpt lat="42.61082" lon="23.08303">
        <ele>764.052531</ele>
        <time>2022-04-04T10:40:34.909Z</time>
      </trkpt>
      <trkpt lat="42.61082" lon="23.08285">
        <ele>763.946465</ele>
        <time>2022-04-04T10:40:37.926Z</time>
      </trkpt>
      <trkpt lat="42.61081" lon="23.08271">
        <ele>763.858192</ele>
        <time>2022-04-04T10:40:39.906Z</time>
      </trkpt>
      <trkpt lat="42.61081" lon="23.08256">
        <ele>763.769413</ele>
        <time>2022-04-04T10:40:41.891Z</time>
      </trkpt>
      <trkpt lat="42.61082" lon="23.08241">
        <ele>763.68197</ele>
        <time>2022-04-04T10:40:43.921Z</time>
      </trkpt>
      <trkpt lat="42.61084" lon="23.08228">
        <ele>763.600624</ele>
        <time>2022-04-04T10:40:45.886Z</time>
      </trkpt>
      <trkpt lat="42.61085" lon="23.08215">
        <ele>763.511708</ele>
        <time>2022-04-04T10:40:47.902Z</time>
      </trkpt>
      <trkpt lat="42.61085" lon="23.082">
        <ele>763.36924</ele>
        <time>2022-04-04T10:40:50.869Z</time>
      </trkpt>
      <trkpt lat="42.61084" lon="23.08185">
        <ele>763.22361</ele>
        <time>2022-04-04T10:40:53.898Z</time>
      </trkpt>
      <trkpt lat="42.61085" lon="23.08168">
        <ele>763.067279</ele>
        <time>2022-04-04T10:40:56.893Z</time>
      </trkpt>
      <trkpt lat="42.61086" lon="23.08155">
        <ele>762.946367</ele>
        <time>2022-04-04T10:40:58.868Z</time>
      </trkpt>
      <trkpt lat="42.61086" lon="23.08141">
        <ele>762.813181</ele>
        <time>2022-04-04T10:41:00.895Z</time>
      </trkpt>
      <trkpt lat="42.61086" lon="23.08128">
        <ele>762.692109</ele>
        <time>2022-04-04T10:41:02.906Z</time>
      </trkpt>
      <trkpt lat="42.61087" lon="23.08115">
        <ele>762.566415</ele>
        <time>2022-04-04T10:41:04.891Z</time>
      </trkpt>
      <trkpt lat="42.61087" lon="23.08101">
        <ele>762.435101</ele>
        <time>2022-04-04T10:41:06.881Z</time>
      </trkpt>
      <trkpt lat="42.61087" lon="23.08086">
        <ele>762.301988</ele>
        <time>2022-04-04T10:41:08.893Z</time>
      </trkpt>
      <trkpt lat="42.61088" lon="23.08069">
        <ele>762.13795</ele>
        <time>2022-04-04T10:41:11.877Z</time>
      </trkpt>
      <trkpt lat="42.61087" lon="23.08052">
        <ele>761.983284</ele>
        <time>2022-04-04T10:41:14.896Z</time>
      </trkpt>
      <trkpt lat="42.61088" lon="23.08039">
        <ele>761.861951</ele>
        <time>2022-04-04T10:41:16.933Z</time>
      </trkpt>
      <trkpt lat="42.61089" lon="23.08026">
        <ele>761.73807</ele>
        <time>2022-04-04T10:41:18.884Z</time>
      </trkpt>
      <trkpt lat="42.61089" lon="23.08013">
        <ele>761.615989</ele>
        <time>2022-04-04T10:41:20.891Z</time>
      </trkpt>
      <trkpt lat="42.6109" lon="23.08">
        <ele>761.494542</ele>
        <time>2022-04-04T10:41:22.893Z</time>
      </trkpt>
      <trkpt lat="42.6109" lon="23.07983">
        <ele>761.332394</ele>
        <time>2022-04-04T10:41:25.890Z</time>
      </trkpt>
      <trkpt lat="42.6109" lon="23.07968">
        <ele>760.966681</ele>
        <time>2022-04-04T10:41:28.903Z</time>
      </trkpt>
      <trkpt lat="42.6109" lon="23.07951">
        <ele>760.309752</ele>
        <time>2022-04-04T10:41:31.892Z</time>
      </trkpt>
      <trkpt lat="42.6109" lon="23.07938">
        <ele>759.788699</ele>
        <time>2022-04-04T10:41:33.927Z</time>
      </trkpt>
      <trkpt lat="42.6109" lon="23.07925">
        <ele>759.282993</ele>
        <time>2022-04-04T10:41:35.898Z</time>
      </trkpt>
      <trkpt lat="42.61091" lon="23.07911">
        <ele>758.761753</ele>
        <time>2022-04-04T10:41:37.896Z</time>
      </trkpt>
      <trkpt lat="42.61092" lon="23.07898">
        <ele>758.245437</ele>
        <time>2022-04-04T10:41:39.928Z</time>
      </trkpt>
      <trkpt lat="42.61093" lon="23.07884">
        <ele>757.696305</ele>
        <time>2022-04-04T10:41:41.898Z</time>
      </trkpt>
      <trkpt lat="42.61094" lon="23.0787">
        <ele>757.166035</ele>
        <time>2022-04-04T10:41:43.898Z</time>
      </trkpt>
      <trkpt lat="42.61094" lon="23.07857">
        <ele>756.648679</ele>
        <time>2022-04-04T10:41:45.918Z</time>
      </trkpt>
      <trkpt lat="42.61095" lon="23.07844">
        <ele>756.15482</ele>
        <time>2022-04-04T10:41:47.883Z</time>
      </trkpt>
      <trkpt lat="42.61096" lon="23.07832">
        <ele>755.678273</ele>
        <time>2022-04-04T10:41:49.891Z</time>
      </trkpt>
      <trkpt lat="42.61096" lon="23.07815">
        <ele>755.001666</ele>
        <time>2022-04-04T10:41:52.885Z</time>
      </trkpt>
      <trkpt lat="42.61098" lon="23.07801">
        <ele>754.440349</ele>
        <time>2022-04-04T10:41:56.934Z</time>
      </trkpt>
      <trkpt lat="42.61099" lon="23.07789">
        <ele>753.967109</ele>
        <time>2022-04-04T10:41:59.898Z</time>
      </trkpt>
      <trkpt lat="42.61099" lon="23.07771">
        <ele>753.293703</ele>
        <time>2022-04-04T10:42:02.908Z</time>
      </trkpt>
      <trkpt lat="42.61099" lon="23.07754">
        <ele>752.609633</ele>
        <time>2022-04-04T10:42:05.872Z</time>
      </trkpt>
      <trkpt lat="42.61099" lon="23.07741">
        <ele>752.119915</ele>
        <time>2022-04-04T10:42:07.888Z</time>
      </trkpt>
      <trkpt lat="42.61098" lon="23.07728">
        <ele>751.74479</ele>
        <time>2022-04-04T10:42:09.891Z</time>
      </trkpt>
      <trkpt lat="42.61098" lon="23.07715">
        <ele>751.681024</ele>
        <time>2022-04-04T10:42:11.885Z</time>
      </trkpt>
      <trkpt lat="42.61098" lon="23.07702">
        <ele>751.615253</ele>
        <time>2022-04-04T10:42:13.949Z</time>
      </trkpt>
      <trkpt lat="42.61098" lon="23.07689">
        <ele>751.548083</ele>
        <time>2022-04-04T10:42:15.890Z</time>
      </trkpt>
      <trkpt lat="42.61098" lon="23.07675">
        <ele>751.479352</ele>
        <time>2022-04-04T10:42:17.896Z</time>
      </trkpt>
      <trkpt lat="42.61099" lon="23.07661">
        <ele>751.410158</ele>
        <time>2022-04-04T10:42:19.883Z</time>
      </trkpt>
      <trkpt lat="42.61099" lon="23.07648">
        <ele>751.345429</ele>
        <time>2022-04-04T10:42:21.895Z</time>
      </trkpt>
      <trkpt lat="42.61098" lon="23.07635">
        <ele>751.284236</ele>
        <time>2022-04-04T10:42:23.889Z</time>
      </trkpt>
      <trkpt lat="42.61098" lon="23.07619">
        <ele>751.203196</ele>
        <time>2022-04-04T10:42:26.867Z</time>
      </trkpt>
      <trkpt lat="42.61098" lon="23.07604">
        <ele>751.129581</ele>
        <time>2022-04-04T10:42:29.907Z</time>
      </trkpt>
      <trkpt lat="42.61098" lon="23.07588">
        <ele>751.050065</ele>
        <time>2022-04-04T10:42:32.901Z</time>
      </trkpt>
      <trkpt lat="42.61098" lon="23.07572">
        <ele>750.969563</ele>
        <time>2022-04-04T10:42:35.895Z</time>
      </trkpt>
      <trkpt lat="42.61097" lon="23.07555">
        <ele>750.889948</ele>
        <time>2022-04-04T10:42:38.885Z</time>
      </trkpt>
      <trkpt lat="42.61096" lon="23.07539">
        <ele>750.80939</ele>
        <time>2022-04-04T10:42:41.917Z</time>
      </trkpt>
      <trkpt lat="42.61093" lon="23.07522">
        <ele>750.723532</ele>
        <time>2022-04-04T10:42:44.890Z</time>
      </trkpt>
      <trkpt lat="42.6109" lon="23.07508">
        <ele>750.651703</ele>
        <time>2022-04-04T10:42:47.947Z</time>
      </trkpt>
      <trkpt lat="42.61086" lon="23.07494">
        <ele>750.576386</ele>
        <time>2022-04-04T10:42:52.873Z</time>
      </trkpt>
      <trkpt lat="42.61083" lon="23.07482">
        <ele>750.609077</ele>
        <time>2022-04-04T10:42:56.890Z</time>
      </trkpt>
      <trkpt lat="42.61081" lon="23.07469">
        <ele>750.698558</ele>
        <time>2022-04-04T10:43:02.878Z</time>
      </trkpt>
      <trkpt lat="42.61078" lon="23.07455">
        <ele>750.79541</ele>
        <time>2022-04-04T10:43:06.921Z</time>
      </trkpt>
      <trkpt lat="42.61076" lon="23.07441">
        <ele>750.889969</ele>
        <time>2022-04-04T10:43:09.884Z</time>
      </trkpt>
      <trkpt lat="42.61073" lon="23.07427">
        <ele>750.984588</ele>
        <time>2022-04-04T10:43:12.879Z</time>
      </trkpt>
      <trkpt lat="42.61068" lon="23.07414">
        <ele>751.083975</ele>
        <time>2022-04-04T10:43:15.893Z</time>
      </trkpt>
      <trkpt lat="42.61062" lon="23.07399">
        <ele>751.19628</ele>
        <time>2022-04-04T10:43:18.907Z</time>
      </trkpt>
      <trkpt lat="42.61055" lon="23.07385">
        <ele>751.309924</ele>
        <time>2022-04-04T10:43:21.873Z</time>
      </trkpt>
      <trkpt lat="42.61049" lon="23.0737">
        <ele>751.428294</ele>
        <time>2022-04-04T10:43:24.893Z</time>
      </trkpt>
      <trkpt lat="42.61042" lon="23.07354">
        <ele>751.544889</ele>
        <time>2022-04-04T10:43:27.902Z</time>
      </trkpt>
      <trkpt lat="42.61036" lon="23.0734">
        <ele>751.654101</ele>
        <time>2022-04-04T10:43:30.872Z</time>
      </trkpt>
      <trkpt lat="42.6103" lon="23.07325">
        <ele>751.771897</ele>
        <time>2022-04-04T10:43:33.894Z</time>
      </trkpt>
      <trkpt lat="42.61023" lon="23.0731">
        <ele>751.887639</ele>
        <time>2022-04-04T10:43:36.890Z</time>
      </trkpt>
      <trkpt lat="42.61017" lon="23.07294">
        <ele>752.001783</ele>
        <time>2022-04-04T10:43:39.889Z</time>
      </trkpt>
      <trkpt lat="42.61011" lon="23.07278">
        <ele>752.12567</ele>
        <time>2022-04-04T10:43:42.886Z</time>
      </trkpt>
      <trkpt lat="42.61006" lon="23.07267">
        <ele>752.092513</ele>
        <time>2022-04-04T10:43:44.905Z</time>
      </trkpt>
      <trkpt lat="42.61002" lon="23.07256">
        <ele>751.868399</ele>
        <time>2022-04-04T10:43:46.911Z</time>
      </trkpt>
      <trkpt lat="42.60996" lon="23.07241">
        <ele>751.547986</ele>
        <time>2022-04-04T10:43:49.870Z</time>
      </trkpt>
      <trkpt lat="42.60991" lon="23.0723">
        <ele>751.31777</ele>
        <time>2022-04-04T10:43:51.879Z</time>
      </trkpt>
      <trkpt lat="42.60987" lon="23.07219">
        <ele>751.092867</ele>
        <time>2022-04-04T10:43:53.895Z</time>
      </trkpt>
      <trkpt lat="42.6098" lon="23.07204">
        <ele>750.770938</ele>
        <time>2022-04-04T10:43:56.893Z</time>
      </trkpt>
      <trkpt lat="42.60974" lon="23.07188">
        <ele>750.453697</ele>
        <time>2022-04-04T10:43:59.875Z</time>
      </trkpt>
      <trkpt lat="42.60969" lon="23.07177">
        <ele>750.215731</ele>
        <time>2022-04-04T10:44:01.889Z</time>
      </trkpt>
      <trkpt lat="42.60963" lon="23.07166">
        <ele>749.961922</ele>
        <time>2022-04-04T10:44:03.882Z</time>
      </trkpt>
      <trkpt lat="42.60958" lon="23.07154">
        <ele>749.720862</ele>
        <time>2022-04-04T10:44:05.947Z</time>
      </trkpt>
      <trkpt lat="42.60953" lon="23.07143">
        <ele>749.472787</ele>
        <time>2022-04-04T10:44:07.879Z</time>
      </trkpt>
      <trkpt lat="42.60948" lon="23.07131">
        <ele>749.227601</ele>
        <time>2022-04-04T10:44:09.897Z</time>
      </trkpt>
      <trkpt lat="42.60944" lon="23.07119">
        <ele>748.99464</ele>
        <time>2022-04-04T10:44:11.908Z</time>
      </trkpt>
      <trkpt lat="42.6094" lon="23.07108">
        <ele>748.764371</ele>
        <time>2022-04-04T10:44:13.875Z</time>
      </trkpt>
      <trkpt lat="42.60936" lon="23.07096">
        <ele>748.532529</ele>
        <time>2022-04-04T10:44:15.905Z</time>
      </trkpt>
      <trkpt lat="42.60931" lon="23.07086">
        <ele>748.306832</ele>
        <time>2022-04-04T10:44:17.889Z</time>
      </trkpt>
      <trkpt lat="42.60927" lon="23.07074">
        <ele>748.074778</ele>
        <time>2022-04-04T10:44:19.879Z</time>
      </trkpt>
      <trkpt lat="42.60922" lon="23.07064">
        <ele>747.847496</ele>
        <time>2022-04-04T10:44:21.882Z</time>
      </trkpt>
      <trkpt lat="42.60918" lon="23.07053">
        <ele>747.69551</ele>
        <time>2022-04-04T10:44:23.893Z</time>
      </trkpt>
      <trkpt lat="42.60913" lon="23.07042">
        <ele>747.621212</ele>
        <time>2022-04-04T10:44:25.868Z</time>
      </trkpt>
      <trkpt lat="42.60908" lon="23.07031">
        <ele>747.544988</ele>
        <time>2022-04-04T10:44:27.897Z</time>
      </trkpt>
      <trkpt lat="42.60903" lon="23.0702">
        <ele>747.472533</ele>
        <time>2022-04-04T10:44:29.896Z</time>
      </trkpt>
      <trkpt lat="42.60898" lon="23.0701">
        <ele>747.399364</ele>
        <time>2022-04-04T10:44:31.871Z</time>
      </trkpt>
      <trkpt lat="42.60894" lon="23.06999">
        <ele>747.326708</ele>
        <time>2022-04-04T10:44:33.891Z</time>
      </trkpt>
      <trkpt lat="42.60888" lon="23.06983">
        <ele>747.220245</ele>
        <time>2022-04-04T10:44:36.886Z</time>
      </trkpt>
      <trkpt lat="42.60883" lon="23.06972">
        <ele>747.147185</ele>
        <time>2022-04-04T10:44:38.932Z</time>
      </trkpt>
      <trkpt lat="42.60879" lon="23.06961">
        <ele>747.072196</ele>
        <time>2022-04-04T10:44:40.881Z</time>
      </trkpt>
      <trkpt lat="42.60873" lon="23.06946">
        <ele>746.968188</ele>
        <time>2022-04-04T10:44:43.880Z</time>
      </trkpt>
      <trkpt lat="42.60868" lon="23.06935">
        <ele>746.894505</ele>
        <time>2022-04-04T10:44:45.886Z</time>
      </trkpt>
      <trkpt lat="42.60863" lon="23.06924">
        <ele>746.819516</ele>
        <time>2022-04-04T10:44:47.888Z</time>
      </trkpt>
      <trkpt lat="42.60859" lon="23.06912">
        <ele>746.744145</ele>
        <time>2022-04-04T10:44:49.871Z</time>
      </trkpt>
      <trkpt lat="42.60854" lon="23.06901">
        <ele>746.669948</ele>
        <time>2022-04-04T10:44:51.894Z</time>
      </trkpt>
      <trkpt lat="42.60851" lon="23.0689">
        <ele>746.596164</ele>
        <time>2022-04-04T10:44:53.895Z</time>
      </trkpt>
      <trkpt lat="42.60847" lon="23.06878">
        <ele>746.52119</ele>
        <time>2022-04-04T10:44:55.877Z</time>
      </trkpt>
      <trkpt lat="42.60843" lon="23.06867">
        <ele>746.446199</ele>
        <time>2022-04-04T10:44:57.890Z</time>
      </trkpt>
      <trkpt lat="42.60839" lon="23.0685">
        <ele>746.342175</ele>
        <time>2022-04-04T10:45:00.911Z</time>
      </trkpt>
      <trkpt lat="42.60835" lon="23.06834">
        <ele>746.382788</ele>
        <time>2022-04-04T10:45:03.886Z</time>
      </trkpt>
      <trkpt lat="42.60832" lon="23.06819">
        <ele>746.553594</ele>
        <time>2022-04-04T10:45:06.880Z</time>
      </trkpt>
      <trkpt lat="42.60827" lon="23.06802">
        <ele>746.744149</ele>
        <time>2022-04-04T10:45:09.889Z</time>
      </trkpt>
      <trkpt lat="42.60823" lon="23.06786">
        <ele>746.93119</ele>
        <time>2022-04-04T10:45:12.903Z</time>
      </trkpt>
      <trkpt lat="42.60821" lon="23.06769">
        <ele>747.116915</ele>
        <time>2022-04-04T10:45:15.894Z</time>
      </trkpt>
      <trkpt lat="42.60819" lon="23.0675">
        <ele>747.314909</ele>
        <time>2022-04-04T10:45:18.894Z</time>
      </trkpt>
      <trkpt lat="42.60817" lon="23.06738">
        <ele>747.453766</ele>
        <time>2022-04-04T10:45:20.895Z</time>
      </trkpt>
      <trkpt lat="42.60816" lon="23.06724">
        <ele>747.595379</ele>
        <time>2022-04-04T10:45:22.909Z</time>
      </trkpt>
      <trkpt lat="42.60814" lon="23.06709">
        <ele>747.767305</ele>
        <time>2022-04-04T10:45:25.886Z</time>
      </trkpt>
      <trkpt lat="42.60813" lon="23.06692">
        <ele>747.946807</ele>
        <time>2022-04-04T10:45:28.871Z</time>
      </trkpt>
      <trkpt lat="42.60813" lon="23.06675">
        <ele>748.130096</ele>
        <time>2022-04-04T10:45:31.875Z</time>
      </trkpt>
      <trkpt lat="42.60812" lon="23.06659">
        <ele>748.299591</ele>
        <time>2022-04-04T10:45:34.876Z</time>
      </trkpt>
      <trkpt lat="42.60812" lon="23.06642">
        <ele>748.476384</ele>
        <time>2022-04-04T10:45:37.894Z</time>
      </trkpt>
      <trkpt lat="42.60813" lon="23.0663">
        <ele>748.613891</ele>
        <time>2022-04-04T10:45:39.891Z</time>
      </trkpt>
      <trkpt lat="42.60814" lon="23.06617">
        <ele>748.745793</ele>
        <time>2022-04-04T10:45:41.896Z</time>
      </trkpt>
      <trkpt lat="42.60814" lon="23.06602">
        <ele>748.916308</ele>
        <time>2022-04-04T10:45:44.923Z</time>
      </trkpt>
      <trkpt lat="42.60815" lon="23.06589">
        <ele>749.081533</ele>
        <time>2022-04-04T10:45:47.899Z</time>
      </trkpt>
      <trkpt lat="42.60816" lon="23.06574">
        <ele>749.287912</ele>
        <time>2022-04-04T10:45:51.910Z</time>
      </trkpt>
      <trkpt lat="42.60817" lon="23.06558">
        <ele>749.505977</ele>
        <time>2022-04-04T10:45:55.887Z</time>
      </trkpt>
      <trkpt lat="42.60816" lon="23.06545">
        <ele>749.687142</ele>
        <time>2022-04-04T10:45:58.887Z</time>
      </trkpt>
      <trkpt lat="42.60816" lon="23.06532">
        <ele>749.858369</ele>
        <time>2022-04-04T10:46:01.927Z</time>
      </trkpt>
      <trkpt lat="42.60815" lon="23.06516">
        <ele>750.072661</ele>
        <time>2022-04-04T10:46:04.874Z</time>
      </trkpt>
      <trkpt lat="42.60816" lon="23.06499">
        <ele>750.301927</ele>
        <time>2022-04-04T10:46:07.897Z</time>
      </trkpt>
      <trkpt lat="42.60818" lon="23.06482">
        <ele>750.530203</ele>
        <time>2022-04-04T10:46:10.899Z</time>
      </trkpt>
      <trkpt lat="42.60818" lon="23.0647">
        <ele>750.697459</ele>
        <time>2022-04-04T10:46:12.926Z</time>
      </trkpt>
      <trkpt lat="42.60819" lon="23.06453">
        <ele>750.924321</ele>
        <time>2022-04-04T10:46:15.898Z</time>
      </trkpt>
      <trkpt lat="42.60819" lon="23.06435">
        <ele>751.164527</ele>
        <time>2022-04-04T10:46:18.884Z</time>
      </trkpt>
      <trkpt lat="42.6082" lon="23.06423">
        <ele>751.334328</ele>
        <time>2022-04-04T10:46:20.889Z</time>
      </trkpt>
      <trkpt lat="42.6082" lon="23.0641">
        <ele>751.504474</ele>
        <time>2022-04-04T10:46:22.892Z</time>
      </trkpt>
      <trkpt lat="42.60821" lon="23.06397">
        <ele>751.673077</ele>
        <time>2022-04-04T10:46:24.883Z</time>
      </trkpt>
      <trkpt lat="42.60821" lon="23.06384">
        <ele>751.850213</ele>
        <time>2022-04-04T10:46:26.891Z</time>
      </trkpt>
      <trkpt lat="42.60822" lon="23.06371">
        <ele>752.024287</ele>
        <time>2022-04-04T10:46:28.885Z</time>
      </trkpt>
      <trkpt lat="42.60822" lon="23.06359">
        <ele>752.19289</ele>
        <time>2022-04-04T10:46:30.906Z</time>
      </trkpt>
      <trkpt lat="42.60822" lon="23.06346">
        <ele>752.068675</ele>
        <time>2022-04-04T10:46:32.879Z</time>
      </trkpt>
      <trkpt lat="42.60823" lon="23.06328">
        <ele>751.868357</ele>
        <time>2022-04-04T10:46:35.880Z</time>
      </trkpt>
      <trkpt lat="42.60824" lon="23.0631">
        <ele>751.663297</ele>
        <time>2022-04-04T10:46:38.906Z</time>
      </trkpt>
      <trkpt lat="42.60824" lon="23.06296">
        <ele>751.508814</ele>
        <time>2022-04-04T10:46:40.916Z</time>
      </trkpt>
      <trkpt lat="42.60824" lon="23.06283">
        <ele>751.361154</ele>
        <time>2022-04-04T10:46:42.879Z</time>
      </trkpt>
      <trkpt lat="42.60824" lon="23.0627">
        <ele>751.221258</ele>
        <time>2022-04-04T10:46:44.881Z</time>
      </trkpt>
      <trkpt lat="42.60824" lon="23.06253">
        <ele>751.023264</ele>
        <time>2022-04-04T10:46:47.893Z</time>
      </trkpt>
      <trkpt lat="42.60824" lon="23.06234">
        <ele>750.81512</ele>
        <time>2022-04-04T10:46:50.899Z</time>
      </trkpt>
      <trkpt lat="42.60825" lon="23.0622">
        <ele>750.662508</ele>
        <time>2022-04-04T10:46:52.890Z</time>
      </trkpt>
      <trkpt lat="42.60825" lon="23.06207">
        <ele>750.51001</ele>
        <time>2022-04-04T10:46:54.871Z</time>
      </trkpt>
      <trkpt lat="42.60825" lon="23.06189">
        <ele>750.313135</ele>
        <time>2022-04-04T10:46:57.879Z</time>
      </trkpt>
      <trkpt lat="42.60824" lon="23.06172">
        <ele>750.120991</ele>
        <time>2022-04-04T10:47:00.895Z</time>
      </trkpt>
      <trkpt lat="42.60823" lon="23.06156">
        <ele>749.938537</ele>
        <time>2022-04-04T10:47:03.884Z</time>
      </trkpt>
      <trkpt lat="42.60821" lon="23.06139">
        <ele>749.74288</ele>
        <time>2022-04-04T10:47:06.883Z</time>
      </trkpt>
      <trkpt lat="42.60821" lon="23.06121">
        <ele>749.548224</ele>
        <time>2022-04-04T10:47:09.875Z</time>
      </trkpt>
      <trkpt lat="42.60822" lon="23.06108">
        <ele>749.512401</ele>
        <time>2022-04-04T10:47:12.892Z</time>
      </trkpt>
      <trkpt lat="42.60821" lon="23.06096">
        <ele>749.598756</ele>
        <time>2022-04-04T10:47:16.891Z</time>
      </trkpt>
      <trkpt lat="42.6082" lon="23.06084">
        <ele>749.683724</ele>
        <time>2022-04-04T10:47:19.886Z</time>
      </trkpt>
      <trkpt lat="42.60818" lon="23.06069">
        <ele>749.789519</ele>
        <time>2022-04-04T10:47:22.890Z</time>
      </trkpt>
      <trkpt lat="42.60818" lon="23.06052">
        <ele>749.90628</ele>
        <time>2022-04-04T10:47:25.885Z</time>
      </trkpt>
      <trkpt lat="42.60817" lon="23.06035">
        <ele>750.026871</ele>
        <time>2022-04-04T10:47:28.900Z</time>
      </trkpt>
      <trkpt lat="42.60815" lon="23.06018">
        <ele>750.142549</ele>
        <time>2022-04-04T10:47:31.903Z</time>
      </trkpt>
      <trkpt lat="42.60814" lon="23.06002">
        <ele>750.253799</ele>
        <time>2022-04-04T10:47:34.888Z</time>
      </trkpt>
      <trkpt lat="42.60814" lon="23.0599">
        <ele>750.340669</ele>
        <time>2022-04-04T10:47:36.912Z</time>
      </trkpt>
      <trkpt lat="42.60813" lon="23.05977">
        <ele>750.431149</ele>
        <time>2022-04-04T10:47:38.899Z</time>
      </trkpt>
      <trkpt lat="42.60812" lon="23.05964">
        <ele>750.525201</ele>
        <time>2022-04-04T10:47:40.871Z</time>
      </trkpt>
      <trkpt lat="42.60811" lon="23.0595">
        <ele>750.618626</ele>
        <time>2022-04-04T10:47:42.869Z</time>
      </trkpt>
      <trkpt lat="42.6081" lon="23.05938">
        <ele>750.70423</ele>
        <time>2022-04-04T10:47:44.885Z</time>
      </trkpt>
      <trkpt lat="42.6081" lon="23.05922">
        <ele>750.81706</ele>
        <time>2022-04-04T10:47:47.909Z</time>
      </trkpt>
      <trkpt lat="42.60808" lon="23.05903">
        <ele>750.944936</ele>
        <time>2022-04-04T10:47:50.897Z</time>
      </trkpt>
      <trkpt lat="42.60806" lon="23.05892">
        <ele>751.029555</ele>
        <time>2022-04-04T10:47:52.867Z</time>
      </trkpt>
      <trkpt lat="42.60803" lon="23.05875">
        <ele>751.148479</ele>
        <time>2022-04-04T10:47:55.888Z</time>
      </trkpt>
      <trkpt lat="42.60801" lon="23.05857">
        <ele>751.043954</ele>
        <time>2022-04-04T10:47:58.893Z</time>
      </trkpt>
      <trkpt lat="42.608" lon="23.05845">
        <ele>750.941968</ele>
        <time>2022-04-04T10:48:00.871Z</time>
      </trkpt>
      <trkpt lat="42.60798" lon="23.05829">
        <ele>750.811203</ele>
        <time>2022-04-04T10:48:03.891Z</time>
      </trkpt>
      <trkpt lat="42.60796" lon="23.05811">
        <ele>750.659693</ele>
        <time>2022-04-04T10:48:06.902Z</time>
      </trkpt>
      <trkpt lat="42.60794" lon="23.05798">
        <ele>750.553625</ele>
        <time>2022-04-04T10:48:08.873Z</time>
      </trkpt>
      <trkpt lat="42.60793" lon="23.05786">
        <ele>750.450812</ele>
        <time>2022-04-04T10:48:10.884Z</time>
      </trkpt>
      <trkpt lat="42.60792" lon="23.05768">
        <ele>750.300099</ele>
        <time>2022-04-04T10:48:13.885Z</time>
      </trkpt>
      <trkpt lat="42.60791" lon="23.05751">
        <ele>750.158413</ele>
        <time>2022-04-04T10:48:16.887Z</time>
      </trkpt>
      <trkpt lat="42.60791" lon="23.05738">
        <ele>750.052666</ele>
        <time>2022-04-04T10:48:19.891Z</time>
      </trkpt>
      <trkpt lat="42.60791" lon="23.05724">
        <ele>749.941707</ele>
        <time>2022-04-04T10:48:24.889Z</time>
      </trkpt>
      <trkpt lat="42.60792" lon="23.0571">
        <ele>749.824371</ele>
        <time>2022-04-04T10:48:27.895Z</time>
      </trkpt>
      <trkpt lat="42.60791" lon="23.05695">
        <ele>749.69452</ele>
        <time>2022-04-04T10:48:30.890Z</time>
      </trkpt>
      <trkpt lat="42.6079" lon="23.05679">
        <ele>749.565788</ele>
        <time>2022-04-04T10:48:33.887Z</time>
      </trkpt>
      <trkpt lat="42.60786" lon="23.05666">
        <ele>749.450929</ele>
        <time>2022-04-04T10:48:36.895Z</time>
      </trkpt>
      <trkpt lat="42.60782" lon="23.05653">
        <ele>749.333857</ele>
        <time>2022-04-04T10:48:40.878Z</time>
      </trkpt>
      <trkpt lat="42.60781" lon="23.05639">
        <ele>749.220344</ele>
        <time>2022-04-04T10:48:43.882Z</time>
      </trkpt>
      <trkpt lat="42.60779" lon="23.05624">
        <ele>748.981754</ele>
        <time>2022-04-04T10:48:46.893Z</time>
      </trkpt>
      <trkpt lat="42.60776" lon="23.05609">
        <ele>748.595583</ele>
        <time>2022-04-04T10:48:49.881Z</time>
      </trkpt>
      <trkpt lat="42.60774" lon="23.05593">
        <ele>748.202184</ele>
        <time>2022-04-04T10:48:52.939Z</time>
      </trkpt>
      <trkpt lat="42.60772" lon="23.05576">
        <ele>747.798586</ele>
        <time>2022-04-04T10:48:55.899Z</time>
      </trkpt>
      <trkpt lat="42.6077" lon="23.05564">
        <ele>747.500316</ele>
        <time>2022-04-04T10:48:57.889Z</time>
      </trkpt>
      <trkpt lat="42.6077" lon="23.05552">
        <ele>747.201236</ele>
        <time>2022-04-04T10:48:59.891Z</time>
      </trkpt>
      <trkpt lat="42.6077" lon="23.05539">
        <ele>746.893787</ele>
        <time>2022-04-04T10:49:01.891Z</time>
      </trkpt>
      <trkpt lat="42.6077" lon="23.05521">
        <ele>746.460676</ele>
        <time>2022-04-04T10:49:04.886Z</time>
      </trkpt>
      <trkpt lat="42.60769" lon="23.05505">
        <ele>746.067817</ele>
        <time>2022-04-04T10:49:07.899Z</time>
      </trkpt>
      <trkpt lat="42.60769" lon="23.05489">
        <ele>745.685292</ele>
        <time>2022-04-04T10:49:10.895Z</time>
      </trkpt>
      <trkpt lat="42.60768" lon="23.05473">
        <ele>745.290224</ele>
        <time>2022-04-04T10:49:13.892Z</time>
      </trkpt>
      <trkpt lat="42.60767" lon="23.05458">
        <ele>744.928967</ele>
        <time>2022-04-04T10:49:17.877Z</time>
      </trkpt>
      <trkpt lat="42.60767" lon="23.05442">
        <ele>744.54896</ele>
        <time>2022-04-04T10:49:20.918Z</time>
      </trkpt>
      <trkpt lat="42.60771" lon="23.05425">
        <ele>744.116104</ele>
        <time>2022-04-04T10:49:23.898Z</time>
      </trkpt>
      <trkpt lat="42.60773" lon="23.05412">
        <ele>743.777553</ele>
        <time>2022-04-04T10:49:25.901Z</time>
      </trkpt>
      <trkpt lat="42.60772" lon="23.05396">
        <ele>743.40457</ele>
        <time>2022-04-04T10:49:27.885Z</time>
      </trkpt>
      <trkpt lat="42.60772" lon="23.05382">
        <ele>743.468057</ele>
        <time>2022-04-04T10:49:29.919Z</time>
      </trkpt>
      <trkpt lat="42.60772" lon="23.05368">
        <ele>743.927526</ele>
        <time>2022-04-04T10:49:31.879Z</time>
      </trkpt>
      <trkpt lat="42.60772" lon="23.05354">
        <ele>744.377925</ele>
        <time>2022-04-04T10:49:33.890Z</time>
      </trkpt>
      <trkpt lat="42.60773" lon="23.0534">
        <ele>744.803692</ele>
        <time>2022-04-04T10:49:35.894Z</time>
      </trkpt>
      <trkpt lat="42.60773" lon="23.05324">
        <ele>745.330215</ele>
        <time>2022-04-04T10:49:38.878Z</time>
      </trkpt>
      <trkpt lat="42.60775" lon="23.05308">
        <ele>745.839691</ele>
        <time>2022-04-04T10:49:41.881Z</time>
      </trkpt>
      <trkpt lat="42.60776" lon="23.05291">
        <ele>746.385979</ele>
        <time>2022-04-04T10:49:44.887Z</time>
      </trkpt>
      <trkpt lat="42.60776" lon="23.05276">
        <ele>746.852313</ele>
        <time>2022-04-04T10:49:47.873Z</time>
      </trkpt>
      <trkpt lat="42.60775" lon="23.05261">
        <ele>747.33216</ele>
        <time>2022-04-04T10:49:50.891Z</time>
      </trkpt>
      <trkpt lat="42.60774" lon="23.05248">
        <ele>747.768244</ele>
        <time>2022-04-04T10:49:53.874Z</time>
      </trkpt>
      <trkpt lat="42.60774" lon="23.05234">
        <ele>748.195809</ele>
        <time>2022-04-04T10:49:56.879Z</time>
      </trkpt>
      <trkpt lat="42.60774" lon="23.05222">
        <ele>748.591825</ele>
        <time>2022-04-04T10:49:59.932Z</time>
      </trkpt>
      <trkpt lat="42.60775" lon="23.05207">
        <ele>749.085089</ele>
        <time>2022-04-04T10:50:02.929Z</time>
      </trkpt>
      <trkpt lat="42.60775" lon="23.05192">
        <ele>749.541676</ele>
        <time>2022-04-04T10:50:05.875Z</time>
      </trkpt>
      <trkpt lat="42.60775" lon="23.05179">
        <ele>749.978984</ele>
        <time>2022-04-04T10:50:09.886Z</time>
      </trkpt>
      <trkpt lat="42.60776" lon="23.05166">
        <ele>750.395595</ele>
        <time>2022-04-04T10:50:12.956Z</time>
      </trkpt>
      <trkpt lat="42.60776" lon="23.05151">
        <ele>750.875148</ele>
        <time>2022-04-04T10:50:15.887Z</time>
      </trkpt>
      <trkpt lat="42.60778" lon="23.05137">
        <ele>750.955837</ele>
        <time>2022-04-04T10:50:18.899Z</time>
      </trkpt>
      <trkpt lat="42.60781" lon="23.05122">
        <ele>750.829243</ele>
        <time>2022-04-04T10:50:21.905Z</time>
      </trkpt>
      <trkpt lat="42.60785" lon="23.05109">
        <ele>750.705302</ele>
        <time>2022-04-04T10:50:24.898Z</time>
      </trkpt>
      <trkpt lat="42.60786" lon="23.05095">
        <ele>750.585292</ele>
        <time>2022-04-04T10:50:27.894Z</time>
      </trkpt>
      <trkpt lat="42.60788" lon="23.05082">
        <ele>750.468888</ele>
        <time>2022-04-04T10:50:30.937Z</time>
      </trkpt>
      <trkpt lat="42.60788" lon="23.05068">
        <ele>750.354839</ele>
        <time>2022-04-04T10:50:33.905Z</time>
      </trkpt>
      <trkpt lat="42.60788" lon="23.05053">
        <ele>750.220211</ele>
        <time>2022-04-04T10:50:37.885Z</time>
      </trkpt>
      <trkpt lat="42.60788" lon="23.05038">
        <ele>750.098423</ele>
        <time>2022-04-04T10:50:41.892Z</time>
      </trkpt>
      <trkpt lat="42.6078" lon="23.05028">
        <ele>749.970912</ele>
        <time>2022-04-04T10:50:45.890Z</time>
      </trkpt>
      <trkpt lat="42.60769" lon="23.05021">
        <ele>749.831157</ele>
        <time>2022-04-04T10:50:48.924Z</time>
      </trkpt>
      <trkpt lat="42.60758" lon="23.0502">
        <ele>749.703597</ele>
        <time>2022-04-04T10:50:51.906Z</time>
      </trkpt>
      <trkpt lat="42.60748" lon="23.0502">
        <ele>749.587076</ele>
        <time>2022-04-04T10:50:53.884Z</time>
      </trkpt>
      <trkpt lat="42.60739" lon="23.0502">
        <ele>749.475228</ele>
        <time>2022-04-04T10:50:55.876Z</time>
      </trkpt>
      <trkpt lat="42.60728" lon="23.05018">
        <ele>749.347668</ele>
        <time>2022-04-04T10:50:58.890Z</time>
      </trkpt>
      <trkpt lat="42.60716" lon="23.05016">
        <ele>749.209325</ele>
        <time>2022-04-04T10:51:01.909Z</time>
      </trkpt>
      <trkpt lat="42.60704" lon="23.05017">
        <ele>749.069386</ele>
        <time>2022-04-04T10:51:04.889Z</time>
      </trkpt>
      <trkpt lat="42.60692" lon="23.05018">
        <ele>748.929682</ele>
        <time>2022-04-04T10:51:07.943Z</time>
      </trkpt>
      <trkpt lat="42.6068" lon="23.05018">
        <ele>748.475763</ele>
        <time>2022-04-04T10:51:10.905Z</time>
      </trkpt>
      <trkpt lat="42.6067" lon="23.05015">
        <ele>748.070485</ele>
        <time>2022-04-04T10:51:14.899Z</time>
      </trkpt>
      <trkpt lat="42.60669" lon="23.05">
        <ele>747.647649</ele>
        <time>2022-04-04T10:51:18.902Z</time>
      </trkpt>
      <trkpt lat="42.60672" lon="23.04986">
        <ele>747.260859</ele>
        <time>2022-04-04T10:51:21.882Z</time>
      </trkpt>
      <trkpt lat="42.60672" lon="23.04973">
        <ele>746.881548</ele>
        <time>2022-04-04T10:51:24.880Z</time>
      </trkpt>
      <trkpt lat="42.60675" lon="23.04959">
        <ele>746.500125</ele>
        <time>2022-04-04T10:51:27.881Z</time>
      </trkpt>
      <trkpt lat="42.60677" lon="23.04944">
        <ele>746.079122</ele>
        <time>2022-04-04T10:51:30.918Z</time>
      </trkpt>
      <trkpt lat="42.60678" lon="23.04931">
        <ele>745.690185</ele>
        <time>2022-04-04T10:51:33.925Z</time>
      </trkpt>
      <trkpt lat="42.6068" lon="23.04917">
        <ele>745.313382</ele>
        <time>2022-04-04T10:51:36.900Z</time>
      </trkpt>
      <trkpt lat="42.60681" lon="23.04905">
        <ele>744.972375</ele>
        <time>2022-04-04T10:51:39.945Z</time>
      </trkpt>
      <trkpt lat="42.60683" lon="23.04892">
        <ele>744.612305</ele>
        <time>2022-04-04T10:51:42.888Z</time>
      </trkpt>
      <trkpt lat="42.60684" lon="23.04879">
        <ele>744.241332</ele>
        <time>2022-04-04T10:51:45.916Z</time>
      </trkpt>
      <trkpt lat="42.60683" lon="23.04866">
        <ele>743.865466</ele>
        <time>2022-04-04T10:51:48.903Z</time>
      </trkpt>
      <trkpt lat="42.60685" lon="23.04852">
        <ele>743.487324</ele>
        <time>2022-04-04T10:51:51.906Z</time>
      </trkpt>
      <trkpt lat="42.60685" lon="23.0484">
        <ele>743.137656</ele>
        <time>2022-04-04T10:51:54.898Z</time>
      </trkpt>
      <trkpt lat="42.60686" lon="23.04825">
        <ele>742.733686</ele>
        <time>2022-04-04T10:51:58.890Z</time>
      </trkpt>
      <trkpt lat="42.60688" lon="23.04811">
        <ele>742.331178</ele>
        <time>2022-04-04T10:52:02.897Z</time>
      </trkpt>
      <trkpt lat="42.6069" lon="23.04796">
        <ele>742.209404</ele>
        <time>2022-04-04T10:52:07.918Z</time>
      </trkpt>
      <trkpt lat="42.60685" lon="23.04769">
        <ele>742.478349</ele>
        <time>2022-04-04T10:52:31.932Z</time>
      </trkpt>
      <trkpt lat="42.60681" lon="23.04757">
        <ele>742.609624</ele>
        <time>2022-04-04T10:52:35.919Z</time>
      </trkpt>
      <trkpt lat="42.60676" lon="23.04746">
        <ele>742.729978</ele>
        <time>2022-04-04T10:52:38.889Z</time>
      </trkpt>
      <trkpt lat="42.6067" lon="23.04732">
        <ele>742.883572</ele>
        <time>2022-04-04T10:52:41.923Z</time>
      </trkpt>
      <trkpt lat="42.60662" lon="23.04719">
        <ele>743.048429</ele>
        <time>2022-04-04T10:52:44.908Z</time>
      </trkpt>
      <trkpt lat="42.60654" lon="23.04707">
        <ele>743.210089</ele>
        <time>2022-04-04T10:52:47.914Z</time>
      </trkpt>
      <trkpt lat="42.60645" lon="23.04693">
        <ele>743.377358</ele>
        <time>2022-04-04T10:52:50.877Z</time>
      </trkpt>
      <trkpt lat="42.60637" lon="23.04681">
        <ele>743.542197</ele>
        <time>2022-04-04T10:52:53.902Z</time>
      </trkpt>
      <trkpt lat="42.60629" lon="23.04668">
        <ele>743.699954</ele>
        <time>2022-04-04T10:52:56.887Z</time>
      </trkpt>
      <trkpt lat="42.60623" lon="23.04656">
        <ele>743.840596</ele>
        <time>2022-04-04T10:52:59.876Z</time>
      </trkpt>
      <trkpt lat="42.60618" lon="23.04643">
        <ele>743.977497</ele>
        <time>2022-04-04T10:53:02.903Z</time>
      </trkpt>
      <trkpt lat="42.60613" lon="23.04631">
        <ele>744.113342</ele>
        <time>2022-04-04T10:53:05.888Z</time>
      </trkpt>
      <trkpt lat="42.60612" lon="23.04615">
        <ele>744.265465</ele>
        <time>2022-04-04T10:53:09.864Z</time>
      </trkpt>
      <trkpt lat="42.60612" lon="23.04601">
        <ele>744.394013</ele>
        <time>2022-04-04T10:53:13.886Z</time>
      </trkpt>
      <trkpt lat="42.60613" lon="23.04588">
        <ele>744.515983</ele>
        <time>2022-04-04T10:53:19.874Z</time>
      </trkpt>
      <trkpt lat="42.60616" lon="23.04564">
        <ele>744.715079</ele>
        <time>2022-04-04T10:53:50.892Z</time>
      </trkpt>
      <trkpt lat="42.60618" lon="23.04547">
        <ele>744.861555</ele>
        <time>2022-04-04T10:53:53.961Z</time>
      </trkpt>
      <trkpt lat="42.60621" lon="23.04533">
        <ele>744.980319</ele>
        <time>2022-04-04T10:53:55.888Z</time>
      </trkpt>
      <trkpt lat="42.60624" lon="23.0452">
        <ele>745.09859</ele>
        <time>2022-04-04T10:53:57.875Z</time>
      </trkpt>
      <trkpt lat="42.60627" lon="23.04506">
        <ele>745.215127</ele>
        <time>2022-04-04T10:53:59.882Z</time>
      </trkpt>
      <trkpt lat="42.60632" lon="23.04491">
        <ele>745.350383</ele>
        <time>2022-04-04T10:54:01.896Z</time>
      </trkpt>
      <trkpt lat="42.60638" lon="23.04474">
        <ele>745.509275</ele>
        <time>2022-04-04T10:54:03.883Z</time>
      </trkpt>
      <trkpt lat="42.60647" lon="23.04458">
        <ele>745.671712</ele>
        <time>2022-04-04T10:54:05.909Z</time>
      </trkpt>
      <trkpt lat="42.60653" lon="23.04443">
        <ele>745.815414</ele>
        <time>2022-04-04T10:54:07.914Z</time>
      </trkpt>
      <trkpt lat="42.60658" lon="23.04431">
        <ele>745.931652</ele>
        <time>2022-04-04T10:54:09.898Z</time>
      </trkpt>
      <trkpt lat="42.60662" lon="23.04419">
        <ele>746.045191</ele>
        <time>2022-04-04T10:54:11.925Z</time>
      </trkpt>
      <trkpt lat="42.60666" lon="23.04407">
        <ele>746.147043</ele>
        <time>2022-04-04T10:54:13.895Z</time>
      </trkpt>
      <trkpt lat="42.60672" lon="23.04391">
        <ele>746.301479</ele>
        <time>2022-04-04T10:54:16.895Z</time>
      </trkpt>
      <trkpt lat="42.60677" lon="23.04378">
        <ele>746.420972</ele>
        <time>2022-04-04T10:54:18.894Z</time>
      </trkpt>
      <trkpt lat="42.60683" lon="23.04366">
        <ele>746.487995</ele>
        <time>2022-04-04T10:54:20.927Z</time>
      </trkpt>
      <trkpt lat="42.60689" lon="23.04353">
        <ele>746.399006</ele>
        <time>2022-04-04T10:54:22.893Z</time>
      </trkpt>
      <trkpt lat="42.60697" lon="23.04339">
        <ele>746.303442</ele>
        <time>2022-04-04T10:54:24.905Z</time>
      </trkpt>
      <trkpt lat="42.60702" lon="23.04324">
        <ele>746.213353</ele>
        <time>2022-04-04T10:54:26.875Z</time>
      </trkpt>
      <trkpt lat="42.60703" lon="23.0431">
        <ele>746.134748</ele>
        <time>2022-04-04T10:54:28.885Z</time>
      </trkpt>
      <trkpt lat="42.60703" lon="23.04293">
        <ele>746.042353</ele>
        <time>2022-04-04T10:54:31.878Z</time>
      </trkpt>
      <trkpt lat="42.60702" lon="23.04279">
        <ele>745.966962</ele>
        <time>2022-04-04T10:54:34.890Z</time>
      </trkpt>
      <trkpt lat="42.60701" lon="23.04263">
        <ele>745.878069</ele>
        <time>2022-04-04T10:54:37.892Z</time>
      </trkpt>
      <trkpt lat="42.60699" lon="23.04248">
        <ele>745.790785</ele>
        <time>2022-04-04T10:54:40.896Z</time>
      </trkpt>
      <trkpt lat="42.60697" lon="23.0423">
        <ele>745.693274</ele>
        <time>2022-04-04T10:54:43.895Z</time>
      </trkpt>
      <trkpt lat="42.60696" lon="23.04217">
        <ele>745.621848</ele>
        <time>2022-04-04T10:54:45.888Z</time>
      </trkpt>
      <trkpt lat="42.60695" lon="23.04204">
        <ele>745.547782</ele>
        <time>2022-04-04T10:54:47.880Z</time>
      </trkpt>
      <trkpt lat="42.60694" lon="23.04191">
        <ele>745.477274</ele>
        <time>2022-04-04T10:54:49.899Z</time>
      </trkpt>
      <trkpt lat="42.60693" lon="23.04178">
        <ele>745.40664</ele>
        <time>2022-04-04T10:54:51.911Z</time>
      </trkpt>
      <trkpt lat="42.60693" lon="23.04162">
        <ele>745.318045</ele>
        <time>2022-04-04T10:54:53.878Z</time>
      </trkpt>
      <trkpt lat="42.60692" lon="23.04148">
        <ele>745.238717</ele>
        <time>2022-04-04T10:54:55.891Z</time>
      </trkpt>
      <trkpt lat="42.60691" lon="23.04134">
        <ele>745.16547</ele>
        <time>2022-04-04T10:54:57.861Z</time>
      </trkpt>
      <trkpt lat="42.60691" lon="23.04116">
        <ele>744.919777</ele>
        <time>2022-04-04T10:55:00.887Z</time>
      </trkpt>
      <trkpt lat="42.6069" lon="23.04101">
        <ele>744.716521</ele>
        <time>2022-04-04T10:55:02.890Z</time>
      </trkpt>
      <trkpt lat="42.6069" lon="23.04088">
        <ele>744.535122</ele>
        <time>2022-04-04T10:55:04.891Z</time>
      </trkpt>
      <trkpt lat="42.60691" lon="23.04075">
        <ele>744.368532</ele>
        <time>2022-04-04T10:55:06.931Z</time>
      </trkpt>
      <trkpt lat="42.60692" lon="23.04063">
        <ele>744.201918</ele>
        <time>2022-04-04T10:55:08.887Z</time>
      </trkpt>
      <trkpt lat="42.60694" lon="23.04046">
        <ele>743.967602</ele>
        <time>2022-04-04T10:55:11.884Z</time>
      </trkpt>
      <trkpt lat="42.60697" lon="23.04034">
        <ele>743.795345</ele>
        <time>2022-04-04T10:55:13.902Z</time>
      </trkpt>
      <trkpt lat="42.607" lon="23.04022">
        <ele>743.625117</ele>
        <time>2022-04-04T10:55:15.879Z</time>
      </trkpt>
      <trkpt lat="42.60704" lon="23.0401">
        <ele>743.449001</ele>
        <time>2022-04-04T10:55:17.877Z</time>
      </trkpt>
      <trkpt lat="42.60708" lon="23.03999">
        <ele>743.271977</ele>
        <time>2022-04-04T10:55:19.893Z</time>
      </trkpt>
      <trkpt lat="42.60714" lon="23.03987">
        <ele>743.087572</ele>
        <time>2022-04-04T10:55:21.993Z</time>
      </trkpt>
      <trkpt lat="42.6072" lon="23.03976">
        <ele>742.892369</ele>
        <time>2022-04-04T10:55:23.893Z</time>
      </trkpt>
      <trkpt lat="42.60726" lon="23.03965">
        <ele>742.705934</ele>
        <time>2022-04-04T10:55:25.904Z</time>
      </trkpt>
      <trkpt lat="42.60735" lon="23.03951">
        <ele>742.46374</ele>
        <time>2022-04-04T10:55:28.877Z</time>
      </trkpt>
      <trkpt lat="42.6074" lon="23.03942">
        <ele>742.298734</ele>
        <time>2022-04-04T10:55:30.891Z</time>
      </trkpt>
      <trkpt lat="42.60749" lon="23.03929">
        <ele>742.064132</ele>
        <time>2022-04-04T10:55:33.893Z</time>
      </trkpt>
      <trkpt lat="42.60756" lon="23.0392">
        <ele>741.888938</ele>
        <time>2022-04-04T10:55:35.881Z</time>
      </trkpt>
      <trkpt lat="42.60762" lon="23.03909">
        <ele>742.28277</ele>
        <time>2022-04-04T10:55:37.882Z</time>
      </trkpt>
      <trkpt lat="42.60769" lon="23.03898">
        <ele>742.825664</ele>
        <time>2022-04-04T10:55:39.890Z</time>
      </trkpt>
      <trkpt lat="42.60777" lon="23.03889">
        <ele>743.324021</ele>
        <time>2022-04-04T10:55:41.904Z</time>
      </trkpt>
      <trkpt lat="42.60783" lon="23.0388">
        <ele>743.775891</ele>
        <time>2022-04-04T10:55:43.934Z</time>
      </trkpt>
      <trkpt lat="42.6079" lon="23.03866">
        <ele>744.414144</ele>
        <time>2022-04-04T10:55:46.905Z</time>
      </trkpt>
      <trkpt lat="42.60798" lon="23.03852">
        <ele>745.064759</ele>
        <time>2022-04-04T10:55:49.897Z</time>
      </trkpt>
      <trkpt lat="42.60804" lon="23.03836">
        <ele>745.721127</ele>
        <time>2022-04-04T10:55:52.899Z</time>
      </trkpt>
      <trkpt lat="42.60805" lon="23.03823">
        <ele>746.211222</ele>
        <time>2022-04-04T10:55:54.897Z</time>
      </trkpt>
      <trkpt lat="42.60806" lon="23.03809">
        <ele>746.719068</ele>
        <time>2022-04-04T10:55:56.892Z</time>
      </trkpt>
      <trkpt lat="42.60806" lon="23.03797">
        <ele>747.196698</ele>
        <time>2022-04-04T10:55:58.888Z</time>
      </trkpt>
      <trkpt lat="42.60805" lon="23.0378">
        <ele>747.817035</ele>
        <time>2022-04-04T10:56:01.925Z</time>
      </trkpt>
      <trkpt lat="42.60802" lon="23.03762">
        <ele>748.474331</ele>
        <time>2022-04-04T10:56:04.900Z</time>
      </trkpt>
      <trkpt lat="42.60799" lon="23.03746">
        <ele>749.125038</ele>
        <time>2022-04-04T10:56:07.908Z</time>
      </trkpt>
      <trkpt lat="42.60794" lon="23.0373">
        <ele>749.755736</ele>
        <time>2022-04-04T10:56:10.898Z</time>
      </trkpt>
      <trkpt lat="42.6079" lon="23.03714">
        <ele>750.374349</ele>
        <time>2022-04-04T10:56:13.882Z</time>
      </trkpt>
      <trkpt lat="42.60787" lon="23.03698">
        <ele>750.827599</ele>
        <time>2022-04-04T10:56:16.893Z</time>
      </trkpt>
      <trkpt lat="42.60784" lon="23.03686">
        <ele>750.338259</ele>
        <time>2022-04-04T10:56:18.923Z</time>
      </trkpt>
      <trkpt lat="42.60781" lon="23.03674">
        <ele>749.817133</ele>
        <time>2022-04-04T10:56:20.880Z</time>
      </trkpt>
      <trkpt lat="42.60776" lon="23.03659">
        <ele>749.137262</ele>
        <time>2022-04-04T10:56:23.885Z</time>
      </trkpt>
      <trkpt lat="42.60771" lon="23.03645">
        <ele>748.537312</ele>
        <time>2022-04-04T10:56:26.890Z</time>
      </trkpt>
      <trkpt lat="42.60767" lon="23.03629">
        <ele>747.840974</ele>
        <time>2022-04-04T10:56:29.888Z</time>
      </trkpt>
      <trkpt lat="42.60765" lon="23.03615">
        <ele>747.277742</ele>
        <time>2022-04-04T10:56:32.889Z</time>
      </trkpt>
      <trkpt lat="42.60763" lon="23.036">
        <ele>746.663014</ele>
        <time>2022-04-04T10:56:35.886Z</time>
      </trkpt>
      <trkpt lat="42.60761" lon="23.03583">
        <ele>745.984904</ele>
        <time>2022-04-04T10:56:38.871Z</time>
      </trkpt>
      <trkpt lat="42.60757" lon="23.03567">
        <ele>745.285081</ele>
        <time>2022-04-04T10:56:41.906Z</time>
      </trkpt>
      <trkpt lat="42.60753" lon="23.03555">
        <ele>744.780867</ele>
        <time>2022-04-04T10:56:43.886Z</time>
      </trkpt>
      <trkpt lat="42.6075" lon="23.03542">
        <ele>744.242795</ele>
        <time>2022-04-04T10:56:45.890Z</time>
      </trkpt>
      <trkpt lat="42.60747" lon="23.03528">
        <ele>743.645246</ele>
        <time>2022-04-04T10:56:47.882Z</time>
      </trkpt>
      <trkpt lat="42.60743" lon="23.03513">
        <ele>743.014916</ele>
        <time>2022-04-04T10:56:49.906Z</time>
      </trkpt>
      <trkpt lat="42.6074" lon="23.03498">
        <ele>742.363853</ele>
        <time>2022-04-04T10:56:51.931Z</time>
      </trkpt>
      <trkpt lat="42.60736" lon="23.03482">
        <ele>741.711039</ele>
        <time>2022-04-04T10:56:53.890Z</time>
      </trkpt>
      <trkpt lat="42.60731" lon="23.03466">
        <ele>741.054306</ele>
        <time>2022-04-04T10:56:55.887Z</time>
      </trkpt>
      <trkpt lat="42.60728" lon="23.03451">
        <ele>740.661337</ele>
        <time>2022-04-04T10:56:57.900Z</time>
      </trkpt>
      <trkpt lat="42.60723" lon="23.03435">
        <ele>740.253843</ele>
        <time>2022-04-04T10:56:59.925Z</time>
      </trkpt>
      <trkpt lat="42.60719" lon="23.0342">
        <ele>739.851895</ele>
        <time>2022-04-04T10:57:01.906Z</time>
      </trkpt>
      <trkpt lat="42.60713" lon="23.03405">
        <ele>739.451496</ele>
        <time>2022-04-04T10:57:03.907Z</time>
      </trkpt>
      <trkpt lat="42.60708" lon="23.03391">
        <ele>739.061247</ele>
        <time>2022-04-04T10:57:05.882Z</time>
      </trkpt>
      <trkpt lat="42.60702" lon="23.03377">
        <ele>738.668198</ele>
        <time>2022-04-04T10:57:07.883Z</time>
      </trkpt>
      <trkpt lat="42.60697" lon="23.03363">
        <ele>738.289199</ele>
        <time>2022-04-04T10:57:09.896Z</time>
      </trkpt>
      <trkpt lat="42.6069" lon="23.03351">
        <ele>737.930755</ele>
        <time>2022-04-04T10:57:11.942Z</time>
      </trkpt>
      <trkpt lat="42.60684" lon="23.0334">
        <ele>737.586006</ele>
        <time>2022-04-04T10:57:13.891Z</time>
      </trkpt>
      <trkpt lat="42.60678" lon="23.03326">
        <ele>737.196941</ele>
        <time>2022-04-04T10:57:15.878Z</time>
      </trkpt>
      <trkpt lat="42.60671" lon="23.03312">
        <ele>736.797081</ele>
        <time>2022-04-04T10:57:17.887Z</time>
      </trkpt>
      <trkpt lat="42.60664" lon="23.03299">
        <ele>736.409204</ele>
        <time>2022-04-04T10:57:19.904Z</time>
      </trkpt>
      <trkpt lat="42.60659" lon="23.03288">
        <ele>736.069992</ele>
        <time>2022-04-04T10:57:21.898Z</time>
      </trkpt>
      <trkpt lat="42.60651" lon="23.03274">
        <ele>735.644951</ele>
        <time>2022-04-04T10:57:24.896Z</time>
      </trkpt>
      <trkpt lat="42.60643" lon="23.0326">
        <ele>735.21901</ele>
        <time>2022-04-04T10:57:27.887Z</time>
      </trkpt>
      <trkpt lat="42.60635" lon="23.03245">
        <ele>735.165797</ele>
        <time>2022-04-04T10:57:30.892Z</time>
      </trkpt>
      <trkpt lat="42.6063" lon="23.03231">
        <ele>735.165797</ele>
        <time>2022-04-04T10:57:32.888Z</time>
      </trkpt>
      <trkpt lat="42.60625" lon="23.03217">
        <ele>735.165797</ele>
        <time>2022-04-04T10:57:34.889Z</time>
      </trkpt>
      <trkpt lat="42.60622" lon="23.03203">
        <ele>735.165797</ele>
        <time>2022-04-04T10:57:36.880Z</time>
      </trkpt>
      <trkpt lat="42.6062" lon="23.03186">
        <ele>735.165797</ele>
        <time>2022-04-04T10:57:39.887Z</time>
      </trkpt>
      <trkpt lat="42.60618" lon="23.03173">
        <ele>735.165797</ele>
        <time>2022-04-04T10:57:42.929Z</time>
      </trkpt>
      <trkpt lat="42.60614" lon="23.0316">
        <ele>735.165797</ele>
        <time>2022-04-04T10:57:45.896Z</time>
      </trkpt>
      <trkpt lat="42.60607" lon="23.03148">
        <ele>735.165797</ele>
        <time>2022-04-04T10:57:48.921Z</time>
      </trkpt>
      <trkpt lat="42.60594" lon="23.03148">
        <ele>735.165797</ele>
        <time>2022-04-04T10:57:52.880Z</time>
      </trkpt>
      <trkpt lat="42.60584" lon="23.03149">
        <ele>735.165797</ele>
        <time>2022-04-04T10:57:55.959Z</time>
      </trkpt>
      <trkpt lat="42.60575" lon="23.03151">
        <ele>735.165797</ele>
        <time>2022-04-04T10:57:59.953Z</time>
      </trkpt>
      <trkpt lat="42.60547" lon="23.0315">
        <ele>735.165797</ele>
        <time>2022-04-04T10:58:37.902Z</time>
      </trkpt>
      <trkpt lat="42.60537" lon="23.03146">
        <ele>735.165797</ele>
        <time>2022-04-04T10:58:43.939Z</time>
      </trkpt>
      <trkpt lat="42.60528" lon="23.03144">
        <ele>735.165797</ele>
        <time>2022-04-04T10:58:47.927Z</time>
      </trkpt>
      <trkpt lat="42.60522" lon="23.03156">
        <ele>735.165797</ele>
        <time>2022-04-04T10:58:56.887Z</time>
      </trkpt>
      <trkpt lat="42.60516" lon="23.03168">
        <ele>735.165797</ele>
        <time>2022-04-04T10:59:00.936Z</time>
      </trkpt>
      <trkpt lat="42.60508" lon="23.03176">
        <ele>735.165797</ele>
        <time>2022-04-04T10:59:04.872Z</time>
      </trkpt>
      <trkpt lat="42.60498" lon="23.03179">
        <ele>735.165797</ele>
        <time>2022-04-04T10:59:08.893Z</time>
      </trkpt>
      <trkpt lat="42.60476" lon="23.03182">
        <ele>735.165797</ele>
        <time>2022-04-04T11:00:43.904Z</time>
      </trkpt>
      <trkpt lat="42.60496" lon="23.03185">
        <ele>735.165797</ele>
        <time>2022-04-04T11:01:06.716Z</time>
      </trkpt>
    </trkseg>
  </trk>
</gpx>